<?xml version="1.0" encoding="UTF-8" standalone="no" ?>
<gpx xmlns="http://www.topografix.com/GPX/1/1" xmlns:xsi="http://www.w3.org/2001/XMLSchema-instance" xsi:schemaLocation="http://www.topografix.com/GPX/1/1 http://www.topografix.com/GPX/1/1/gpx.xsd" version="1.1" creator="VisuGPX - https://www.visugpx.com">
  <metadata>
    <name>O-S-Rouans Chéméré St Hilaire Chaléons St Pazanne St Mars Coutais Bouaye</name>
    <desc><![CDATA[O-S-Rouans Chéméré St Hilaire Chaléons St Pazanne St Mars Coutais Bouaye]]></desc>
  </metadata>
  <trk>
    <name><![CDATA[2022-04-09 11:42 GMT+2]]></name>
    <trkseg>
      <trkpt lat="47.16776" lon="-1.62654">
        <ele>80</ele>
        <time>2022-04-09T09:42:42Z</time>
      </trkpt>
      <trkpt lat="47.16778" lon="-1.6265">
        <ele>69</ele>
        <time>2022-04-09T09:44:43Z</time>
      </trkpt>
      <trkpt lat="47.16783" lon="-1.62662">
        <ele>76</ele>
        <time>2022-04-09T09:45:48Z</time>
      </trkpt>
      <trkpt lat="47.16774" lon="-1.62677">
        <ele>74</ele>
        <time>2022-04-09T09:45:51Z</time>
      </trkpt>
      <trkpt lat="47.16764" lon="-1.62678">
        <ele>72</ele>
        <time>2022-04-09T09:45:53Z</time>
      </trkpt>
      <trkpt lat="47.16755" lon="-1.62672">
        <ele>72</ele>
        <time>2022-04-09T09:45:55Z</time>
      </trkpt>
      <trkpt lat="47.16744" lon="-1.62675">
        <ele>72</ele>
        <time>2022-04-09T09:45:57Z</time>
      </trkpt>
      <trkpt lat="47.16734" lon="-1.62682">
        <ele>73</ele>
        <time>2022-04-09T09:45:59Z</time>
      </trkpt>
      <trkpt lat="47.16724" lon="-1.62689">
        <ele>73</ele>
        <time>2022-04-09T09:46:01Z</time>
      </trkpt>
      <trkpt lat="47.16718" lon="-1.62701">
        <ele>73</ele>
        <time>2022-04-09T09:46:03Z</time>
      </trkpt>
      <trkpt lat="47.16723" lon="-1.62717">
        <ele>73</ele>
        <time>2022-04-09T09:46:05Z</time>
      </trkpt>
      <trkpt lat="47.16731" lon="-1.62731">
        <ele>73</ele>
        <time>2022-04-09T09:46:07Z</time>
      </trkpt>
      <trkpt lat="47.1674" lon="-1.62744">
        <ele>73</ele>
        <time>2022-04-09T09:46:09Z</time>
      </trkpt>
      <trkpt lat="47.16749" lon="-1.62757">
        <ele>73</ele>
        <time>2022-04-09T09:46:11Z</time>
      </trkpt>
      <trkpt lat="47.1676" lon="-1.62768">
        <ele>72</ele>
        <time>2022-04-09T09:46:13Z</time>
      </trkpt>
      <trkpt lat="47.16771" lon="-1.62779">
        <ele>72</ele>
        <time>2022-04-09T09:46:15Z</time>
      </trkpt>
      <trkpt lat="47.16782" lon="-1.62789">
        <ele>72</ele>
        <time>2022-04-09T09:46:17Z</time>
      </trkpt>
      <trkpt lat="47.16792" lon="-1.628">
        <ele>71</ele>
        <time>2022-04-09T09:46:19Z</time>
      </trkpt>
      <trkpt lat="47.16803" lon="-1.62811">
        <ele>72</ele>
        <time>2022-04-09T09:46:21Z</time>
      </trkpt>
      <trkpt lat="47.16814" lon="-1.62821">
        <ele>72</ele>
        <time>2022-04-09T09:46:23Z</time>
      </trkpt>
      <trkpt lat="47.16824" lon="-1.62832">
        <ele>72</ele>
        <time>2022-04-09T09:46:25Z</time>
      </trkpt>
      <trkpt lat="47.16835" lon="-1.6284">
        <ele>72</ele>
        <time>2022-04-09T09:46:27Z</time>
      </trkpt>
      <trkpt lat="47.16846" lon="-1.6285">
        <ele>73</ele>
        <time>2022-04-09T09:46:29Z</time>
      </trkpt>
      <trkpt lat="47.16856" lon="-1.6286">
        <ele>73</ele>
        <time>2022-04-09T09:46:31Z</time>
      </trkpt>
      <trkpt lat="47.16866" lon="-1.62871">
        <ele>74</ele>
        <time>2022-04-09T09:46:33Z</time>
      </trkpt>
      <trkpt lat="47.16874" lon="-1.62882">
        <ele>74</ele>
        <time>2022-04-09T09:46:35Z</time>
      </trkpt>
      <trkpt lat="47.16881" lon="-1.62896">
        <ele>74</ele>
        <time>2022-04-09T09:46:37Z</time>
      </trkpt>
      <trkpt lat="47.16887" lon="-1.62912">
        <ele>74</ele>
        <time>2022-04-09T09:46:39Z</time>
      </trkpt>
      <trkpt lat="47.1689" lon="-1.62928">
        <ele>75</ele>
        <time>2022-04-09T09:46:41Z</time>
      </trkpt>
      <trkpt lat="47.16892" lon="-1.62945">
        <ele>75</ele>
        <time>2022-04-09T09:46:43Z</time>
      </trkpt>
      <trkpt lat="47.16892" lon="-1.62962">
        <ele>75</ele>
        <time>2022-04-09T09:46:45Z</time>
      </trkpt>
      <trkpt lat="47.16892" lon="-1.62981">
        <ele>75</ele>
        <time>2022-04-09T09:46:47Z</time>
      </trkpt>
      <trkpt lat="47.1689" lon="-1.62999">
        <ele>75</ele>
        <time>2022-04-09T09:46:49Z</time>
      </trkpt>
      <trkpt lat="47.16888" lon="-1.63016">
        <ele>76</ele>
        <time>2022-04-09T09:46:51Z</time>
      </trkpt>
      <trkpt lat="47.16887" lon="-1.63034">
        <ele>76</ele>
        <time>2022-04-09T09:46:53Z</time>
      </trkpt>
      <trkpt lat="47.16887" lon="-1.63052">
        <ele>76</ele>
        <time>2022-04-09T09:46:55Z</time>
      </trkpt>
      <trkpt lat="47.16889" lon="-1.6307">
        <ele>77</ele>
        <time>2022-04-09T09:46:57Z</time>
      </trkpt>
      <trkpt lat="47.16891" lon="-1.63087">
        <ele>77</ele>
        <time>2022-04-09T09:46:59Z</time>
      </trkpt>
      <trkpt lat="47.16894" lon="-1.63103">
        <ele>77</ele>
        <time>2022-04-09T09:47:01Z</time>
      </trkpt>
      <trkpt lat="47.16899" lon="-1.63119">
        <ele>78</ele>
        <time>2022-04-09T09:47:03Z</time>
      </trkpt>
      <trkpt lat="47.16903" lon="-1.63135">
        <ele>78</ele>
        <time>2022-04-09T09:47:05Z</time>
      </trkpt>
      <trkpt lat="47.16908" lon="-1.6315">
        <ele>78</ele>
        <time>2022-04-09T09:47:07Z</time>
      </trkpt>
      <trkpt lat="47.16914" lon="-1.63165">
        <ele>79</ele>
        <time>2022-04-09T09:47:09Z</time>
      </trkpt>
      <trkpt lat="47.16921" lon="-1.63179">
        <ele>79</ele>
        <time>2022-04-09T09:47:11Z</time>
      </trkpt>
      <trkpt lat="47.16928" lon="-1.63193">
        <ele>79</ele>
        <time>2022-04-09T09:47:13Z</time>
      </trkpt>
      <trkpt lat="47.16936" lon="-1.63206">
        <ele>79</ele>
        <time>2022-04-09T09:47:15Z</time>
      </trkpt>
      <trkpt lat="47.16944" lon="-1.63217">
        <ele>79</ele>
        <time>2022-04-09T09:47:17Z</time>
      </trkpt>
      <trkpt lat="47.16951" lon="-1.63227">
        <ele>79</ele>
        <time>2022-04-09T09:47:19Z</time>
      </trkpt>
      <trkpt lat="47.16958" lon="-1.63237">
        <ele>79</ele>
        <time>2022-04-09T09:47:21Z</time>
      </trkpt>
      <trkpt lat="47.16967" lon="-1.63248">
        <ele>79</ele>
        <time>2022-04-09T09:47:24Z</time>
      </trkpt>
      <trkpt lat="47.16965" lon="-1.63263">
        <ele>79</ele>
        <time>2022-04-09T09:47:27Z</time>
      </trkpt>
      <trkpt lat="47.16957" lon="-1.63275">
        <ele>79</ele>
        <time>2022-04-09T09:47:29Z</time>
      </trkpt>
      <trkpt lat="47.1695" lon="-1.63288">
        <ele>79</ele>
        <time>2022-04-09T09:47:31Z</time>
      </trkpt>
      <trkpt lat="47.16941" lon="-1.63302">
        <ele>79</ele>
        <time>2022-04-09T09:47:33Z</time>
      </trkpt>
      <trkpt lat="47.16933" lon="-1.63316">
        <ele>79</ele>
        <time>2022-04-09T09:47:35Z</time>
      </trkpt>
      <trkpt lat="47.16924" lon="-1.63329">
        <ele>80</ele>
        <time>2022-04-09T09:47:37Z</time>
      </trkpt>
      <trkpt lat="47.16916" lon="-1.63341">
        <ele>80</ele>
        <time>2022-04-09T09:47:39Z</time>
      </trkpt>
      <trkpt lat="47.16907" lon="-1.63354">
        <ele>79</ele>
        <time>2022-04-09T09:47:41Z</time>
      </trkpt>
      <trkpt lat="47.16899" lon="-1.63366">
        <ele>80</ele>
        <time>2022-04-09T09:47:43Z</time>
      </trkpt>
      <trkpt lat="47.16891" lon="-1.63379">
        <ele>80</ele>
        <time>2022-04-09T09:47:45Z</time>
      </trkpt>
      <trkpt lat="47.16883" lon="-1.63392">
        <ele>80</ele>
        <time>2022-04-09T09:47:47Z</time>
      </trkpt>
      <trkpt lat="47.16875" lon="-1.63406">
        <ele>80</ele>
        <time>2022-04-09T09:47:49Z</time>
      </trkpt>
      <trkpt lat="47.16867" lon="-1.6342">
        <ele>81</ele>
        <time>2022-04-09T09:47:51Z</time>
      </trkpt>
      <trkpt lat="47.1686" lon="-1.63433">
        <ele>81</ele>
        <time>2022-04-09T09:47:53Z</time>
      </trkpt>
      <trkpt lat="47.16852" lon="-1.63447">
        <ele>81</ele>
        <time>2022-04-09T09:47:55Z</time>
      </trkpt>
      <trkpt lat="47.16844" lon="-1.63459">
        <ele>81</ele>
        <time>2022-04-09T09:47:57Z</time>
      </trkpt>
      <trkpt lat="47.16836" lon="-1.63473">
        <ele>81</ele>
        <time>2022-04-09T09:47:59Z</time>
      </trkpt>
      <trkpt lat="47.16828" lon="-1.63487">
        <ele>80</ele>
        <time>2022-04-09T09:48:01Z</time>
      </trkpt>
      <trkpt lat="47.16819" lon="-1.635">
        <ele>81</ele>
        <time>2022-04-09T09:48:03Z</time>
      </trkpt>
      <trkpt lat="47.16811" lon="-1.63514">
        <ele>81</ele>
        <time>2022-04-09T09:48:05Z</time>
      </trkpt>
      <trkpt lat="47.16803" lon="-1.63528">
        <ele>80</ele>
        <time>2022-04-09T09:48:07Z</time>
      </trkpt>
      <trkpt lat="47.16795" lon="-1.63541">
        <ele>80</ele>
        <time>2022-04-09T09:48:09Z</time>
      </trkpt>
      <trkpt lat="47.16787" lon="-1.63555">
        <ele>80</ele>
        <time>2022-04-09T09:48:11Z</time>
      </trkpt>
      <trkpt lat="47.16779" lon="-1.63569">
        <ele>80</ele>
        <time>2022-04-09T09:48:13Z</time>
      </trkpt>
      <trkpt lat="47.16771" lon="-1.63582">
        <ele>81</ele>
        <time>2022-04-09T09:48:15Z</time>
      </trkpt>
      <trkpt lat="47.16763" lon="-1.63595">
        <ele>80</ele>
        <time>2022-04-09T09:48:17Z</time>
      </trkpt>
      <trkpt lat="47.16756" lon="-1.63609">
        <ele>80</ele>
        <time>2022-04-09T09:48:19Z</time>
      </trkpt>
      <trkpt lat="47.16748" lon="-1.63621">
        <ele>81</ele>
        <time>2022-04-09T09:48:21Z</time>
      </trkpt>
      <trkpt lat="47.16744" lon="-1.63635">
        <ele>80</ele>
        <time>2022-04-09T09:48:23Z</time>
      </trkpt>
      <trkpt lat="47.16753" lon="-1.63647">
        <ele>80</ele>
        <time>2022-04-09T09:48:25Z</time>
      </trkpt>
      <trkpt lat="47.16764" lon="-1.63651">
        <ele>80</ele>
        <time>2022-04-09T09:48:27Z</time>
      </trkpt>
      <trkpt lat="47.16777" lon="-1.63655">
        <ele>80</ele>
        <time>2022-04-09T09:48:29Z</time>
      </trkpt>
      <trkpt lat="47.16789" lon="-1.63659">
        <ele>79</ele>
        <time>2022-04-09T09:48:31Z</time>
      </trkpt>
      <trkpt lat="47.16801" lon="-1.63664">
        <ele>79</ele>
        <time>2022-04-09T09:48:33Z</time>
      </trkpt>
      <trkpt lat="47.16813" lon="-1.63668">
        <ele>79</ele>
        <time>2022-04-09T09:48:35Z</time>
      </trkpt>
      <trkpt lat="47.16825" lon="-1.63672">
        <ele>80</ele>
        <time>2022-04-09T09:48:37Z</time>
      </trkpt>
      <trkpt lat="47.16837" lon="-1.63677">
        <ele>80</ele>
        <time>2022-04-09T09:48:39Z</time>
      </trkpt>
      <trkpt lat="47.16849" lon="-1.63681">
        <ele>80</ele>
        <time>2022-04-09T09:48:41Z</time>
      </trkpt>
      <trkpt lat="47.16862" lon="-1.63686">
        <ele>80</ele>
        <time>2022-04-09T09:48:43Z</time>
      </trkpt>
      <trkpt lat="47.16874" lon="-1.63691">
        <ele>80</ele>
        <time>2022-04-09T09:48:45Z</time>
      </trkpt>
      <trkpt lat="47.16886" lon="-1.63695">
        <ele>80</ele>
        <time>2022-04-09T09:48:47Z</time>
      </trkpt>
      <trkpt lat="47.16899" lon="-1.63699">
        <ele>80</ele>
        <time>2022-04-09T09:48:49Z</time>
      </trkpt>
      <trkpt lat="47.16911" lon="-1.63704">
        <ele>80</ele>
        <time>2022-04-09T09:48:51Z</time>
      </trkpt>
      <trkpt lat="47.16924" lon="-1.63709">
        <ele>80</ele>
        <time>2022-04-09T09:48:53Z</time>
      </trkpt>
      <trkpt lat="47.16937" lon="-1.63714">
        <ele>79</ele>
        <time>2022-04-09T09:48:55Z</time>
      </trkpt>
      <trkpt lat="47.16949" lon="-1.63718">
        <ele>79</ele>
        <time>2022-04-09T09:48:57Z</time>
      </trkpt>
      <trkpt lat="47.16961" lon="-1.63723">
        <ele>79</ele>
        <time>2022-04-09T09:48:59Z</time>
      </trkpt>
      <trkpt lat="47.16973" lon="-1.63727">
        <ele>79</ele>
        <time>2022-04-09T09:49:01Z</time>
      </trkpt>
      <trkpt lat="47.16986" lon="-1.63732">
        <ele>79</ele>
        <time>2022-04-09T09:49:03Z</time>
      </trkpt>
      <trkpt lat="47.16998" lon="-1.63737">
        <ele>80</ele>
        <time>2022-04-09T09:49:05Z</time>
      </trkpt>
      <trkpt lat="47.17017" lon="-1.63744">
        <ele>79</ele>
        <time>2022-04-09T09:49:08Z</time>
      </trkpt>
      <trkpt lat="47.17029" lon="-1.63749">
        <ele>79</ele>
        <time>2022-04-09T09:49:10Z</time>
      </trkpt>
      <trkpt lat="47.17041" lon="-1.63754">
        <ele>79</ele>
        <time>2022-04-09T09:49:12Z</time>
      </trkpt>
      <trkpt lat="47.17053" lon="-1.63762">
        <ele>80</ele>
        <time>2022-04-09T09:49:14Z</time>
      </trkpt>
      <trkpt lat="47.17063" lon="-1.63774">
        <ele>79</ele>
        <time>2022-04-09T09:49:16Z</time>
      </trkpt>
      <trkpt lat="47.17069" lon="-1.6379">
        <ele>79</ele>
        <time>2022-04-09T09:49:18Z</time>
      </trkpt>
      <trkpt lat="47.17074" lon="-1.63806">
        <ele>80</ele>
        <time>2022-04-09T09:49:20Z</time>
      </trkpt>
      <trkpt lat="47.1708" lon="-1.63823">
        <ele>80</ele>
        <time>2022-04-09T09:49:22Z</time>
      </trkpt>
      <trkpt lat="47.17085" lon="-1.6384">
        <ele>79</ele>
        <time>2022-04-09T09:49:24Z</time>
      </trkpt>
      <trkpt lat="47.17091" lon="-1.63857">
        <ele>79</ele>
        <time>2022-04-09T09:49:26Z</time>
      </trkpt>
      <trkpt lat="47.17097" lon="-1.63873">
        <ele>79</ele>
        <time>2022-04-09T09:49:28Z</time>
      </trkpt>
      <trkpt lat="47.17103" lon="-1.63889">
        <ele>79</ele>
        <time>2022-04-09T09:49:30Z</time>
      </trkpt>
      <trkpt lat="47.17109" lon="-1.63905">
        <ele>79</ele>
        <time>2022-04-09T09:49:32Z</time>
      </trkpt>
      <trkpt lat="47.17115" lon="-1.63921">
        <ele>79</ele>
        <time>2022-04-09T09:49:34Z</time>
      </trkpt>
      <trkpt lat="47.17121" lon="-1.63935">
        <ele>79</ele>
        <time>2022-04-09T09:49:36Z</time>
      </trkpt>
      <trkpt lat="47.17131" lon="-1.63942">
        <ele>79</ele>
        <time>2022-04-09T09:49:39Z</time>
      </trkpt>
      <trkpt lat="47.17139" lon="-1.63953">
        <ele>79</ele>
        <time>2022-04-09T09:49:45Z</time>
      </trkpt>
      <trkpt lat="47.1714" lon="-1.63967">
        <ele>79</ele>
        <time>2022-04-09T09:49:47Z</time>
      </trkpt>
      <trkpt lat="47.1714" lon="-1.63985">
        <ele>80</ele>
        <time>2022-04-09T09:49:49Z</time>
      </trkpt>
      <trkpt lat="47.17138" lon="-1.64004">
        <ele>79</ele>
        <time>2022-04-09T09:49:51Z</time>
      </trkpt>
      <trkpt lat="47.17136" lon="-1.64023">
        <ele>79</ele>
        <time>2022-04-09T09:49:53Z</time>
      </trkpt>
      <trkpt lat="47.17134" lon="-1.64042">
        <ele>79</ele>
        <time>2022-04-09T09:49:55Z</time>
      </trkpt>
      <trkpt lat="47.17132" lon="-1.64061">
        <ele>79</ele>
        <time>2022-04-09T09:49:57Z</time>
      </trkpt>
      <trkpt lat="47.1713" lon="-1.6408">
        <ele>79</ele>
        <time>2022-04-09T09:49:59Z</time>
      </trkpt>
      <trkpt lat="47.17128" lon="-1.641">
        <ele>79</ele>
        <time>2022-04-09T09:50:01Z</time>
      </trkpt>
      <trkpt lat="47.17126" lon="-1.64119">
        <ele>78</ele>
        <time>2022-04-09T09:50:03Z</time>
      </trkpt>
      <trkpt lat="47.17123" lon="-1.64138">
        <ele>79</ele>
        <time>2022-04-09T09:50:05Z</time>
      </trkpt>
      <trkpt lat="47.17121" lon="-1.64157">
        <ele>79</ele>
        <time>2022-04-09T09:50:07Z</time>
      </trkpt>
      <trkpt lat="47.17119" lon="-1.64177">
        <ele>80</ele>
        <time>2022-04-09T09:50:09Z</time>
      </trkpt>
      <trkpt lat="47.17117" lon="-1.64196">
        <ele>80</ele>
        <time>2022-04-09T09:50:11Z</time>
      </trkpt>
      <trkpt lat="47.17115" lon="-1.64215">
        <ele>80</ele>
        <time>2022-04-09T09:50:13Z</time>
      </trkpt>
      <trkpt lat="47.17114" lon="-1.64234">
        <ele>80</ele>
        <time>2022-04-09T09:50:15Z</time>
      </trkpt>
      <trkpt lat="47.17111" lon="-1.64253">
        <ele>80</ele>
        <time>2022-04-09T09:50:17Z</time>
      </trkpt>
      <trkpt lat="47.1711" lon="-1.64272">
        <ele>79</ele>
        <time>2022-04-09T09:50:19Z</time>
      </trkpt>
      <trkpt lat="47.17107" lon="-1.64291">
        <ele>79</ele>
        <time>2022-04-09T09:50:21Z</time>
      </trkpt>
      <trkpt lat="47.17105" lon="-1.64311">
        <ele>79</ele>
        <time>2022-04-09T09:50:23Z</time>
      </trkpt>
      <trkpt lat="47.17103" lon="-1.64331">
        <ele>78</ele>
        <time>2022-04-09T09:50:25Z</time>
      </trkpt>
      <trkpt lat="47.17101" lon="-1.6435">
        <ele>79</ele>
        <time>2022-04-09T09:50:27Z</time>
      </trkpt>
      <trkpt lat="47.17099" lon="-1.6437">
        <ele>79</ele>
        <time>2022-04-09T09:50:29Z</time>
      </trkpt>
      <trkpt lat="47.17098" lon="-1.64389">
        <ele>78</ele>
        <time>2022-04-09T09:50:31Z</time>
      </trkpt>
      <trkpt lat="47.17097" lon="-1.64409">
        <ele>78</ele>
        <time>2022-04-09T09:50:33Z</time>
      </trkpt>
      <trkpt lat="47.17095" lon="-1.6443">
        <ele>78</ele>
        <time>2022-04-09T09:50:35Z</time>
      </trkpt>
      <trkpt lat="47.17094" lon="-1.64451">
        <ele>78</ele>
        <time>2022-04-09T09:50:37Z</time>
      </trkpt>
      <trkpt lat="47.17092" lon="-1.64473">
        <ele>78</ele>
        <time>2022-04-09T09:50:39Z</time>
      </trkpt>
      <trkpt lat="47.17091" lon="-1.64493">
        <ele>78</ele>
        <time>2022-04-09T09:50:41Z</time>
      </trkpt>
      <trkpt lat="47.1709" lon="-1.64514">
        <ele>78</ele>
        <time>2022-04-09T09:50:43Z</time>
      </trkpt>
      <trkpt lat="47.1709" lon="-1.64534">
        <ele>78</ele>
        <time>2022-04-09T09:50:45Z</time>
      </trkpt>
      <trkpt lat="47.17089" lon="-1.64556">
        <ele>78</ele>
        <time>2022-04-09T09:50:47Z</time>
      </trkpt>
      <trkpt lat="47.17088" lon="-1.64577">
        <ele>78</ele>
        <time>2022-04-09T09:50:49Z</time>
      </trkpt>
      <trkpt lat="47.17088" lon="-1.64597">
        <ele>79</ele>
        <time>2022-04-09T09:50:51Z</time>
      </trkpt>
      <trkpt lat="47.17088" lon="-1.64618">
        <ele>79</ele>
        <time>2022-04-09T09:50:53Z</time>
      </trkpt>
      <trkpt lat="47.17088" lon="-1.64639">
        <ele>79</ele>
        <time>2022-04-09T09:50:55Z</time>
      </trkpt>
      <trkpt lat="47.17088" lon="-1.6466">
        <ele>79</ele>
        <time>2022-04-09T09:50:57Z</time>
      </trkpt>
      <trkpt lat="47.17088" lon="-1.64681">
        <ele>79</ele>
        <time>2022-04-09T09:50:59Z</time>
      </trkpt>
      <trkpt lat="47.17089" lon="-1.64702">
        <ele>79</ele>
        <time>2022-04-09T09:51:01Z</time>
      </trkpt>
      <trkpt lat="47.1709" lon="-1.64724">
        <ele>78</ele>
        <time>2022-04-09T09:51:03Z</time>
      </trkpt>
      <trkpt lat="47.17091" lon="-1.64745">
        <ele>78</ele>
        <time>2022-04-09T09:51:05Z</time>
      </trkpt>
      <trkpt lat="47.17092" lon="-1.64765">
        <ele>79</ele>
        <time>2022-04-09T09:51:07Z</time>
      </trkpt>
      <trkpt lat="47.17093" lon="-1.64785">
        <ele>79</ele>
        <time>2022-04-09T09:51:09Z</time>
      </trkpt>
      <trkpt lat="47.17093" lon="-1.64805">
        <ele>79</ele>
        <time>2022-04-09T09:51:11Z</time>
      </trkpt>
      <trkpt lat="47.17095" lon="-1.64827">
        <ele>79</ele>
        <time>2022-04-09T09:51:13Z</time>
      </trkpt>
      <trkpt lat="47.17096" lon="-1.64848">
        <ele>79</ele>
        <time>2022-04-09T09:51:15Z</time>
      </trkpt>
      <trkpt lat="47.17098" lon="-1.64869">
        <ele>79</ele>
        <time>2022-04-09T09:51:17Z</time>
      </trkpt>
      <trkpt lat="47.17099" lon="-1.64889">
        <ele>79</ele>
        <time>2022-04-09T09:51:19Z</time>
      </trkpt>
      <trkpt lat="47.17101" lon="-1.64911">
        <ele>79</ele>
        <time>2022-04-09T09:51:21Z</time>
      </trkpt>
      <trkpt lat="47.17103" lon="-1.64931">
        <ele>79</ele>
        <time>2022-04-09T09:51:23Z</time>
      </trkpt>
      <trkpt lat="47.17105" lon="-1.64951">
        <ele>79</ele>
        <time>2022-04-09T09:51:25Z</time>
      </trkpt>
      <trkpt lat="47.17106" lon="-1.64972">
        <ele>79</ele>
        <time>2022-04-09T09:51:27Z</time>
      </trkpt>
      <trkpt lat="47.17108" lon="-1.64993">
        <ele>79</ele>
        <time>2022-04-09T09:51:29Z</time>
      </trkpt>
      <trkpt lat="47.17109" lon="-1.65013">
        <ele>79</ele>
        <time>2022-04-09T09:51:31Z</time>
      </trkpt>
      <trkpt lat="47.1711" lon="-1.65033">
        <ele>79</ele>
        <time>2022-04-09T09:51:33Z</time>
      </trkpt>
      <trkpt lat="47.17112" lon="-1.65054">
        <ele>79</ele>
        <time>2022-04-09T09:51:35Z</time>
      </trkpt>
      <trkpt lat="47.17113" lon="-1.65073">
        <ele>80</ele>
        <time>2022-04-09T09:51:37Z</time>
      </trkpt>
      <trkpt lat="47.17115" lon="-1.65093">
        <ele>80</ele>
        <time>2022-04-09T09:51:39Z</time>
      </trkpt>
      <trkpt lat="47.17116" lon="-1.65113">
        <ele>80</ele>
        <time>2022-04-09T09:51:41Z</time>
      </trkpt>
      <trkpt lat="47.17118" lon="-1.65133">
        <ele>80</ele>
        <time>2022-04-09T09:51:43Z</time>
      </trkpt>
      <trkpt lat="47.17119" lon="-1.65153">
        <ele>80</ele>
        <time>2022-04-09T09:51:45Z</time>
      </trkpt>
      <trkpt lat="47.17121" lon="-1.65172">
        <ele>80</ele>
        <time>2022-04-09T09:51:47Z</time>
      </trkpt>
      <trkpt lat="47.17122" lon="-1.6519">
        <ele>80</ele>
        <time>2022-04-09T09:51:49Z</time>
      </trkpt>
      <trkpt lat="47.17123" lon="-1.65208">
        <ele>81</ele>
        <time>2022-04-09T09:51:51Z</time>
      </trkpt>
      <trkpt lat="47.17125" lon="-1.65226">
        <ele>81</ele>
        <time>2022-04-09T09:51:53Z</time>
      </trkpt>
      <trkpt lat="47.17125" lon="-1.65243">
        <ele>81</ele>
        <time>2022-04-09T09:51:55Z</time>
      </trkpt>
      <trkpt lat="47.17128" lon="-1.65261">
        <ele>82</ele>
        <time>2022-04-09T09:51:57Z</time>
      </trkpt>
      <trkpt lat="47.17133" lon="-1.65277">
        <ele>82</ele>
        <time>2022-04-09T09:51:59Z</time>
      </trkpt>
      <trkpt lat="47.17138" lon="-1.65294">
        <ele>82</ele>
        <time>2022-04-09T09:52:01Z</time>
      </trkpt>
      <trkpt lat="47.17139" lon="-1.65312">
        <ele>82</ele>
        <time>2022-04-09T09:52:03Z</time>
      </trkpt>
      <trkpt lat="47.17133" lon="-1.65328">
        <ele>82</ele>
        <time>2022-04-09T09:52:05Z</time>
      </trkpt>
      <trkpt lat="47.17125" lon="-1.65342">
        <ele>82</ele>
        <time>2022-04-09T09:52:07Z</time>
      </trkpt>
      <trkpt lat="47.17118" lon="-1.65356">
        <ele>83</ele>
        <time>2022-04-09T09:52:09Z</time>
      </trkpt>
      <trkpt lat="47.17118" lon="-1.65374">
        <ele>83</ele>
        <time>2022-04-09T09:52:11Z</time>
      </trkpt>
      <trkpt lat="47.17119" lon="-1.65391">
        <ele>83</ele>
        <time>2022-04-09T09:52:13Z</time>
      </trkpt>
      <trkpt lat="47.1712" lon="-1.65406">
        <ele>84</ele>
        <time>2022-04-09T09:52:15Z</time>
      </trkpt>
      <trkpt lat="47.1712" lon="-1.65422">
        <ele>84</ele>
        <time>2022-04-09T09:52:17Z</time>
      </trkpt>
      <trkpt lat="47.17121" lon="-1.65438">
        <ele>84</ele>
        <time>2022-04-09T09:52:19Z</time>
      </trkpt>
      <trkpt lat="47.1712" lon="-1.65454">
        <ele>85</ele>
        <time>2022-04-09T09:52:21Z</time>
      </trkpt>
      <trkpt lat="47.17119" lon="-1.65469">
        <ele>86</ele>
        <time>2022-04-09T09:52:23Z</time>
      </trkpt>
      <trkpt lat="47.17117" lon="-1.65485">
        <ele>86</ele>
        <time>2022-04-09T09:52:25Z</time>
      </trkpt>
      <trkpt lat="47.17114" lon="-1.655">
        <ele>87</ele>
        <time>2022-04-09T09:52:27Z</time>
      </trkpt>
      <trkpt lat="47.1711" lon="-1.65513">
        <ele>87</ele>
        <time>2022-04-09T09:52:29Z</time>
      </trkpt>
      <trkpt lat="47.17105" lon="-1.65527">
        <ele>88</ele>
        <time>2022-04-09T09:52:31Z</time>
      </trkpt>
      <trkpt lat="47.17099" lon="-1.6554">
        <ele>88</ele>
        <time>2022-04-09T09:52:33Z</time>
      </trkpt>
      <trkpt lat="47.17093" lon="-1.65553">
        <ele>88</ele>
        <time>2022-04-09T09:52:35Z</time>
      </trkpt>
      <trkpt lat="47.17086" lon="-1.65564">
        <ele>88</ele>
        <time>2022-04-09T09:52:37Z</time>
      </trkpt>
      <trkpt lat="47.1708" lon="-1.65576">
        <ele>88</ele>
        <time>2022-04-09T09:52:39Z</time>
      </trkpt>
      <trkpt lat="47.17073" lon="-1.65587">
        <ele>88</ele>
        <time>2022-04-09T09:52:41Z</time>
      </trkpt>
      <trkpt lat="47.17066" lon="-1.65599">
        <ele>88</ele>
        <time>2022-04-09T09:52:43Z</time>
      </trkpt>
      <trkpt lat="47.1706" lon="-1.65611">
        <ele>88</ele>
        <time>2022-04-09T09:52:45Z</time>
      </trkpt>
      <trkpt lat="47.17053" lon="-1.65623">
        <ele>88</ele>
        <time>2022-04-09T09:52:47Z</time>
      </trkpt>
      <trkpt lat="47.17045" lon="-1.65636">
        <ele>87</ele>
        <time>2022-04-09T09:52:49Z</time>
      </trkpt>
      <trkpt lat="47.17038" lon="-1.6565">
        <ele>87</ele>
        <time>2022-04-09T09:52:51Z</time>
      </trkpt>
      <trkpt lat="47.1703" lon="-1.65665">
        <ele>86</ele>
        <time>2022-04-09T09:52:53Z</time>
      </trkpt>
      <trkpt lat="47.17022" lon="-1.65681">
        <ele>86</ele>
        <time>2022-04-09T09:52:55Z</time>
      </trkpt>
      <trkpt lat="47.17015" lon="-1.65697">
        <ele>86</ele>
        <time>2022-04-09T09:52:57Z</time>
      </trkpt>
      <trkpt lat="47.17008" lon="-1.65714">
        <ele>86</ele>
        <time>2022-04-09T09:52:59Z</time>
      </trkpt>
      <trkpt lat="47.17005" lon="-1.65734">
        <ele>86</ele>
        <time>2022-04-09T09:53:01Z</time>
      </trkpt>
      <trkpt lat="47.17002" lon="-1.65753">
        <ele>86</ele>
        <time>2022-04-09T09:53:03Z</time>
      </trkpt>
      <trkpt lat="47.16993" lon="-1.65766">
        <ele>86</ele>
        <time>2022-04-09T09:53:05Z</time>
      </trkpt>
      <trkpt lat="47.1698" lon="-1.65775">
        <ele>85</ele>
        <time>2022-04-09T09:53:07Z</time>
      </trkpt>
      <trkpt lat="47.16968" lon="-1.65783">
        <ele>85</ele>
        <time>2022-04-09T09:53:09Z</time>
      </trkpt>
      <trkpt lat="47.16958" lon="-1.65796">
        <ele>84</ele>
        <time>2022-04-09T09:53:11Z</time>
      </trkpt>
      <trkpt lat="47.16949" lon="-1.65813">
        <ele>84</ele>
        <time>2022-04-09T09:53:13Z</time>
      </trkpt>
      <trkpt lat="47.16941" lon="-1.6583">
        <ele>84</ele>
        <time>2022-04-09T09:53:15Z</time>
      </trkpt>
      <trkpt lat="47.16933" lon="-1.65846">
        <ele>84</ele>
        <time>2022-04-09T09:53:17Z</time>
      </trkpt>
      <trkpt lat="47.16924" lon="-1.65863">
        <ele>83</ele>
        <time>2022-04-09T09:53:19Z</time>
      </trkpt>
      <trkpt lat="47.16916" lon="-1.6588">
        <ele>83</ele>
        <time>2022-04-09T09:53:21Z</time>
      </trkpt>
      <trkpt lat="47.16908" lon="-1.65897">
        <ele>83</ele>
        <time>2022-04-09T09:53:23Z</time>
      </trkpt>
      <trkpt lat="47.169" lon="-1.65915">
        <ele>83</ele>
        <time>2022-04-09T09:53:25Z</time>
      </trkpt>
      <trkpt lat="47.16891" lon="-1.65932">
        <ele>83</ele>
        <time>2022-04-09T09:53:27Z</time>
      </trkpt>
      <trkpt lat="47.16883" lon="-1.65951">
        <ele>82</ele>
        <time>2022-04-09T09:53:29Z</time>
      </trkpt>
      <trkpt lat="47.16875" lon="-1.6597">
        <ele>82</ele>
        <time>2022-04-09T09:53:31Z</time>
      </trkpt>
      <trkpt lat="47.16869" lon="-1.65989">
        <ele>82</ele>
        <time>2022-04-09T09:53:33Z</time>
      </trkpt>
      <trkpt lat="47.16863" lon="-1.66009">
        <ele>82</ele>
        <time>2022-04-09T09:53:35Z</time>
      </trkpt>
      <trkpt lat="47.16858" lon="-1.6603">
        <ele>82</ele>
        <time>2022-04-09T09:53:37Z</time>
      </trkpt>
      <trkpt lat="47.16855" lon="-1.66049">
        <ele>82</ele>
        <time>2022-04-09T09:53:39Z</time>
      </trkpt>
      <trkpt lat="47.16851" lon="-1.66069">
        <ele>82</ele>
        <time>2022-04-09T09:53:41Z</time>
      </trkpt>
      <trkpt lat="47.16849" lon="-1.66089">
        <ele>82</ele>
        <time>2022-04-09T09:53:43Z</time>
      </trkpt>
      <trkpt lat="47.16847" lon="-1.66109">
        <ele>81</ele>
        <time>2022-04-09T09:53:45Z</time>
      </trkpt>
      <trkpt lat="47.16846" lon="-1.6613">
        <ele>81</ele>
        <time>2022-04-09T09:53:47Z</time>
      </trkpt>
      <trkpt lat="47.16847" lon="-1.66151">
        <ele>81</ele>
        <time>2022-04-09T09:53:49Z</time>
      </trkpt>
      <trkpt lat="47.16847" lon="-1.66171">
        <ele>81</ele>
        <time>2022-04-09T09:53:51Z</time>
      </trkpt>
      <trkpt lat="47.16848" lon="-1.66192">
        <ele>81</ele>
        <time>2022-04-09T09:53:53Z</time>
      </trkpt>
      <trkpt lat="47.1685" lon="-1.66211">
        <ele>81</ele>
        <time>2022-04-09T09:53:55Z</time>
      </trkpt>
      <trkpt lat="47.16852" lon="-1.66231">
        <ele>81</ele>
        <time>2022-04-09T09:53:57Z</time>
      </trkpt>
      <trkpt lat="47.16853" lon="-1.66251">
        <ele>81</ele>
        <time>2022-04-09T09:53:59Z</time>
      </trkpt>
      <trkpt lat="47.16854" lon="-1.66271">
        <ele>81</ele>
        <time>2022-04-09T09:54:01Z</time>
      </trkpt>
      <trkpt lat="47.16856" lon="-1.6629">
        <ele>81</ele>
        <time>2022-04-09T09:54:03Z</time>
      </trkpt>
      <trkpt lat="47.16857" lon="-1.6631">
        <ele>81</ele>
        <time>2022-04-09T09:54:05Z</time>
      </trkpt>
      <trkpt lat="47.16858" lon="-1.66329">
        <ele>81</ele>
        <time>2022-04-09T09:54:07Z</time>
      </trkpt>
      <trkpt lat="47.1686" lon="-1.66349">
        <ele>81</ele>
        <time>2022-04-09T09:54:09Z</time>
      </trkpt>
      <trkpt lat="47.16862" lon="-1.66368">
        <ele>81</ele>
        <time>2022-04-09T09:54:11Z</time>
      </trkpt>
      <trkpt lat="47.16864" lon="-1.66387">
        <ele>81</ele>
        <time>2022-04-09T09:54:13Z</time>
      </trkpt>
      <trkpt lat="47.16867" lon="-1.66406">
        <ele>81</ele>
        <time>2022-04-09T09:54:15Z</time>
      </trkpt>
      <trkpt lat="47.16869" lon="-1.66425">
        <ele>81</ele>
        <time>2022-04-09T09:54:17Z</time>
      </trkpt>
      <trkpt lat="47.16871" lon="-1.66444">
        <ele>82</ele>
        <time>2022-04-09T09:54:19Z</time>
      </trkpt>
      <trkpt lat="47.16873" lon="-1.66464">
        <ele>82</ele>
        <time>2022-04-09T09:54:21Z</time>
      </trkpt>
      <trkpt lat="47.16875" lon="-1.66484">
        <ele>82</ele>
        <time>2022-04-09T09:54:23Z</time>
      </trkpt>
      <trkpt lat="47.16878" lon="-1.66502">
        <ele>82</ele>
        <time>2022-04-09T09:54:25Z</time>
      </trkpt>
      <trkpt lat="47.16879" lon="-1.66522">
        <ele>82</ele>
        <time>2022-04-09T09:54:27Z</time>
      </trkpt>
      <trkpt lat="47.16881" lon="-1.66542">
        <ele>82</ele>
        <time>2022-04-09T09:54:29Z</time>
      </trkpt>
      <trkpt lat="47.16883" lon="-1.66561">
        <ele>82</ele>
        <time>2022-04-09T09:54:31Z</time>
      </trkpt>
      <trkpt lat="47.16885" lon="-1.6658">
        <ele>82</ele>
        <time>2022-04-09T09:54:33Z</time>
      </trkpt>
      <trkpt lat="47.16888" lon="-1.66599">
        <ele>82</ele>
        <time>2022-04-09T09:54:35Z</time>
      </trkpt>
      <trkpt lat="47.16889" lon="-1.66618">
        <ele>82</ele>
        <time>2022-04-09T09:54:37Z</time>
      </trkpt>
      <trkpt lat="47.16891" lon="-1.66638">
        <ele>82</ele>
        <time>2022-04-09T09:54:39Z</time>
      </trkpt>
      <trkpt lat="47.16892" lon="-1.66657">
        <ele>82</ele>
        <time>2022-04-09T09:54:41Z</time>
      </trkpt>
      <trkpt lat="47.16891" lon="-1.66676">
        <ele>82</ele>
        <time>2022-04-09T09:54:43Z</time>
      </trkpt>
      <trkpt lat="47.16889" lon="-1.66696">
        <ele>82</ele>
        <time>2022-04-09T09:54:45Z</time>
      </trkpt>
      <trkpt lat="47.16885" lon="-1.66715">
        <ele>82</ele>
        <time>2022-04-09T09:54:47Z</time>
      </trkpt>
      <trkpt lat="47.16879" lon="-1.66734">
        <ele>82</ele>
        <time>2022-04-09T09:54:49Z</time>
      </trkpt>
      <trkpt lat="47.16871" lon="-1.66751">
        <ele>82</ele>
        <time>2022-04-09T09:54:51Z</time>
      </trkpt>
      <trkpt lat="47.16863" lon="-1.66767">
        <ele>82</ele>
        <time>2022-04-09T09:54:53Z</time>
      </trkpt>
      <trkpt lat="47.16854" lon="-1.66783">
        <ele>82</ele>
        <time>2022-04-09T09:54:55Z</time>
      </trkpt>
      <trkpt lat="47.16846" lon="-1.668">
        <ele>82</ele>
        <time>2022-04-09T09:54:57Z</time>
      </trkpt>
      <trkpt lat="47.16838" lon="-1.66816">
        <ele>82</ele>
        <time>2022-04-09T09:54:59Z</time>
      </trkpt>
      <trkpt lat="47.16829" lon="-1.66834">
        <ele>82</ele>
        <time>2022-04-09T09:55:01Z</time>
      </trkpt>
      <trkpt lat="47.1682" lon="-1.6685">
        <ele>82</ele>
        <time>2022-04-09T09:55:03Z</time>
      </trkpt>
      <trkpt lat="47.16811" lon="-1.66866">
        <ele>82</ele>
        <time>2022-04-09T09:55:05Z</time>
      </trkpt>
      <trkpt lat="47.16802" lon="-1.66881">
        <ele>82</ele>
        <time>2022-04-09T09:55:07Z</time>
      </trkpt>
      <trkpt lat="47.16792" lon="-1.66894">
        <ele>81</ele>
        <time>2022-04-09T09:55:09Z</time>
      </trkpt>
      <trkpt lat="47.16781" lon="-1.66905">
        <ele>82</ele>
        <time>2022-04-09T09:55:11Z</time>
      </trkpt>
      <trkpt lat="47.16769" lon="-1.66913">
        <ele>82</ele>
        <time>2022-04-09T09:55:13Z</time>
      </trkpt>
      <trkpt lat="47.16757" lon="-1.66918">
        <ele>83</ele>
        <time>2022-04-09T09:55:15Z</time>
      </trkpt>
      <trkpt lat="47.16745" lon="-1.66925">
        <ele>85</ele>
        <time>2022-04-09T09:55:17Z</time>
      </trkpt>
      <trkpt lat="47.16732" lon="-1.66931">
        <ele>85</ele>
        <time>2022-04-09T09:55:19Z</time>
      </trkpt>
      <trkpt lat="47.16718" lon="-1.66935">
        <ele>84</ele>
        <time>2022-04-09T09:55:21Z</time>
      </trkpt>
      <trkpt lat="47.16705" lon="-1.6694">
        <ele>84</ele>
        <time>2022-04-09T09:55:23Z</time>
      </trkpt>
      <trkpt lat="47.16692" lon="-1.66948">
        <ele>84</ele>
        <time>2022-04-09T09:55:25Z</time>
      </trkpt>
      <trkpt lat="47.16678" lon="-1.6696">
        <ele>84</ele>
        <time>2022-04-09T09:55:27Z</time>
      </trkpt>
      <trkpt lat="47.16668" lon="-1.66977">
        <ele>82</ele>
        <time>2022-04-09T09:55:29Z</time>
      </trkpt>
      <trkpt lat="47.16662" lon="-1.66996">
        <ele>82</ele>
        <time>2022-04-09T09:55:31Z</time>
      </trkpt>
      <trkpt lat="47.16658" lon="-1.67016">
        <ele>81</ele>
        <time>2022-04-09T09:55:33Z</time>
      </trkpt>
      <trkpt lat="47.16655" lon="-1.67036">
        <ele>81</ele>
        <time>2022-04-09T09:55:35Z</time>
      </trkpt>
      <trkpt lat="47.16651" lon="-1.67056">
        <ele>81</ele>
        <time>2022-04-09T09:55:37Z</time>
      </trkpt>
      <trkpt lat="47.16647" lon="-1.67075">
        <ele>81</ele>
        <time>2022-04-09T09:55:39Z</time>
      </trkpt>
      <trkpt lat="47.16643" lon="-1.67094">
        <ele>80</ele>
        <time>2022-04-09T09:55:41Z</time>
      </trkpt>
      <trkpt lat="47.16639" lon="-1.67113">
        <ele>80</ele>
        <time>2022-04-09T09:55:43Z</time>
      </trkpt>
      <trkpt lat="47.16636" lon="-1.67131">
        <ele>80</ele>
        <time>2022-04-09T09:55:45Z</time>
      </trkpt>
      <trkpt lat="47.16633" lon="-1.6715">
        <ele>80</ele>
        <time>2022-04-09T09:55:47Z</time>
      </trkpt>
      <trkpt lat="47.16629" lon="-1.67169">
        <ele>80</ele>
        <time>2022-04-09T09:55:49Z</time>
      </trkpt>
      <trkpt lat="47.16625" lon="-1.67188">
        <ele>80</ele>
        <time>2022-04-09T09:55:51Z</time>
      </trkpt>
      <trkpt lat="47.16621" lon="-1.67206">
        <ele>80</ele>
        <time>2022-04-09T09:55:53Z</time>
      </trkpt>
      <trkpt lat="47.16617" lon="-1.67224">
        <ele>79</ele>
        <time>2022-04-09T09:55:55Z</time>
      </trkpt>
      <trkpt lat="47.16615" lon="-1.67241">
        <ele>79</ele>
        <time>2022-04-09T09:55:57Z</time>
      </trkpt>
      <trkpt lat="47.16613" lon="-1.67256">
        <ele>80</ele>
        <time>2022-04-09T09:56:00Z</time>
      </trkpt>
      <trkpt lat="47.16621" lon="-1.67265">
        <ele>79</ele>
        <time>2022-04-09T09:56:05Z</time>
      </trkpt>
      <trkpt lat="47.1663" lon="-1.67268">
        <ele>80</ele>
        <time>2022-04-09T09:56:07Z</time>
      </trkpt>
      <trkpt lat="47.16641" lon="-1.67272">
        <ele>80</ele>
        <time>2022-04-09T09:56:09Z</time>
      </trkpt>
      <trkpt lat="47.16652" lon="-1.67276">
        <ele>79</ele>
        <time>2022-04-09T09:56:11Z</time>
      </trkpt>
      <trkpt lat="47.16665" lon="-1.6728">
        <ele>79</ele>
        <time>2022-04-09T09:56:13Z</time>
      </trkpt>
      <trkpt lat="47.16677" lon="-1.67285">
        <ele>79</ele>
        <time>2022-04-09T09:56:15Z</time>
      </trkpt>
      <trkpt lat="47.16689" lon="-1.6729">
        <ele>80</ele>
        <time>2022-04-09T09:56:17Z</time>
      </trkpt>
      <trkpt lat="47.16701" lon="-1.67296">
        <ele>80</ele>
        <time>2022-04-09T09:56:19Z</time>
      </trkpt>
      <trkpt lat="47.16713" lon="-1.67303">
        <ele>80</ele>
        <time>2022-04-09T09:56:21Z</time>
      </trkpt>
      <trkpt lat="47.16725" lon="-1.67311">
        <ele>80</ele>
        <time>2022-04-09T09:56:23Z</time>
      </trkpt>
      <trkpt lat="47.16736" lon="-1.67319">
        <ele>80</ele>
        <time>2022-04-09T09:56:25Z</time>
      </trkpt>
      <trkpt lat="47.16748" lon="-1.67328">
        <ele>80</ele>
        <time>2022-04-09T09:56:27Z</time>
      </trkpt>
      <trkpt lat="47.16759" lon="-1.67336">
        <ele>81</ele>
        <time>2022-04-09T09:56:29Z</time>
      </trkpt>
      <trkpt lat="47.1677" lon="-1.67346">
        <ele>81</ele>
        <time>2022-04-09T09:56:31Z</time>
      </trkpt>
      <trkpt lat="47.1678" lon="-1.67356">
        <ele>81</ele>
        <time>2022-04-09T09:56:33Z</time>
      </trkpt>
      <trkpt lat="47.1679" lon="-1.67367">
        <ele>81</ele>
        <time>2022-04-09T09:56:35Z</time>
      </trkpt>
      <trkpt lat="47.168" lon="-1.67379">
        <ele>81</ele>
        <time>2022-04-09T09:56:37Z</time>
      </trkpt>
      <trkpt lat="47.1681" lon="-1.67391">
        <ele>81</ele>
        <time>2022-04-09T09:56:39Z</time>
      </trkpt>
      <trkpt lat="47.1682" lon="-1.67403">
        <ele>82</ele>
        <time>2022-04-09T09:56:41Z</time>
      </trkpt>
      <trkpt lat="47.16829" lon="-1.67415">
        <ele>82</ele>
        <time>2022-04-09T09:56:43Z</time>
      </trkpt>
      <trkpt lat="47.16841" lon="-1.67427">
        <ele>83</ele>
        <time>2022-04-09T09:56:45Z</time>
      </trkpt>
      <trkpt lat="47.16852" lon="-1.67439">
        <ele>82</ele>
        <time>2022-04-09T09:56:47Z</time>
      </trkpt>
      <trkpt lat="47.16863" lon="-1.67451">
        <ele>81</ele>
        <time>2022-04-09T09:56:49Z</time>
      </trkpt>
      <trkpt lat="47.16873" lon="-1.67464">
        <ele>81</ele>
        <time>2022-04-09T09:56:51Z</time>
      </trkpt>
      <trkpt lat="47.16883" lon="-1.67475">
        <ele>81</ele>
        <time>2022-04-09T09:56:53Z</time>
      </trkpt>
      <trkpt lat="47.16893" lon="-1.67487">
        <ele>81</ele>
        <time>2022-04-09T09:56:55Z</time>
      </trkpt>
      <trkpt lat="47.16903" lon="-1.67499">
        <ele>81</ele>
        <time>2022-04-09T09:56:57Z</time>
      </trkpt>
      <trkpt lat="47.16914" lon="-1.67511">
        <ele>81</ele>
        <time>2022-04-09T09:56:59Z</time>
      </trkpt>
      <trkpt lat="47.16924" lon="-1.67524">
        <ele>81</ele>
        <time>2022-04-09T09:57:01Z</time>
      </trkpt>
      <trkpt lat="47.16935" lon="-1.67537">
        <ele>81</ele>
        <time>2022-04-09T09:57:03Z</time>
      </trkpt>
      <trkpt lat="47.16945" lon="-1.67549">
        <ele>81</ele>
        <time>2022-04-09T09:57:05Z</time>
      </trkpt>
      <trkpt lat="47.16955" lon="-1.67561">
        <ele>81</ele>
        <time>2022-04-09T09:57:07Z</time>
      </trkpt>
      <trkpt lat="47.16966" lon="-1.67572">
        <ele>81</ele>
        <time>2022-04-09T09:57:09Z</time>
      </trkpt>
      <trkpt lat="47.16976" lon="-1.67584">
        <ele>82</ele>
        <time>2022-04-09T09:57:11Z</time>
      </trkpt>
      <trkpt lat="47.16987" lon="-1.67597">
        <ele>82</ele>
        <time>2022-04-09T09:57:13Z</time>
      </trkpt>
      <trkpt lat="47.16997" lon="-1.6761">
        <ele>81</ele>
        <time>2022-04-09T09:57:15Z</time>
      </trkpt>
      <trkpt lat="47.17007" lon="-1.67622">
        <ele>82</ele>
        <time>2022-04-09T09:57:17Z</time>
      </trkpt>
      <trkpt lat="47.1702" lon="-1.67646">
        <ele>82</ele>
        <time>2022-04-09T09:57:20Z</time>
      </trkpt>
      <trkpt lat="47.17031" lon="-1.67657">
        <ele>82</ele>
        <time>2022-04-09T09:57:22Z</time>
      </trkpt>
      <trkpt lat="47.17044" lon="-1.67665">
        <ele>82</ele>
        <time>2022-04-09T09:57:24Z</time>
      </trkpt>
      <trkpt lat="47.17054" lon="-1.67676">
        <ele>82</ele>
        <time>2022-04-09T09:57:26Z</time>
      </trkpt>
      <trkpt lat="47.17064" lon="-1.67687">
        <ele>82</ele>
        <time>2022-04-09T09:57:28Z</time>
      </trkpt>
      <trkpt lat="47.17075" lon="-1.67699">
        <ele>82</ele>
        <time>2022-04-09T09:57:30Z</time>
      </trkpt>
      <trkpt lat="47.17084" lon="-1.67711">
        <ele>82</ele>
        <time>2022-04-09T09:57:32Z</time>
      </trkpt>
      <trkpt lat="47.17094" lon="-1.67722">
        <ele>82</ele>
        <time>2022-04-09T09:57:34Z</time>
      </trkpt>
      <trkpt lat="47.17104" lon="-1.67733">
        <ele>82</ele>
        <time>2022-04-09T09:57:36Z</time>
      </trkpt>
      <trkpt lat="47.17115" lon="-1.67746">
        <ele>82</ele>
        <time>2022-04-09T09:57:38Z</time>
      </trkpt>
      <trkpt lat="47.17125" lon="-1.67758">
        <ele>82</ele>
        <time>2022-04-09T09:57:40Z</time>
      </trkpt>
      <trkpt lat="47.17135" lon="-1.67769">
        <ele>82</ele>
        <time>2022-04-09T09:57:42Z</time>
      </trkpt>
      <trkpt lat="47.17145" lon="-1.67781">
        <ele>82</ele>
        <time>2022-04-09T09:57:44Z</time>
      </trkpt>
      <trkpt lat="47.17155" lon="-1.67793">
        <ele>82</ele>
        <time>2022-04-09T09:57:46Z</time>
      </trkpt>
      <trkpt lat="47.17165" lon="-1.67805">
        <ele>82</ele>
        <time>2022-04-09T09:57:48Z</time>
      </trkpt>
      <trkpt lat="47.17175" lon="-1.67816">
        <ele>82</ele>
        <time>2022-04-09T09:57:50Z</time>
      </trkpt>
      <trkpt lat="47.17185" lon="-1.67828">
        <ele>82</ele>
        <time>2022-04-09T09:57:52Z</time>
      </trkpt>
      <trkpt lat="47.17195" lon="-1.6784">
        <ele>82</ele>
        <time>2022-04-09T09:57:54Z</time>
      </trkpt>
      <trkpt lat="47.17206" lon="-1.67852">
        <ele>82</ele>
        <time>2022-04-09T09:57:56Z</time>
      </trkpt>
      <trkpt lat="47.17216" lon="-1.67864">
        <ele>82</ele>
        <time>2022-04-09T09:57:58Z</time>
      </trkpt>
      <trkpt lat="47.17226" lon="-1.67876">
        <ele>82</ele>
        <time>2022-04-09T09:58:00Z</time>
      </trkpt>
      <trkpt lat="47.17236" lon="-1.67888">
        <ele>82</ele>
        <time>2022-04-09T09:58:02Z</time>
      </trkpt>
      <trkpt lat="47.17246" lon="-1.67899">
        <ele>82</ele>
        <time>2022-04-09T09:58:04Z</time>
      </trkpt>
      <trkpt lat="47.17256" lon="-1.67911">
        <ele>82</ele>
        <time>2022-04-09T09:58:06Z</time>
      </trkpt>
      <trkpt lat="47.17265" lon="-1.67923">
        <ele>82</ele>
        <time>2022-04-09T09:58:08Z</time>
      </trkpt>
      <trkpt lat="47.17275" lon="-1.67934">
        <ele>83</ele>
        <time>2022-04-09T09:58:10Z</time>
      </trkpt>
      <trkpt lat="47.17285" lon="-1.67945">
        <ele>83</ele>
        <time>2022-04-09T09:58:12Z</time>
      </trkpt>
      <trkpt lat="47.17295" lon="-1.67957">
        <ele>83</ele>
        <time>2022-04-09T09:58:14Z</time>
      </trkpt>
      <trkpt lat="47.17305" lon="-1.67969">
        <ele>82</ele>
        <time>2022-04-09T09:58:16Z</time>
      </trkpt>
      <trkpt lat="47.17314" lon="-1.67982">
        <ele>82</ele>
        <time>2022-04-09T09:58:18Z</time>
      </trkpt>
      <trkpt lat="47.17323" lon="-1.67995">
        <ele>82</ele>
        <time>2022-04-09T09:58:20Z</time>
      </trkpt>
      <trkpt lat="47.1733" lon="-1.68011">
        <ele>82</ele>
        <time>2022-04-09T09:58:22Z</time>
      </trkpt>
      <trkpt lat="47.17336" lon="-1.68027">
        <ele>81</ele>
        <time>2022-04-09T09:58:24Z</time>
      </trkpt>
      <trkpt lat="47.17341" lon="-1.68045">
        <ele>82</ele>
        <time>2022-04-09T09:58:26Z</time>
      </trkpt>
      <trkpt lat="47.17346" lon="-1.68064">
        <ele>82</ele>
        <time>2022-04-09T09:58:28Z</time>
      </trkpt>
      <trkpt lat="47.1735" lon="-1.68082">
        <ele>82</ele>
        <time>2022-04-09T09:58:30Z</time>
      </trkpt>
      <trkpt lat="47.17354" lon="-1.68101">
        <ele>83</ele>
        <time>2022-04-09T09:58:32Z</time>
      </trkpt>
      <trkpt lat="47.17357" lon="-1.68119">
        <ele>83</ele>
        <time>2022-04-09T09:58:34Z</time>
      </trkpt>
      <trkpt lat="47.1736" lon="-1.68137">
        <ele>83</ele>
        <time>2022-04-09T09:58:36Z</time>
      </trkpt>
      <trkpt lat="47.17361" lon="-1.68156">
        <ele>83</ele>
        <time>2022-04-09T09:58:38Z</time>
      </trkpt>
      <trkpt lat="47.17361" lon="-1.68175">
        <ele>83</ele>
        <time>2022-04-09T09:58:40Z</time>
      </trkpt>
      <trkpt lat="47.1736" lon="-1.68193">
        <ele>83</ele>
        <time>2022-04-09T09:58:42Z</time>
      </trkpt>
      <trkpt lat="47.17357" lon="-1.68212">
        <ele>83</ele>
        <time>2022-04-09T09:58:44Z</time>
      </trkpt>
      <trkpt lat="47.17354" lon="-1.68229">
        <ele>84</ele>
        <time>2022-04-09T09:58:46Z</time>
      </trkpt>
      <trkpt lat="47.17351" lon="-1.68246">
        <ele>84</ele>
        <time>2022-04-09T09:58:48Z</time>
      </trkpt>
      <trkpt lat="47.17347" lon="-1.68262">
        <ele>85</ele>
        <time>2022-04-09T09:58:50Z</time>
      </trkpt>
      <trkpt lat="47.17344" lon="-1.68278">
        <ele>85</ele>
        <time>2022-04-09T09:58:52Z</time>
      </trkpt>
      <trkpt lat="47.1734" lon="-1.68293">
        <ele>85</ele>
        <time>2022-04-09T09:58:54Z</time>
      </trkpt>
      <trkpt lat="47.17337" lon="-1.68308">
        <ele>86</ele>
        <time>2022-04-09T09:58:56Z</time>
      </trkpt>
      <trkpt lat="47.17334" lon="-1.68323">
        <ele>86</ele>
        <time>2022-04-09T09:58:58Z</time>
      </trkpt>
      <trkpt lat="47.1733" lon="-1.68338">
        <ele>86</ele>
        <time>2022-04-09T09:59:00Z</time>
      </trkpt>
      <trkpt lat="47.17329" lon="-1.68353">
        <ele>87</ele>
        <time>2022-04-09T09:59:02Z</time>
      </trkpt>
      <trkpt lat="47.17333" lon="-1.68367">
        <ele>87</ele>
        <time>2022-04-09T09:59:04Z</time>
      </trkpt>
      <trkpt lat="47.17341" lon="-1.68375">
        <ele>88</ele>
        <time>2022-04-09T09:59:06Z</time>
      </trkpt>
      <trkpt lat="47.17355" lon="-1.68378">
        <ele>88</ele>
        <time>2022-04-09T09:59:09Z</time>
      </trkpt>
      <trkpt lat="47.17372" lon="-1.68381">
        <ele>88</ele>
        <time>2022-04-09T09:59:12Z</time>
      </trkpt>
      <trkpt lat="47.17379" lon="-1.68396">
        <ele>88</ele>
        <time>2022-04-09T09:59:14Z</time>
      </trkpt>
      <trkpt lat="47.17377" lon="-1.68413">
        <ele>88</ele>
        <time>2022-04-09T09:59:16Z</time>
      </trkpt>
      <trkpt lat="47.17368" lon="-1.68425">
        <ele>88</ele>
        <time>2022-04-09T09:59:18Z</time>
      </trkpt>
      <trkpt lat="47.1736" lon="-1.68437">
        <ele>88</ele>
        <time>2022-04-09T09:59:20Z</time>
      </trkpt>
      <trkpt lat="47.1736" lon="-1.68454">
        <ele>87</ele>
        <time>2022-04-09T09:59:22Z</time>
      </trkpt>
      <trkpt lat="47.17367" lon="-1.68469">
        <ele>87</ele>
        <time>2022-04-09T09:59:24Z</time>
      </trkpt>
      <trkpt lat="47.17377" lon="-1.68482">
        <ele>86</ele>
        <time>2022-04-09T09:59:26Z</time>
      </trkpt>
      <trkpt lat="47.17387" lon="-1.68496">
        <ele>86</ele>
        <time>2022-04-09T09:59:28Z</time>
      </trkpt>
      <trkpt lat="47.17398" lon="-1.68511">
        <ele>85</ele>
        <time>2022-04-09T09:59:30Z</time>
      </trkpt>
      <trkpt lat="47.17408" lon="-1.68526">
        <ele>84</ele>
        <time>2022-04-09T09:59:32Z</time>
      </trkpt>
      <trkpt lat="47.17417" lon="-1.68543">
        <ele>84</ele>
        <time>2022-04-09T09:59:34Z</time>
      </trkpt>
      <trkpt lat="47.17426" lon="-1.68559">
        <ele>83</ele>
        <time>2022-04-09T09:59:36Z</time>
      </trkpt>
      <trkpt lat="47.17435" lon="-1.68577">
        <ele>83</ele>
        <time>2022-04-09T09:59:38Z</time>
      </trkpt>
      <trkpt lat="47.17443" lon="-1.68595">
        <ele>82</ele>
        <time>2022-04-09T09:59:40Z</time>
      </trkpt>
      <trkpt lat="47.17449" lon="-1.68613">
        <ele>82</ele>
        <time>2022-04-09T09:59:42Z</time>
      </trkpt>
      <trkpt lat="47.17456" lon="-1.68631">
        <ele>83</ele>
        <time>2022-04-09T09:59:44Z</time>
      </trkpt>
      <trkpt lat="47.17462" lon="-1.68648">
        <ele>83</ele>
        <time>2022-04-09T09:59:46Z</time>
      </trkpt>
      <trkpt lat="47.17468" lon="-1.68665">
        <ele>83</ele>
        <time>2022-04-09T09:59:48Z</time>
      </trkpt>
      <trkpt lat="47.17473" lon="-1.68683">
        <ele>83</ele>
        <time>2022-04-09T09:59:50Z</time>
      </trkpt>
      <trkpt lat="47.17478" lon="-1.687">
        <ele>83</ele>
        <time>2022-04-09T09:59:52Z</time>
      </trkpt>
      <trkpt lat="47.17481" lon="-1.68717">
        <ele>83</ele>
        <time>2022-04-09T09:59:54Z</time>
      </trkpt>
      <trkpt lat="47.17485" lon="-1.68734">
        <ele>84</ele>
        <time>2022-04-09T09:59:56Z</time>
      </trkpt>
      <trkpt lat="47.17489" lon="-1.68752">
        <ele>83</ele>
        <time>2022-04-09T09:59:58Z</time>
      </trkpt>
      <trkpt lat="47.17493" lon="-1.6877">
        <ele>84</ele>
        <time>2022-04-09T10:00:00Z</time>
      </trkpt>
      <trkpt lat="47.17497" lon="-1.68787">
        <ele>83</ele>
        <time>2022-04-09T10:00:02Z</time>
      </trkpt>
      <trkpt lat="47.17501" lon="-1.68805">
        <ele>83</ele>
        <time>2022-04-09T10:00:04Z</time>
      </trkpt>
      <trkpt lat="47.17504" lon="-1.68823">
        <ele>83</ele>
        <time>2022-04-09T10:00:06Z</time>
      </trkpt>
      <trkpt lat="47.17507" lon="-1.68841">
        <ele>83</ele>
        <time>2022-04-09T10:00:08Z</time>
      </trkpt>
      <trkpt lat="47.1751" lon="-1.6886">
        <ele>83</ele>
        <time>2022-04-09T10:00:10Z</time>
      </trkpt>
      <trkpt lat="47.1751" lon="-1.68879">
        <ele>83</ele>
        <time>2022-04-09T10:00:12Z</time>
      </trkpt>
      <trkpt lat="47.17509" lon="-1.68898">
        <ele>83</ele>
        <time>2022-04-09T10:00:14Z</time>
      </trkpt>
      <trkpt lat="47.17507" lon="-1.68917">
        <ele>82</ele>
        <time>2022-04-09T10:00:16Z</time>
      </trkpt>
      <trkpt lat="47.17505" lon="-1.68936">
        <ele>82</ele>
        <time>2022-04-09T10:00:18Z</time>
      </trkpt>
      <trkpt lat="47.17504" lon="-1.68955">
        <ele>82</ele>
        <time>2022-04-09T10:00:20Z</time>
      </trkpt>
      <trkpt lat="47.17504" lon="-1.68974">
        <ele>82</ele>
        <time>2022-04-09T10:00:22Z</time>
      </trkpt>
      <trkpt lat="47.17505" lon="-1.68992">
        <ele>81</ele>
        <time>2022-04-09T10:00:24Z</time>
      </trkpt>
      <trkpt lat="47.17506" lon="-1.69011">
        <ele>82</ele>
        <time>2022-04-09T10:00:26Z</time>
      </trkpt>
      <trkpt lat="47.17507" lon="-1.6903">
        <ele>82</ele>
        <time>2022-04-09T10:00:28Z</time>
      </trkpt>
      <trkpt lat="47.17508" lon="-1.69049">
        <ele>82</ele>
        <time>2022-04-09T10:00:30Z</time>
      </trkpt>
      <trkpt lat="47.17508" lon="-1.69068">
        <ele>82</ele>
        <time>2022-04-09T10:00:32Z</time>
      </trkpt>
      <trkpt lat="47.17508" lon="-1.69088">
        <ele>82</ele>
        <time>2022-04-09T10:00:34Z</time>
      </trkpt>
      <trkpt lat="47.17507" lon="-1.69107">
        <ele>82</ele>
        <time>2022-04-09T10:00:36Z</time>
      </trkpt>
      <trkpt lat="47.17507" lon="-1.69126">
        <ele>81</ele>
        <time>2022-04-09T10:00:38Z</time>
      </trkpt>
      <trkpt lat="47.17506" lon="-1.69146">
        <ele>81</ele>
        <time>2022-04-09T10:00:40Z</time>
      </trkpt>
      <trkpt lat="47.17506" lon="-1.69165">
        <ele>81</ele>
        <time>2022-04-09T10:00:42Z</time>
      </trkpt>
      <trkpt lat="47.17505" lon="-1.69184">
        <ele>81</ele>
        <time>2022-04-09T10:00:44Z</time>
      </trkpt>
      <trkpt lat="47.17503" lon="-1.69203">
        <ele>81</ele>
        <time>2022-04-09T10:00:46Z</time>
      </trkpt>
      <trkpt lat="47.17503" lon="-1.69221">
        <ele>81</ele>
        <time>2022-04-09T10:00:48Z</time>
      </trkpt>
      <trkpt lat="47.17501" lon="-1.6924">
        <ele>81</ele>
        <time>2022-04-09T10:00:50Z</time>
      </trkpt>
      <trkpt lat="47.175" lon="-1.69259">
        <ele>81</ele>
        <time>2022-04-09T10:00:52Z</time>
      </trkpt>
      <trkpt lat="47.175" lon="-1.69277">
        <ele>81</ele>
        <time>2022-04-09T10:00:54Z</time>
      </trkpt>
      <trkpt lat="47.17499" lon="-1.69296">
        <ele>81</ele>
        <time>2022-04-09T10:00:56Z</time>
      </trkpt>
      <trkpt lat="47.17498" lon="-1.69314">
        <ele>81</ele>
        <time>2022-04-09T10:00:58Z</time>
      </trkpt>
      <trkpt lat="47.17498" lon="-1.69332">
        <ele>81</ele>
        <time>2022-04-09T10:01:00Z</time>
      </trkpt>
      <trkpt lat="47.17498" lon="-1.69351">
        <ele>81</ele>
        <time>2022-04-09T10:01:02Z</time>
      </trkpt>
      <trkpt lat="47.17497" lon="-1.69369">
        <ele>81</ele>
        <time>2022-04-09T10:01:04Z</time>
      </trkpt>
      <trkpt lat="47.17497" lon="-1.69387">
        <ele>81</ele>
        <time>2022-04-09T10:01:06Z</time>
      </trkpt>
      <trkpt lat="47.17498" lon="-1.69405">
        <ele>81</ele>
        <time>2022-04-09T10:01:08Z</time>
      </trkpt>
      <trkpt lat="47.17498" lon="-1.69424">
        <ele>81</ele>
        <time>2022-04-09T10:01:10Z</time>
      </trkpt>
      <trkpt lat="47.17498" lon="-1.69442">
        <ele>81</ele>
        <time>2022-04-09T10:01:12Z</time>
      </trkpt>
      <trkpt lat="47.17499" lon="-1.69461">
        <ele>81</ele>
        <time>2022-04-09T10:01:14Z</time>
      </trkpt>
      <trkpt lat="47.17499" lon="-1.6948">
        <ele>81</ele>
        <time>2022-04-09T10:01:16Z</time>
      </trkpt>
      <trkpt lat="47.175" lon="-1.69498">
        <ele>81</ele>
        <time>2022-04-09T10:01:18Z</time>
      </trkpt>
      <trkpt lat="47.175" lon="-1.69517">
        <ele>80</ele>
        <time>2022-04-09T10:01:20Z</time>
      </trkpt>
      <trkpt lat="47.17501" lon="-1.69534">
        <ele>81</ele>
        <time>2022-04-09T10:01:22Z</time>
      </trkpt>
      <trkpt lat="47.17502" lon="-1.69553">
        <ele>81</ele>
        <time>2022-04-09T10:01:24Z</time>
      </trkpt>
      <trkpt lat="47.17503" lon="-1.69572">
        <ele>81</ele>
        <time>2022-04-09T10:01:26Z</time>
      </trkpt>
      <trkpt lat="47.17505" lon="-1.6959">
        <ele>81</ele>
        <time>2022-04-09T10:01:28Z</time>
      </trkpt>
      <trkpt lat="47.17506" lon="-1.69609">
        <ele>81</ele>
        <time>2022-04-09T10:01:30Z</time>
      </trkpt>
      <trkpt lat="47.17508" lon="-1.69628">
        <ele>81</ele>
        <time>2022-04-09T10:01:32Z</time>
      </trkpt>
      <trkpt lat="47.17509" lon="-1.69647">
        <ele>81</ele>
        <time>2022-04-09T10:01:34Z</time>
      </trkpt>
      <trkpt lat="47.17511" lon="-1.69665">
        <ele>80</ele>
        <time>2022-04-09T10:01:36Z</time>
      </trkpt>
      <trkpt lat="47.17512" lon="-1.69684">
        <ele>81</ele>
        <time>2022-04-09T10:01:38Z</time>
      </trkpt>
      <trkpt lat="47.17514" lon="-1.69703">
        <ele>81</ele>
        <time>2022-04-09T10:01:40Z</time>
      </trkpt>
      <trkpt lat="47.17516" lon="-1.69722">
        <ele>80</ele>
        <time>2022-04-09T10:01:42Z</time>
      </trkpt>
      <trkpt lat="47.17517" lon="-1.69741">
        <ele>80</ele>
        <time>2022-04-09T10:01:44Z</time>
      </trkpt>
      <trkpt lat="47.17519" lon="-1.6976">
        <ele>80</ele>
        <time>2022-04-09T10:01:46Z</time>
      </trkpt>
      <trkpt lat="47.17521" lon="-1.69778">
        <ele>80</ele>
        <time>2022-04-09T10:01:48Z</time>
      </trkpt>
      <trkpt lat="47.17523" lon="-1.69797">
        <ele>80</ele>
        <time>2022-04-09T10:01:50Z</time>
      </trkpt>
      <trkpt lat="47.17524" lon="-1.69816">
        <ele>81</ele>
        <time>2022-04-09T10:01:52Z</time>
      </trkpt>
      <trkpt lat="47.17526" lon="-1.69835">
        <ele>81</ele>
        <time>2022-04-09T10:01:54Z</time>
      </trkpt>
      <trkpt lat="47.17529" lon="-1.69854">
        <ele>81</ele>
        <time>2022-04-09T10:01:56Z</time>
      </trkpt>
      <trkpt lat="47.17531" lon="-1.69872">
        <ele>81</ele>
        <time>2022-04-09T10:01:58Z</time>
      </trkpt>
      <trkpt lat="47.17534" lon="-1.6989">
        <ele>81</ele>
        <time>2022-04-09T10:02:00Z</time>
      </trkpt>
      <trkpt lat="47.17537" lon="-1.69908">
        <ele>81</ele>
        <time>2022-04-09T10:02:02Z</time>
      </trkpt>
      <trkpt lat="47.17541" lon="-1.69926">
        <ele>81</ele>
        <time>2022-04-09T10:02:04Z</time>
      </trkpt>
      <trkpt lat="47.17544" lon="-1.69943">
        <ele>80</ele>
        <time>2022-04-09T10:02:06Z</time>
      </trkpt>
      <trkpt lat="47.17547" lon="-1.6996">
        <ele>80</ele>
        <time>2022-04-09T10:02:08Z</time>
      </trkpt>
      <trkpt lat="47.1755" lon="-1.69978">
        <ele>81</ele>
        <time>2022-04-09T10:02:10Z</time>
      </trkpt>
      <trkpt lat="47.17554" lon="-1.69995">
        <ele>81</ele>
        <time>2022-04-09T10:02:12Z</time>
      </trkpt>
      <trkpt lat="47.17558" lon="-1.70011">
        <ele>81</ele>
        <time>2022-04-09T10:02:14Z</time>
      </trkpt>
      <trkpt lat="47.17561" lon="-1.70028">
        <ele>81</ele>
        <time>2022-04-09T10:02:16Z</time>
      </trkpt>
      <trkpt lat="47.17565" lon="-1.70046">
        <ele>81</ele>
        <time>2022-04-09T10:02:18Z</time>
      </trkpt>
      <trkpt lat="47.17569" lon="-1.70062">
        <ele>81</ele>
        <time>2022-04-09T10:02:20Z</time>
      </trkpt>
      <trkpt lat="47.17572" lon="-1.70079">
        <ele>81</ele>
        <time>2022-04-09T10:02:22Z</time>
      </trkpt>
      <trkpt lat="47.17576" lon="-1.70096">
        <ele>81</ele>
        <time>2022-04-09T10:02:24Z</time>
      </trkpt>
      <trkpt lat="47.17579" lon="-1.70113">
        <ele>80</ele>
        <time>2022-04-09T10:02:26Z</time>
      </trkpt>
      <trkpt lat="47.17583" lon="-1.7013">
        <ele>80</ele>
        <time>2022-04-09T10:02:28Z</time>
      </trkpt>
      <trkpt lat="47.17586" lon="-1.70148">
        <ele>80</ele>
        <time>2022-04-09T10:02:30Z</time>
      </trkpt>
      <trkpt lat="47.17589" lon="-1.70165">
        <ele>80</ele>
        <time>2022-04-09T10:02:32Z</time>
      </trkpt>
      <trkpt lat="47.17592" lon="-1.70182">
        <ele>80</ele>
        <time>2022-04-09T10:02:34Z</time>
      </trkpt>
      <trkpt lat="47.17596" lon="-1.702">
        <ele>80</ele>
        <time>2022-04-09T10:02:36Z</time>
      </trkpt>
      <trkpt lat="47.17598" lon="-1.70218">
        <ele>80</ele>
        <time>2022-04-09T10:02:38Z</time>
      </trkpt>
      <trkpt lat="47.17598" lon="-1.70236">
        <ele>80</ele>
        <time>2022-04-09T10:02:40Z</time>
      </trkpt>
      <trkpt lat="47.17598" lon="-1.70254">
        <ele>80</ele>
        <time>2022-04-09T10:02:42Z</time>
      </trkpt>
      <trkpt lat="47.17596" lon="-1.70272">
        <ele>80</ele>
        <time>2022-04-09T10:02:44Z</time>
      </trkpt>
      <trkpt lat="47.17592" lon="-1.70289">
        <ele>80</ele>
        <time>2022-04-09T10:02:46Z</time>
      </trkpt>
      <trkpt lat="47.17588" lon="-1.70306">
        <ele>80</ele>
        <time>2022-04-09T10:02:48Z</time>
      </trkpt>
      <trkpt lat="47.17582" lon="-1.70322">
        <ele>80</ele>
        <time>2022-04-09T10:02:50Z</time>
      </trkpt>
      <trkpt lat="47.17576" lon="-1.70338">
        <ele>81</ele>
        <time>2022-04-09T10:02:52Z</time>
      </trkpt>
      <trkpt lat="47.17571" lon="-1.70353">
        <ele>81</ele>
        <time>2022-04-09T10:02:54Z</time>
      </trkpt>
      <trkpt lat="47.17571" lon="-1.70369">
        <ele>82</ele>
        <time>2022-04-09T10:02:56Z</time>
      </trkpt>
      <trkpt lat="47.17578" lon="-1.70381">
        <ele>82</ele>
        <time>2022-04-09T10:02:58Z</time>
      </trkpt>
      <trkpt lat="47.17589" lon="-1.70384">
        <ele>82</ele>
        <time>2022-04-09T10:03:00Z</time>
      </trkpt>
      <trkpt lat="47.176" lon="-1.70383">
        <ele>83</ele>
        <time>2022-04-09T10:03:02Z</time>
      </trkpt>
      <trkpt lat="47.1761" lon="-1.7039">
        <ele>83</ele>
        <time>2022-04-09T10:03:04Z</time>
      </trkpt>
      <trkpt lat="47.17617" lon="-1.70402">
        <ele>83</ele>
        <time>2022-04-09T10:03:06Z</time>
      </trkpt>
      <trkpt lat="47.17619" lon="-1.70418">
        <ele>83</ele>
        <time>2022-04-09T10:03:08Z</time>
      </trkpt>
      <trkpt lat="47.17617" lon="-1.70434">
        <ele>83</ele>
        <time>2022-04-09T10:03:10Z</time>
      </trkpt>
      <trkpt lat="47.17612" lon="-1.7045">
        <ele>83</ele>
        <time>2022-04-09T10:03:12Z</time>
      </trkpt>
      <trkpt lat="47.17613" lon="-1.70468">
        <ele>82</ele>
        <time>2022-04-09T10:03:14Z</time>
      </trkpt>
      <trkpt lat="47.1762" lon="-1.70481">
        <ele>82</ele>
        <time>2022-04-09T10:03:16Z</time>
      </trkpt>
      <trkpt lat="47.17629" lon="-1.70496">
        <ele>82</ele>
        <time>2022-04-09T10:03:18Z</time>
      </trkpt>
      <trkpt lat="47.17639" lon="-1.70509">
        <ele>81</ele>
        <time>2022-04-09T10:03:20Z</time>
      </trkpt>
      <trkpt lat="47.17651" lon="-1.70521">
        <ele>81</ele>
        <time>2022-04-09T10:03:22Z</time>
      </trkpt>
      <trkpt lat="47.17663" lon="-1.70531">
        <ele>80</ele>
        <time>2022-04-09T10:03:24Z</time>
      </trkpt>
      <trkpt lat="47.17674" lon="-1.70542">
        <ele>80</ele>
        <time>2022-04-09T10:03:26Z</time>
      </trkpt>
      <trkpt lat="47.17685" lon="-1.70553">
        <ele>80</ele>
        <time>2022-04-09T10:03:28Z</time>
      </trkpt>
      <trkpt lat="47.17696" lon="-1.70563">
        <ele>80</ele>
        <time>2022-04-09T10:03:30Z</time>
      </trkpt>
      <trkpt lat="47.17706" lon="-1.70574">
        <ele>80</ele>
        <time>2022-04-09T10:03:32Z</time>
      </trkpt>
      <trkpt lat="47.17716" lon="-1.70585">
        <ele>80</ele>
        <time>2022-04-09T10:03:34Z</time>
      </trkpt>
      <trkpt lat="47.17724" lon="-1.70599">
        <ele>80</ele>
        <time>2022-04-09T10:03:36Z</time>
      </trkpt>
      <trkpt lat="47.17731" lon="-1.70613">
        <ele>80</ele>
        <time>2022-04-09T10:03:38Z</time>
      </trkpt>
      <trkpt lat="47.17738" lon="-1.70628">
        <ele>80</ele>
        <time>2022-04-09T10:03:40Z</time>
      </trkpt>
      <trkpt lat="47.17743" lon="-1.70644">
        <ele>80</ele>
        <time>2022-04-09T10:03:42Z</time>
      </trkpt>
      <trkpt lat="47.17749" lon="-1.70659">
        <ele>80</ele>
        <time>2022-04-09T10:03:44Z</time>
      </trkpt>
      <trkpt lat="47.17754" lon="-1.70675">
        <ele>80</ele>
        <time>2022-04-09T10:03:46Z</time>
      </trkpt>
      <trkpt lat="47.17759" lon="-1.7069">
        <ele>80</ele>
        <time>2022-04-09T10:03:48Z</time>
      </trkpt>
      <trkpt lat="47.17764" lon="-1.70705">
        <ele>80</ele>
        <time>2022-04-09T10:03:50Z</time>
      </trkpt>
      <trkpt lat="47.17769" lon="-1.7072">
        <ele>80</ele>
        <time>2022-04-09T10:03:52Z</time>
      </trkpt>
      <trkpt lat="47.17775" lon="-1.70736">
        <ele>79</ele>
        <time>2022-04-09T10:03:54Z</time>
      </trkpt>
      <trkpt lat="47.1778" lon="-1.70752">
        <ele>79</ele>
        <time>2022-04-09T10:03:56Z</time>
      </trkpt>
      <trkpt lat="47.17785" lon="-1.70768">
        <ele>79</ele>
        <time>2022-04-09T10:03:58Z</time>
      </trkpt>
      <trkpt lat="47.1779" lon="-1.70783">
        <ele>79</ele>
        <time>2022-04-09T10:04:00Z</time>
      </trkpt>
      <trkpt lat="47.17795" lon="-1.70798">
        <ele>79</ele>
        <time>2022-04-09T10:04:02Z</time>
      </trkpt>
      <trkpt lat="47.17801" lon="-1.70814">
        <ele>79</ele>
        <time>2022-04-09T10:04:04Z</time>
      </trkpt>
      <trkpt lat="47.17806" lon="-1.70829">
        <ele>79</ele>
        <time>2022-04-09T10:04:06Z</time>
      </trkpt>
      <trkpt lat="47.17811" lon="-1.70845">
        <ele>80</ele>
        <time>2022-04-09T10:04:08Z</time>
      </trkpt>
      <trkpt lat="47.17816" lon="-1.7086">
        <ele>80</ele>
        <time>2022-04-09T10:04:10Z</time>
      </trkpt>
      <trkpt lat="47.17821" lon="-1.70875">
        <ele>80</ele>
        <time>2022-04-09T10:04:12Z</time>
      </trkpt>
      <trkpt lat="47.17826" lon="-1.7089">
        <ele>80</ele>
        <time>2022-04-09T10:04:14Z</time>
      </trkpt>
      <trkpt lat="47.17831" lon="-1.70905">
        <ele>79</ele>
        <time>2022-04-09T10:04:16Z</time>
      </trkpt>
      <trkpt lat="47.17836" lon="-1.7092">
        <ele>79</ele>
        <time>2022-04-09T10:04:18Z</time>
      </trkpt>
      <trkpt lat="47.17841" lon="-1.70935">
        <ele>79</ele>
        <time>2022-04-09T10:04:20Z</time>
      </trkpt>
      <trkpt lat="47.17846" lon="-1.70949">
        <ele>79</ele>
        <time>2022-04-09T10:04:22Z</time>
      </trkpt>
      <trkpt lat="47.17852" lon="-1.70964">
        <ele>80</ele>
        <time>2022-04-09T10:04:24Z</time>
      </trkpt>
      <trkpt lat="47.17859" lon="-1.70977">
        <ele>80</ele>
        <time>2022-04-09T10:04:26Z</time>
      </trkpt>
      <trkpt lat="47.17866" lon="-1.7099">
        <ele>80</ele>
        <time>2022-04-09T10:04:28Z</time>
      </trkpt>
      <trkpt lat="47.17873" lon="-1.71004">
        <ele>80</ele>
        <time>2022-04-09T10:04:30Z</time>
      </trkpt>
      <trkpt lat="47.17879" lon="-1.71018">
        <ele>80</ele>
        <time>2022-04-09T10:04:32Z</time>
      </trkpt>
      <trkpt lat="47.17885" lon="-1.71033">
        <ele>80</ele>
        <time>2022-04-09T10:04:34Z</time>
      </trkpt>
      <trkpt lat="47.1789" lon="-1.71049">
        <ele>80</ele>
        <time>2022-04-09T10:04:36Z</time>
      </trkpt>
      <trkpt lat="47.17895" lon="-1.71064">
        <ele>80</ele>
        <time>2022-04-09T10:04:38Z</time>
      </trkpt>
      <trkpt lat="47.179" lon="-1.7108">
        <ele>80</ele>
        <time>2022-04-09T10:04:40Z</time>
      </trkpt>
      <trkpt lat="47.17905" lon="-1.71096">
        <ele>80</ele>
        <time>2022-04-09T10:04:42Z</time>
      </trkpt>
      <trkpt lat="47.1791" lon="-1.71111">
        <ele>80</ele>
        <time>2022-04-09T10:04:44Z</time>
      </trkpt>
      <trkpt lat="47.17914" lon="-1.71127">
        <ele>80</ele>
        <time>2022-04-09T10:04:46Z</time>
      </trkpt>
      <trkpt lat="47.17919" lon="-1.71143">
        <ele>80</ele>
        <time>2022-04-09T10:04:48Z</time>
      </trkpt>
      <trkpt lat="47.17922" lon="-1.71161">
        <ele>80</ele>
        <time>2022-04-09T10:04:50Z</time>
      </trkpt>
      <trkpt lat="47.17925" lon="-1.71178">
        <ele>80</ele>
        <time>2022-04-09T10:04:52Z</time>
      </trkpt>
      <trkpt lat="47.17927" lon="-1.71195">
        <ele>80</ele>
        <time>2022-04-09T10:04:54Z</time>
      </trkpt>
      <trkpt lat="47.17931" lon="-1.71212">
        <ele>80</ele>
        <time>2022-04-09T10:04:56Z</time>
      </trkpt>
      <trkpt lat="47.17936" lon="-1.71228">
        <ele>81</ele>
        <time>2022-04-09T10:04:58Z</time>
      </trkpt>
      <trkpt lat="47.17941" lon="-1.71244">
        <ele>81</ele>
        <time>2022-04-09T10:05:00Z</time>
      </trkpt>
      <trkpt lat="47.17946" lon="-1.71259">
        <ele>81</ele>
        <time>2022-04-09T10:05:02Z</time>
      </trkpt>
      <trkpt lat="47.17951" lon="-1.71274">
        <ele>81</ele>
        <time>2022-04-09T10:05:04Z</time>
      </trkpt>
      <trkpt lat="47.17956" lon="-1.7129">
        <ele>81</ele>
        <time>2022-04-09T10:05:06Z</time>
      </trkpt>
      <trkpt lat="47.17961" lon="-1.71305">
        <ele>80</ele>
        <time>2022-04-09T10:05:08Z</time>
      </trkpt>
      <trkpt lat="47.17966" lon="-1.71321">
        <ele>80</ele>
        <time>2022-04-09T10:05:10Z</time>
      </trkpt>
      <trkpt lat="47.17971" lon="-1.71337">
        <ele>80</ele>
        <time>2022-04-09T10:05:12Z</time>
      </trkpt>
      <trkpt lat="47.17977" lon="-1.71352">
        <ele>80</ele>
        <time>2022-04-09T10:05:14Z</time>
      </trkpt>
      <trkpt lat="47.17981" lon="-1.71368">
        <ele>80</ele>
        <time>2022-04-09T10:05:16Z</time>
      </trkpt>
      <trkpt lat="47.17986" lon="-1.71383">
        <ele>80</ele>
        <time>2022-04-09T10:05:18Z</time>
      </trkpt>
      <trkpt lat="47.17991" lon="-1.71398">
        <ele>80</ele>
        <time>2022-04-09T10:05:20Z</time>
      </trkpt>
      <trkpt lat="47.17996" lon="-1.71413">
        <ele>80</ele>
        <time>2022-04-09T10:05:22Z</time>
      </trkpt>
      <trkpt lat="47.18001" lon="-1.71428">
        <ele>80</ele>
        <time>2022-04-09T10:05:24Z</time>
      </trkpt>
      <trkpt lat="47.18006" lon="-1.71444">
        <ele>80</ele>
        <time>2022-04-09T10:05:26Z</time>
      </trkpt>
      <trkpt lat="47.18011" lon="-1.71459">
        <ele>80</ele>
        <time>2022-04-09T10:05:28Z</time>
      </trkpt>
      <trkpt lat="47.18016" lon="-1.71474">
        <ele>80</ele>
        <time>2022-04-09T10:05:30Z</time>
      </trkpt>
      <trkpt lat="47.18021" lon="-1.7149">
        <ele>80</ele>
        <time>2022-04-09T10:05:32Z</time>
      </trkpt>
      <trkpt lat="47.18026" lon="-1.71504">
        <ele>79</ele>
        <time>2022-04-09T10:05:34Z</time>
      </trkpt>
      <trkpt lat="47.1803" lon="-1.71519">
        <ele>79</ele>
        <time>2022-04-09T10:05:36Z</time>
      </trkpt>
      <trkpt lat="47.18036" lon="-1.71535">
        <ele>79</ele>
        <time>2022-04-09T10:05:38Z</time>
      </trkpt>
      <trkpt lat="47.18041" lon="-1.71551">
        <ele>79</ele>
        <time>2022-04-09T10:05:40Z</time>
      </trkpt>
      <trkpt lat="47.18045" lon="-1.71566">
        <ele>79</ele>
        <time>2022-04-09T10:05:42Z</time>
      </trkpt>
      <trkpt lat="47.1805" lon="-1.7158">
        <ele>79</ele>
        <time>2022-04-09T10:05:44Z</time>
      </trkpt>
      <trkpt lat="47.18055" lon="-1.71595">
        <ele>79</ele>
        <time>2022-04-09T10:05:46Z</time>
      </trkpt>
      <trkpt lat="47.1806" lon="-1.71611">
        <ele>79</ele>
        <time>2022-04-09T10:05:48Z</time>
      </trkpt>
      <trkpt lat="47.18065" lon="-1.71627">
        <ele>79</ele>
        <time>2022-04-09T10:05:50Z</time>
      </trkpt>
      <trkpt lat="47.1807" lon="-1.71642">
        <ele>79</ele>
        <time>2022-04-09T10:05:52Z</time>
      </trkpt>
      <trkpt lat="47.18075" lon="-1.71657">
        <ele>79</ele>
        <time>2022-04-09T10:05:54Z</time>
      </trkpt>
      <trkpt lat="47.1808" lon="-1.71672">
        <ele>79</ele>
        <time>2022-04-09T10:05:56Z</time>
      </trkpt>
      <trkpt lat="47.18085" lon="-1.71686">
        <ele>79</ele>
        <time>2022-04-09T10:05:58Z</time>
      </trkpt>
      <trkpt lat="47.1809" lon="-1.71701">
        <ele>78</ele>
        <time>2022-04-09T10:06:00Z</time>
      </trkpt>
      <trkpt lat="47.18095" lon="-1.71716">
        <ele>79</ele>
        <time>2022-04-09T10:06:02Z</time>
      </trkpt>
      <trkpt lat="47.18101" lon="-1.7173">
        <ele>79</ele>
        <time>2022-04-09T10:06:04Z</time>
      </trkpt>
      <trkpt lat="47.18106" lon="-1.71745">
        <ele>79</ele>
        <time>2022-04-09T10:06:06Z</time>
      </trkpt>
      <trkpt lat="47.18111" lon="-1.7176">
        <ele>78</ele>
        <time>2022-04-09T10:06:08Z</time>
      </trkpt>
      <trkpt lat="47.18117" lon="-1.71775">
        <ele>79</ele>
        <time>2022-04-09T10:06:10Z</time>
      </trkpt>
      <trkpt lat="47.18122" lon="-1.7179">
        <ele>78</ele>
        <time>2022-04-09T10:06:12Z</time>
      </trkpt>
      <trkpt lat="47.18128" lon="-1.71805">
        <ele>78</ele>
        <time>2022-04-09T10:06:14Z</time>
      </trkpt>
      <trkpt lat="47.18133" lon="-1.71819">
        <ele>78</ele>
        <time>2022-04-09T10:06:16Z</time>
      </trkpt>
      <trkpt lat="47.18138" lon="-1.71834">
        <ele>78</ele>
        <time>2022-04-09T10:06:18Z</time>
      </trkpt>
      <trkpt lat="47.18142" lon="-1.71849">
        <ele>78</ele>
        <time>2022-04-09T10:06:20Z</time>
      </trkpt>
      <trkpt lat="47.18147" lon="-1.71864">
        <ele>79</ele>
        <time>2022-04-09T10:06:22Z</time>
      </trkpt>
      <trkpt lat="47.18152" lon="-1.71879">
        <ele>79</ele>
        <time>2022-04-09T10:06:24Z</time>
      </trkpt>
      <trkpt lat="47.18157" lon="-1.71894">
        <ele>78</ele>
        <time>2022-04-09T10:06:26Z</time>
      </trkpt>
      <trkpt lat="47.18162" lon="-1.71909">
        <ele>79</ele>
        <time>2022-04-09T10:06:28Z</time>
      </trkpt>
      <trkpt lat="47.18167" lon="-1.71924">
        <ele>79</ele>
        <time>2022-04-09T10:06:30Z</time>
      </trkpt>
      <trkpt lat="47.18171" lon="-1.71938">
        <ele>79</ele>
        <time>2022-04-09T10:06:32Z</time>
      </trkpt>
      <trkpt lat="47.18176" lon="-1.71954">
        <ele>79</ele>
        <time>2022-04-09T10:06:34Z</time>
      </trkpt>
      <trkpt lat="47.18181" lon="-1.71969">
        <ele>78</ele>
        <time>2022-04-09T10:06:36Z</time>
      </trkpt>
      <trkpt lat="47.18186" lon="-1.71984">
        <ele>78</ele>
        <time>2022-04-09T10:06:38Z</time>
      </trkpt>
      <trkpt lat="47.18191" lon="-1.71999">
        <ele>78</ele>
        <time>2022-04-09T10:06:40Z</time>
      </trkpt>
      <trkpt lat="47.18196" lon="-1.72014">
        <ele>78</ele>
        <time>2022-04-09T10:06:42Z</time>
      </trkpt>
      <trkpt lat="47.182" lon="-1.72029">
        <ele>78</ele>
        <time>2022-04-09T10:06:44Z</time>
      </trkpt>
      <trkpt lat="47.18205" lon="-1.72044">
        <ele>78</ele>
        <time>2022-04-09T10:06:46Z</time>
      </trkpt>
      <trkpt lat="47.1821" lon="-1.72059">
        <ele>78</ele>
        <time>2022-04-09T10:06:48Z</time>
      </trkpt>
      <trkpt lat="47.18214" lon="-1.72073">
        <ele>78</ele>
        <time>2022-04-09T10:06:50Z</time>
      </trkpt>
      <trkpt lat="47.18219" lon="-1.72088">
        <ele>78</ele>
        <time>2022-04-09T10:06:52Z</time>
      </trkpt>
      <trkpt lat="47.18224" lon="-1.72102">
        <ele>78</ele>
        <time>2022-04-09T10:06:54Z</time>
      </trkpt>
      <trkpt lat="47.18228" lon="-1.72117">
        <ele>78</ele>
        <time>2022-04-09T10:06:56Z</time>
      </trkpt>
      <trkpt lat="47.18233" lon="-1.72132">
        <ele>78</ele>
        <time>2022-04-09T10:06:58Z</time>
      </trkpt>
      <trkpt lat="47.18238" lon="-1.72147">
        <ele>78</ele>
        <time>2022-04-09T10:07:00Z</time>
      </trkpt>
      <trkpt lat="47.18243" lon="-1.72163">
        <ele>78</ele>
        <time>2022-04-09T10:07:02Z</time>
      </trkpt>
      <trkpt lat="47.18248" lon="-1.72178">
        <ele>78</ele>
        <time>2022-04-09T10:07:04Z</time>
      </trkpt>
      <trkpt lat="47.18252" lon="-1.72193">
        <ele>78</ele>
        <time>2022-04-09T10:07:06Z</time>
      </trkpt>
      <trkpt lat="47.18256" lon="-1.72209">
        <ele>78</ele>
        <time>2022-04-09T10:07:08Z</time>
      </trkpt>
      <trkpt lat="47.18259" lon="-1.72225">
        <ele>78</ele>
        <time>2022-04-09T10:07:10Z</time>
      </trkpt>
      <trkpt lat="47.18262" lon="-1.72242">
        <ele>78</ele>
        <time>2022-04-09T10:07:12Z</time>
      </trkpt>
      <trkpt lat="47.18263" lon="-1.72259">
        <ele>78</ele>
        <time>2022-04-09T10:07:14Z</time>
      </trkpt>
      <trkpt lat="47.18265" lon="-1.72276">
        <ele>78</ele>
        <time>2022-04-09T10:07:16Z</time>
      </trkpt>
      <trkpt lat="47.18267" lon="-1.72293">
        <ele>78</ele>
        <time>2022-04-09T10:07:18Z</time>
      </trkpt>
      <trkpt lat="47.18268" lon="-1.72311">
        <ele>78</ele>
        <time>2022-04-09T10:07:20Z</time>
      </trkpt>
      <trkpt lat="47.1827" lon="-1.72329">
        <ele>77</ele>
        <time>2022-04-09T10:07:22Z</time>
      </trkpt>
      <trkpt lat="47.18272" lon="-1.72346">
        <ele>77</ele>
        <time>2022-04-09T10:07:24Z</time>
      </trkpt>
      <trkpt lat="47.18274" lon="-1.72364">
        <ele>77</ele>
        <time>2022-04-09T10:07:26Z</time>
      </trkpt>
      <trkpt lat="47.18275" lon="-1.72382">
        <ele>78</ele>
        <time>2022-04-09T10:07:28Z</time>
      </trkpt>
      <trkpt lat="47.18275" lon="-1.72399">
        <ele>78</ele>
        <time>2022-04-09T10:07:30Z</time>
      </trkpt>
      <trkpt lat="47.18275" lon="-1.72416">
        <ele>78</ele>
        <time>2022-04-09T10:07:32Z</time>
      </trkpt>
      <trkpt lat="47.18274" lon="-1.72433">
        <ele>79</ele>
        <time>2022-04-09T10:07:34Z</time>
      </trkpt>
      <trkpt lat="47.18273" lon="-1.72449">
        <ele>79</ele>
        <time>2022-04-09T10:07:36Z</time>
      </trkpt>
      <trkpt lat="47.1827" lon="-1.72465">
        <ele>80</ele>
        <time>2022-04-09T10:07:38Z</time>
      </trkpt>
      <trkpt lat="47.18267" lon="-1.7248">
        <ele>80</ele>
        <time>2022-04-09T10:07:40Z</time>
      </trkpt>
      <trkpt lat="47.18264" lon="-1.72496">
        <ele>81</ele>
        <time>2022-04-09T10:07:42Z</time>
      </trkpt>
      <trkpt lat="47.18262" lon="-1.72511">
        <ele>81</ele>
        <time>2022-04-09T10:07:44Z</time>
      </trkpt>
      <trkpt lat="47.18263" lon="-1.72527">
        <ele>82</ele>
        <time>2022-04-09T10:07:46Z</time>
      </trkpt>
      <trkpt lat="47.18267" lon="-1.72542">
        <ele>82</ele>
        <time>2022-04-09T10:07:48Z</time>
      </trkpt>
      <trkpt lat="47.18276" lon="-1.72551">
        <ele>82</ele>
        <time>2022-04-09T10:07:50Z</time>
      </trkpt>
      <trkpt lat="47.18288" lon="-1.72551">
        <ele>82</ele>
        <time>2022-04-09T10:07:52Z</time>
      </trkpt>
      <trkpt lat="47.18299" lon="-1.7255">
        <ele>82</ele>
        <time>2022-04-09T10:07:54Z</time>
      </trkpt>
      <trkpt lat="47.18309" lon="-1.72556">
        <ele>83</ele>
        <time>2022-04-09T10:07:56Z</time>
      </trkpt>
      <trkpt lat="47.18316" lon="-1.72569">
        <ele>83</ele>
        <time>2022-04-09T10:07:58Z</time>
      </trkpt>
      <trkpt lat="47.18318" lon="-1.72586">
        <ele>82</ele>
        <time>2022-04-09T10:08:00Z</time>
      </trkpt>
      <trkpt lat="47.18315" lon="-1.72604">
        <ele>82</ele>
        <time>2022-04-09T10:08:02Z</time>
      </trkpt>
      <trkpt lat="47.18313" lon="-1.72621">
        <ele>82</ele>
        <time>2022-04-09T10:08:04Z</time>
      </trkpt>
      <trkpt lat="47.18318" lon="-1.72638">
        <ele>82</ele>
        <time>2022-04-09T10:08:06Z</time>
      </trkpt>
      <trkpt lat="47.18323" lon="-1.72654">
        <ele>82</ele>
        <time>2022-04-09T10:08:08Z</time>
      </trkpt>
      <trkpt lat="47.18328" lon="-1.72671">
        <ele>81</ele>
        <time>2022-04-09T10:08:10Z</time>
      </trkpt>
      <trkpt lat="47.18334" lon="-1.7269">
        <ele>81</ele>
        <time>2022-04-09T10:08:12Z</time>
      </trkpt>
      <trkpt lat="47.1834" lon="-1.72708">
        <ele>80</ele>
        <time>2022-04-09T10:08:14Z</time>
      </trkpt>
      <trkpt lat="47.18347" lon="-1.72727">
        <ele>80</ele>
        <time>2022-04-09T10:08:16Z</time>
      </trkpt>
      <trkpt lat="47.18354" lon="-1.72747">
        <ele>79</ele>
        <time>2022-04-09T10:08:18Z</time>
      </trkpt>
      <trkpt lat="47.1836" lon="-1.72765">
        <ele>79</ele>
        <time>2022-04-09T10:08:20Z</time>
      </trkpt>
      <trkpt lat="47.18366" lon="-1.72783">
        <ele>79</ele>
        <time>2022-04-09T10:08:22Z</time>
      </trkpt>
      <trkpt lat="47.18372" lon="-1.728">
        <ele>79</ele>
        <time>2022-04-09T10:08:24Z</time>
      </trkpt>
      <trkpt lat="47.18378" lon="-1.72816">
        <ele>78</ele>
        <time>2022-04-09T10:08:26Z</time>
      </trkpt>
      <trkpt lat="47.18384" lon="-1.72832">
        <ele>78</ele>
        <time>2022-04-09T10:08:28Z</time>
      </trkpt>
      <trkpt lat="47.18389" lon="-1.72848">
        <ele>78</ele>
        <time>2022-04-09T10:08:30Z</time>
      </trkpt>
      <trkpt lat="47.18394" lon="-1.72863">
        <ele>79</ele>
        <time>2022-04-09T10:08:32Z</time>
      </trkpt>
      <trkpt lat="47.18399" lon="-1.72878">
        <ele>79</ele>
        <time>2022-04-09T10:08:34Z</time>
      </trkpt>
      <trkpt lat="47.18404" lon="-1.72894">
        <ele>79</ele>
        <time>2022-04-09T10:08:36Z</time>
      </trkpt>
      <trkpt lat="47.18409" lon="-1.7291">
        <ele>79</ele>
        <time>2022-04-09T10:08:38Z</time>
      </trkpt>
      <trkpt lat="47.18413" lon="-1.72926">
        <ele>79</ele>
        <time>2022-04-09T10:08:40Z</time>
      </trkpt>
      <trkpt lat="47.18416" lon="-1.72942">
        <ele>79</ele>
        <time>2022-04-09T10:08:42Z</time>
      </trkpt>
      <trkpt lat="47.18419" lon="-1.72959">
        <ele>79</ele>
        <time>2022-04-09T10:08:44Z</time>
      </trkpt>
      <trkpt lat="47.18422" lon="-1.72977">
        <ele>78</ele>
        <time>2022-04-09T10:08:46Z</time>
      </trkpt>
      <trkpt lat="47.18425" lon="-1.72995">
        <ele>78</ele>
        <time>2022-04-09T10:08:48Z</time>
      </trkpt>
      <trkpt lat="47.18427" lon="-1.73013">
        <ele>78</ele>
        <time>2022-04-09T10:08:50Z</time>
      </trkpt>
      <trkpt lat="47.18429" lon="-1.73031">
        <ele>78</ele>
        <time>2022-04-09T10:08:52Z</time>
      </trkpt>
      <trkpt lat="47.18431" lon="-1.73049">
        <ele>78</ele>
        <time>2022-04-09T10:08:54Z</time>
      </trkpt>
      <trkpt lat="47.18433" lon="-1.73066">
        <ele>78</ele>
        <time>2022-04-09T10:08:56Z</time>
      </trkpt>
      <trkpt lat="47.18436" lon="-1.73084">
        <ele>78</ele>
        <time>2022-04-09T10:08:58Z</time>
      </trkpt>
      <trkpt lat="47.18438" lon="-1.73102">
        <ele>78</ele>
        <time>2022-04-09T10:09:00Z</time>
      </trkpt>
      <trkpt lat="47.1844" lon="-1.7312">
        <ele>78</ele>
        <time>2022-04-09T10:09:02Z</time>
      </trkpt>
      <trkpt lat="47.18442" lon="-1.73138">
        <ele>78</ele>
        <time>2022-04-09T10:09:04Z</time>
      </trkpt>
      <trkpt lat="47.18445" lon="-1.73155">
        <ele>78</ele>
        <time>2022-04-09T10:09:06Z</time>
      </trkpt>
      <trkpt lat="47.18448" lon="-1.73174">
        <ele>78</ele>
        <time>2022-04-09T10:09:08Z</time>
      </trkpt>
      <trkpt lat="47.1845" lon="-1.73192">
        <ele>78</ele>
        <time>2022-04-09T10:09:10Z</time>
      </trkpt>
      <trkpt lat="47.18453" lon="-1.7321">
        <ele>78</ele>
        <time>2022-04-09T10:09:12Z</time>
      </trkpt>
      <trkpt lat="47.18455" lon="-1.73229">
        <ele>77</ele>
        <time>2022-04-09T10:09:14Z</time>
      </trkpt>
      <trkpt lat="47.18457" lon="-1.73247">
        <ele>77</ele>
        <time>2022-04-09T10:09:16Z</time>
      </trkpt>
      <trkpt lat="47.1846" lon="-1.73265">
        <ele>77</ele>
        <time>2022-04-09T10:09:18Z</time>
      </trkpt>
      <trkpt lat="47.18462" lon="-1.73284">
        <ele>77</ele>
        <time>2022-04-09T10:09:20Z</time>
      </trkpt>
      <trkpt lat="47.18465" lon="-1.73311">
        <ele>77</ele>
        <time>2022-04-09T10:09:23Z</time>
      </trkpt>
      <trkpt lat="47.18467" lon="-1.7333">
        <ele>77</ele>
        <time>2022-04-09T10:09:25Z</time>
      </trkpt>
      <trkpt lat="47.1847" lon="-1.73357">
        <ele>76</ele>
        <time>2022-04-09T10:09:28Z</time>
      </trkpt>
      <trkpt lat="47.18472" lon="-1.73375">
        <ele>76</ele>
        <time>2022-04-09T10:09:30Z</time>
      </trkpt>
      <trkpt lat="47.18473" lon="-1.73392">
        <ele>76</ele>
        <time>2022-04-09T10:09:32Z</time>
      </trkpt>
      <trkpt lat="47.18475" lon="-1.7341">
        <ele>76</ele>
        <time>2022-04-09T10:09:34Z</time>
      </trkpt>
      <trkpt lat="47.18477" lon="-1.73427">
        <ele>76</ele>
        <time>2022-04-09T10:09:36Z</time>
      </trkpt>
      <trkpt lat="47.18478" lon="-1.73445">
        <ele>76</ele>
        <time>2022-04-09T10:09:38Z</time>
      </trkpt>
      <trkpt lat="47.1848" lon="-1.73463">
        <ele>76</ele>
        <time>2022-04-09T10:09:40Z</time>
      </trkpt>
      <trkpt lat="47.18482" lon="-1.73482">
        <ele>76</ele>
        <time>2022-04-09T10:09:42Z</time>
      </trkpt>
      <trkpt lat="47.18484" lon="-1.735">
        <ele>76</ele>
        <time>2022-04-09T10:09:44Z</time>
      </trkpt>
      <trkpt lat="47.18485" lon="-1.73518">
        <ele>76</ele>
        <time>2022-04-09T10:09:46Z</time>
      </trkpt>
      <trkpt lat="47.18487" lon="-1.73536">
        <ele>76</ele>
        <time>2022-04-09T10:09:48Z</time>
      </trkpt>
      <trkpt lat="47.18488" lon="-1.73554">
        <ele>76</ele>
        <time>2022-04-09T10:09:50Z</time>
      </trkpt>
      <trkpt lat="47.1849" lon="-1.73572">
        <ele>76</ele>
        <time>2022-04-09T10:09:52Z</time>
      </trkpt>
      <trkpt lat="47.18492" lon="-1.73589">
        <ele>76</ele>
        <time>2022-04-09T10:09:54Z</time>
      </trkpt>
      <trkpt lat="47.18494" lon="-1.73606">
        <ele>77</ele>
        <time>2022-04-09T10:09:56Z</time>
      </trkpt>
      <trkpt lat="47.18496" lon="-1.73624">
        <ele>77</ele>
        <time>2022-04-09T10:09:58Z</time>
      </trkpt>
      <trkpt lat="47.18497" lon="-1.73642">
        <ele>77</ele>
        <time>2022-04-09T10:10:00Z</time>
      </trkpt>
      <trkpt lat="47.18499" lon="-1.73659">
        <ele>77</ele>
        <time>2022-04-09T10:10:02Z</time>
      </trkpt>
      <trkpt lat="47.18501" lon="-1.73677">
        <ele>77</ele>
        <time>2022-04-09T10:10:04Z</time>
      </trkpt>
      <trkpt lat="47.18502" lon="-1.73694">
        <ele>77</ele>
        <time>2022-04-09T10:10:06Z</time>
      </trkpt>
      <trkpt lat="47.18504" lon="-1.73711">
        <ele>77</ele>
        <time>2022-04-09T10:10:08Z</time>
      </trkpt>
      <trkpt lat="47.18506" lon="-1.73729">
        <ele>77</ele>
        <time>2022-04-09T10:10:10Z</time>
      </trkpt>
      <trkpt lat="47.18508" lon="-1.73746">
        <ele>77</ele>
        <time>2022-04-09T10:10:12Z</time>
      </trkpt>
      <trkpt lat="47.18509" lon="-1.73763">
        <ele>77</ele>
        <time>2022-04-09T10:10:14Z</time>
      </trkpt>
      <trkpt lat="47.18511" lon="-1.7378">
        <ele>77</ele>
        <time>2022-04-09T10:10:16Z</time>
      </trkpt>
      <trkpt lat="47.18513" lon="-1.73798">
        <ele>77</ele>
        <time>2022-04-09T10:10:18Z</time>
      </trkpt>
      <trkpt lat="47.18515" lon="-1.73815">
        <ele>77</ele>
        <time>2022-04-09T10:10:20Z</time>
      </trkpt>
      <trkpt lat="47.18516" lon="-1.73832">
        <ele>77</ele>
        <time>2022-04-09T10:10:22Z</time>
      </trkpt>
      <trkpt lat="47.18518" lon="-1.7385">
        <ele>77</ele>
        <time>2022-04-09T10:10:24Z</time>
      </trkpt>
      <trkpt lat="47.18519" lon="-1.73867">
        <ele>76</ele>
        <time>2022-04-09T10:10:26Z</time>
      </trkpt>
      <trkpt lat="47.1852" lon="-1.73884">
        <ele>77</ele>
        <time>2022-04-09T10:10:28Z</time>
      </trkpt>
      <trkpt lat="47.18522" lon="-1.73902">
        <ele>77</ele>
        <time>2022-04-09T10:10:30Z</time>
      </trkpt>
      <trkpt lat="47.18523" lon="-1.7392">
        <ele>77</ele>
        <time>2022-04-09T10:10:32Z</time>
      </trkpt>
      <trkpt lat="47.18524" lon="-1.73938">
        <ele>77</ele>
        <time>2022-04-09T10:10:34Z</time>
      </trkpt>
      <trkpt lat="47.18525" lon="-1.73956">
        <ele>76</ele>
        <time>2022-04-09T10:10:36Z</time>
      </trkpt>
      <trkpt lat="47.18525" lon="-1.73975">
        <ele>76</ele>
        <time>2022-04-09T10:10:38Z</time>
      </trkpt>
      <trkpt lat="47.18525" lon="-1.73993">
        <ele>76</ele>
        <time>2022-04-09T10:10:40Z</time>
      </trkpt>
      <trkpt lat="47.18524" lon="-1.74012">
        <ele>76</ele>
        <time>2022-04-09T10:10:42Z</time>
      </trkpt>
      <trkpt lat="47.18523" lon="-1.7403">
        <ele>76</ele>
        <time>2022-04-09T10:10:44Z</time>
      </trkpt>
      <trkpt lat="47.18522" lon="-1.74048">
        <ele>76</ele>
        <time>2022-04-09T10:10:46Z</time>
      </trkpt>
      <trkpt lat="47.1852" lon="-1.74066">
        <ele>75</ele>
        <time>2022-04-09T10:10:48Z</time>
      </trkpt>
      <trkpt lat="47.18519" lon="-1.74085">
        <ele>75</ele>
        <time>2022-04-09T10:10:50Z</time>
      </trkpt>
      <trkpt lat="47.1852" lon="-1.74104">
        <ele>75</ele>
        <time>2022-04-09T10:10:52Z</time>
      </trkpt>
      <trkpt lat="47.18522" lon="-1.74121">
        <ele>75</ele>
        <time>2022-04-09T10:10:54Z</time>
      </trkpt>
      <trkpt lat="47.18524" lon="-1.74138">
        <ele>75</ele>
        <time>2022-04-09T10:10:56Z</time>
      </trkpt>
      <trkpt lat="47.18522" lon="-1.74154">
        <ele>75</ele>
        <time>2022-04-09T10:10:58Z</time>
      </trkpt>
      <trkpt lat="47.18518" lon="-1.7417">
        <ele>74</ele>
        <time>2022-04-09T10:11:00Z</time>
      </trkpt>
      <trkpt lat="47.18518" lon="-1.74187">
        <ele>75</ele>
        <time>2022-04-09T10:11:02Z</time>
      </trkpt>
      <trkpt lat="47.18519" lon="-1.74204">
        <ele>75</ele>
        <time>2022-04-09T10:11:04Z</time>
      </trkpt>
      <trkpt lat="47.18519" lon="-1.7422">
        <ele>75</ele>
        <time>2022-04-09T10:11:06Z</time>
      </trkpt>
      <trkpt lat="47.1852" lon="-1.74236">
        <ele>76</ele>
        <time>2022-04-09T10:11:08Z</time>
      </trkpt>
      <trkpt lat="47.18521" lon="-1.74253">
        <ele>76</ele>
        <time>2022-04-09T10:11:10Z</time>
      </trkpt>
      <trkpt lat="47.18522" lon="-1.74269">
        <ele>76</ele>
        <time>2022-04-09T10:11:12Z</time>
      </trkpt>
      <trkpt lat="47.18523" lon="-1.74285">
        <ele>76</ele>
        <time>2022-04-09T10:11:14Z</time>
      </trkpt>
      <trkpt lat="47.18524" lon="-1.74303">
        <ele>76</ele>
        <time>2022-04-09T10:11:16Z</time>
      </trkpt>
      <trkpt lat="47.18525" lon="-1.7432">
        <ele>77</ele>
        <time>2022-04-09T10:11:18Z</time>
      </trkpt>
      <trkpt lat="47.18526" lon="-1.74336">
        <ele>77</ele>
        <time>2022-04-09T10:11:20Z</time>
      </trkpt>
      <trkpt lat="47.18526" lon="-1.74353">
        <ele>77</ele>
        <time>2022-04-09T10:11:22Z</time>
      </trkpt>
      <trkpt lat="47.18527" lon="-1.7437">
        <ele>77</ele>
        <time>2022-04-09T10:11:24Z</time>
      </trkpt>
      <trkpt lat="47.18527" lon="-1.74388">
        <ele>77</ele>
        <time>2022-04-09T10:11:26Z</time>
      </trkpt>
      <trkpt lat="47.18527" lon="-1.74404">
        <ele>78</ele>
        <time>2022-04-09T10:11:28Z</time>
      </trkpt>
      <trkpt lat="47.18527" lon="-1.74422">
        <ele>78</ele>
        <time>2022-04-09T10:11:30Z</time>
      </trkpt>
      <trkpt lat="47.18526" lon="-1.74439">
        <ele>78</ele>
        <time>2022-04-09T10:11:32Z</time>
      </trkpt>
      <trkpt lat="47.18525" lon="-1.74456">
        <ele>78</ele>
        <time>2022-04-09T10:11:34Z</time>
      </trkpt>
      <trkpt lat="47.18525" lon="-1.74474">
        <ele>77</ele>
        <time>2022-04-09T10:11:36Z</time>
      </trkpt>
      <trkpt lat="47.18524" lon="-1.74491">
        <ele>77</ele>
        <time>2022-04-09T10:11:38Z</time>
      </trkpt>
      <trkpt lat="47.18522" lon="-1.74508">
        <ele>77</ele>
        <time>2022-04-09T10:11:40Z</time>
      </trkpt>
      <trkpt lat="47.18521" lon="-1.74525">
        <ele>78</ele>
        <time>2022-04-09T10:11:42Z</time>
      </trkpt>
      <trkpt lat="47.1852" lon="-1.74542">
        <ele>77</ele>
        <time>2022-04-09T10:11:44Z</time>
      </trkpt>
      <trkpt lat="47.18518" lon="-1.7456">
        <ele>78</ele>
        <time>2022-04-09T10:11:46Z</time>
      </trkpt>
      <trkpt lat="47.18516" lon="-1.74577">
        <ele>78</ele>
        <time>2022-04-09T10:11:48Z</time>
      </trkpt>
      <trkpt lat="47.18514" lon="-1.74594">
        <ele>78</ele>
        <time>2022-04-09T10:11:50Z</time>
      </trkpt>
      <trkpt lat="47.18512" lon="-1.74612">
        <ele>77</ele>
        <time>2022-04-09T10:11:52Z</time>
      </trkpt>
      <trkpt lat="47.18511" lon="-1.74629">
        <ele>78</ele>
        <time>2022-04-09T10:11:54Z</time>
      </trkpt>
      <trkpt lat="47.18508" lon="-1.74646">
        <ele>78</ele>
        <time>2022-04-09T10:11:56Z</time>
      </trkpt>
      <trkpt lat="47.18506" lon="-1.74664">
        <ele>77</ele>
        <time>2022-04-09T10:11:58Z</time>
      </trkpt>
      <trkpt lat="47.18504" lon="-1.74682">
        <ele>77</ele>
        <time>2022-04-09T10:12:00Z</time>
      </trkpt>
      <trkpt lat="47.18503" lon="-1.74699">
        <ele>77</ele>
        <time>2022-04-09T10:12:02Z</time>
      </trkpt>
      <trkpt lat="47.185" lon="-1.74717">
        <ele>77</ele>
        <time>2022-04-09T10:12:04Z</time>
      </trkpt>
      <trkpt lat="47.18499" lon="-1.74734">
        <ele>78</ele>
        <time>2022-04-09T10:12:06Z</time>
      </trkpt>
      <trkpt lat="47.18497" lon="-1.74751">
        <ele>77</ele>
        <time>2022-04-09T10:12:08Z</time>
      </trkpt>
      <trkpt lat="47.18494" lon="-1.74768">
        <ele>77</ele>
        <time>2022-04-09T10:12:10Z</time>
      </trkpt>
      <trkpt lat="47.18491" lon="-1.74785">
        <ele>77</ele>
        <time>2022-04-09T10:12:12Z</time>
      </trkpt>
      <trkpt lat="47.18488" lon="-1.74802">
        <ele>77</ele>
        <time>2022-04-09T10:12:14Z</time>
      </trkpt>
      <trkpt lat="47.18486" lon="-1.74818">
        <ele>77</ele>
        <time>2022-04-09T10:12:16Z</time>
      </trkpt>
      <trkpt lat="47.18483" lon="-1.74836">
        <ele>76</ele>
        <time>2022-04-09T10:12:18Z</time>
      </trkpt>
      <trkpt lat="47.1848" lon="-1.74854">
        <ele>76</ele>
        <time>2022-04-09T10:12:20Z</time>
      </trkpt>
      <trkpt lat="47.18477" lon="-1.74872">
        <ele>76</ele>
        <time>2022-04-09T10:12:22Z</time>
      </trkpt>
      <trkpt lat="47.18473" lon="-1.74891">
        <ele>75</ele>
        <time>2022-04-09T10:12:24Z</time>
      </trkpt>
      <trkpt lat="47.18469" lon="-1.74909">
        <ele>74</ele>
        <time>2022-04-09T10:12:26Z</time>
      </trkpt>
      <trkpt lat="47.18466" lon="-1.74928">
        <ele>74</ele>
        <time>2022-04-09T10:12:28Z</time>
      </trkpt>
      <trkpt lat="47.18462" lon="-1.74947">
        <ele>74</ele>
        <time>2022-04-09T10:12:30Z</time>
      </trkpt>
      <trkpt lat="47.18458" lon="-1.74966">
        <ele>73</ele>
        <time>2022-04-09T10:12:32Z</time>
      </trkpt>
      <trkpt lat="47.18455" lon="-1.74986">
        <ele>73</ele>
        <time>2022-04-09T10:12:34Z</time>
      </trkpt>
      <trkpt lat="47.18451" lon="-1.75006">
        <ele>73</ele>
        <time>2022-04-09T10:12:36Z</time>
      </trkpt>
      <trkpt lat="47.18447" lon="-1.75025">
        <ele>72</ele>
        <time>2022-04-09T10:12:38Z</time>
      </trkpt>
      <trkpt lat="47.18443" lon="-1.75045">
        <ele>72</ele>
        <time>2022-04-09T10:12:40Z</time>
      </trkpt>
      <trkpt lat="47.18439" lon="-1.75064">
        <ele>71</ele>
        <time>2022-04-09T10:12:42Z</time>
      </trkpt>
      <trkpt lat="47.18436" lon="-1.75083">
        <ele>71</ele>
        <time>2022-04-09T10:12:44Z</time>
      </trkpt>
      <trkpt lat="47.18432" lon="-1.75102">
        <ele>71</ele>
        <time>2022-04-09T10:12:46Z</time>
      </trkpt>
      <trkpt lat="47.18429" lon="-1.75122">
        <ele>70</ele>
        <time>2022-04-09T10:12:48Z</time>
      </trkpt>
      <trkpt lat="47.18425" lon="-1.75141">
        <ele>70</ele>
        <time>2022-04-09T10:12:50Z</time>
      </trkpt>
      <trkpt lat="47.18422" lon="-1.7516">
        <ele>70</ele>
        <time>2022-04-09T10:12:52Z</time>
      </trkpt>
      <trkpt lat="47.18418" lon="-1.75179">
        <ele>70</ele>
        <time>2022-04-09T10:12:54Z</time>
      </trkpt>
      <trkpt lat="47.18414" lon="-1.75198">
        <ele>70</ele>
        <time>2022-04-09T10:12:56Z</time>
      </trkpt>
      <trkpt lat="47.18411" lon="-1.75216">
        <ele>70</ele>
        <time>2022-04-09T10:12:58Z</time>
      </trkpt>
      <trkpt lat="47.18409" lon="-1.75234">
        <ele>70</ele>
        <time>2022-04-09T10:13:00Z</time>
      </trkpt>
      <trkpt lat="47.18407" lon="-1.75253">
        <ele>71</ele>
        <time>2022-04-09T10:13:02Z</time>
      </trkpt>
      <trkpt lat="47.18404" lon="-1.7527">
        <ele>71</ele>
        <time>2022-04-09T10:13:04Z</time>
      </trkpt>
      <trkpt lat="47.18402" lon="-1.75287">
        <ele>70</ele>
        <time>2022-04-09T10:13:06Z</time>
      </trkpt>
      <trkpt lat="47.18401" lon="-1.75305">
        <ele>70</ele>
        <time>2022-04-09T10:13:08Z</time>
      </trkpt>
      <trkpt lat="47.184" lon="-1.75322">
        <ele>71</ele>
        <time>2022-04-09T10:13:10Z</time>
      </trkpt>
      <trkpt lat="47.18399" lon="-1.7534">
        <ele>70</ele>
        <time>2022-04-09T10:13:12Z</time>
      </trkpt>
      <trkpt lat="47.18398" lon="-1.75357">
        <ele>71</ele>
        <time>2022-04-09T10:13:14Z</time>
      </trkpt>
      <trkpt lat="47.18399" lon="-1.75375">
        <ele>70</ele>
        <time>2022-04-09T10:13:16Z</time>
      </trkpt>
      <trkpt lat="47.18401" lon="-1.75393">
        <ele>70</ele>
        <time>2022-04-09T10:13:18Z</time>
      </trkpt>
      <trkpt lat="47.18404" lon="-1.75409">
        <ele>70</ele>
        <time>2022-04-09T10:13:20Z</time>
      </trkpt>
      <trkpt lat="47.18403" lon="-1.75427">
        <ele>70</ele>
        <time>2022-04-09T10:13:22Z</time>
      </trkpt>
      <trkpt lat="47.184" lon="-1.75442">
        <ele>70</ele>
        <time>2022-04-09T10:13:24Z</time>
      </trkpt>
      <trkpt lat="47.18399" lon="-1.75458">
        <ele>70</ele>
        <time>2022-04-09T10:13:26Z</time>
      </trkpt>
      <trkpt lat="47.18398" lon="-1.75474">
        <ele>70</ele>
        <time>2022-04-09T10:13:28Z</time>
      </trkpt>
      <trkpt lat="47.18398" lon="-1.75489">
        <ele>71</ele>
        <time>2022-04-09T10:13:30Z</time>
      </trkpt>
      <trkpt lat="47.18399" lon="-1.75505">
        <ele>71</ele>
        <time>2022-04-09T10:13:32Z</time>
      </trkpt>
      <trkpt lat="47.18401" lon="-1.75522">
        <ele>71</ele>
        <time>2022-04-09T10:13:34Z</time>
      </trkpt>
      <trkpt lat="47.18402" lon="-1.75538">
        <ele>72</ele>
        <time>2022-04-09T10:13:36Z</time>
      </trkpt>
      <trkpt lat="47.18403" lon="-1.75555">
        <ele>72</ele>
        <time>2022-04-09T10:13:38Z</time>
      </trkpt>
      <trkpt lat="47.18405" lon="-1.75573">
        <ele>73</ele>
        <time>2022-04-09T10:13:40Z</time>
      </trkpt>
      <trkpt lat="47.18406" lon="-1.75589">
        <ele>73</ele>
        <time>2022-04-09T10:13:42Z</time>
      </trkpt>
      <trkpt lat="47.18407" lon="-1.75606">
        <ele>73</ele>
        <time>2022-04-09T10:13:44Z</time>
      </trkpt>
      <trkpt lat="47.18408" lon="-1.75622">
        <ele>73</ele>
        <time>2022-04-09T10:13:46Z</time>
      </trkpt>
      <trkpt lat="47.18408" lon="-1.75639">
        <ele>73</ele>
        <time>2022-04-09T10:13:48Z</time>
      </trkpt>
      <trkpt lat="47.18409" lon="-1.75655">
        <ele>73</ele>
        <time>2022-04-09T10:13:50Z</time>
      </trkpt>
      <trkpt lat="47.18409" lon="-1.75672">
        <ele>73</ele>
        <time>2022-04-09T10:13:52Z</time>
      </trkpt>
      <trkpt lat="47.18409" lon="-1.75688">
        <ele>73</ele>
        <time>2022-04-09T10:13:54Z</time>
      </trkpt>
      <trkpt lat="47.18409" lon="-1.75704">
        <ele>73</ele>
        <time>2022-04-09T10:13:56Z</time>
      </trkpt>
      <trkpt lat="47.18408" lon="-1.7572">
        <ele>73</ele>
        <time>2022-04-09T10:13:58Z</time>
      </trkpt>
      <trkpt lat="47.18408" lon="-1.75737">
        <ele>73</ele>
        <time>2022-04-09T10:14:00Z</time>
      </trkpt>
      <trkpt lat="47.18407" lon="-1.75754">
        <ele>73</ele>
        <time>2022-04-09T10:14:02Z</time>
      </trkpt>
      <trkpt lat="47.18405" lon="-1.7577">
        <ele>73</ele>
        <time>2022-04-09T10:14:04Z</time>
      </trkpt>
      <trkpt lat="47.18404" lon="-1.75787">
        <ele>73</ele>
        <time>2022-04-09T10:14:06Z</time>
      </trkpt>
      <trkpt lat="47.18402" lon="-1.75804">
        <ele>73</ele>
        <time>2022-04-09T10:14:08Z</time>
      </trkpt>
      <trkpt lat="47.184" lon="-1.75821">
        <ele>73</ele>
        <time>2022-04-09T10:14:10Z</time>
      </trkpt>
      <trkpt lat="47.18398" lon="-1.75838">
        <ele>73</ele>
        <time>2022-04-09T10:14:12Z</time>
      </trkpt>
      <trkpt lat="47.18396" lon="-1.75855">
        <ele>72</ele>
        <time>2022-04-09T10:14:14Z</time>
      </trkpt>
      <trkpt lat="47.18394" lon="-1.75873">
        <ele>72</ele>
        <time>2022-04-09T10:14:16Z</time>
      </trkpt>
      <trkpt lat="47.18392" lon="-1.7589">
        <ele>71</ele>
        <time>2022-04-09T10:14:18Z</time>
      </trkpt>
      <trkpt lat="47.1839" lon="-1.75908">
        <ele>71</ele>
        <time>2022-04-09T10:14:20Z</time>
      </trkpt>
      <trkpt lat="47.18388" lon="-1.75927">
        <ele>71</ele>
        <time>2022-04-09T10:14:22Z</time>
      </trkpt>
      <trkpt lat="47.18386" lon="-1.75945">
        <ele>71</ele>
        <time>2022-04-09T10:14:24Z</time>
      </trkpt>
      <trkpt lat="47.18384" lon="-1.75964">
        <ele>70</ele>
        <time>2022-04-09T10:14:26Z</time>
      </trkpt>
      <trkpt lat="47.18382" lon="-1.75982">
        <ele>70</ele>
        <time>2022-04-09T10:14:28Z</time>
      </trkpt>
      <trkpt lat="47.1838" lon="-1.76001">
        <ele>70</ele>
        <time>2022-04-09T10:14:30Z</time>
      </trkpt>
      <trkpt lat="47.18378" lon="-1.7602">
        <ele>69</ele>
        <time>2022-04-09T10:14:32Z</time>
      </trkpt>
      <trkpt lat="47.18375" lon="-1.76038">
        <ele>69</ele>
        <time>2022-04-09T10:14:34Z</time>
      </trkpt>
      <trkpt lat="47.18373" lon="-1.76058">
        <ele>69</ele>
        <time>2022-04-09T10:14:36Z</time>
      </trkpt>
      <trkpt lat="47.1837" lon="-1.76077">
        <ele>68</ele>
        <time>2022-04-09T10:14:38Z</time>
      </trkpt>
      <trkpt lat="47.18369" lon="-1.76096">
        <ele>68</ele>
        <time>2022-04-09T10:14:40Z</time>
      </trkpt>
      <trkpt lat="47.18366" lon="-1.76115">
        <ele>68</ele>
        <time>2022-04-09T10:14:42Z</time>
      </trkpt>
      <trkpt lat="47.18364" lon="-1.76135">
        <ele>67</ele>
        <time>2022-04-09T10:14:44Z</time>
      </trkpt>
      <trkpt lat="47.18361" lon="-1.76154">
        <ele>67</ele>
        <time>2022-04-09T10:14:46Z</time>
      </trkpt>
      <trkpt lat="47.18359" lon="-1.76174">
        <ele>66</ele>
        <time>2022-04-09T10:14:48Z</time>
      </trkpt>
      <trkpt lat="47.18357" lon="-1.76194">
        <ele>66</ele>
        <time>2022-04-09T10:14:50Z</time>
      </trkpt>
      <trkpt lat="47.18354" lon="-1.76214">
        <ele>66</ele>
        <time>2022-04-09T10:14:52Z</time>
      </trkpt>
      <trkpt lat="47.18352" lon="-1.76234">
        <ele>66</ele>
        <time>2022-04-09T10:14:54Z</time>
      </trkpt>
      <trkpt lat="47.18349" lon="-1.76255">
        <ele>66</ele>
        <time>2022-04-09T10:14:56Z</time>
      </trkpt>
      <trkpt lat="47.18348" lon="-1.76275">
        <ele>65</ele>
        <time>2022-04-09T10:14:58Z</time>
      </trkpt>
      <trkpt lat="47.18347" lon="-1.76295">
        <ele>65</ele>
        <time>2022-04-09T10:15:00Z</time>
      </trkpt>
      <trkpt lat="47.18346" lon="-1.76314">
        <ele>66</ele>
        <time>2022-04-09T10:15:02Z</time>
      </trkpt>
      <trkpt lat="47.18345" lon="-1.76333">
        <ele>66</ele>
        <time>2022-04-09T10:15:04Z</time>
      </trkpt>
      <trkpt lat="47.18344" lon="-1.76351">
        <ele>66</ele>
        <time>2022-04-09T10:15:06Z</time>
      </trkpt>
      <trkpt lat="47.18343" lon="-1.7637">
        <ele>66</ele>
        <time>2022-04-09T10:15:08Z</time>
      </trkpt>
      <trkpt lat="47.18342" lon="-1.76387">
        <ele>66</ele>
        <time>2022-04-09T10:15:10Z</time>
      </trkpt>
      <trkpt lat="47.18341" lon="-1.76406">
        <ele>66</ele>
        <time>2022-04-09T10:15:12Z</time>
      </trkpt>
      <trkpt lat="47.1834" lon="-1.76425">
        <ele>66</ele>
        <time>2022-04-09T10:15:14Z</time>
      </trkpt>
      <trkpt lat="47.18339" lon="-1.76443">
        <ele>67</ele>
        <time>2022-04-09T10:15:16Z</time>
      </trkpt>
      <trkpt lat="47.18338" lon="-1.76462">
        <ele>67</ele>
        <time>2022-04-09T10:15:18Z</time>
      </trkpt>
      <trkpt lat="47.18337" lon="-1.7648">
        <ele>67</ele>
        <time>2022-04-09T10:15:20Z</time>
      </trkpt>
      <trkpt lat="47.18337" lon="-1.76498">
        <ele>67</ele>
        <time>2022-04-09T10:15:22Z</time>
      </trkpt>
      <trkpt lat="47.18336" lon="-1.76516">
        <ele>67</ele>
        <time>2022-04-09T10:15:24Z</time>
      </trkpt>
      <trkpt lat="47.18337" lon="-1.76534">
        <ele>67</ele>
        <time>2022-04-09T10:15:26Z</time>
      </trkpt>
      <trkpt lat="47.18337" lon="-1.76551">
        <ele>67</ele>
        <time>2022-04-09T10:15:28Z</time>
      </trkpt>
      <trkpt lat="47.18337" lon="-1.76569">
        <ele>67</ele>
        <time>2022-04-09T10:15:30Z</time>
      </trkpt>
      <trkpt lat="47.18338" lon="-1.76586">
        <ele>67</ele>
        <time>2022-04-09T10:15:32Z</time>
      </trkpt>
      <trkpt lat="47.18339" lon="-1.76603">
        <ele>68</ele>
        <time>2022-04-09T10:15:34Z</time>
      </trkpt>
      <trkpt lat="47.1834" lon="-1.7662">
        <ele>68</ele>
        <time>2022-04-09T10:15:36Z</time>
      </trkpt>
      <trkpt lat="47.18341" lon="-1.76637">
        <ele>68</ele>
        <time>2022-04-09T10:15:38Z</time>
      </trkpt>
      <trkpt lat="47.18343" lon="-1.76653">
        <ele>68</ele>
        <time>2022-04-09T10:15:40Z</time>
      </trkpt>
      <trkpt lat="47.18344" lon="-1.7667">
        <ele>69</ele>
        <time>2022-04-09T10:15:42Z</time>
      </trkpt>
      <trkpt lat="47.18346" lon="-1.76687">
        <ele>69</ele>
        <time>2022-04-09T10:15:44Z</time>
      </trkpt>
      <trkpt lat="47.18348" lon="-1.76704">
        <ele>70</ele>
        <time>2022-04-09T10:15:46Z</time>
      </trkpt>
      <trkpt lat="47.1835" lon="-1.76721">
        <ele>70</ele>
        <time>2022-04-09T10:15:48Z</time>
      </trkpt>
      <trkpt lat="47.18351" lon="-1.76738">
        <ele>70</ele>
        <time>2022-04-09T10:15:50Z</time>
      </trkpt>
      <trkpt lat="47.18353" lon="-1.76754">
        <ele>70</ele>
        <time>2022-04-09T10:15:52Z</time>
      </trkpt>
      <trkpt lat="47.18355" lon="-1.76771">
        <ele>71</ele>
        <time>2022-04-09T10:15:54Z</time>
      </trkpt>
      <trkpt lat="47.18356" lon="-1.76787">
        <ele>71</ele>
        <time>2022-04-09T10:15:56Z</time>
      </trkpt>
      <trkpt lat="47.18358" lon="-1.76804">
        <ele>71</ele>
        <time>2022-04-09T10:15:58Z</time>
      </trkpt>
      <trkpt lat="47.1836" lon="-1.7682">
        <ele>72</ele>
        <time>2022-04-09T10:16:00Z</time>
      </trkpt>
      <trkpt lat="47.18361" lon="-1.76837">
        <ele>72</ele>
        <time>2022-04-09T10:16:02Z</time>
      </trkpt>
      <trkpt lat="47.18363" lon="-1.76854">
        <ele>72</ele>
        <time>2022-04-09T10:16:04Z</time>
      </trkpt>
      <trkpt lat="47.18365" lon="-1.76871">
        <ele>72</ele>
        <time>2022-04-09T10:16:06Z</time>
      </trkpt>
      <trkpt lat="47.18367" lon="-1.76887">
        <ele>72</ele>
        <time>2022-04-09T10:16:08Z</time>
      </trkpt>
      <trkpt lat="47.18369" lon="-1.76903">
        <ele>73</ele>
        <time>2022-04-09T10:16:10Z</time>
      </trkpt>
      <trkpt lat="47.1837" lon="-1.76919">
        <ele>73</ele>
        <time>2022-04-09T10:16:12Z</time>
      </trkpt>
      <trkpt lat="47.18372" lon="-1.76935">
        <ele>73</ele>
        <time>2022-04-09T10:16:14Z</time>
      </trkpt>
      <trkpt lat="47.18373" lon="-1.76951">
        <ele>73</ele>
        <time>2022-04-09T10:16:16Z</time>
      </trkpt>
      <trkpt lat="47.18375" lon="-1.76968">
        <ele>73</ele>
        <time>2022-04-09T10:16:18Z</time>
      </trkpt>
      <trkpt lat="47.18376" lon="-1.76985">
        <ele>74</ele>
        <time>2022-04-09T10:16:20Z</time>
      </trkpt>
      <trkpt lat="47.18377" lon="-1.77002">
        <ele>74</ele>
        <time>2022-04-09T10:16:22Z</time>
      </trkpt>
      <trkpt lat="47.18377" lon="-1.77019">
        <ele>74</ele>
        <time>2022-04-09T10:16:24Z</time>
      </trkpt>
      <trkpt lat="47.18377" lon="-1.77036">
        <ele>74</ele>
        <time>2022-04-09T10:16:26Z</time>
      </trkpt>
      <trkpt lat="47.18377" lon="-1.77053">
        <ele>75</ele>
        <time>2022-04-09T10:16:28Z</time>
      </trkpt>
      <trkpt lat="47.18376" lon="-1.7707">
        <ele>75</ele>
        <time>2022-04-09T10:16:30Z</time>
      </trkpt>
      <trkpt lat="47.18375" lon="-1.77086">
        <ele>75</ele>
        <time>2022-04-09T10:16:32Z</time>
      </trkpt>
      <trkpt lat="47.18374" lon="-1.77102">
        <ele>75</ele>
        <time>2022-04-09T10:16:34Z</time>
      </trkpt>
      <trkpt lat="47.18372" lon="-1.77119">
        <ele>75</ele>
        <time>2022-04-09T10:16:36Z</time>
      </trkpt>
      <trkpt lat="47.1837" lon="-1.77136">
        <ele>75</ele>
        <time>2022-04-09T10:16:38Z</time>
      </trkpt>
      <trkpt lat="47.18368" lon="-1.77153">
        <ele>75</ele>
        <time>2022-04-09T10:16:40Z</time>
      </trkpt>
      <trkpt lat="47.18366" lon="-1.77169">
        <ele>75</ele>
        <time>2022-04-09T10:16:42Z</time>
      </trkpt>
      <trkpt lat="47.18365" lon="-1.77186">
        <ele>76</ele>
        <time>2022-04-09T10:16:44Z</time>
      </trkpt>
      <trkpt lat="47.18363" lon="-1.77203">
        <ele>76</ele>
        <time>2022-04-09T10:16:46Z</time>
      </trkpt>
      <trkpt lat="47.18363" lon="-1.7722">
        <ele>76</ele>
        <time>2022-04-09T10:16:48Z</time>
      </trkpt>
      <trkpt lat="47.18363" lon="-1.77237">
        <ele>75</ele>
        <time>2022-04-09T10:16:50Z</time>
      </trkpt>
      <trkpt lat="47.18363" lon="-1.77253">
        <ele>76</ele>
        <time>2022-04-09T10:16:52Z</time>
      </trkpt>
      <trkpt lat="47.18363" lon="-1.7727">
        <ele>76</ele>
        <time>2022-04-09T10:16:54Z</time>
      </trkpt>
      <trkpt lat="47.18364" lon="-1.77287">
        <ele>76</ele>
        <time>2022-04-09T10:16:56Z</time>
      </trkpt>
      <trkpt lat="47.18365" lon="-1.77304">
        <ele>76</ele>
        <time>2022-04-09T10:16:58Z</time>
      </trkpt>
      <trkpt lat="47.18366" lon="-1.77321">
        <ele>76</ele>
        <time>2022-04-09T10:17:00Z</time>
      </trkpt>
      <trkpt lat="47.18367" lon="-1.77338">
        <ele>76</ele>
        <time>2022-04-09T10:17:02Z</time>
      </trkpt>
      <trkpt lat="47.18368" lon="-1.77355">
        <ele>76</ele>
        <time>2022-04-09T10:17:04Z</time>
      </trkpt>
      <trkpt lat="47.18368" lon="-1.77372">
        <ele>76</ele>
        <time>2022-04-09T10:17:06Z</time>
      </trkpt>
      <trkpt lat="47.18369" lon="-1.77389">
        <ele>76</ele>
        <time>2022-04-09T10:17:08Z</time>
      </trkpt>
      <trkpt lat="47.1837" lon="-1.77407">
        <ele>76</ele>
        <time>2022-04-09T10:17:10Z</time>
      </trkpt>
      <trkpt lat="47.18371" lon="-1.77424">
        <ele>76</ele>
        <time>2022-04-09T10:17:12Z</time>
      </trkpt>
      <trkpt lat="47.18372" lon="-1.77442">
        <ele>76</ele>
        <time>2022-04-09T10:17:14Z</time>
      </trkpt>
      <trkpt lat="47.18372" lon="-1.77458">
        <ele>76</ele>
        <time>2022-04-09T10:17:16Z</time>
      </trkpt>
      <trkpt lat="47.18373" lon="-1.77476">
        <ele>76</ele>
        <time>2022-04-09T10:17:18Z</time>
      </trkpt>
      <trkpt lat="47.18373" lon="-1.77494">
        <ele>76</ele>
        <time>2022-04-09T10:17:20Z</time>
      </trkpt>
      <trkpt lat="47.18373" lon="-1.77511">
        <ele>76</ele>
        <time>2022-04-09T10:17:22Z</time>
      </trkpt>
      <trkpt lat="47.18372" lon="-1.77528">
        <ele>76</ele>
        <time>2022-04-09T10:17:24Z</time>
      </trkpt>
      <trkpt lat="47.1837" lon="-1.77545">
        <ele>76</ele>
        <time>2022-04-09T10:17:26Z</time>
      </trkpt>
      <trkpt lat="47.18367" lon="-1.77562">
        <ele>76</ele>
        <time>2022-04-09T10:17:28Z</time>
      </trkpt>
      <trkpt lat="47.18363" lon="-1.77578">
        <ele>76</ele>
        <time>2022-04-09T10:17:30Z</time>
      </trkpt>
      <trkpt lat="47.18359" lon="-1.77595">
        <ele>76</ele>
        <time>2022-04-09T10:17:32Z</time>
      </trkpt>
      <trkpt lat="47.18354" lon="-1.77611">
        <ele>76</ele>
        <time>2022-04-09T10:17:34Z</time>
      </trkpt>
      <trkpt lat="47.18349" lon="-1.77627">
        <ele>76</ele>
        <time>2022-04-09T10:17:36Z</time>
      </trkpt>
      <trkpt lat="47.18344" lon="-1.77644">
        <ele>76</ele>
        <time>2022-04-09T10:17:38Z</time>
      </trkpt>
      <trkpt lat="47.18339" lon="-1.77659">
        <ele>76</ele>
        <time>2022-04-09T10:17:40Z</time>
      </trkpt>
      <trkpt lat="47.18334" lon="-1.77675">
        <ele>76</ele>
        <time>2022-04-09T10:17:42Z</time>
      </trkpt>
      <trkpt lat="47.18328" lon="-1.77692">
        <ele>76</ele>
        <time>2022-04-09T10:17:44Z</time>
      </trkpt>
      <trkpt lat="47.18323" lon="-1.77708">
        <ele>76</ele>
        <time>2022-04-09T10:17:46Z</time>
      </trkpt>
      <trkpt lat="47.18318" lon="-1.77724">
        <ele>76</ele>
        <time>2022-04-09T10:17:48Z</time>
      </trkpt>
      <trkpt lat="47.18313" lon="-1.7774">
        <ele>76</ele>
        <time>2022-04-09T10:17:50Z</time>
      </trkpt>
      <trkpt lat="47.18307" lon="-1.77757">
        <ele>76</ele>
        <time>2022-04-09T10:17:52Z</time>
      </trkpt>
      <trkpt lat="47.18302" lon="-1.77773">
        <ele>76</ele>
        <time>2022-04-09T10:17:54Z</time>
      </trkpt>
      <trkpt lat="47.18297" lon="-1.77789">
        <ele>76</ele>
        <time>2022-04-09T10:17:56Z</time>
      </trkpt>
      <trkpt lat="47.18292" lon="-1.77805">
        <ele>76</ele>
        <time>2022-04-09T10:17:58Z</time>
      </trkpt>
      <trkpt lat="47.18287" lon="-1.7782">
        <ele>76</ele>
        <time>2022-04-09T10:18:00Z</time>
      </trkpt>
      <trkpt lat="47.18281" lon="-1.77836">
        <ele>76</ele>
        <time>2022-04-09T10:18:02Z</time>
      </trkpt>
      <trkpt lat="47.18278" lon="-1.77851">
        <ele>76</ele>
        <time>2022-04-09T10:18:04Z</time>
      </trkpt>
      <trkpt lat="47.18278" lon="-1.77867">
        <ele>77</ele>
        <time>2022-04-09T10:18:06Z</time>
      </trkpt>
      <trkpt lat="47.18285" lon="-1.77878">
        <ele>77</ele>
        <time>2022-04-09T10:18:08Z</time>
      </trkpt>
      <trkpt lat="47.18295" lon="-1.77887">
        <ele>77</ele>
        <time>2022-04-09T10:18:10Z</time>
      </trkpt>
      <trkpt lat="47.18305" lon="-1.77895">
        <ele>77</ele>
        <time>2022-04-09T10:18:12Z</time>
      </trkpt>
      <trkpt lat="47.18315" lon="-1.77901">
        <ele>77</ele>
        <time>2022-04-09T10:18:14Z</time>
      </trkpt>
      <trkpt lat="47.18326" lon="-1.77902">
        <ele>78</ele>
        <time>2022-04-09T10:18:16Z</time>
      </trkpt>
      <trkpt lat="47.18337" lon="-1.77903">
        <ele>78</ele>
        <time>2022-04-09T10:18:18Z</time>
      </trkpt>
      <trkpt lat="47.18348" lon="-1.77904">
        <ele>78</ele>
        <time>2022-04-09T10:18:20Z</time>
      </trkpt>
      <trkpt lat="47.18358" lon="-1.77903">
        <ele>79</ele>
        <time>2022-04-09T10:18:22Z</time>
      </trkpt>
      <trkpt lat="47.18368" lon="-1.77903">
        <ele>79</ele>
        <time>2022-04-09T10:18:24Z</time>
      </trkpt>
      <trkpt lat="47.18379" lon="-1.77903">
        <ele>80</ele>
        <time>2022-04-09T10:18:26Z</time>
      </trkpt>
      <trkpt lat="47.18389" lon="-1.77902">
        <ele>80</ele>
        <time>2022-04-09T10:18:28Z</time>
      </trkpt>
      <trkpt lat="47.18398" lon="-1.77902">
        <ele>81</ele>
        <time>2022-04-09T10:18:30Z</time>
      </trkpt>
      <trkpt lat="47.18409" lon="-1.77901">
        <ele>82</ele>
        <time>2022-04-09T10:18:32Z</time>
      </trkpt>
      <trkpt lat="47.18419" lon="-1.77901">
        <ele>82</ele>
        <time>2022-04-09T10:18:34Z</time>
      </trkpt>
      <trkpt lat="47.18429" lon="-1.779">
        <ele>82</ele>
        <time>2022-04-09T10:18:36Z</time>
      </trkpt>
      <trkpt lat="47.18438" lon="-1.77899">
        <ele>83</ele>
        <time>2022-04-09T10:18:38Z</time>
      </trkpt>
      <trkpt lat="47.18448" lon="-1.77899">
        <ele>83</ele>
        <time>2022-04-09T10:18:40Z</time>
      </trkpt>
      <trkpt lat="47.18458" lon="-1.77899">
        <ele>83</ele>
        <time>2022-04-09T10:18:42Z</time>
      </trkpt>
      <trkpt lat="47.18468" lon="-1.77899">
        <ele>83</ele>
        <time>2022-04-09T10:18:44Z</time>
      </trkpt>
      <trkpt lat="47.18479" lon="-1.77898">
        <ele>83</ele>
        <time>2022-04-09T10:18:46Z</time>
      </trkpt>
      <trkpt lat="47.1849" lon="-1.77896">
        <ele>83</ele>
        <time>2022-04-09T10:18:48Z</time>
      </trkpt>
      <trkpt lat="47.185" lon="-1.77893">
        <ele>82</ele>
        <time>2022-04-09T10:18:50Z</time>
      </trkpt>
      <trkpt lat="47.1851" lon="-1.77886">
        <ele>82</ele>
        <time>2022-04-09T10:18:52Z</time>
      </trkpt>
      <trkpt lat="47.18521" lon="-1.77881">
        <ele>82</ele>
        <time>2022-04-09T10:18:54Z</time>
      </trkpt>
      <trkpt lat="47.18532" lon="-1.77883">
        <ele>81</ele>
        <time>2022-04-09T10:18:56Z</time>
      </trkpt>
      <trkpt lat="47.1854" lon="-1.77895">
        <ele>80</ele>
        <time>2022-04-09T10:18:58Z</time>
      </trkpt>
      <trkpt lat="47.18545" lon="-1.7791">
        <ele>80</ele>
        <time>2022-04-09T10:19:00Z</time>
      </trkpt>
      <trkpt lat="47.18551" lon="-1.77924">
        <ele>80</ele>
        <time>2022-04-09T10:19:02Z</time>
      </trkpt>
      <trkpt lat="47.18557" lon="-1.77938">
        <ele>80</ele>
        <time>2022-04-09T10:19:04Z</time>
      </trkpt>
      <trkpt lat="47.1856" lon="-1.77954">
        <ele>80</ele>
        <time>2022-04-09T10:19:06Z</time>
      </trkpt>
      <trkpt lat="47.18558" lon="-1.77971">
        <ele>80</ele>
        <time>2022-04-09T10:19:08Z</time>
      </trkpt>
      <trkpt lat="47.18551" lon="-1.77985">
        <ele>80</ele>
        <time>2022-04-09T10:19:10Z</time>
      </trkpt>
      <trkpt lat="47.18543" lon="-1.77999">
        <ele>79</ele>
        <time>2022-04-09T10:19:12Z</time>
      </trkpt>
      <trkpt lat="47.18535" lon="-1.78015">
        <ele>79</ele>
        <time>2022-04-09T10:19:14Z</time>
      </trkpt>
      <trkpt lat="47.18531" lon="-1.78033">
        <ele>79</ele>
        <time>2022-04-09T10:19:16Z</time>
      </trkpt>
      <trkpt lat="47.18526" lon="-1.78062">
        <ele>78</ele>
        <time>2022-04-09T10:19:19Z</time>
      </trkpt>
      <trkpt lat="47.18524" lon="-1.78082">
        <ele>78</ele>
        <time>2022-04-09T10:19:21Z</time>
      </trkpt>
      <trkpt lat="47.18521" lon="-1.78101">
        <ele>78</ele>
        <time>2022-04-09T10:19:23Z</time>
      </trkpt>
      <trkpt lat="47.18519" lon="-1.7812">
        <ele>78</ele>
        <time>2022-04-09T10:19:25Z</time>
      </trkpt>
      <trkpt lat="47.18517" lon="-1.78139">
        <ele>77</ele>
        <time>2022-04-09T10:19:27Z</time>
      </trkpt>
      <trkpt lat="47.18516" lon="-1.78158">
        <ele>77</ele>
        <time>2022-04-09T10:19:29Z</time>
      </trkpt>
      <trkpt lat="47.18516" lon="-1.78178">
        <ele>77</ele>
        <time>2022-04-09T10:19:31Z</time>
      </trkpt>
      <trkpt lat="47.18516" lon="-1.78197">
        <ele>77</ele>
        <time>2022-04-09T10:19:33Z</time>
      </trkpt>
      <trkpt lat="47.18517" lon="-1.78217">
        <ele>76</ele>
        <time>2022-04-09T10:19:35Z</time>
      </trkpt>
      <trkpt lat="47.18518" lon="-1.78236">
        <ele>76</ele>
        <time>2022-04-09T10:19:37Z</time>
      </trkpt>
      <trkpt lat="47.18519" lon="-1.78256">
        <ele>75</ele>
        <time>2022-04-09T10:19:39Z</time>
      </trkpt>
      <trkpt lat="47.18521" lon="-1.78275">
        <ele>75</ele>
        <time>2022-04-09T10:19:41Z</time>
      </trkpt>
      <trkpt lat="47.18523" lon="-1.78294">
        <ele>75</ele>
        <time>2022-04-09T10:19:43Z</time>
      </trkpt>
      <trkpt lat="47.18525" lon="-1.78313">
        <ele>75</ele>
        <time>2022-04-09T10:19:45Z</time>
      </trkpt>
      <trkpt lat="47.18527" lon="-1.78332">
        <ele>75</ele>
        <time>2022-04-09T10:19:47Z</time>
      </trkpt>
      <trkpt lat="47.18529" lon="-1.78352">
        <ele>74</ele>
        <time>2022-04-09T10:19:49Z</time>
      </trkpt>
      <trkpt lat="47.18531" lon="-1.78371">
        <ele>74</ele>
        <time>2022-04-09T10:19:51Z</time>
      </trkpt>
      <trkpt lat="47.18534" lon="-1.7839">
        <ele>73</ele>
        <time>2022-04-09T10:19:53Z</time>
      </trkpt>
      <trkpt lat="47.18536" lon="-1.78409">
        <ele>73</ele>
        <time>2022-04-09T10:19:55Z</time>
      </trkpt>
      <trkpt lat="47.18538" lon="-1.78428">
        <ele>73</ele>
        <time>2022-04-09T10:19:57Z</time>
      </trkpt>
      <trkpt lat="47.1854" lon="-1.78448">
        <ele>73</ele>
        <time>2022-04-09T10:19:59Z</time>
      </trkpt>
      <trkpt lat="47.18542" lon="-1.78467">
        <ele>72</ele>
        <time>2022-04-09T10:20:01Z</time>
      </trkpt>
      <trkpt lat="47.18544" lon="-1.78486">
        <ele>72</ele>
        <time>2022-04-09T10:20:03Z</time>
      </trkpt>
      <trkpt lat="47.18546" lon="-1.78505">
        <ele>72</ele>
        <time>2022-04-09T10:20:05Z</time>
      </trkpt>
      <trkpt lat="47.18549" lon="-1.78523">
        <ele>72</ele>
        <time>2022-04-09T10:20:07Z</time>
      </trkpt>
      <trkpt lat="47.18552" lon="-1.78541">
        <ele>72</ele>
        <time>2022-04-09T10:20:09Z</time>
      </trkpt>
      <trkpt lat="47.18557" lon="-1.78558">
        <ele>72</ele>
        <time>2022-04-09T10:20:11Z</time>
      </trkpt>
      <trkpt lat="47.18562" lon="-1.78573">
        <ele>72</ele>
        <time>2022-04-09T10:20:13Z</time>
      </trkpt>
      <trkpt lat="47.18568" lon="-1.78589">
        <ele>72</ele>
        <time>2022-04-09T10:20:15Z</time>
      </trkpt>
      <trkpt lat="47.18574" lon="-1.78604">
        <ele>72</ele>
        <time>2022-04-09T10:20:17Z</time>
      </trkpt>
      <trkpt lat="47.18579" lon="-1.7862">
        <ele>72</ele>
        <time>2022-04-09T10:20:19Z</time>
      </trkpt>
      <trkpt lat="47.18585" lon="-1.78635">
        <ele>73</ele>
        <time>2022-04-09T10:20:21Z</time>
      </trkpt>
      <trkpt lat="47.18591" lon="-1.78651">
        <ele>72</ele>
        <time>2022-04-09T10:20:23Z</time>
      </trkpt>
      <trkpt lat="47.18595" lon="-1.78667">
        <ele>72</ele>
        <time>2022-04-09T10:20:25Z</time>
      </trkpt>
      <trkpt lat="47.186" lon="-1.78684">
        <ele>72</ele>
        <time>2022-04-09T10:20:27Z</time>
      </trkpt>
      <trkpt lat="47.18604" lon="-1.787">
        <ele>72</ele>
        <time>2022-04-09T10:20:29Z</time>
      </trkpt>
      <trkpt lat="47.18608" lon="-1.78716">
        <ele>72</ele>
        <time>2022-04-09T10:20:31Z</time>
      </trkpt>
      <trkpt lat="47.18612" lon="-1.78733">
        <ele>72</ele>
        <time>2022-04-09T10:20:33Z</time>
      </trkpt>
      <trkpt lat="47.18616" lon="-1.7875">
        <ele>72</ele>
        <time>2022-04-09T10:20:35Z</time>
      </trkpt>
      <trkpt lat="47.1862" lon="-1.78767">
        <ele>72</ele>
        <time>2022-04-09T10:20:37Z</time>
      </trkpt>
      <trkpt lat="47.18624" lon="-1.78783">
        <ele>72</ele>
        <time>2022-04-09T10:20:39Z</time>
      </trkpt>
      <trkpt lat="47.18628" lon="-1.788">
        <ele>72</ele>
        <time>2022-04-09T10:20:41Z</time>
      </trkpt>
      <trkpt lat="47.18633" lon="-1.78816">
        <ele>72</ele>
        <time>2022-04-09T10:20:43Z</time>
      </trkpt>
      <trkpt lat="47.1864" lon="-1.7883">
        <ele>72</ele>
        <time>2022-04-09T10:20:45Z</time>
      </trkpt>
      <trkpt lat="47.18649" lon="-1.78842">
        <ele>73</ele>
        <time>2022-04-09T10:20:47Z</time>
      </trkpt>
      <trkpt lat="47.18658" lon="-1.78853">
        <ele>72</ele>
        <time>2022-04-09T10:20:49Z</time>
      </trkpt>
      <trkpt lat="47.18669" lon="-1.78861">
        <ele>72</ele>
        <time>2022-04-09T10:20:51Z</time>
      </trkpt>
      <trkpt lat="47.1868" lon="-1.78868">
        <ele>73</ele>
        <time>2022-04-09T10:20:53Z</time>
      </trkpt>
      <trkpt lat="47.18691" lon="-1.78876">
        <ele>73</ele>
        <time>2022-04-09T10:20:55Z</time>
      </trkpt>
      <trkpt lat="47.18701" lon="-1.78883">
        <ele>72</ele>
        <time>2022-04-09T10:20:57Z</time>
      </trkpt>
      <trkpt lat="47.1871" lon="-1.78889">
        <ele>72</ele>
        <time>2022-04-09T10:20:59Z</time>
      </trkpt>
      <trkpt lat="47.18719" lon="-1.78884">
        <ele>72</ele>
        <time>2022-04-09T10:21:01Z</time>
      </trkpt>
      <trkpt lat="47.18724" lon="-1.78869">
        <ele>72</ele>
        <time>2022-04-09T10:21:03Z</time>
      </trkpt>
      <trkpt lat="47.1873" lon="-1.78852">
        <ele>72</ele>
        <time>2022-04-09T10:21:05Z</time>
      </trkpt>
      <trkpt lat="47.18736" lon="-1.78836">
        <ele>72</ele>
        <time>2022-04-09T10:21:07Z</time>
      </trkpt>
      <trkpt lat="47.18742" lon="-1.78819">
        <ele>72</ele>
        <time>2022-04-09T10:21:09Z</time>
      </trkpt>
      <trkpt lat="47.18748" lon="-1.78804">
        <ele>72</ele>
        <time>2022-04-09T10:21:11Z</time>
      </trkpt>
      <trkpt lat="47.18754" lon="-1.78788">
        <ele>72</ele>
        <time>2022-04-09T10:21:13Z</time>
      </trkpt>
      <trkpt lat="47.1876" lon="-1.78772">
        <ele>72</ele>
        <time>2022-04-09T10:21:15Z</time>
      </trkpt>
      <trkpt lat="47.18767" lon="-1.78757">
        <ele>73</ele>
        <time>2022-04-09T10:21:17Z</time>
      </trkpt>
      <trkpt lat="47.18775" lon="-1.78743">
        <ele>74</ele>
        <time>2022-04-09T10:21:19Z</time>
      </trkpt>
      <trkpt lat="47.18784" lon="-1.78729">
        <ele>75</ele>
        <time>2022-04-09T10:21:21Z</time>
      </trkpt>
      <trkpt lat="47.18794" lon="-1.78717">
        <ele>75</ele>
        <time>2022-04-09T10:21:23Z</time>
      </trkpt>
      <trkpt lat="47.18804" lon="-1.78705">
        <ele>75</ele>
        <time>2022-04-09T10:21:25Z</time>
      </trkpt>
      <trkpt lat="47.18814" lon="-1.78694">
        <ele>75</ele>
        <time>2022-04-09T10:21:27Z</time>
      </trkpt>
      <trkpt lat="47.18825" lon="-1.78682">
        <ele>75</ele>
        <time>2022-04-09T10:21:29Z</time>
      </trkpt>
      <trkpt lat="47.18835" lon="-1.78673">
        <ele>76</ele>
        <time>2022-04-09T10:21:31Z</time>
      </trkpt>
      <trkpt lat="47.18845" lon="-1.78663">
        <ele>76</ele>
        <time>2022-04-09T10:21:33Z</time>
      </trkpt>
      <trkpt lat="47.18857" lon="-1.78659">
        <ele>76</ele>
        <time>2022-04-09T10:21:35Z</time>
      </trkpt>
      <trkpt lat="47.18866" lon="-1.7867">
        <ele>74</ele>
        <time>2022-04-09T10:21:37Z</time>
      </trkpt>
      <trkpt lat="47.18868" lon="-1.78687">
        <ele>73</ele>
        <time>2022-04-09T10:21:39Z</time>
      </trkpt>
      <trkpt lat="47.1887" lon="-1.78706">
        <ele>72</ele>
        <time>2022-04-09T10:21:41Z</time>
      </trkpt>
      <trkpt lat="47.18872" lon="-1.78724">
        <ele>72</ele>
        <time>2022-04-09T10:21:43Z</time>
      </trkpt>
      <trkpt lat="47.18874" lon="-1.78743">
        <ele>72</ele>
        <time>2022-04-09T10:21:45Z</time>
      </trkpt>
      <trkpt lat="47.18876" lon="-1.78762">
        <ele>71</ele>
        <time>2022-04-09T10:21:47Z</time>
      </trkpt>
      <trkpt lat="47.18877" lon="-1.78781">
        <ele>71</ele>
        <time>2022-04-09T10:21:49Z</time>
      </trkpt>
      <trkpt lat="47.18879" lon="-1.78801">
        <ele>71</ele>
        <time>2022-04-09T10:21:51Z</time>
      </trkpt>
      <trkpt lat="47.18881" lon="-1.7882">
        <ele>70</ele>
        <time>2022-04-09T10:21:53Z</time>
      </trkpt>
      <trkpt lat="47.18883" lon="-1.78838">
        <ele>70</ele>
        <time>2022-04-09T10:21:55Z</time>
      </trkpt>
      <trkpt lat="47.18885" lon="-1.78857">
        <ele>70</ele>
        <time>2022-04-09T10:21:57Z</time>
      </trkpt>
      <trkpt lat="47.18886" lon="-1.78876">
        <ele>70</ele>
        <time>2022-04-09T10:21:59Z</time>
      </trkpt>
      <trkpt lat="47.18889" lon="-1.78896">
        <ele>70</ele>
        <time>2022-04-09T10:22:01Z</time>
      </trkpt>
      <trkpt lat="47.1889" lon="-1.78916">
        <ele>69</ele>
        <time>2022-04-09T10:22:03Z</time>
      </trkpt>
      <trkpt lat="47.18892" lon="-1.78936">
        <ele>69</ele>
        <time>2022-04-09T10:22:05Z</time>
      </trkpt>
      <trkpt lat="47.18894" lon="-1.78954">
        <ele>69</ele>
        <time>2022-04-09T10:22:07Z</time>
      </trkpt>
      <trkpt lat="47.18896" lon="-1.78974">
        <ele>69</ele>
        <time>2022-04-09T10:22:09Z</time>
      </trkpt>
      <trkpt lat="47.18898" lon="-1.78993">
        <ele>68</ele>
        <time>2022-04-09T10:22:11Z</time>
      </trkpt>
      <trkpt lat="47.18899" lon="-1.79012">
        <ele>68</ele>
        <time>2022-04-09T10:22:13Z</time>
      </trkpt>
      <trkpt lat="47.18902" lon="-1.79031">
        <ele>68</ele>
        <time>2022-04-09T10:22:15Z</time>
      </trkpt>
      <trkpt lat="47.18903" lon="-1.79051">
        <ele>67</ele>
        <time>2022-04-09T10:22:17Z</time>
      </trkpt>
      <trkpt lat="47.18905" lon="-1.7907">
        <ele>67</ele>
        <time>2022-04-09T10:22:19Z</time>
      </trkpt>
      <trkpt lat="47.18907" lon="-1.79089">
        <ele>67</ele>
        <time>2022-04-09T10:22:21Z</time>
      </trkpt>
      <trkpt lat="47.18909" lon="-1.79109">
        <ele>66</ele>
        <time>2022-04-09T10:22:23Z</time>
      </trkpt>
      <trkpt lat="47.18911" lon="-1.79128">
        <ele>66</ele>
        <time>2022-04-09T10:22:25Z</time>
      </trkpt>
      <trkpt lat="47.18913" lon="-1.79147">
        <ele>66</ele>
        <time>2022-04-09T10:22:27Z</time>
      </trkpt>
      <trkpt lat="47.18915" lon="-1.79167">
        <ele>66</ele>
        <time>2022-04-09T10:22:29Z</time>
      </trkpt>
      <trkpt lat="47.18918" lon="-1.79186">
        <ele>66</ele>
        <time>2022-04-09T10:22:31Z</time>
      </trkpt>
      <trkpt lat="47.18921" lon="-1.79206">
        <ele>66</ele>
        <time>2022-04-09T10:22:33Z</time>
      </trkpt>
      <trkpt lat="47.18926" lon="-1.79225">
        <ele>67</ele>
        <time>2022-04-09T10:22:35Z</time>
      </trkpt>
      <trkpt lat="47.1893" lon="-1.79242">
        <ele>67</ele>
        <time>2022-04-09T10:22:37Z</time>
      </trkpt>
      <trkpt lat="47.18935" lon="-1.79261">
        <ele>67</ele>
        <time>2022-04-09T10:22:39Z</time>
      </trkpt>
      <trkpt lat="47.18939" lon="-1.7928">
        <ele>67</ele>
        <time>2022-04-09T10:22:41Z</time>
      </trkpt>
      <trkpt lat="47.18942" lon="-1.79297">
        <ele>67</ele>
        <time>2022-04-09T10:22:43Z</time>
      </trkpt>
      <trkpt lat="47.18945" lon="-1.79316">
        <ele>67</ele>
        <time>2022-04-09T10:22:45Z</time>
      </trkpt>
      <trkpt lat="47.18948" lon="-1.79336">
        <ele>67</ele>
        <time>2022-04-09T10:22:47Z</time>
      </trkpt>
      <trkpt lat="47.18951" lon="-1.79354">
        <ele>67</ele>
        <time>2022-04-09T10:22:49Z</time>
      </trkpt>
      <trkpt lat="47.18953" lon="-1.79372">
        <ele>67</ele>
        <time>2022-04-09T10:22:51Z</time>
      </trkpt>
      <trkpt lat="47.18956" lon="-1.79391">
        <ele>66</ele>
        <time>2022-04-09T10:22:53Z</time>
      </trkpt>
      <trkpt lat="47.18959" lon="-1.7941">
        <ele>66</ele>
        <time>2022-04-09T10:22:55Z</time>
      </trkpt>
      <trkpt lat="47.18962" lon="-1.79427">
        <ele>66</ele>
        <time>2022-04-09T10:22:57Z</time>
      </trkpt>
      <trkpt lat="47.18965" lon="-1.79444">
        <ele>67</ele>
        <time>2022-04-09T10:22:59Z</time>
      </trkpt>
      <trkpt lat="47.18968" lon="-1.79461">
        <ele>68</ele>
        <time>2022-04-09T10:23:01Z</time>
      </trkpt>
      <trkpt lat="47.18972" lon="-1.7948">
        <ele>68</ele>
        <time>2022-04-09T10:23:03Z</time>
      </trkpt>
      <trkpt lat="47.18976" lon="-1.79499">
        <ele>68</ele>
        <time>2022-04-09T10:23:05Z</time>
      </trkpt>
      <trkpt lat="47.18979" lon="-1.79518">
        <ele>68</ele>
        <time>2022-04-09T10:23:07Z</time>
      </trkpt>
      <trkpt lat="47.18983" lon="-1.79537">
        <ele>67</ele>
        <time>2022-04-09T10:23:09Z</time>
      </trkpt>
      <trkpt lat="47.18987" lon="-1.79555">
        <ele>67</ele>
        <time>2022-04-09T10:23:11Z</time>
      </trkpt>
      <trkpt lat="47.18991" lon="-1.79573">
        <ele>67</ele>
        <time>2022-04-09T10:23:13Z</time>
      </trkpt>
      <trkpt lat="47.18994" lon="-1.7959">
        <ele>66</ele>
        <time>2022-04-09T10:23:15Z</time>
      </trkpt>
      <trkpt lat="47.18999" lon="-1.79608">
        <ele>66</ele>
        <time>2022-04-09T10:23:17Z</time>
      </trkpt>
      <trkpt lat="47.19003" lon="-1.79625">
        <ele>66</ele>
        <time>2022-04-09T10:23:19Z</time>
      </trkpt>
      <trkpt lat="47.19008" lon="-1.79642">
        <ele>66</ele>
        <time>2022-04-09T10:23:21Z</time>
      </trkpt>
      <trkpt lat="47.19012" lon="-1.7966">
        <ele>67</ele>
        <time>2022-04-09T10:23:23Z</time>
      </trkpt>
      <trkpt lat="47.19016" lon="-1.79676">
        <ele>67</ele>
        <time>2022-04-09T10:23:25Z</time>
      </trkpt>
      <trkpt lat="47.1902" lon="-1.79692">
        <ele>67</ele>
        <time>2022-04-09T10:23:27Z</time>
      </trkpt>
      <trkpt lat="47.19025" lon="-1.79708">
        <ele>68</ele>
        <time>2022-04-09T10:23:29Z</time>
      </trkpt>
      <trkpt lat="47.1903" lon="-1.79725">
        <ele>68</ele>
        <time>2022-04-09T10:23:31Z</time>
      </trkpt>
      <trkpt lat="47.19034" lon="-1.79741">
        <ele>68</ele>
        <time>2022-04-09T10:23:33Z</time>
      </trkpt>
      <trkpt lat="47.19038" lon="-1.79755">
        <ele>68</ele>
        <time>2022-04-09T10:23:35Z</time>
      </trkpt>
      <trkpt lat="47.19043" lon="-1.7977">
        <ele>69</ele>
        <time>2022-04-09T10:23:37Z</time>
      </trkpt>
      <trkpt lat="47.19049" lon="-1.79785">
        <ele>69</ele>
        <time>2022-04-09T10:23:39Z</time>
      </trkpt>
      <trkpt lat="47.19055" lon="-1.798">
        <ele>68</ele>
        <time>2022-04-09T10:23:41Z</time>
      </trkpt>
      <trkpt lat="47.19062" lon="-1.79817">
        <ele>68</ele>
        <time>2022-04-09T10:23:43Z</time>
      </trkpt>
      <trkpt lat="47.19069" lon="-1.79832">
        <ele>68</ele>
        <time>2022-04-09T10:23:45Z</time>
      </trkpt>
      <trkpt lat="47.19076" lon="-1.79848">
        <ele>68</ele>
        <time>2022-04-09T10:23:47Z</time>
      </trkpt>
      <trkpt lat="47.19083" lon="-1.79862">
        <ele>68</ele>
        <time>2022-04-09T10:23:49Z</time>
      </trkpt>
      <trkpt lat="47.1909" lon="-1.79878">
        <ele>68</ele>
        <time>2022-04-09T10:23:51Z</time>
      </trkpt>
      <trkpt lat="47.19095" lon="-1.79893">
        <ele>68</ele>
        <time>2022-04-09T10:23:53Z</time>
      </trkpt>
      <trkpt lat="47.19102" lon="-1.79908">
        <ele>67</ele>
        <time>2022-04-09T10:23:55Z</time>
      </trkpt>
      <trkpt lat="47.19108" lon="-1.79923">
        <ele>67</ele>
        <time>2022-04-09T10:23:57Z</time>
      </trkpt>
      <trkpt lat="47.19115" lon="-1.79937">
        <ele>67</ele>
        <time>2022-04-09T10:23:59Z</time>
      </trkpt>
      <trkpt lat="47.19122" lon="-1.79951">
        <ele>67</ele>
        <time>2022-04-09T10:24:01Z</time>
      </trkpt>
      <trkpt lat="47.19128" lon="-1.79967">
        <ele>67</ele>
        <time>2022-04-09T10:24:03Z</time>
      </trkpt>
      <trkpt lat="47.19134" lon="-1.79981">
        <ele>67</ele>
        <time>2022-04-09T10:24:05Z</time>
      </trkpt>
      <trkpt lat="47.1914" lon="-1.79996">
        <ele>67</ele>
        <time>2022-04-09T10:24:07Z</time>
      </trkpt>
      <trkpt lat="47.19146" lon="-1.80009">
        <ele>66</ele>
        <time>2022-04-09T10:24:09Z</time>
      </trkpt>
      <trkpt lat="47.19153" lon="-1.80023">
        <ele>66</ele>
        <time>2022-04-09T10:24:11Z</time>
      </trkpt>
      <trkpt lat="47.1916" lon="-1.80037">
        <ele>66</ele>
        <time>2022-04-09T10:24:13Z</time>
      </trkpt>
      <trkpt lat="47.19168" lon="-1.80052">
        <ele>66</ele>
        <time>2022-04-09T10:24:15Z</time>
      </trkpt>
      <trkpt lat="47.19174" lon="-1.80068">
        <ele>66</ele>
        <time>2022-04-09T10:24:17Z</time>
      </trkpt>
      <trkpt lat="47.19182" lon="-1.80082">
        <ele>66</ele>
        <time>2022-04-09T10:24:19Z</time>
      </trkpt>
      <trkpt lat="47.19189" lon="-1.80096">
        <ele>67</ele>
        <time>2022-04-09T10:24:21Z</time>
      </trkpt>
      <trkpt lat="47.19196" lon="-1.80111">
        <ele>67</ele>
        <time>2022-04-09T10:24:23Z</time>
      </trkpt>
      <trkpt lat="47.19203" lon="-1.80125">
        <ele>67</ele>
        <time>2022-04-09T10:24:25Z</time>
      </trkpt>
      <trkpt lat="47.19209" lon="-1.80141">
        <ele>68</ele>
        <time>2022-04-09T10:24:27Z</time>
      </trkpt>
      <trkpt lat="47.19217" lon="-1.80156">
        <ele>68</ele>
        <time>2022-04-09T10:24:29Z</time>
      </trkpt>
      <trkpt lat="47.19224" lon="-1.80172">
        <ele>68</ele>
        <time>2022-04-09T10:24:31Z</time>
      </trkpt>
      <trkpt lat="47.1923" lon="-1.80188">
        <ele>69</ele>
        <time>2022-04-09T10:24:33Z</time>
      </trkpt>
      <trkpt lat="47.19235" lon="-1.80205">
        <ele>69</ele>
        <time>2022-04-09T10:24:35Z</time>
      </trkpt>
      <trkpt lat="47.19241" lon="-1.80221">
        <ele>69</ele>
        <time>2022-04-09T10:24:37Z</time>
      </trkpt>
      <trkpt lat="47.19246" lon="-1.80238">
        <ele>68</ele>
        <time>2022-04-09T10:24:39Z</time>
      </trkpt>
      <trkpt lat="47.19251" lon="-1.80256">
        <ele>67</ele>
        <time>2022-04-09T10:24:41Z</time>
      </trkpt>
      <trkpt lat="47.19255" lon="-1.80273">
        <ele>67</ele>
        <time>2022-04-09T10:24:43Z</time>
      </trkpt>
      <trkpt lat="47.19259" lon="-1.80291">
        <ele>68</ele>
        <time>2022-04-09T10:24:45Z</time>
      </trkpt>
      <trkpt lat="47.19265" lon="-1.80307">
        <ele>68</ele>
        <time>2022-04-09T10:24:47Z</time>
      </trkpt>
      <trkpt lat="47.19269" lon="-1.80324">
        <ele>67</ele>
        <time>2022-04-09T10:24:49Z</time>
      </trkpt>
      <trkpt lat="47.19274" lon="-1.8034">
        <ele>67</ele>
        <time>2022-04-09T10:24:51Z</time>
      </trkpt>
      <trkpt lat="47.1928" lon="-1.80358">
        <ele>66</ele>
        <time>2022-04-09T10:24:53Z</time>
      </trkpt>
      <trkpt lat="47.19285" lon="-1.80375">
        <ele>66</ele>
        <time>2022-04-09T10:24:55Z</time>
      </trkpt>
      <trkpt lat="47.19291" lon="-1.80392">
        <ele>65</ele>
        <time>2022-04-09T10:24:57Z</time>
      </trkpt>
      <trkpt lat="47.19296" lon="-1.80409">
        <ele>65</ele>
        <time>2022-04-09T10:24:59Z</time>
      </trkpt>
      <trkpt lat="47.19302" lon="-1.80428">
        <ele>64</ele>
        <time>2022-04-09T10:25:01Z</time>
      </trkpt>
      <trkpt lat="47.19307" lon="-1.80445">
        <ele>63</ele>
        <time>2022-04-09T10:25:03Z</time>
      </trkpt>
      <trkpt lat="47.19313" lon="-1.80462">
        <ele>63</ele>
        <time>2022-04-09T10:25:05Z</time>
      </trkpt>
      <trkpt lat="47.19319" lon="-1.8048">
        <ele>63</ele>
        <time>2022-04-09T10:25:07Z</time>
      </trkpt>
      <trkpt lat="47.19324" lon="-1.80498">
        <ele>63</ele>
        <time>2022-04-09T10:25:09Z</time>
      </trkpt>
      <trkpt lat="47.19331" lon="-1.80516">
        <ele>63</ele>
        <time>2022-04-09T10:25:11Z</time>
      </trkpt>
      <trkpt lat="47.19336" lon="-1.80534">
        <ele>62</ele>
        <time>2022-04-09T10:25:13Z</time>
      </trkpt>
      <trkpt lat="47.19341" lon="-1.80552">
        <ele>62</ele>
        <time>2022-04-09T10:25:15Z</time>
      </trkpt>
      <trkpt lat="47.19345" lon="-1.80571">
        <ele>62</ele>
        <time>2022-04-09T10:25:17Z</time>
      </trkpt>
      <trkpt lat="47.19348" lon="-1.8059">
        <ele>62</ele>
        <time>2022-04-09T10:25:19Z</time>
      </trkpt>
      <trkpt lat="47.1935" lon="-1.80609">
        <ele>62</ele>
        <time>2022-04-09T10:25:21Z</time>
      </trkpt>
      <trkpt lat="47.19352" lon="-1.80627">
        <ele>62</ele>
        <time>2022-04-09T10:25:23Z</time>
      </trkpt>
      <trkpt lat="47.19353" lon="-1.80646">
        <ele>62</ele>
        <time>2022-04-09T10:25:25Z</time>
      </trkpt>
      <trkpt lat="47.19353" lon="-1.80663">
        <ele>63</ele>
        <time>2022-04-09T10:25:27Z</time>
      </trkpt>
      <trkpt lat="47.19351" lon="-1.80681">
        <ele>63</ele>
        <time>2022-04-09T10:25:29Z</time>
      </trkpt>
      <trkpt lat="47.19348" lon="-1.80699">
        <ele>62</ele>
        <time>2022-04-09T10:25:31Z</time>
      </trkpt>
      <trkpt lat="47.19345" lon="-1.80716">
        <ele>63</ele>
        <time>2022-04-09T10:25:33Z</time>
      </trkpt>
      <trkpt lat="47.19344" lon="-1.80733">
        <ele>62</ele>
        <time>2022-04-09T10:25:35Z</time>
      </trkpt>
      <trkpt lat="47.19345" lon="-1.80751">
        <ele>62</ele>
        <time>2022-04-09T10:25:37Z</time>
      </trkpt>
      <trkpt lat="47.19348" lon="-1.80769">
        <ele>62</ele>
        <time>2022-04-09T10:25:39Z</time>
      </trkpt>
      <trkpt lat="47.19353" lon="-1.80787">
        <ele>61</ele>
        <time>2022-04-09T10:25:41Z</time>
      </trkpt>
      <trkpt lat="47.19358" lon="-1.80804">
        <ele>62</ele>
        <time>2022-04-09T10:25:43Z</time>
      </trkpt>
      <trkpt lat="47.19363" lon="-1.80823">
        <ele>62</ele>
        <time>2022-04-09T10:25:45Z</time>
      </trkpt>
      <trkpt lat="47.19365" lon="-1.80841">
        <ele>62</ele>
        <time>2022-04-09T10:25:47Z</time>
      </trkpt>
      <trkpt lat="47.19368" lon="-1.8086">
        <ele>61</ele>
        <time>2022-04-09T10:25:49Z</time>
      </trkpt>
      <trkpt lat="47.19371" lon="-1.80879">
        <ele>60</ele>
        <time>2022-04-09T10:25:51Z</time>
      </trkpt>
      <trkpt lat="47.19373" lon="-1.80897">
        <ele>60</ele>
        <time>2022-04-09T10:25:53Z</time>
      </trkpt>
      <trkpt lat="47.19375" lon="-1.80916">
        <ele>59</ele>
        <time>2022-04-09T10:25:55Z</time>
      </trkpt>
      <trkpt lat="47.19377" lon="-1.80935">
        <ele>59</ele>
        <time>2022-04-09T10:25:57Z</time>
      </trkpt>
      <trkpt lat="47.19379" lon="-1.80954">
        <ele>59</ele>
        <time>2022-04-09T10:25:59Z</time>
      </trkpt>
      <trkpt lat="47.19382" lon="-1.80972">
        <ele>59</ele>
        <time>2022-04-09T10:26:01Z</time>
      </trkpt>
      <trkpt lat="47.19384" lon="-1.80992">
        <ele>59</ele>
        <time>2022-04-09T10:26:03Z</time>
      </trkpt>
      <trkpt lat="47.19386" lon="-1.81012">
        <ele>58</ele>
        <time>2022-04-09T10:26:05Z</time>
      </trkpt>
      <trkpt lat="47.19388" lon="-1.8103">
        <ele>58</ele>
        <time>2022-04-09T10:26:07Z</time>
      </trkpt>
      <trkpt lat="47.1939" lon="-1.8105">
        <ele>58</ele>
        <time>2022-04-09T10:26:09Z</time>
      </trkpt>
      <trkpt lat="47.19393" lon="-1.81069">
        <ele>58</ele>
        <time>2022-04-09T10:26:11Z</time>
      </trkpt>
      <trkpt lat="47.19394" lon="-1.81086">
        <ele>58</ele>
        <time>2022-04-09T10:26:13Z</time>
      </trkpt>
      <trkpt lat="47.19397" lon="-1.81101">
        <ele>58</ele>
        <time>2022-04-09T10:26:15Z</time>
      </trkpt>
      <trkpt lat="47.19401" lon="-1.81116">
        <ele>58</ele>
        <time>2022-04-09T10:26:17Z</time>
      </trkpt>
      <trkpt lat="47.19412" lon="-1.81123">
        <ele>57</ele>
        <time>2022-04-09T10:26:19Z</time>
      </trkpt>
      <trkpt lat="47.19424" lon="-1.81124">
        <ele>57</ele>
        <time>2022-04-09T10:26:21Z</time>
      </trkpt>
      <trkpt lat="47.19438" lon="-1.81124">
        <ele>58</ele>
        <time>2022-04-09T10:26:23Z</time>
      </trkpt>
      <trkpt lat="47.19451" lon="-1.81124">
        <ele>58</ele>
        <time>2022-04-09T10:26:25Z</time>
      </trkpt>
      <trkpt lat="47.19464" lon="-1.81124">
        <ele>59</ele>
        <time>2022-04-09T10:26:27Z</time>
      </trkpt>
      <trkpt lat="47.19478" lon="-1.81124">
        <ele>59</ele>
        <time>2022-04-09T10:26:29Z</time>
      </trkpt>
      <trkpt lat="47.19491" lon="-1.81124">
        <ele>59</ele>
        <time>2022-04-09T10:26:31Z</time>
      </trkpt>
      <trkpt lat="47.19504" lon="-1.81123">
        <ele>59</ele>
        <time>2022-04-09T10:26:33Z</time>
      </trkpt>
      <trkpt lat="47.19517" lon="-1.81122">
        <ele>59</ele>
        <time>2022-04-09T10:26:35Z</time>
      </trkpt>
      <trkpt lat="47.1953" lon="-1.81121">
        <ele>59</ele>
        <time>2022-04-09T10:26:37Z</time>
      </trkpt>
      <trkpt lat="47.19543" lon="-1.81121">
        <ele>58</ele>
        <time>2022-04-09T10:26:39Z</time>
      </trkpt>
      <trkpt lat="47.19556" lon="-1.81121">
        <ele>57</ele>
        <time>2022-04-09T10:26:41Z</time>
      </trkpt>
      <trkpt lat="47.19569" lon="-1.8112">
        <ele>57</ele>
        <time>2022-04-09T10:26:43Z</time>
      </trkpt>
      <trkpt lat="47.19582" lon="-1.8112">
        <ele>57</ele>
        <time>2022-04-09T10:26:45Z</time>
      </trkpt>
      <trkpt lat="47.19594" lon="-1.8112">
        <ele>57</ele>
        <time>2022-04-09T10:26:47Z</time>
      </trkpt>
      <trkpt lat="47.19607" lon="-1.8112">
        <ele>57</ele>
        <time>2022-04-09T10:26:49Z</time>
      </trkpt>
      <trkpt lat="47.19619" lon="-1.81119">
        <ele>56</ele>
        <time>2022-04-09T10:26:51Z</time>
      </trkpt>
      <trkpt lat="47.19633" lon="-1.81119">
        <ele>56</ele>
        <time>2022-04-09T10:26:53Z</time>
      </trkpt>
      <trkpt lat="47.19645" lon="-1.8112">
        <ele>56</ele>
        <time>2022-04-09T10:26:55Z</time>
      </trkpt>
      <trkpt lat="47.19657" lon="-1.8112">
        <ele>56</ele>
        <time>2022-04-09T10:26:57Z</time>
      </trkpt>
      <trkpt lat="47.19669" lon="-1.8112">
        <ele>56</ele>
        <time>2022-04-09T10:26:59Z</time>
      </trkpt>
      <trkpt lat="47.19681" lon="-1.8112">
        <ele>55</ele>
        <time>2022-04-09T10:27:01Z</time>
      </trkpt>
      <trkpt lat="47.19692" lon="-1.81119">
        <ele>55</ele>
        <time>2022-04-09T10:27:03Z</time>
      </trkpt>
      <trkpt lat="47.19702" lon="-1.81124">
        <ele>55</ele>
        <time>2022-04-09T10:27:06Z</time>
      </trkpt>
      <trkpt lat="47.19706" lon="-1.8114">
        <ele>55</ele>
        <time>2022-04-09T10:27:08Z</time>
      </trkpt>
      <trkpt lat="47.19708" lon="-1.81157">
        <ele>54</ele>
        <time>2022-04-09T10:27:10Z</time>
      </trkpt>
      <trkpt lat="47.19712" lon="-1.81175">
        <ele>54</ele>
        <time>2022-04-09T10:27:12Z</time>
      </trkpt>
      <trkpt lat="47.19716" lon="-1.81192">
        <ele>54</ele>
        <time>2022-04-09T10:27:14Z</time>
      </trkpt>
      <trkpt lat="47.19723" lon="-1.81209">
        <ele>54</ele>
        <time>2022-04-09T10:27:16Z</time>
      </trkpt>
      <trkpt lat="47.1973" lon="-1.81223">
        <ele>53</ele>
        <time>2022-04-09T10:27:18Z</time>
      </trkpt>
      <trkpt lat="47.19738" lon="-1.81237">
        <ele>53</ele>
        <time>2022-04-09T10:27:20Z</time>
      </trkpt>
      <trkpt lat="47.19746" lon="-1.81249">
        <ele>53</ele>
        <time>2022-04-09T10:27:22Z</time>
      </trkpt>
      <trkpt lat="47.19754" lon="-1.81262">
        <ele>54</ele>
        <time>2022-04-09T10:27:24Z</time>
      </trkpt>
      <trkpt lat="47.19761" lon="-1.81277">
        <ele>54</ele>
        <time>2022-04-09T10:27:26Z</time>
      </trkpt>
      <trkpt lat="47.19767" lon="-1.81292">
        <ele>54</ele>
        <time>2022-04-09T10:27:28Z</time>
      </trkpt>
      <trkpt lat="47.19773" lon="-1.81307">
        <ele>55</ele>
        <time>2022-04-09T10:27:30Z</time>
      </trkpt>
      <trkpt lat="47.19777" lon="-1.81322">
        <ele>55</ele>
        <time>2022-04-09T10:27:32Z</time>
      </trkpt>
      <trkpt lat="47.19782" lon="-1.81337">
        <ele>55</ele>
        <time>2022-04-09T10:27:34Z</time>
      </trkpt>
      <trkpt lat="47.19786" lon="-1.81352">
        <ele>56</ele>
        <time>2022-04-09T10:27:36Z</time>
      </trkpt>
      <trkpt lat="47.19791" lon="-1.81368">
        <ele>56</ele>
        <time>2022-04-09T10:27:38Z</time>
      </trkpt>
      <trkpt lat="47.19796" lon="-1.81384">
        <ele>57</ele>
        <time>2022-04-09T10:27:40Z</time>
      </trkpt>
      <trkpt lat="47.19801" lon="-1.814">
        <ele>57</ele>
        <time>2022-04-09T10:27:42Z</time>
      </trkpt>
      <trkpt lat="47.19805" lon="-1.81416">
        <ele>58</ele>
        <time>2022-04-09T10:27:44Z</time>
      </trkpt>
      <trkpt lat="47.1981" lon="-1.8143">
        <ele>58</ele>
        <time>2022-04-09T10:27:46Z</time>
      </trkpt>
      <trkpt lat="47.19815" lon="-1.81445">
        <ele>58</ele>
        <time>2022-04-09T10:27:48Z</time>
      </trkpt>
      <trkpt lat="47.1982" lon="-1.81461">
        <ele>58</ele>
        <time>2022-04-09T10:27:50Z</time>
      </trkpt>
      <trkpt lat="47.19825" lon="-1.81475">
        <ele>59</ele>
        <time>2022-04-09T10:27:52Z</time>
      </trkpt>
      <trkpt lat="47.19831" lon="-1.8149">
        <ele>59</ele>
        <time>2022-04-09T10:27:54Z</time>
      </trkpt>
      <trkpt lat="47.19837" lon="-1.81505">
        <ele>59</ele>
        <time>2022-04-09T10:27:56Z</time>
      </trkpt>
      <trkpt lat="47.19842" lon="-1.8152">
        <ele>59</ele>
        <time>2022-04-09T10:27:58Z</time>
      </trkpt>
      <trkpt lat="47.19848" lon="-1.81535">
        <ele>60</ele>
        <time>2022-04-09T10:28:00Z</time>
      </trkpt>
      <trkpt lat="47.19853" lon="-1.8155">
        <ele>60</ele>
        <time>2022-04-09T10:28:02Z</time>
      </trkpt>
      <trkpt lat="47.19859" lon="-1.81565">
        <ele>60</ele>
        <time>2022-04-09T10:28:04Z</time>
      </trkpt>
      <trkpt lat="47.19864" lon="-1.81581">
        <ele>60</ele>
        <time>2022-04-09T10:28:06Z</time>
      </trkpt>
      <trkpt lat="47.19868" lon="-1.81596">
        <ele>60</ele>
        <time>2022-04-09T10:28:08Z</time>
      </trkpt>
      <trkpt lat="47.19872" lon="-1.81612">
        <ele>60</ele>
        <time>2022-04-09T10:28:10Z</time>
      </trkpt>
      <trkpt lat="47.19874" lon="-1.81629">
        <ele>60</ele>
        <time>2022-04-09T10:28:12Z</time>
      </trkpt>
      <trkpt lat="47.19876" lon="-1.81645">
        <ele>61</ele>
        <time>2022-04-09T10:28:14Z</time>
      </trkpt>
      <trkpt lat="47.19879" lon="-1.81662">
        <ele>61</ele>
        <time>2022-04-09T10:28:16Z</time>
      </trkpt>
      <trkpt lat="47.19881" lon="-1.81679">
        <ele>61</ele>
        <time>2022-04-09T10:28:18Z</time>
      </trkpt>
      <trkpt lat="47.19883" lon="-1.81696">
        <ele>61</ele>
        <time>2022-04-09T10:28:20Z</time>
      </trkpt>
      <trkpt lat="47.19886" lon="-1.81712">
        <ele>61</ele>
        <time>2022-04-09T10:28:22Z</time>
      </trkpt>
      <trkpt lat="47.19889" lon="-1.81729">
        <ele>61</ele>
        <time>2022-04-09T10:28:24Z</time>
      </trkpt>
      <trkpt lat="47.19892" lon="-1.81745">
        <ele>61</ele>
        <time>2022-04-09T10:28:26Z</time>
      </trkpt>
      <trkpt lat="47.19896" lon="-1.81762">
        <ele>61</ele>
        <time>2022-04-09T10:28:28Z</time>
      </trkpt>
      <trkpt lat="47.19899" lon="-1.81779">
        <ele>62</ele>
        <time>2022-04-09T10:28:30Z</time>
      </trkpt>
      <trkpt lat="47.19902" lon="-1.81795">
        <ele>62</ele>
        <time>2022-04-09T10:28:32Z</time>
      </trkpt>
      <trkpt lat="47.19906" lon="-1.81811">
        <ele>62</ele>
        <time>2022-04-09T10:28:34Z</time>
      </trkpt>
      <trkpt lat="47.19909" lon="-1.81827">
        <ele>63</ele>
        <time>2022-04-09T10:28:36Z</time>
      </trkpt>
      <trkpt lat="47.19913" lon="-1.81844">
        <ele>63</ele>
        <time>2022-04-09T10:28:38Z</time>
      </trkpt>
      <trkpt lat="47.19916" lon="-1.8186">
        <ele>63</ele>
        <time>2022-04-09T10:28:40Z</time>
      </trkpt>
      <trkpt lat="47.19919" lon="-1.81877">
        <ele>63</ele>
        <time>2022-04-09T10:28:42Z</time>
      </trkpt>
      <trkpt lat="47.19922" lon="-1.81893">
        <ele>63</ele>
        <time>2022-04-09T10:28:44Z</time>
      </trkpt>
      <trkpt lat="47.19925" lon="-1.81909">
        <ele>63</ele>
        <time>2022-04-09T10:28:46Z</time>
      </trkpt>
      <trkpt lat="47.19928" lon="-1.81925">
        <ele>62</ele>
        <time>2022-04-09T10:28:48Z</time>
      </trkpt>
      <trkpt lat="47.1993" lon="-1.81941">
        <ele>63</ele>
        <time>2022-04-09T10:28:50Z</time>
      </trkpt>
      <trkpt lat="47.19934" lon="-1.81957">
        <ele>63</ele>
        <time>2022-04-09T10:28:52Z</time>
      </trkpt>
      <trkpt lat="47.19937" lon="-1.81973">
        <ele>64</ele>
        <time>2022-04-09T10:28:54Z</time>
      </trkpt>
      <trkpt lat="47.19939" lon="-1.8199">
        <ele>64</ele>
        <time>2022-04-09T10:28:56Z</time>
      </trkpt>
      <trkpt lat="47.19942" lon="-1.82006">
        <ele>64</ele>
        <time>2022-04-09T10:28:58Z</time>
      </trkpt>
      <trkpt lat="47.19945" lon="-1.82022">
        <ele>64</ele>
        <time>2022-04-09T10:29:00Z</time>
      </trkpt>
      <trkpt lat="47.19948" lon="-1.82039">
        <ele>64</ele>
        <time>2022-04-09T10:29:02Z</time>
      </trkpt>
      <trkpt lat="47.19951" lon="-1.82055">
        <ele>64</ele>
        <time>2022-04-09T10:29:04Z</time>
      </trkpt>
      <trkpt lat="47.19954" lon="-1.82071">
        <ele>65</ele>
        <time>2022-04-09T10:29:06Z</time>
      </trkpt>
      <trkpt lat="47.19956" lon="-1.82087">
        <ele>65</ele>
        <time>2022-04-09T10:29:08Z</time>
      </trkpt>
      <trkpt lat="47.19957" lon="-1.82104">
        <ele>65</ele>
        <time>2022-04-09T10:29:10Z</time>
      </trkpt>
      <trkpt lat="47.19958" lon="-1.8212">
        <ele>65</ele>
        <time>2022-04-09T10:29:12Z</time>
      </trkpt>
      <trkpt lat="47.19956" lon="-1.82137">
        <ele>66</ele>
        <time>2022-04-09T10:29:14Z</time>
      </trkpt>
      <trkpt lat="47.19952" lon="-1.82153">
        <ele>66</ele>
        <time>2022-04-09T10:29:16Z</time>
      </trkpt>
      <trkpt lat="47.19947" lon="-1.82169">
        <ele>66</ele>
        <time>2022-04-09T10:29:18Z</time>
      </trkpt>
      <trkpt lat="47.19941" lon="-1.82183">
        <ele>67</ele>
        <time>2022-04-09T10:29:20Z</time>
      </trkpt>
      <trkpt lat="47.19935" lon="-1.82198">
        <ele>67</ele>
        <time>2022-04-09T10:29:22Z</time>
      </trkpt>
      <trkpt lat="47.19929" lon="-1.82212">
        <ele>67</ele>
        <time>2022-04-09T10:29:24Z</time>
      </trkpt>
      <trkpt lat="47.19923" lon="-1.82227">
        <ele>68</ele>
        <time>2022-04-09T10:29:26Z</time>
      </trkpt>
      <trkpt lat="47.19913" lon="-1.82249">
        <ele>68</ele>
        <time>2022-04-09T10:29:29Z</time>
      </trkpt>
      <trkpt lat="47.19907" lon="-1.82265">
        <ele>68</ele>
        <time>2022-04-09T10:29:31Z</time>
      </trkpt>
      <trkpt lat="47.19898" lon="-1.82287">
        <ele>68</ele>
        <time>2022-04-09T10:29:34Z</time>
      </trkpt>
      <trkpt lat="47.19889" lon="-1.82309">
        <ele>69</ele>
        <time>2022-04-09T10:29:37Z</time>
      </trkpt>
      <trkpt lat="47.19883" lon="-1.82324">
        <ele>69</ele>
        <time>2022-04-09T10:29:39Z</time>
      </trkpt>
      <trkpt lat="47.19877" lon="-1.82339">
        <ele>69</ele>
        <time>2022-04-09T10:29:41Z</time>
      </trkpt>
      <trkpt lat="47.19871" lon="-1.82354">
        <ele>69</ele>
        <time>2022-04-09T10:29:43Z</time>
      </trkpt>
      <trkpt lat="47.19866" lon="-1.8237">
        <ele>69</ele>
        <time>2022-04-09T10:29:45Z</time>
      </trkpt>
      <trkpt lat="47.1986" lon="-1.82386">
        <ele>69</ele>
        <time>2022-04-09T10:29:47Z</time>
      </trkpt>
      <trkpt lat="47.19855" lon="-1.82402">
        <ele>69</ele>
        <time>2022-04-09T10:29:49Z</time>
      </trkpt>
      <trkpt lat="47.19849" lon="-1.82417">
        <ele>69</ele>
        <time>2022-04-09T10:29:51Z</time>
      </trkpt>
      <trkpt lat="47.19844" lon="-1.82432">
        <ele>69</ele>
        <time>2022-04-09T10:29:53Z</time>
      </trkpt>
      <trkpt lat="47.19837" lon="-1.82447">
        <ele>69</ele>
        <time>2022-04-09T10:29:55Z</time>
      </trkpt>
      <trkpt lat="47.1983" lon="-1.82461">
        <ele>70</ele>
        <time>2022-04-09T10:29:57Z</time>
      </trkpt>
      <trkpt lat="47.19823" lon="-1.82474">
        <ele>70</ele>
        <time>2022-04-09T10:29:59Z</time>
      </trkpt>
      <trkpt lat="47.19815" lon="-1.82486">
        <ele>70</ele>
        <time>2022-04-09T10:30:01Z</time>
      </trkpt>
      <trkpt lat="47.19807" lon="-1.82499">
        <ele>70</ele>
        <time>2022-04-09T10:30:03Z</time>
      </trkpt>
      <trkpt lat="47.19799" lon="-1.82512">
        <ele>70</ele>
        <time>2022-04-09T10:30:05Z</time>
      </trkpt>
      <trkpt lat="47.1979" lon="-1.82525">
        <ele>70</ele>
        <time>2022-04-09T10:30:07Z</time>
      </trkpt>
      <trkpt lat="47.19782" lon="-1.82538">
        <ele>70</ele>
        <time>2022-04-09T10:30:09Z</time>
      </trkpt>
      <trkpt lat="47.19774" lon="-1.82551">
        <ele>70</ele>
        <time>2022-04-09T10:30:11Z</time>
      </trkpt>
      <trkpt lat="47.19765" lon="-1.82564">
        <ele>70</ele>
        <time>2022-04-09T10:30:13Z</time>
      </trkpt>
      <trkpt lat="47.19757" lon="-1.82578">
        <ele>70</ele>
        <time>2022-04-09T10:30:15Z</time>
      </trkpt>
      <trkpt lat="47.19749" lon="-1.82591">
        <ele>70</ele>
        <time>2022-04-09T10:30:17Z</time>
      </trkpt>
      <trkpt lat="47.19741" lon="-1.82605">
        <ele>69</ele>
        <time>2022-04-09T10:30:19Z</time>
      </trkpt>
      <trkpt lat="47.19734" lon="-1.82619">
        <ele>69</ele>
        <time>2022-04-09T10:30:21Z</time>
      </trkpt>
      <trkpt lat="47.19728" lon="-1.82636">
        <ele>69</ele>
        <time>2022-04-09T10:30:23Z</time>
      </trkpt>
      <trkpt lat="47.19723" lon="-1.82653">
        <ele>69</ele>
        <time>2022-04-09T10:30:25Z</time>
      </trkpt>
      <trkpt lat="47.19719" lon="-1.82669">
        <ele>69</ele>
        <time>2022-04-09T10:30:27Z</time>
      </trkpt>
      <trkpt lat="47.19715" lon="-1.82685">
        <ele>69</ele>
        <time>2022-04-09T10:30:29Z</time>
      </trkpt>
      <trkpt lat="47.19711" lon="-1.82701">
        <ele>69</ele>
        <time>2022-04-09T10:30:31Z</time>
      </trkpt>
      <trkpt lat="47.19707" lon="-1.82717">
        <ele>69</ele>
        <time>2022-04-09T10:30:33Z</time>
      </trkpt>
      <trkpt lat="47.19703" lon="-1.82735">
        <ele>69</ele>
        <time>2022-04-09T10:30:35Z</time>
      </trkpt>
      <trkpt lat="47.19699" lon="-1.82751">
        <ele>69</ele>
        <time>2022-04-09T10:30:37Z</time>
      </trkpt>
      <trkpt lat="47.19695" lon="-1.82768">
        <ele>68</ele>
        <time>2022-04-09T10:30:39Z</time>
      </trkpt>
      <trkpt lat="47.19692" lon="-1.82785">
        <ele>68</ele>
        <time>2022-04-09T10:30:41Z</time>
      </trkpt>
      <trkpt lat="47.19689" lon="-1.82801">
        <ele>68</ele>
        <time>2022-04-09T10:30:43Z</time>
      </trkpt>
      <trkpt lat="47.19686" lon="-1.82818">
        <ele>68</ele>
        <time>2022-04-09T10:30:45Z</time>
      </trkpt>
      <trkpt lat="47.19683" lon="-1.82834">
        <ele>68</ele>
        <time>2022-04-09T10:30:47Z</time>
      </trkpt>
      <trkpt lat="47.1968" lon="-1.82851">
        <ele>68</ele>
        <time>2022-04-09T10:30:49Z</time>
      </trkpt>
      <trkpt lat="47.19677" lon="-1.82867">
        <ele>68</ele>
        <time>2022-04-09T10:30:51Z</time>
      </trkpt>
      <trkpt lat="47.19674" lon="-1.82883">
        <ele>68</ele>
        <time>2022-04-09T10:30:53Z</time>
      </trkpt>
      <trkpt lat="47.1967" lon="-1.82899">
        <ele>68</ele>
        <time>2022-04-09T10:30:55Z</time>
      </trkpt>
      <trkpt lat="47.19667" lon="-1.82916">
        <ele>68</ele>
        <time>2022-04-09T10:30:57Z</time>
      </trkpt>
      <trkpt lat="47.19664" lon="-1.82933">
        <ele>68</ele>
        <time>2022-04-09T10:30:59Z</time>
      </trkpt>
      <trkpt lat="47.19661" lon="-1.8295">
        <ele>68</ele>
        <time>2022-04-09T10:31:01Z</time>
      </trkpt>
      <trkpt lat="47.19658" lon="-1.82966">
        <ele>68</ele>
        <time>2022-04-09T10:31:03Z</time>
      </trkpt>
      <trkpt lat="47.19655" lon="-1.82983">
        <ele>68</ele>
        <time>2022-04-09T10:31:05Z</time>
      </trkpt>
      <trkpt lat="47.19652" lon="-1.83">
        <ele>68</ele>
        <time>2022-04-09T10:31:07Z</time>
      </trkpt>
      <trkpt lat="47.19648" lon="-1.83017">
        <ele>68</ele>
        <time>2022-04-09T10:31:09Z</time>
      </trkpt>
      <trkpt lat="47.19645" lon="-1.83034">
        <ele>68</ele>
        <time>2022-04-09T10:31:11Z</time>
      </trkpt>
      <trkpt lat="47.19642" lon="-1.83051">
        <ele>67</ele>
        <time>2022-04-09T10:31:13Z</time>
      </trkpt>
      <trkpt lat="47.19639" lon="-1.83068">
        <ele>67</ele>
        <time>2022-04-09T10:31:15Z</time>
      </trkpt>
      <trkpt lat="47.19635" lon="-1.83084">
        <ele>67</ele>
        <time>2022-04-09T10:31:17Z</time>
      </trkpt>
      <trkpt lat="47.19632" lon="-1.83101">
        <ele>67</ele>
        <time>2022-04-09T10:31:19Z</time>
      </trkpt>
      <trkpt lat="47.19629" lon="-1.83118">
        <ele>67</ele>
        <time>2022-04-09T10:31:21Z</time>
      </trkpt>
      <trkpt lat="47.19626" lon="-1.83136">
        <ele>67</ele>
        <time>2022-04-09T10:31:23Z</time>
      </trkpt>
      <trkpt lat="47.19624" lon="-1.83154">
        <ele>67</ele>
        <time>2022-04-09T10:31:25Z</time>
      </trkpt>
      <trkpt lat="47.19623" lon="-1.83172">
        <ele>67</ele>
        <time>2022-04-09T10:31:27Z</time>
      </trkpt>
      <trkpt lat="47.19622" lon="-1.8319">
        <ele>67</ele>
        <time>2022-04-09T10:31:29Z</time>
      </trkpt>
      <trkpt lat="47.19622" lon="-1.83208">
        <ele>67</ele>
        <time>2022-04-09T10:31:31Z</time>
      </trkpt>
      <trkpt lat="47.19623" lon="-1.83227">
        <ele>67</ele>
        <time>2022-04-09T10:31:33Z</time>
      </trkpt>
      <trkpt lat="47.19624" lon="-1.83245">
        <ele>67</ele>
        <time>2022-04-09T10:31:35Z</time>
      </trkpt>
      <trkpt lat="47.19624" lon="-1.83264">
        <ele>67</ele>
        <time>2022-04-09T10:31:37Z</time>
      </trkpt>
      <trkpt lat="47.19625" lon="-1.83282">
        <ele>66</ele>
        <time>2022-04-09T10:31:39Z</time>
      </trkpt>
      <trkpt lat="47.19626" lon="-1.833">
        <ele>67</ele>
        <time>2022-04-09T10:31:41Z</time>
      </trkpt>
      <trkpt lat="47.19626" lon="-1.83318">
        <ele>66</ele>
        <time>2022-04-09T10:31:43Z</time>
      </trkpt>
      <trkpt lat="47.19628" lon="-1.83337">
        <ele>66</ele>
        <time>2022-04-09T10:31:45Z</time>
      </trkpt>
      <trkpt lat="47.19628" lon="-1.83355">
        <ele>66</ele>
        <time>2022-04-09T10:31:47Z</time>
      </trkpt>
      <trkpt lat="47.1963" lon="-1.83373">
        <ele>66</ele>
        <time>2022-04-09T10:31:49Z</time>
      </trkpt>
      <trkpt lat="47.19631" lon="-1.83391">
        <ele>66</ele>
        <time>2022-04-09T10:31:51Z</time>
      </trkpt>
      <trkpt lat="47.19631" lon="-1.83409">
        <ele>66</ele>
        <time>2022-04-09T10:31:53Z</time>
      </trkpt>
      <trkpt lat="47.19632" lon="-1.83427">
        <ele>66</ele>
        <time>2022-04-09T10:31:55Z</time>
      </trkpt>
      <trkpt lat="47.19633" lon="-1.83445">
        <ele>66</ele>
        <time>2022-04-09T10:31:57Z</time>
      </trkpt>
      <trkpt lat="47.19633" lon="-1.83464">
        <ele>66</ele>
        <time>2022-04-09T10:31:59Z</time>
      </trkpt>
      <trkpt lat="47.19634" lon="-1.83482">
        <ele>66</ele>
        <time>2022-04-09T10:32:01Z</time>
      </trkpt>
      <trkpt lat="47.19634" lon="-1.835">
        <ele>66</ele>
        <time>2022-04-09T10:32:03Z</time>
      </trkpt>
      <trkpt lat="47.19635" lon="-1.83518">
        <ele>66</ele>
        <time>2022-04-09T10:32:05Z</time>
      </trkpt>
      <trkpt lat="47.19635" lon="-1.83535">
        <ele>66</ele>
        <time>2022-04-09T10:32:07Z</time>
      </trkpt>
      <trkpt lat="47.19635" lon="-1.83552">
        <ele>66</ele>
        <time>2022-04-09T10:32:09Z</time>
      </trkpt>
      <trkpt lat="47.19633" lon="-1.8357">
        <ele>66</ele>
        <time>2022-04-09T10:32:11Z</time>
      </trkpt>
      <trkpt lat="47.1963" lon="-1.83588">
        <ele>66</ele>
        <time>2022-04-09T10:32:13Z</time>
      </trkpt>
      <trkpt lat="47.19626" lon="-1.83605">
        <ele>66</ele>
        <time>2022-04-09T10:32:15Z</time>
      </trkpt>
      <trkpt lat="47.19622" lon="-1.83623">
        <ele>66</ele>
        <time>2022-04-09T10:32:17Z</time>
      </trkpt>
      <trkpt lat="47.19617" lon="-1.8364">
        <ele>65</ele>
        <time>2022-04-09T10:32:19Z</time>
      </trkpt>
      <trkpt lat="47.19614" lon="-1.83658">
        <ele>65</ele>
        <time>2022-04-09T10:32:21Z</time>
      </trkpt>
      <trkpt lat="47.19611" lon="-1.83677">
        <ele>65</ele>
        <time>2022-04-09T10:32:23Z</time>
      </trkpt>
      <trkpt lat="47.19611" lon="-1.83696">
        <ele>65</ele>
        <time>2022-04-09T10:32:25Z</time>
      </trkpt>
      <trkpt lat="47.19612" lon="-1.83715">
        <ele>65</ele>
        <time>2022-04-09T10:32:27Z</time>
      </trkpt>
      <trkpt lat="47.19615" lon="-1.83733">
        <ele>65</ele>
        <time>2022-04-09T10:32:29Z</time>
      </trkpt>
      <trkpt lat="47.19618" lon="-1.8375">
        <ele>65</ele>
        <time>2022-04-09T10:32:31Z</time>
      </trkpt>
      <trkpt lat="47.19621" lon="-1.83768">
        <ele>65</ele>
        <time>2022-04-09T10:32:33Z</time>
      </trkpt>
      <trkpt lat="47.19624" lon="-1.83786">
        <ele>65</ele>
        <time>2022-04-09T10:32:35Z</time>
      </trkpt>
      <trkpt lat="47.19627" lon="-1.83804">
        <ele>65</ele>
        <time>2022-04-09T10:32:37Z</time>
      </trkpt>
      <trkpt lat="47.19631" lon="-1.83823">
        <ele>65</ele>
        <time>2022-04-09T10:32:39Z</time>
      </trkpt>
      <trkpt lat="47.19634" lon="-1.8384">
        <ele>65</ele>
        <time>2022-04-09T10:32:41Z</time>
      </trkpt>
      <trkpt lat="47.19637" lon="-1.83858">
        <ele>64</ele>
        <time>2022-04-09T10:32:43Z</time>
      </trkpt>
      <trkpt lat="47.1964" lon="-1.83875">
        <ele>65</ele>
        <time>2022-04-09T10:32:45Z</time>
      </trkpt>
      <trkpt lat="47.19643" lon="-1.83892">
        <ele>64</ele>
        <time>2022-04-09T10:32:47Z</time>
      </trkpt>
      <trkpt lat="47.19646" lon="-1.8391">
        <ele>64</ele>
        <time>2022-04-09T10:32:49Z</time>
      </trkpt>
      <trkpt lat="47.19649" lon="-1.83927">
        <ele>64</ele>
        <time>2022-04-09T10:32:51Z</time>
      </trkpt>
      <trkpt lat="47.19652" lon="-1.83945">
        <ele>64</ele>
        <time>2022-04-09T10:32:53Z</time>
      </trkpt>
      <trkpt lat="47.19656" lon="-1.83962">
        <ele>65</ele>
        <time>2022-04-09T10:32:55Z</time>
      </trkpt>
      <trkpt lat="47.19659" lon="-1.83979">
        <ele>65</ele>
        <time>2022-04-09T10:32:57Z</time>
      </trkpt>
      <trkpt lat="47.19661" lon="-1.83996">
        <ele>65</ele>
        <time>2022-04-09T10:32:59Z</time>
      </trkpt>
      <trkpt lat="47.19663" lon="-1.84014">
        <ele>65</ele>
        <time>2022-04-09T10:33:01Z</time>
      </trkpt>
      <trkpt lat="47.19664" lon="-1.84031">
        <ele>65</ele>
        <time>2022-04-09T10:33:03Z</time>
      </trkpt>
      <trkpt lat="47.19664" lon="-1.84049">
        <ele>65</ele>
        <time>2022-04-09T10:33:05Z</time>
      </trkpt>
      <trkpt lat="47.19662" lon="-1.84067">
        <ele>65</ele>
        <time>2022-04-09T10:33:07Z</time>
      </trkpt>
      <trkpt lat="47.19658" lon="-1.84084">
        <ele>65</ele>
        <time>2022-04-09T10:33:09Z</time>
      </trkpt>
      <trkpt lat="47.19653" lon="-1.84101">
        <ele>65</ele>
        <time>2022-04-09T10:33:11Z</time>
      </trkpt>
      <trkpt lat="47.19646" lon="-1.84116">
        <ele>65</ele>
        <time>2022-04-09T10:33:13Z</time>
      </trkpt>
      <trkpt lat="47.19639" lon="-1.84131">
        <ele>65</ele>
        <time>2022-04-09T10:33:15Z</time>
      </trkpt>
      <trkpt lat="47.19631" lon="-1.84146">
        <ele>65</ele>
        <time>2022-04-09T10:33:17Z</time>
      </trkpt>
      <trkpt lat="47.19623" lon="-1.84159">
        <ele>65</ele>
        <time>2022-04-09T10:33:19Z</time>
      </trkpt>
      <trkpt lat="47.19615" lon="-1.84173">
        <ele>65</ele>
        <time>2022-04-09T10:33:21Z</time>
      </trkpt>
      <trkpt lat="47.19607" lon="-1.84188">
        <ele>65</ele>
        <time>2022-04-09T10:33:23Z</time>
      </trkpt>
      <trkpt lat="47.19599" lon="-1.84202">
        <ele>65</ele>
        <time>2022-04-09T10:33:25Z</time>
      </trkpt>
      <trkpt lat="47.1959" lon="-1.84216">
        <ele>64</ele>
        <time>2022-04-09T10:33:27Z</time>
      </trkpt>
      <trkpt lat="47.19582" lon="-1.84231">
        <ele>64</ele>
        <time>2022-04-09T10:33:29Z</time>
      </trkpt>
      <trkpt lat="47.19574" lon="-1.84245">
        <ele>64</ele>
        <time>2022-04-09T10:33:31Z</time>
      </trkpt>
      <trkpt lat="47.19566" lon="-1.8426">
        <ele>64</ele>
        <time>2022-04-09T10:33:33Z</time>
      </trkpt>
      <trkpt lat="47.19558" lon="-1.84273">
        <ele>64</ele>
        <time>2022-04-09T10:33:35Z</time>
      </trkpt>
      <trkpt lat="47.1955" lon="-1.84287">
        <ele>64</ele>
        <time>2022-04-09T10:33:37Z</time>
      </trkpt>
      <trkpt lat="47.19542" lon="-1.84301">
        <ele>64</ele>
        <time>2022-04-09T10:33:39Z</time>
      </trkpt>
      <trkpt lat="47.19534" lon="-1.84315">
        <ele>64</ele>
        <time>2022-04-09T10:33:41Z</time>
      </trkpt>
      <trkpt lat="47.19526" lon="-1.8433">
        <ele>64</ele>
        <time>2022-04-09T10:33:43Z</time>
      </trkpt>
      <trkpt lat="47.19518" lon="-1.84344">
        <ele>64</ele>
        <time>2022-04-09T10:33:45Z</time>
      </trkpt>
      <trkpt lat="47.19509" lon="-1.84359">
        <ele>64</ele>
        <time>2022-04-09T10:33:47Z</time>
      </trkpt>
      <trkpt lat="47.19501" lon="-1.84373">
        <ele>64</ele>
        <time>2022-04-09T10:33:49Z</time>
      </trkpt>
      <trkpt lat="47.19493" lon="-1.84388">
        <ele>64</ele>
        <time>2022-04-09T10:33:51Z</time>
      </trkpt>
      <trkpt lat="47.19484" lon="-1.84403">
        <ele>64</ele>
        <time>2022-04-09T10:33:53Z</time>
      </trkpt>
      <trkpt lat="47.19476" lon="-1.84418">
        <ele>64</ele>
        <time>2022-04-09T10:33:55Z</time>
      </trkpt>
      <trkpt lat="47.19468" lon="-1.84432">
        <ele>64</ele>
        <time>2022-04-09T10:33:57Z</time>
      </trkpt>
      <trkpt lat="47.19459" lon="-1.84447">
        <ele>64</ele>
        <time>2022-04-09T10:33:59Z</time>
      </trkpt>
      <trkpt lat="47.19451" lon="-1.84461">
        <ele>64</ele>
        <time>2022-04-09T10:34:01Z</time>
      </trkpt>
      <trkpt lat="47.19443" lon="-1.84476">
        <ele>64</ele>
        <time>2022-04-09T10:34:03Z</time>
      </trkpt>
      <trkpt lat="47.19435" lon="-1.84491">
        <ele>65</ele>
        <time>2022-04-09T10:34:05Z</time>
      </trkpt>
      <trkpt lat="47.19427" lon="-1.84506">
        <ele>65</ele>
        <time>2022-04-09T10:34:07Z</time>
      </trkpt>
      <trkpt lat="47.1942" lon="-1.8452">
        <ele>65</ele>
        <time>2022-04-09T10:34:09Z</time>
      </trkpt>
      <trkpt lat="47.19411" lon="-1.84532">
        <ele>65</ele>
        <time>2022-04-09T10:34:11Z</time>
      </trkpt>
      <trkpt lat="47.19402" lon="-1.84545">
        <ele>65</ele>
        <time>2022-04-09T10:34:13Z</time>
      </trkpt>
      <trkpt lat="47.19393" lon="-1.84557">
        <ele>65</ele>
        <time>2022-04-09T10:34:15Z</time>
      </trkpt>
      <trkpt lat="47.19385" lon="-1.84566">
        <ele>65</ele>
        <time>2022-04-09T10:34:17Z</time>
      </trkpt>
      <trkpt lat="47.19374" lon="-1.84573">
        <ele>65</ele>
        <time>2022-04-09T10:34:19Z</time>
      </trkpt>
      <trkpt lat="47.19362" lon="-1.84575">
        <ele>65</ele>
        <time>2022-04-09T10:34:21Z</time>
      </trkpt>
      <trkpt lat="47.19348" lon="-1.84579">
        <ele>64</ele>
        <time>2022-04-09T10:34:23Z</time>
      </trkpt>
      <trkpt lat="47.19337" lon="-1.84594">
        <ele>64</ele>
        <time>2022-04-09T10:34:25Z</time>
      </trkpt>
      <trkpt lat="47.19333" lon="-1.84613">
        <ele>63</ele>
        <time>2022-04-09T10:34:27Z</time>
      </trkpt>
      <trkpt lat="47.19332" lon="-1.84633">
        <ele>62</ele>
        <time>2022-04-09T10:34:29Z</time>
      </trkpt>
      <trkpt lat="47.19332" lon="-1.84653">
        <ele>62</ele>
        <time>2022-04-09T10:34:31Z</time>
      </trkpt>
      <trkpt lat="47.19331" lon="-1.84673">
        <ele>61</ele>
        <time>2022-04-09T10:34:33Z</time>
      </trkpt>
      <trkpt lat="47.19331" lon="-1.84693">
        <ele>61</ele>
        <time>2022-04-09T10:34:35Z</time>
      </trkpt>
      <trkpt lat="47.1933" lon="-1.84712">
        <ele>61</ele>
        <time>2022-04-09T10:34:37Z</time>
      </trkpt>
      <trkpt lat="47.1933" lon="-1.84731">
        <ele>61</ele>
        <time>2022-04-09T10:34:39Z</time>
      </trkpt>
      <trkpt lat="47.19329" lon="-1.8475">
        <ele>61</ele>
        <time>2022-04-09T10:34:41Z</time>
      </trkpt>
      <trkpt lat="47.19327" lon="-1.84769">
        <ele>61</ele>
        <time>2022-04-09T10:34:43Z</time>
      </trkpt>
      <trkpt lat="47.19326" lon="-1.84788">
        <ele>61</ele>
        <time>2022-04-09T10:34:45Z</time>
      </trkpt>
      <trkpt lat="47.19325" lon="-1.84808">
        <ele>61</ele>
        <time>2022-04-09T10:34:47Z</time>
      </trkpt>
      <trkpt lat="47.19322" lon="-1.84827">
        <ele>61</ele>
        <time>2022-04-09T10:34:49Z</time>
      </trkpt>
      <trkpt lat="47.19319" lon="-1.84846">
        <ele>61</ele>
        <time>2022-04-09T10:34:51Z</time>
      </trkpt>
      <trkpt lat="47.19314" lon="-1.84864">
        <ele>61</ele>
        <time>2022-04-09T10:34:53Z</time>
      </trkpt>
      <trkpt lat="47.1931" lon="-1.84882">
        <ele>61</ele>
        <time>2022-04-09T10:34:55Z</time>
      </trkpt>
      <trkpt lat="47.19304" lon="-1.84899">
        <ele>61</ele>
        <time>2022-04-09T10:34:57Z</time>
      </trkpt>
      <trkpt lat="47.19299" lon="-1.84917">
        <ele>61</ele>
        <time>2022-04-09T10:34:59Z</time>
      </trkpt>
      <trkpt lat="47.19293" lon="-1.84934">
        <ele>61</ele>
        <time>2022-04-09T10:35:01Z</time>
      </trkpt>
      <trkpt lat="47.19287" lon="-1.84951">
        <ele>61</ele>
        <time>2022-04-09T10:35:03Z</time>
      </trkpt>
      <trkpt lat="47.19282" lon="-1.84968">
        <ele>60</ele>
        <time>2022-04-09T10:35:05Z</time>
      </trkpt>
      <trkpt lat="47.19277" lon="-1.84986">
        <ele>60</ele>
        <time>2022-04-09T10:35:07Z</time>
      </trkpt>
      <trkpt lat="47.19272" lon="-1.85005">
        <ele>60</ele>
        <time>2022-04-09T10:35:09Z</time>
      </trkpt>
      <trkpt lat="47.19268" lon="-1.85023">
        <ele>60</ele>
        <time>2022-04-09T10:35:11Z</time>
      </trkpt>
      <trkpt lat="47.19265" lon="-1.8504">
        <ele>60</ele>
        <time>2022-04-09T10:35:13Z</time>
      </trkpt>
      <trkpt lat="47.19264" lon="-1.85059">
        <ele>60</ele>
        <time>2022-04-09T10:35:15Z</time>
      </trkpt>
      <trkpt lat="47.19263" lon="-1.85077">
        <ele>59</ele>
        <time>2022-04-09T10:35:17Z</time>
      </trkpt>
      <trkpt lat="47.19264" lon="-1.85095">
        <ele>59</ele>
        <time>2022-04-09T10:35:19Z</time>
      </trkpt>
      <trkpt lat="47.19266" lon="-1.85113">
        <ele>59</ele>
        <time>2022-04-09T10:35:21Z</time>
      </trkpt>
      <trkpt lat="47.19267" lon="-1.85131">
        <ele>58</ele>
        <time>2022-04-09T10:35:23Z</time>
      </trkpt>
      <trkpt lat="47.19267" lon="-1.8515">
        <ele>57</ele>
        <time>2022-04-09T10:35:25Z</time>
      </trkpt>
      <trkpt lat="47.19268" lon="-1.85171">
        <ele>56</ele>
        <time>2022-04-09T10:35:27Z</time>
      </trkpt>
      <trkpt lat="47.19271" lon="-1.85192">
        <ele>55</ele>
        <time>2022-04-09T10:35:29Z</time>
      </trkpt>
      <trkpt lat="47.19274" lon="-1.8521">
        <ele>55</ele>
        <time>2022-04-09T10:35:31Z</time>
      </trkpt>
      <trkpt lat="47.19275" lon="-1.85226">
        <ele>55</ele>
        <time>2022-04-09T10:35:33Z</time>
      </trkpt>
      <trkpt lat="47.1928" lon="-1.85237">
        <ele>56</ele>
        <time>2022-04-09T10:35:38Z</time>
      </trkpt>
      <trkpt lat="47.19278" lon="-1.85254">
        <ele>56</ele>
        <time>2022-04-09T10:35:43Z</time>
      </trkpt>
      <trkpt lat="47.19272" lon="-1.85269">
        <ele>55</ele>
        <time>2022-04-09T10:35:45Z</time>
      </trkpt>
      <trkpt lat="47.19267" lon="-1.85286">
        <ele>55</ele>
        <time>2022-04-09T10:35:47Z</time>
      </trkpt>
      <trkpt lat="47.19263" lon="-1.85304">
        <ele>55</ele>
        <time>2022-04-09T10:35:49Z</time>
      </trkpt>
      <trkpt lat="47.19257" lon="-1.85322">
        <ele>56</ele>
        <time>2022-04-09T10:35:51Z</time>
      </trkpt>
      <trkpt lat="47.1925" lon="-1.85338">
        <ele>57</ele>
        <time>2022-04-09T10:35:53Z</time>
      </trkpt>
      <trkpt lat="47.19242" lon="-1.85353">
        <ele>57</ele>
        <time>2022-04-09T10:35:55Z</time>
      </trkpt>
      <trkpt lat="47.19234" lon="-1.85369">
        <ele>56</ele>
        <time>2022-04-09T10:35:57Z</time>
      </trkpt>
      <trkpt lat="47.19227" lon="-1.85385">
        <ele>55</ele>
        <time>2022-04-09T10:35:59Z</time>
      </trkpt>
      <trkpt lat="47.19217" lon="-1.854">
        <ele>55</ele>
        <time>2022-04-09T10:36:01Z</time>
      </trkpt>
      <trkpt lat="47.19206" lon="-1.85413">
        <ele>55</ele>
        <time>2022-04-09T10:36:03Z</time>
      </trkpt>
      <trkpt lat="47.19195" lon="-1.85425">
        <ele>55</ele>
        <time>2022-04-09T10:36:05Z</time>
      </trkpt>
      <trkpt lat="47.19184" lon="-1.85438">
        <ele>55</ele>
        <time>2022-04-09T10:36:07Z</time>
      </trkpt>
      <trkpt lat="47.19174" lon="-1.85451">
        <ele>55</ele>
        <time>2022-04-09T10:36:09Z</time>
      </trkpt>
      <trkpt lat="47.19164" lon="-1.85465">
        <ele>55</ele>
        <time>2022-04-09T10:36:11Z</time>
      </trkpt>
      <trkpt lat="47.19155" lon="-1.85479">
        <ele>55</ele>
        <time>2022-04-09T10:36:13Z</time>
      </trkpt>
      <trkpt lat="47.19145" lon="-1.85493">
        <ele>56</ele>
        <time>2022-04-09T10:36:15Z</time>
      </trkpt>
      <trkpt lat="47.19136" lon="-1.85507">
        <ele>56</ele>
        <time>2022-04-09T10:36:17Z</time>
      </trkpt>
      <trkpt lat="47.19126" lon="-1.8552">
        <ele>56</ele>
        <time>2022-04-09T10:36:19Z</time>
      </trkpt>
      <trkpt lat="47.19115" lon="-1.85531">
        <ele>57</ele>
        <time>2022-04-09T10:36:21Z</time>
      </trkpt>
      <trkpt lat="47.19105" lon="-1.85542">
        <ele>57</ele>
        <time>2022-04-09T10:36:23Z</time>
      </trkpt>
      <trkpt lat="47.19095" lon="-1.85553">
        <ele>57</ele>
        <time>2022-04-09T10:36:25Z</time>
      </trkpt>
      <trkpt lat="47.19084" lon="-1.85563">
        <ele>57</ele>
        <time>2022-04-09T10:36:27Z</time>
      </trkpt>
      <trkpt lat="47.19073" lon="-1.85573">
        <ele>57</ele>
        <time>2022-04-09T10:36:29Z</time>
      </trkpt>
      <trkpt lat="47.19061" lon="-1.85583">
        <ele>56</ele>
        <time>2022-04-09T10:36:31Z</time>
      </trkpt>
      <trkpt lat="47.19049" lon="-1.85593">
        <ele>56</ele>
        <time>2022-04-09T10:36:33Z</time>
      </trkpt>
      <trkpt lat="47.19037" lon="-1.85604">
        <ele>55</ele>
        <time>2022-04-09T10:36:35Z</time>
      </trkpt>
      <trkpt lat="47.19026" lon="-1.85614">
        <ele>56</ele>
        <time>2022-04-09T10:36:37Z</time>
      </trkpt>
      <trkpt lat="47.19014" lon="-1.85624">
        <ele>56</ele>
        <time>2022-04-09T10:36:39Z</time>
      </trkpt>
      <trkpt lat="47.19003" lon="-1.85633">
        <ele>56</ele>
        <time>2022-04-09T10:36:41Z</time>
      </trkpt>
      <trkpt lat="47.18991" lon="-1.85643">
        <ele>56</ele>
        <time>2022-04-09T10:36:43Z</time>
      </trkpt>
      <trkpt lat="47.1898" lon="-1.85651">
        <ele>56</ele>
        <time>2022-04-09T10:36:45Z</time>
      </trkpt>
      <trkpt lat="47.18968" lon="-1.8566">
        <ele>56</ele>
        <time>2022-04-09T10:36:47Z</time>
      </trkpt>
      <trkpt lat="47.18955" lon="-1.85668">
        <ele>56</ele>
        <time>2022-04-09T10:36:49Z</time>
      </trkpt>
      <trkpt lat="47.18942" lon="-1.85677">
        <ele>55</ele>
        <time>2022-04-09T10:36:51Z</time>
      </trkpt>
      <trkpt lat="47.1893" lon="-1.85686">
        <ele>55</ele>
        <time>2022-04-09T10:36:53Z</time>
      </trkpt>
      <trkpt lat="47.18918" lon="-1.85695">
        <ele>55</ele>
        <time>2022-04-09T10:36:55Z</time>
      </trkpt>
      <trkpt lat="47.18905" lon="-1.85704">
        <ele>55</ele>
        <time>2022-04-09T10:36:57Z</time>
      </trkpt>
      <trkpt lat="47.18894" lon="-1.85713">
        <ele>54</ele>
        <time>2022-04-09T10:36:59Z</time>
      </trkpt>
      <trkpt lat="47.18881" lon="-1.85722">
        <ele>54</ele>
        <time>2022-04-09T10:37:01Z</time>
      </trkpt>
      <trkpt lat="47.18869" lon="-1.85731">
        <ele>54</ele>
        <time>2022-04-09T10:37:03Z</time>
      </trkpt>
      <trkpt lat="47.18856" lon="-1.8574">
        <ele>54</ele>
        <time>2022-04-09T10:37:05Z</time>
      </trkpt>
      <trkpt lat="47.18844" lon="-1.85749">
        <ele>54</ele>
        <time>2022-04-09T10:37:07Z</time>
      </trkpt>
      <trkpt lat="47.18831" lon="-1.85758">
        <ele>54</ele>
        <time>2022-04-09T10:37:09Z</time>
      </trkpt>
      <trkpt lat="47.18819" lon="-1.85767">
        <ele>54</ele>
        <time>2022-04-09T10:37:11Z</time>
      </trkpt>
      <trkpt lat="47.18807" lon="-1.85776">
        <ele>53</ele>
        <time>2022-04-09T10:37:13Z</time>
      </trkpt>
      <trkpt lat="47.18794" lon="-1.85784">
        <ele>53</ele>
        <time>2022-04-09T10:37:15Z</time>
      </trkpt>
      <trkpt lat="47.18782" lon="-1.85792">
        <ele>52</ele>
        <time>2022-04-09T10:37:17Z</time>
      </trkpt>
      <trkpt lat="47.1877" lon="-1.85801">
        <ele>52</ele>
        <time>2022-04-09T10:37:19Z</time>
      </trkpt>
      <trkpt lat="47.18758" lon="-1.8581">
        <ele>53</ele>
        <time>2022-04-09T10:37:21Z</time>
      </trkpt>
      <trkpt lat="47.18746" lon="-1.85819">
        <ele>52</ele>
        <time>2022-04-09T10:37:23Z</time>
      </trkpt>
      <trkpt lat="47.18734" lon="-1.85828">
        <ele>52</ele>
        <time>2022-04-09T10:37:25Z</time>
      </trkpt>
      <trkpt lat="47.18721" lon="-1.85838">
        <ele>52</ele>
        <time>2022-04-09T10:37:27Z</time>
      </trkpt>
      <trkpt lat="47.18708" lon="-1.85847">
        <ele>52</ele>
        <time>2022-04-09T10:37:29Z</time>
      </trkpt>
      <trkpt lat="47.18696" lon="-1.85856">
        <ele>53</ele>
        <time>2022-04-09T10:37:31Z</time>
      </trkpt>
      <trkpt lat="47.18684" lon="-1.85864">
        <ele>53</ele>
        <time>2022-04-09T10:37:33Z</time>
      </trkpt>
      <trkpt lat="47.18674" lon="-1.85872">
        <ele>54</ele>
        <time>2022-04-09T10:37:35Z</time>
      </trkpt>
      <trkpt lat="47.18663" lon="-1.8588">
        <ele>54</ele>
        <time>2022-04-09T10:37:37Z</time>
      </trkpt>
      <trkpt lat="47.18653" lon="-1.85887">
        <ele>54</ele>
        <time>2022-04-09T10:37:39Z</time>
      </trkpt>
      <trkpt lat="47.18642" lon="-1.85896">
        <ele>54</ele>
        <time>2022-04-09T10:37:41Z</time>
      </trkpt>
      <trkpt lat="47.18633" lon="-1.85906">
        <ele>55</ele>
        <time>2022-04-09T10:37:43Z</time>
      </trkpt>
      <trkpt lat="47.18626" lon="-1.85916">
        <ele>55</ele>
        <time>2022-04-09T10:37:45Z</time>
      </trkpt>
      <trkpt lat="47.18618" lon="-1.85926">
        <ele>56</ele>
        <time>2022-04-09T10:37:47Z</time>
      </trkpt>
      <trkpt lat="47.1861" lon="-1.85936">
        <ele>56</ele>
        <time>2022-04-09T10:37:49Z</time>
      </trkpt>
      <trkpt lat="47.18602" lon="-1.85945">
        <ele>57</ele>
        <time>2022-04-09T10:37:51Z</time>
      </trkpt>
      <trkpt lat="47.18595" lon="-1.85955">
        <ele>58</ele>
        <time>2022-04-09T10:37:53Z</time>
      </trkpt>
      <trkpt lat="47.18589" lon="-1.85967">
        <ele>58</ele>
        <time>2022-04-09T10:37:55Z</time>
      </trkpt>
      <trkpt lat="47.18584" lon="-1.8598">
        <ele>59</ele>
        <time>2022-04-09T10:37:57Z</time>
      </trkpt>
      <trkpt lat="47.18579" lon="-1.85993">
        <ele>61</ele>
        <time>2022-04-09T10:37:59Z</time>
      </trkpt>
      <trkpt lat="47.18573" lon="-1.86005">
        <ele>62</ele>
        <time>2022-04-09T10:38:01Z</time>
      </trkpt>
      <trkpt lat="47.18566" lon="-1.86017">
        <ele>62</ele>
        <time>2022-04-09T10:38:03Z</time>
      </trkpt>
      <trkpt lat="47.18559" lon="-1.86029">
        <ele>63</ele>
        <time>2022-04-09T10:38:05Z</time>
      </trkpt>
      <trkpt lat="47.18553" lon="-1.86042">
        <ele>63</ele>
        <time>2022-04-09T10:38:07Z</time>
      </trkpt>
      <trkpt lat="47.18547" lon="-1.86057">
        <ele>64</ele>
        <time>2022-04-09T10:38:09Z</time>
      </trkpt>
      <trkpt lat="47.18541" lon="-1.8607">
        <ele>64</ele>
        <time>2022-04-09T10:38:11Z</time>
      </trkpt>
      <trkpt lat="47.18535" lon="-1.86084">
        <ele>65</ele>
        <time>2022-04-09T10:38:13Z</time>
      </trkpt>
      <trkpt lat="47.18529" lon="-1.86098">
        <ele>65</ele>
        <time>2022-04-09T10:38:15Z</time>
      </trkpt>
      <trkpt lat="47.18522" lon="-1.86109">
        <ele>65</ele>
        <time>2022-04-09T10:38:17Z</time>
      </trkpt>
      <trkpt lat="47.18514" lon="-1.8612">
        <ele>65</ele>
        <time>2022-04-09T10:38:19Z</time>
      </trkpt>
      <trkpt lat="47.18511" lon="-1.86134">
        <ele>65</ele>
        <time>2022-04-09T10:38:21Z</time>
      </trkpt>
      <trkpt lat="47.1851" lon="-1.8615">
        <ele>65</ele>
        <time>2022-04-09T10:38:23Z</time>
      </trkpt>
      <trkpt lat="47.18504" lon="-1.86166">
        <ele>65</ele>
        <time>2022-04-09T10:38:25Z</time>
      </trkpt>
      <trkpt lat="47.18499" lon="-1.86181">
        <ele>66</ele>
        <time>2022-04-09T10:38:27Z</time>
      </trkpt>
      <trkpt lat="47.18494" lon="-1.86197">
        <ele>66</ele>
        <time>2022-04-09T10:38:29Z</time>
      </trkpt>
      <trkpt lat="47.18489" lon="-1.86212">
        <ele>66</ele>
        <time>2022-04-09T10:38:31Z</time>
      </trkpt>
      <trkpt lat="47.18484" lon="-1.86229">
        <ele>66</ele>
        <time>2022-04-09T10:38:33Z</time>
      </trkpt>
      <trkpt lat="47.1848" lon="-1.86246">
        <ele>65</ele>
        <time>2022-04-09T10:38:35Z</time>
      </trkpt>
      <trkpt lat="47.18476" lon="-1.86265">
        <ele>65</ele>
        <time>2022-04-09T10:38:37Z</time>
      </trkpt>
      <trkpt lat="47.18476" lon="-1.86287">
        <ele>64</ele>
        <time>2022-04-09T10:38:39Z</time>
      </trkpt>
      <trkpt lat="47.18476" lon="-1.8631">
        <ele>63</ele>
        <time>2022-04-09T10:38:41Z</time>
      </trkpt>
      <trkpt lat="47.18471" lon="-1.86336">
        <ele>61</ele>
        <time>2022-04-09T10:38:43Z</time>
      </trkpt>
      <trkpt lat="47.18468" lon="-1.86349">
        <ele>60</ele>
        <time>2022-04-09T10:38:44Z</time>
      </trkpt>
      <trkpt lat="47.18465" lon="-1.86362">
        <ele>60</ele>
        <time>2022-04-09T10:38:45Z</time>
      </trkpt>
      <trkpt lat="47.18461" lon="-1.86375">
        <ele>59</ele>
        <time>2022-04-09T10:38:46Z</time>
      </trkpt>
      <trkpt lat="47.18456" lon="-1.86387">
        <ele>59</ele>
        <time>2022-04-09T10:38:47Z</time>
      </trkpt>
      <trkpt lat="47.1845" lon="-1.86397">
        <ele>58</ele>
        <time>2022-04-09T10:38:48Z</time>
      </trkpt>
      <trkpt lat="47.18443" lon="-1.86406">
        <ele>58</ele>
        <time>2022-04-09T10:38:49Z</time>
      </trkpt>
      <trkpt lat="47.18429" lon="-1.8642">
        <ele>58</ele>
        <time>2022-04-09T10:38:51Z</time>
      </trkpt>
      <trkpt lat="47.18416" lon="-1.86434">
        <ele>57</ele>
        <time>2022-04-09T10:38:53Z</time>
      </trkpt>
      <trkpt lat="47.18407" lon="-1.86454">
        <ele>56</ele>
        <time>2022-04-09T10:38:55Z</time>
      </trkpt>
      <trkpt lat="47.18404" lon="-1.86476">
        <ele>55</ele>
        <time>2022-04-09T10:38:57Z</time>
      </trkpt>
      <trkpt lat="47.18407" lon="-1.86496">
        <ele>55</ele>
        <time>2022-04-09T10:38:59Z</time>
      </trkpt>
      <trkpt lat="47.18411" lon="-1.86515">
        <ele>55</ele>
        <time>2022-04-09T10:39:01Z</time>
      </trkpt>
      <trkpt lat="47.18415" lon="-1.86533">
        <ele>56</ele>
        <time>2022-04-09T10:39:03Z</time>
      </trkpt>
      <trkpt lat="47.18418" lon="-1.86551">
        <ele>56</ele>
        <time>2022-04-09T10:39:05Z</time>
      </trkpt>
      <trkpt lat="47.1842" lon="-1.86568">
        <ele>56</ele>
        <time>2022-04-09T10:39:07Z</time>
      </trkpt>
      <trkpt lat="47.18422" lon="-1.86584">
        <ele>57</ele>
        <time>2022-04-09T10:39:09Z</time>
      </trkpt>
      <trkpt lat="47.18423" lon="-1.86599">
        <ele>58</ele>
        <time>2022-04-09T10:39:11Z</time>
      </trkpt>
      <trkpt lat="47.18424" lon="-1.86615">
        <ele>59</ele>
        <time>2022-04-09T10:39:13Z</time>
      </trkpt>
      <trkpt lat="47.18425" lon="-1.8663">
        <ele>60</ele>
        <time>2022-04-09T10:39:15Z</time>
      </trkpt>
      <trkpt lat="47.18424" lon="-1.86644">
        <ele>61</ele>
        <time>2022-04-09T10:39:17Z</time>
      </trkpt>
      <trkpt lat="47.18423" lon="-1.86659">
        <ele>61</ele>
        <time>2022-04-09T10:39:19Z</time>
      </trkpt>
      <trkpt lat="47.18421" lon="-1.86674">
        <ele>62</ele>
        <time>2022-04-09T10:39:21Z</time>
      </trkpt>
      <trkpt lat="47.18421" lon="-1.86688">
        <ele>63</ele>
        <time>2022-04-09T10:39:23Z</time>
      </trkpt>
      <trkpt lat="47.18418" lon="-1.86702">
        <ele>64</ele>
        <time>2022-04-09T10:39:25Z</time>
      </trkpt>
      <trkpt lat="47.18415" lon="-1.86717">
        <ele>64</ele>
        <time>2022-04-09T10:39:27Z</time>
      </trkpt>
      <trkpt lat="47.18412" lon="-1.86731">
        <ele>64</ele>
        <time>2022-04-09T10:39:29Z</time>
      </trkpt>
      <trkpt lat="47.1841" lon="-1.86744">
        <ele>65</ele>
        <time>2022-04-09T10:39:31Z</time>
      </trkpt>
      <trkpt lat="47.18408" lon="-1.86759">
        <ele>65</ele>
        <time>2022-04-09T10:39:33Z</time>
      </trkpt>
      <trkpt lat="47.18405" lon="-1.86773">
        <ele>66</ele>
        <time>2022-04-09T10:39:35Z</time>
      </trkpt>
      <trkpt lat="47.18403" lon="-1.86788">
        <ele>67</ele>
        <time>2022-04-09T10:39:37Z</time>
      </trkpt>
      <trkpt lat="47.18401" lon="-1.86803">
        <ele>66</ele>
        <time>2022-04-09T10:39:39Z</time>
      </trkpt>
      <trkpt lat="47.18399" lon="-1.86818">
        <ele>67</ele>
        <time>2022-04-09T10:39:41Z</time>
      </trkpt>
      <trkpt lat="47.18399" lon="-1.86832">
        <ele>67</ele>
        <time>2022-04-09T10:39:43Z</time>
      </trkpt>
      <trkpt lat="47.18398" lon="-1.86846">
        <ele>68</ele>
        <time>2022-04-09T10:39:45Z</time>
      </trkpt>
      <trkpt lat="47.18399" lon="-1.8686">
        <ele>68</ele>
        <time>2022-04-09T10:39:47Z</time>
      </trkpt>
      <trkpt lat="47.184" lon="-1.86874">
        <ele>69</ele>
        <time>2022-04-09T10:39:49Z</time>
      </trkpt>
      <trkpt lat="47.18401" lon="-1.86888">
        <ele>70</ele>
        <time>2022-04-09T10:39:51Z</time>
      </trkpt>
      <trkpt lat="47.18402" lon="-1.86902">
        <ele>70</ele>
        <time>2022-04-09T10:39:53Z</time>
      </trkpt>
      <trkpt lat="47.18403" lon="-1.86917">
        <ele>70</ele>
        <time>2022-04-09T10:39:55Z</time>
      </trkpt>
      <trkpt lat="47.18404" lon="-1.86932">
        <ele>71</ele>
        <time>2022-04-09T10:39:57Z</time>
      </trkpt>
      <trkpt lat="47.18406" lon="-1.86947">
        <ele>71</ele>
        <time>2022-04-09T10:39:59Z</time>
      </trkpt>
      <trkpt lat="47.18406" lon="-1.86962">
        <ele>71</ele>
        <time>2022-04-09T10:40:01Z</time>
      </trkpt>
      <trkpt lat="47.18407" lon="-1.86976">
        <ele>71</ele>
        <time>2022-04-09T10:40:03Z</time>
      </trkpt>
      <trkpt lat="47.18408" lon="-1.86991">
        <ele>71</ele>
        <time>2022-04-09T10:40:05Z</time>
      </trkpt>
      <trkpt lat="47.18409" lon="-1.87007">
        <ele>71</ele>
        <time>2022-04-09T10:40:07Z</time>
      </trkpt>
      <trkpt lat="47.18412" lon="-1.87022">
        <ele>71</ele>
        <time>2022-04-09T10:40:09Z</time>
      </trkpt>
      <trkpt lat="47.18415" lon="-1.8704">
        <ele>71</ele>
        <time>2022-04-09T10:40:11Z</time>
      </trkpt>
      <trkpt lat="47.18418" lon="-1.8706">
        <ele>70</ele>
        <time>2022-04-09T10:40:13Z</time>
      </trkpt>
      <trkpt lat="47.18422" lon="-1.87079">
        <ele>69</ele>
        <time>2022-04-09T10:40:15Z</time>
      </trkpt>
      <trkpt lat="47.18428" lon="-1.87099">
        <ele>67</ele>
        <time>2022-04-09T10:40:17Z</time>
      </trkpt>
      <trkpt lat="47.18434" lon="-1.8712">
        <ele>66</ele>
        <time>2022-04-09T10:40:19Z</time>
      </trkpt>
      <trkpt lat="47.18441" lon="-1.87142">
        <ele>65</ele>
        <time>2022-04-09T10:40:21Z</time>
      </trkpt>
      <trkpt lat="47.18448" lon="-1.87165">
        <ele>64</ele>
        <time>2022-04-09T10:40:23Z</time>
      </trkpt>
      <trkpt lat="47.18455" lon="-1.87189">
        <ele>63</ele>
        <time>2022-04-09T10:40:25Z</time>
      </trkpt>
      <trkpt lat="47.18462" lon="-1.87212">
        <ele>63</ele>
        <time>2022-04-09T10:40:27Z</time>
      </trkpt>
      <trkpt lat="47.18467" lon="-1.87235">
        <ele>63</ele>
        <time>2022-04-09T10:40:29Z</time>
      </trkpt>
      <trkpt lat="47.18471" lon="-1.87255">
        <ele>64</ele>
        <time>2022-04-09T10:40:31Z</time>
      </trkpt>
      <trkpt lat="47.18474" lon="-1.87273">
        <ele>64</ele>
        <time>2022-04-09T10:40:33Z</time>
      </trkpt>
      <trkpt lat="47.18476" lon="-1.87289">
        <ele>65</ele>
        <time>2022-04-09T10:40:35Z</time>
      </trkpt>
      <trkpt lat="47.18477" lon="-1.87304">
        <ele>66</ele>
        <time>2022-04-09T10:40:37Z</time>
      </trkpt>
      <trkpt lat="47.18478" lon="-1.87318">
        <ele>66</ele>
        <time>2022-04-09T10:40:39Z</time>
      </trkpt>
      <trkpt lat="47.1848" lon="-1.87332">
        <ele>67</ele>
        <time>2022-04-09T10:40:41Z</time>
      </trkpt>
      <trkpt lat="47.18482" lon="-1.87346">
        <ele>68</ele>
        <time>2022-04-09T10:40:43Z</time>
      </trkpt>
      <trkpt lat="47.18484" lon="-1.87359">
        <ele>68</ele>
        <time>2022-04-09T10:40:45Z</time>
      </trkpt>
      <trkpt lat="47.18485" lon="-1.87373">
        <ele>69</ele>
        <time>2022-04-09T10:40:47Z</time>
      </trkpt>
      <trkpt lat="47.18488" lon="-1.87392">
        <ele>70</ele>
        <time>2022-04-09T10:40:50Z</time>
      </trkpt>
      <trkpt lat="47.1849" lon="-1.87411">
        <ele>71</ele>
        <time>2022-04-09T10:40:53Z</time>
      </trkpt>
      <trkpt lat="47.18491" lon="-1.87425">
        <ele>71</ele>
        <time>2022-04-09T10:40:55Z</time>
      </trkpt>
      <trkpt lat="47.18491" lon="-1.87444">
        <ele>73</ele>
        <time>2022-04-09T10:40:58Z</time>
      </trkpt>
      <trkpt lat="47.18481" lon="-1.87458">
        <ele>73</ele>
        <time>2022-04-09T10:41:01Z</time>
      </trkpt>
      <trkpt lat="47.18473" lon="-1.87466">
        <ele>74</ele>
        <time>2022-04-09T10:41:03Z</time>
      </trkpt>
      <trkpt lat="47.18465" lon="-1.87473">
        <ele>74</ele>
        <time>2022-04-09T10:41:05Z</time>
      </trkpt>
      <trkpt lat="47.18457" lon="-1.8748">
        <ele>75</ele>
        <time>2022-04-09T10:41:07Z</time>
      </trkpt>
      <trkpt lat="47.18449" lon="-1.87487">
        <ele>76</ele>
        <time>2022-04-09T10:41:09Z</time>
      </trkpt>
      <trkpt lat="47.18441" lon="-1.87493">
        <ele>76</ele>
        <time>2022-04-09T10:41:11Z</time>
      </trkpt>
      <trkpt lat="47.18432" lon="-1.87499">
        <ele>77</ele>
        <time>2022-04-09T10:41:13Z</time>
      </trkpt>
      <trkpt lat="47.18423" lon="-1.87503">
        <ele>77</ele>
        <time>2022-04-09T10:41:15Z</time>
      </trkpt>
      <trkpt lat="47.18415" lon="-1.87507">
        <ele>77</ele>
        <time>2022-04-09T10:41:17Z</time>
      </trkpt>
      <trkpt lat="47.18405" lon="-1.87511">
        <ele>77</ele>
        <time>2022-04-09T10:41:19Z</time>
      </trkpt>
      <trkpt lat="47.18396" lon="-1.87513">
        <ele>77</ele>
        <time>2022-04-09T10:41:21Z</time>
      </trkpt>
      <trkpt lat="47.18386" lon="-1.87515">
        <ele>78</ele>
        <time>2022-04-09T10:41:23Z</time>
      </trkpt>
      <trkpt lat="47.18377" lon="-1.87517">
        <ele>78</ele>
        <time>2022-04-09T10:41:25Z</time>
      </trkpt>
      <trkpt lat="47.18367" lon="-1.87519">
        <ele>78</ele>
        <time>2022-04-09T10:41:27Z</time>
      </trkpt>
      <trkpt lat="47.18358" lon="-1.8752">
        <ele>79</ele>
        <time>2022-04-09T10:41:29Z</time>
      </trkpt>
      <trkpt lat="47.18348" lon="-1.87521">
        <ele>79</ele>
        <time>2022-04-09T10:41:31Z</time>
      </trkpt>
      <trkpt lat="47.18338" lon="-1.87523">
        <ele>79</ele>
        <time>2022-04-09T10:41:33Z</time>
      </trkpt>
      <trkpt lat="47.18329" lon="-1.87525">
        <ele>80</ele>
        <time>2022-04-09T10:41:35Z</time>
      </trkpt>
      <trkpt lat="47.18319" lon="-1.87528">
        <ele>80</ele>
        <time>2022-04-09T10:41:37Z</time>
      </trkpt>
      <trkpt lat="47.18309" lon="-1.87529">
        <ele>80</ele>
        <time>2022-04-09T10:41:39Z</time>
      </trkpt>
      <trkpt lat="47.183" lon="-1.87531">
        <ele>80</ele>
        <time>2022-04-09T10:41:41Z</time>
      </trkpt>
      <trkpt lat="47.1829" lon="-1.87534">
        <ele>80</ele>
        <time>2022-04-09T10:41:43Z</time>
      </trkpt>
      <trkpt lat="47.18281" lon="-1.87538">
        <ele>80</ele>
        <time>2022-04-09T10:41:45Z</time>
      </trkpt>
      <trkpt lat="47.18271" lon="-1.87542">
        <ele>80</ele>
        <time>2022-04-09T10:41:47Z</time>
      </trkpt>
      <trkpt lat="47.18262" lon="-1.87547">
        <ele>80</ele>
        <time>2022-04-09T10:41:49Z</time>
      </trkpt>
      <trkpt lat="47.18253" lon="-1.87554">
        <ele>80</ele>
        <time>2022-04-09T10:41:51Z</time>
      </trkpt>
      <trkpt lat="47.18243" lon="-1.87561">
        <ele>81</ele>
        <time>2022-04-09T10:41:53Z</time>
      </trkpt>
      <trkpt lat="47.18234" lon="-1.87569">
        <ele>81</ele>
        <time>2022-04-09T10:41:55Z</time>
      </trkpt>
      <trkpt lat="47.18224" lon="-1.87578">
        <ele>80</ele>
        <time>2022-04-09T10:41:57Z</time>
      </trkpt>
      <trkpt lat="47.18214" lon="-1.87587">
        <ele>80</ele>
        <time>2022-04-09T10:41:59Z</time>
      </trkpt>
      <trkpt lat="47.18204" lon="-1.87597">
        <ele>80</ele>
        <time>2022-04-09T10:42:01Z</time>
      </trkpt>
      <trkpt lat="47.18193" lon="-1.87608">
        <ele>80</ele>
        <time>2022-04-09T10:42:03Z</time>
      </trkpt>
      <trkpt lat="47.18182" lon="-1.87617">
        <ele>80</ele>
        <time>2022-04-09T10:42:05Z</time>
      </trkpt>
      <trkpt lat="47.18171" lon="-1.87626">
        <ele>80</ele>
        <time>2022-04-09T10:42:07Z</time>
      </trkpt>
      <trkpt lat="47.1816" lon="-1.87634">
        <ele>80</ele>
        <time>2022-04-09T10:42:09Z</time>
      </trkpt>
      <trkpt lat="47.18149" lon="-1.87642">
        <ele>80</ele>
        <time>2022-04-09T10:42:11Z</time>
      </trkpt>
      <trkpt lat="47.18139" lon="-1.87649">
        <ele>81</ele>
        <time>2022-04-09T10:42:13Z</time>
      </trkpt>
      <trkpt lat="47.18128" lon="-1.87656">
        <ele>82</ele>
        <time>2022-04-09T10:42:15Z</time>
      </trkpt>
      <trkpt lat="47.18117" lon="-1.87663">
        <ele>82</ele>
        <time>2022-04-09T10:42:17Z</time>
      </trkpt>
      <trkpt lat="47.18107" lon="-1.8767">
        <ele>82</ele>
        <time>2022-04-09T10:42:19Z</time>
      </trkpt>
      <trkpt lat="47.18096" lon="-1.87676">
        <ele>83</ele>
        <time>2022-04-09T10:42:21Z</time>
      </trkpt>
      <trkpt lat="47.18086" lon="-1.87683">
        <ele>83</ele>
        <time>2022-04-09T10:42:23Z</time>
      </trkpt>
      <trkpt lat="47.18076" lon="-1.8769">
        <ele>83</ele>
        <time>2022-04-09T10:42:25Z</time>
      </trkpt>
      <trkpt lat="47.18066" lon="-1.87698">
        <ele>83</ele>
        <time>2022-04-09T10:42:27Z</time>
      </trkpt>
      <trkpt lat="47.18057" lon="-1.87707">
        <ele>83</ele>
        <time>2022-04-09T10:42:29Z</time>
      </trkpt>
      <trkpt lat="47.18048" lon="-1.87716">
        <ele>84</ele>
        <time>2022-04-09T10:42:31Z</time>
      </trkpt>
      <trkpt lat="47.18039" lon="-1.87726">
        <ele>85</ele>
        <time>2022-04-09T10:42:33Z</time>
      </trkpt>
      <trkpt lat="47.18031" lon="-1.87734">
        <ele>85</ele>
        <time>2022-04-09T10:42:35Z</time>
      </trkpt>
      <trkpt lat="47.18023" lon="-1.87741">
        <ele>85</ele>
        <time>2022-04-09T10:42:37Z</time>
      </trkpt>
      <trkpt lat="47.18014" lon="-1.87748">
        <ele>86</ele>
        <time>2022-04-09T10:42:39Z</time>
      </trkpt>
      <trkpt lat="47.18005" lon="-1.87753">
        <ele>87</ele>
        <time>2022-04-09T10:42:41Z</time>
      </trkpt>
      <trkpt lat="47.17996" lon="-1.87758">
        <ele>87</ele>
        <time>2022-04-09T10:42:43Z</time>
      </trkpt>
      <trkpt lat="47.17988" lon="-1.87762">
        <ele>88</ele>
        <time>2022-04-09T10:42:45Z</time>
      </trkpt>
      <trkpt lat="47.17979" lon="-1.87767">
        <ele>88</ele>
        <time>2022-04-09T10:42:47Z</time>
      </trkpt>
      <trkpt lat="47.1797" lon="-1.87772">
        <ele>88</ele>
        <time>2022-04-09T10:42:49Z</time>
      </trkpt>
      <trkpt lat="47.17961" lon="-1.87776">
        <ele>88</ele>
        <time>2022-04-09T10:42:51Z</time>
      </trkpt>
      <trkpt lat="47.17949" lon="-1.87784">
        <ele>89</ele>
        <time>2022-04-09T10:42:54Z</time>
      </trkpt>
      <trkpt lat="47.1794" lon="-1.87789">
        <ele>89</ele>
        <time>2022-04-09T10:42:56Z</time>
      </trkpt>
      <trkpt lat="47.17932" lon="-1.87794">
        <ele>90</ele>
        <time>2022-04-09T10:42:58Z</time>
      </trkpt>
      <trkpt lat="47.17923" lon="-1.87799">
        <ele>90</ele>
        <time>2022-04-09T10:43:00Z</time>
      </trkpt>
      <trkpt lat="47.17914" lon="-1.87803">
        <ele>90</ele>
        <time>2022-04-09T10:43:02Z</time>
      </trkpt>
      <trkpt lat="47.17906" lon="-1.87808">
        <ele>90</ele>
        <time>2022-04-09T10:43:04Z</time>
      </trkpt>
      <trkpt lat="47.17893" lon="-1.87816">
        <ele>91</ele>
        <time>2022-04-09T10:43:07Z</time>
      </trkpt>
      <trkpt lat="47.17884" lon="-1.8782">
        <ele>91</ele>
        <time>2022-04-09T10:43:09Z</time>
      </trkpt>
      <trkpt lat="47.17872" lon="-1.87827">
        <ele>92</ele>
        <time>2022-04-09T10:43:12Z</time>
      </trkpt>
      <trkpt lat="47.17863" lon="-1.87832">
        <ele>93</ele>
        <time>2022-04-09T10:43:14Z</time>
      </trkpt>
      <trkpt lat="47.17854" lon="-1.87836">
        <ele>93</ele>
        <time>2022-04-09T10:43:16Z</time>
      </trkpt>
      <trkpt lat="47.17846" lon="-1.8784">
        <ele>94</ele>
        <time>2022-04-09T10:43:18Z</time>
      </trkpt>
      <trkpt lat="47.17836" lon="-1.87844">
        <ele>94</ele>
        <time>2022-04-09T10:43:20Z</time>
      </trkpt>
      <trkpt lat="47.17828" lon="-1.87848">
        <ele>95</ele>
        <time>2022-04-09T10:43:22Z</time>
      </trkpt>
      <trkpt lat="47.17819" lon="-1.87852">
        <ele>95</ele>
        <time>2022-04-09T10:43:24Z</time>
      </trkpt>
      <trkpt lat="47.1781" lon="-1.87857">
        <ele>96</ele>
        <time>2022-04-09T10:43:26Z</time>
      </trkpt>
      <trkpt lat="47.17801" lon="-1.87861">
        <ele>97</ele>
        <time>2022-04-09T10:43:28Z</time>
      </trkpt>
      <trkpt lat="47.17792" lon="-1.87867">
        <ele>98</ele>
        <time>2022-04-09T10:43:30Z</time>
      </trkpt>
      <trkpt lat="47.17783" lon="-1.87871">
        <ele>99</ele>
        <time>2022-04-09T10:43:32Z</time>
      </trkpt>
      <trkpt lat="47.17774" lon="-1.87876">
        <ele>100</ele>
        <time>2022-04-09T10:43:34Z</time>
      </trkpt>
      <trkpt lat="47.17765" lon="-1.87881">
        <ele>100</ele>
        <time>2022-04-09T10:43:36Z</time>
      </trkpt>
      <trkpt lat="47.17755" lon="-1.87886">
        <ele>100</ele>
        <time>2022-04-09T10:43:38Z</time>
      </trkpt>
      <trkpt lat="47.17746" lon="-1.87891">
        <ele>100</ele>
        <time>2022-04-09T10:43:40Z</time>
      </trkpt>
      <trkpt lat="47.17737" lon="-1.87897">
        <ele>99</ele>
        <time>2022-04-09T10:43:42Z</time>
      </trkpt>
      <trkpt lat="47.17728" lon="-1.87903">
        <ele>100</ele>
        <time>2022-04-09T10:43:44Z</time>
      </trkpt>
      <trkpt lat="47.17719" lon="-1.87909">
        <ele>100</ele>
        <time>2022-04-09T10:43:46Z</time>
      </trkpt>
      <trkpt lat="47.17709" lon="-1.87915">
        <ele>101</ele>
        <time>2022-04-09T10:43:48Z</time>
      </trkpt>
      <trkpt lat="47.17699" lon="-1.8792">
        <ele>101</ele>
        <time>2022-04-09T10:43:50Z</time>
      </trkpt>
      <trkpt lat="47.17689" lon="-1.87922">
        <ele>102</ele>
        <time>2022-04-09T10:43:52Z</time>
      </trkpt>
      <trkpt lat="47.17678" lon="-1.87923">
        <ele>101</ele>
        <time>2022-04-09T10:43:54Z</time>
      </trkpt>
      <trkpt lat="47.17667" lon="-1.87925">
        <ele>102</ele>
        <time>2022-04-09T10:43:56Z</time>
      </trkpt>
      <trkpt lat="47.17657" lon="-1.87928">
        <ele>101</ele>
        <time>2022-04-09T10:43:58Z</time>
      </trkpt>
      <trkpt lat="47.17647" lon="-1.87932">
        <ele>102</ele>
        <time>2022-04-09T10:44:00Z</time>
      </trkpt>
      <trkpt lat="47.17638" lon="-1.87935">
        <ele>102</ele>
        <time>2022-04-09T10:44:02Z</time>
      </trkpt>
      <trkpt lat="47.17629" lon="-1.87939">
        <ele>102</ele>
        <time>2022-04-09T10:44:04Z</time>
      </trkpt>
      <trkpt lat="47.1762" lon="-1.87943">
        <ele>103</ele>
        <time>2022-04-09T10:44:06Z</time>
      </trkpt>
      <trkpt lat="47.17611" lon="-1.87947">
        <ele>103</ele>
        <time>2022-04-09T10:44:08Z</time>
      </trkpt>
      <trkpt lat="47.17602" lon="-1.87952">
        <ele>103</ele>
        <time>2022-04-09T10:44:10Z</time>
      </trkpt>
      <trkpt lat="47.17593" lon="-1.87958">
        <ele>103</ele>
        <time>2022-04-09T10:44:12Z</time>
      </trkpt>
      <trkpt lat="47.17584" lon="-1.87965">
        <ele>103</ele>
        <time>2022-04-09T10:44:14Z</time>
      </trkpt>
      <trkpt lat="47.17575" lon="-1.87971">
        <ele>103</ele>
        <time>2022-04-09T10:44:16Z</time>
      </trkpt>
      <trkpt lat="47.17567" lon="-1.87976">
        <ele>103</ele>
        <time>2022-04-09T10:44:18Z</time>
      </trkpt>
      <trkpt lat="47.17558" lon="-1.87982">
        <ele>104</ele>
        <time>2022-04-09T10:44:20Z</time>
      </trkpt>
      <trkpt lat="47.17549" lon="-1.87987">
        <ele>104</ele>
        <time>2022-04-09T10:44:22Z</time>
      </trkpt>
      <trkpt lat="47.17537" lon="-1.87995">
        <ele>105</ele>
        <time>2022-04-09T10:44:25Z</time>
      </trkpt>
      <trkpt lat="47.17528" lon="-1.88001">
        <ele>105</ele>
        <time>2022-04-09T10:44:27Z</time>
      </trkpt>
      <trkpt lat="47.1752" lon="-1.88006">
        <ele>105</ele>
        <time>2022-04-09T10:44:29Z</time>
      </trkpt>
      <trkpt lat="47.17511" lon="-1.88012">
        <ele>106</ele>
        <time>2022-04-09T10:44:31Z</time>
      </trkpt>
      <trkpt lat="47.17503" lon="-1.88017">
        <ele>107</ele>
        <time>2022-04-09T10:44:33Z</time>
      </trkpt>
      <trkpt lat="47.17494" lon="-1.88023">
        <ele>107</ele>
        <time>2022-04-09T10:44:35Z</time>
      </trkpt>
      <trkpt lat="47.17485" lon="-1.88028">
        <ele>108</ele>
        <time>2022-04-09T10:44:37Z</time>
      </trkpt>
      <trkpt lat="47.17477" lon="-1.88034">
        <ele>108</ele>
        <time>2022-04-09T10:44:39Z</time>
      </trkpt>
      <trkpt lat="47.17468" lon="-1.8804">
        <ele>108</ele>
        <time>2022-04-09T10:44:41Z</time>
      </trkpt>
      <trkpt lat="47.17459" lon="-1.88046">
        <ele>109</ele>
        <time>2022-04-09T10:44:43Z</time>
      </trkpt>
      <trkpt lat="47.17451" lon="-1.88051">
        <ele>109</ele>
        <time>2022-04-09T10:44:45Z</time>
      </trkpt>
      <trkpt lat="47.17442" lon="-1.88056">
        <ele>110</ele>
        <time>2022-04-09T10:44:47Z</time>
      </trkpt>
      <trkpt lat="47.1743" lon="-1.88063">
        <ele>110</ele>
        <time>2022-04-09T10:44:50Z</time>
      </trkpt>
      <trkpt lat="47.17421" lon="-1.88066">
        <ele>110</ele>
        <time>2022-04-09T10:44:52Z</time>
      </trkpt>
      <trkpt lat="47.17411" lon="-1.88069">
        <ele>110</ele>
        <time>2022-04-09T10:44:54Z</time>
      </trkpt>
      <trkpt lat="47.17403" lon="-1.88073">
        <ele>110</ele>
        <time>2022-04-09T10:44:56Z</time>
      </trkpt>
      <trkpt lat="47.17394" lon="-1.88079">
        <ele>110</ele>
        <time>2022-04-09T10:44:58Z</time>
      </trkpt>
      <trkpt lat="47.17386" lon="-1.88084">
        <ele>111</ele>
        <time>2022-04-09T10:45:00Z</time>
      </trkpt>
      <trkpt lat="47.17378" lon="-1.8809">
        <ele>111</ele>
        <time>2022-04-09T10:45:02Z</time>
      </trkpt>
      <trkpt lat="47.17369" lon="-1.88095">
        <ele>111</ele>
        <time>2022-04-09T10:45:04Z</time>
      </trkpt>
      <trkpt lat="47.1736" lon="-1.881">
        <ele>111</ele>
        <time>2022-04-09T10:45:06Z</time>
      </trkpt>
      <trkpt lat="47.17353" lon="-1.88108">
        <ele>110</ele>
        <time>2022-04-09T10:45:08Z</time>
      </trkpt>
      <trkpt lat="47.17347" lon="-1.88119">
        <ele>110</ele>
        <time>2022-04-09T10:45:10Z</time>
      </trkpt>
      <trkpt lat="47.17344" lon="-1.88134">
        <ele>109</ele>
        <time>2022-04-09T10:45:12Z</time>
      </trkpt>
      <trkpt lat="47.17345" lon="-1.88149">
        <ele>109</ele>
        <time>2022-04-09T10:45:14Z</time>
      </trkpt>
      <trkpt lat="47.17347" lon="-1.88165">
        <ele>109</ele>
        <time>2022-04-09T10:45:16Z</time>
      </trkpt>
      <trkpt lat="47.17352" lon="-1.8818">
        <ele>109</ele>
        <time>2022-04-09T10:45:18Z</time>
      </trkpt>
      <trkpt lat="47.17357" lon="-1.88195">
        <ele>109</ele>
        <time>2022-04-09T10:45:20Z</time>
      </trkpt>
      <trkpt lat="47.17361" lon="-1.8821">
        <ele>108</ele>
        <time>2022-04-09T10:45:22Z</time>
      </trkpt>
      <trkpt lat="47.17364" lon="-1.88226">
        <ele>108</ele>
        <time>2022-04-09T10:45:24Z</time>
      </trkpt>
      <trkpt lat="47.17367" lon="-1.88241">
        <ele>108</ele>
        <time>2022-04-09T10:45:26Z</time>
      </trkpt>
      <trkpt lat="47.17368" lon="-1.88257">
        <ele>108</ele>
        <time>2022-04-09T10:45:28Z</time>
      </trkpt>
      <trkpt lat="47.17369" lon="-1.88272">
        <ele>107</ele>
        <time>2022-04-09T10:45:30Z</time>
      </trkpt>
      <trkpt lat="47.1737" lon="-1.88286">
        <ele>108</ele>
        <time>2022-04-09T10:45:32Z</time>
      </trkpt>
      <trkpt lat="47.17371" lon="-1.88303">
        <ele>109</ele>
        <time>2022-04-09T10:47:11Z</time>
      </trkpt>
      <trkpt lat="47.17371" lon="-1.88318">
        <ele>108</ele>
        <time>2022-04-09T10:47:14Z</time>
      </trkpt>
      <trkpt lat="47.17372" lon="-1.88338">
        <ele>108</ele>
        <time>2022-04-09T10:47:17Z</time>
      </trkpt>
      <trkpt lat="47.17373" lon="-1.88352">
        <ele>108</ele>
        <time>2022-04-09T10:47:19Z</time>
      </trkpt>
      <trkpt lat="47.17374" lon="-1.88367">
        <ele>108</ele>
        <time>2022-04-09T10:47:21Z</time>
      </trkpt>
      <trkpt lat="47.17375" lon="-1.88384">
        <ele>107</ele>
        <time>2022-04-09T10:47:23Z</time>
      </trkpt>
      <trkpt lat="47.17375" lon="-1.884">
        <ele>107</ele>
        <time>2022-04-09T10:47:25Z</time>
      </trkpt>
      <trkpt lat="47.17376" lon="-1.88417">
        <ele>107</ele>
        <time>2022-04-09T10:47:27Z</time>
      </trkpt>
      <trkpt lat="47.17377" lon="-1.88433">
        <ele>108</ele>
        <time>2022-04-09T10:47:29Z</time>
      </trkpt>
      <trkpt lat="47.17379" lon="-1.8845">
        <ele>108</ele>
        <time>2022-04-09T10:47:31Z</time>
      </trkpt>
      <trkpt lat="47.17379" lon="-1.88466">
        <ele>108</ele>
        <time>2022-04-09T10:47:33Z</time>
      </trkpt>
      <trkpt lat="47.1738" lon="-1.88484">
        <ele>108</ele>
        <time>2022-04-09T10:47:35Z</time>
      </trkpt>
      <trkpt lat="47.17381" lon="-1.88502">
        <ele>108</ele>
        <time>2022-04-09T10:47:37Z</time>
      </trkpt>
      <trkpt lat="47.17382" lon="-1.88521">
        <ele>108</ele>
        <time>2022-04-09T10:47:39Z</time>
      </trkpt>
      <trkpt lat="47.17383" lon="-1.88539">
        <ele>108</ele>
        <time>2022-04-09T10:47:41Z</time>
      </trkpt>
      <trkpt lat="47.17384" lon="-1.88558">
        <ele>108</ele>
        <time>2022-04-09T10:47:43Z</time>
      </trkpt>
      <trkpt lat="47.17385" lon="-1.88576">
        <ele>108</ele>
        <time>2022-04-09T10:47:45Z</time>
      </trkpt>
      <trkpt lat="47.17386" lon="-1.88595">
        <ele>107</ele>
        <time>2022-04-09T10:47:47Z</time>
      </trkpt>
      <trkpt lat="47.17387" lon="-1.88614">
        <ele>108</ele>
        <time>2022-04-09T10:47:49Z</time>
      </trkpt>
      <trkpt lat="47.17388" lon="-1.88633">
        <ele>108</ele>
        <time>2022-04-09T10:47:51Z</time>
      </trkpt>
      <trkpt lat="47.1739" lon="-1.88652">
        <ele>108</ele>
        <time>2022-04-09T10:47:53Z</time>
      </trkpt>
      <trkpt lat="47.17391" lon="-1.8867">
        <ele>108</ele>
        <time>2022-04-09T10:47:55Z</time>
      </trkpt>
      <trkpt lat="47.17391" lon="-1.88688">
        <ele>108</ele>
        <time>2022-04-09T10:47:57Z</time>
      </trkpt>
      <trkpt lat="47.17393" lon="-1.88707">
        <ele>108</ele>
        <time>2022-04-09T10:47:59Z</time>
      </trkpt>
      <trkpt lat="47.17393" lon="-1.88725">
        <ele>108</ele>
        <time>2022-04-09T10:48:01Z</time>
      </trkpt>
      <trkpt lat="47.17394" lon="-1.88743">
        <ele>108</ele>
        <time>2022-04-09T10:48:03Z</time>
      </trkpt>
      <trkpt lat="47.17396" lon="-1.88762">
        <ele>108</ele>
        <time>2022-04-09T10:48:05Z</time>
      </trkpt>
      <trkpt lat="47.17396" lon="-1.88779">
        <ele>108</ele>
        <time>2022-04-09T10:48:07Z</time>
      </trkpt>
      <trkpt lat="47.17398" lon="-1.88797">
        <ele>108</ele>
        <time>2022-04-09T10:48:09Z</time>
      </trkpt>
      <trkpt lat="47.174" lon="-1.88815">
        <ele>108</ele>
        <time>2022-04-09T10:48:11Z</time>
      </trkpt>
      <trkpt lat="47.17403" lon="-1.88833">
        <ele>108</ele>
        <time>2022-04-09T10:48:13Z</time>
      </trkpt>
      <trkpt lat="47.17407" lon="-1.8885">
        <ele>108</ele>
        <time>2022-04-09T10:48:15Z</time>
      </trkpt>
      <trkpt lat="47.17411" lon="-1.88868">
        <ele>108</ele>
        <time>2022-04-09T10:48:17Z</time>
      </trkpt>
      <trkpt lat="47.17415" lon="-1.88886">
        <ele>108</ele>
        <time>2022-04-09T10:48:19Z</time>
      </trkpt>
      <trkpt lat="47.17419" lon="-1.88903">
        <ele>108</ele>
        <time>2022-04-09T10:48:21Z</time>
      </trkpt>
      <trkpt lat="47.17423" lon="-1.8892">
        <ele>107</ele>
        <time>2022-04-09T10:48:23Z</time>
      </trkpt>
      <trkpt lat="47.17427" lon="-1.88937">
        <ele>107</ele>
        <time>2022-04-09T10:48:25Z</time>
      </trkpt>
      <trkpt lat="47.1743" lon="-1.88954">
        <ele>108</ele>
        <time>2022-04-09T10:48:27Z</time>
      </trkpt>
      <trkpt lat="47.17434" lon="-1.88971">
        <ele>108</ele>
        <time>2022-04-09T10:48:29Z</time>
      </trkpt>
      <trkpt lat="47.17438" lon="-1.88988">
        <ele>108</ele>
        <time>2022-04-09T10:48:31Z</time>
      </trkpt>
      <trkpt lat="47.17441" lon="-1.89005">
        <ele>108</ele>
        <time>2022-04-09T10:48:33Z</time>
      </trkpt>
      <trkpt lat="47.17445" lon="-1.89022">
        <ele>108</ele>
        <time>2022-04-09T10:48:35Z</time>
      </trkpt>
      <trkpt lat="47.17449" lon="-1.89039">
        <ele>108</ele>
        <time>2022-04-09T10:48:37Z</time>
      </trkpt>
      <trkpt lat="47.17452" lon="-1.89057">
        <ele>108</ele>
        <time>2022-04-09T10:48:39Z</time>
      </trkpt>
      <trkpt lat="47.17456" lon="-1.89074">
        <ele>108</ele>
        <time>2022-04-09T10:48:41Z</time>
      </trkpt>
      <trkpt lat="47.1746" lon="-1.89091">
        <ele>108</ele>
        <time>2022-04-09T10:48:43Z</time>
      </trkpt>
      <trkpt lat="47.17464" lon="-1.89108">
        <ele>108</ele>
        <time>2022-04-09T10:48:45Z</time>
      </trkpt>
      <trkpt lat="47.17467" lon="-1.89125">
        <ele>108</ele>
        <time>2022-04-09T10:48:47Z</time>
      </trkpt>
      <trkpt lat="47.17471" lon="-1.89141">
        <ele>108</ele>
        <time>2022-04-09T10:48:49Z</time>
      </trkpt>
      <trkpt lat="47.17475" lon="-1.89159">
        <ele>108</ele>
        <time>2022-04-09T10:48:51Z</time>
      </trkpt>
      <trkpt lat="47.17478" lon="-1.89176">
        <ele>108</ele>
        <time>2022-04-09T10:48:53Z</time>
      </trkpt>
      <trkpt lat="47.17479" lon="-1.89194">
        <ele>108</ele>
        <time>2022-04-09T10:48:55Z</time>
      </trkpt>
      <trkpt lat="47.1748" lon="-1.89212">
        <ele>109</ele>
        <time>2022-04-09T10:48:57Z</time>
      </trkpt>
      <trkpt lat="47.17481" lon="-1.8923">
        <ele>109</ele>
        <time>2022-04-09T10:48:59Z</time>
      </trkpt>
      <trkpt lat="47.1748" lon="-1.89248">
        <ele>109</ele>
        <time>2022-04-09T10:49:01Z</time>
      </trkpt>
      <trkpt lat="47.17479" lon="-1.89266">
        <ele>109</ele>
        <time>2022-04-09T10:49:03Z</time>
      </trkpt>
      <trkpt lat="47.17477" lon="-1.89285">
        <ele>109</ele>
        <time>2022-04-09T10:49:05Z</time>
      </trkpt>
      <trkpt lat="47.17475" lon="-1.89303">
        <ele>109</ele>
        <time>2022-04-09T10:49:07Z</time>
      </trkpt>
      <trkpt lat="47.17474" lon="-1.89322">
        <ele>109</ele>
        <time>2022-04-09T10:49:09Z</time>
      </trkpt>
      <trkpt lat="47.17473" lon="-1.8934">
        <ele>109</ele>
        <time>2022-04-09T10:49:11Z</time>
      </trkpt>
      <trkpt lat="47.17473" lon="-1.89359">
        <ele>109</ele>
        <time>2022-04-09T10:49:13Z</time>
      </trkpt>
      <trkpt lat="47.17474" lon="-1.89377">
        <ele>109</ele>
        <time>2022-04-09T10:49:15Z</time>
      </trkpt>
      <trkpt lat="47.17475" lon="-1.89395">
        <ele>109</ele>
        <time>2022-04-09T10:49:17Z</time>
      </trkpt>
      <trkpt lat="47.17477" lon="-1.89414">
        <ele>109</ele>
        <time>2022-04-09T10:49:19Z</time>
      </trkpt>
      <trkpt lat="47.17478" lon="-1.89433">
        <ele>109</ele>
        <time>2022-04-09T10:49:21Z</time>
      </trkpt>
      <trkpt lat="47.1748" lon="-1.89451">
        <ele>109</ele>
        <time>2022-04-09T10:49:23Z</time>
      </trkpt>
      <trkpt lat="47.17482" lon="-1.8947">
        <ele>110</ele>
        <time>2022-04-09T10:49:25Z</time>
      </trkpt>
      <trkpt lat="47.17484" lon="-1.89489">
        <ele>110</ele>
        <time>2022-04-09T10:49:27Z</time>
      </trkpt>
      <trkpt lat="47.17485" lon="-1.89508">
        <ele>110</ele>
        <time>2022-04-09T10:49:29Z</time>
      </trkpt>
      <trkpt lat="47.17486" lon="-1.89527">
        <ele>110</ele>
        <time>2022-04-09T10:49:31Z</time>
      </trkpt>
      <trkpt lat="47.17487" lon="-1.89546">
        <ele>110</ele>
        <time>2022-04-09T10:49:33Z</time>
      </trkpt>
      <trkpt lat="47.17488" lon="-1.89565">
        <ele>109</ele>
        <time>2022-04-09T10:49:35Z</time>
      </trkpt>
      <trkpt lat="47.17488" lon="-1.89584">
        <ele>109</ele>
        <time>2022-04-09T10:49:37Z</time>
      </trkpt>
      <trkpt lat="47.17484" lon="-1.89612">
        <ele>109</ele>
        <time>2022-04-09T10:49:40Z</time>
      </trkpt>
      <trkpt lat="47.17481" lon="-1.8963">
        <ele>109</ele>
        <time>2022-04-09T10:49:42Z</time>
      </trkpt>
      <trkpt lat="47.17478" lon="-1.89648">
        <ele>109</ele>
        <time>2022-04-09T10:49:44Z</time>
      </trkpt>
      <trkpt lat="47.17474" lon="-1.89666">
        <ele>110</ele>
        <time>2022-04-09T10:49:46Z</time>
      </trkpt>
      <trkpt lat="47.17471" lon="-1.89685">
        <ele>110</ele>
        <time>2022-04-09T10:49:48Z</time>
      </trkpt>
      <trkpt lat="47.17467" lon="-1.89703">
        <ele>110</ele>
        <time>2022-04-09T10:49:50Z</time>
      </trkpt>
      <trkpt lat="47.17463" lon="-1.89721">
        <ele>110</ele>
        <time>2022-04-09T10:49:52Z</time>
      </trkpt>
      <trkpt lat="47.17459" lon="-1.89739">
        <ele>110</ele>
        <time>2022-04-09T10:49:54Z</time>
      </trkpt>
      <trkpt lat="47.17455" lon="-1.89756">
        <ele>110</ele>
        <time>2022-04-09T10:49:56Z</time>
      </trkpt>
      <trkpt lat="47.17451" lon="-1.89773">
        <ele>111</ele>
        <time>2022-04-09T10:49:58Z</time>
      </trkpt>
      <trkpt lat="47.17447" lon="-1.89791">
        <ele>111</ele>
        <time>2022-04-09T10:50:00Z</time>
      </trkpt>
      <trkpt lat="47.17443" lon="-1.89809">
        <ele>111</ele>
        <time>2022-04-09T10:50:02Z</time>
      </trkpt>
      <trkpt lat="47.1744" lon="-1.89826">
        <ele>111</ele>
        <time>2022-04-09T10:50:04Z</time>
      </trkpt>
      <trkpt lat="47.17435" lon="-1.89844">
        <ele>111</ele>
        <time>2022-04-09T10:50:06Z</time>
      </trkpt>
      <trkpt lat="47.17431" lon="-1.89861">
        <ele>111</ele>
        <time>2022-04-09T10:50:08Z</time>
      </trkpt>
      <trkpt lat="47.17427" lon="-1.89879">
        <ele>111</ele>
        <time>2022-04-09T10:50:10Z</time>
      </trkpt>
      <trkpt lat="47.17423" lon="-1.89897">
        <ele>111</ele>
        <time>2022-04-09T10:50:12Z</time>
      </trkpt>
      <trkpt lat="47.17419" lon="-1.89914">
        <ele>111</ele>
        <time>2022-04-09T10:50:14Z</time>
      </trkpt>
      <trkpt lat="47.17416" lon="-1.8993">
        <ele>111</ele>
        <time>2022-04-09T10:50:16Z</time>
      </trkpt>
      <trkpt lat="47.17413" lon="-1.89945">
        <ele>111</ele>
        <time>2022-04-09T10:50:18Z</time>
      </trkpt>
      <trkpt lat="47.17411" lon="-1.89959">
        <ele>111</ele>
        <time>2022-04-09T10:50:20Z</time>
      </trkpt>
      <trkpt lat="47.17401" lon="-1.89971">
        <ele>111</ele>
        <time>2022-04-09T10:50:23Z</time>
      </trkpt>
      <trkpt lat="47.17389" lon="-1.89971">
        <ele>111</ele>
        <time>2022-04-09T10:50:25Z</time>
      </trkpt>
      <trkpt lat="47.17375" lon="-1.89971">
        <ele>111</ele>
        <time>2022-04-09T10:50:27Z</time>
      </trkpt>
      <trkpt lat="47.17362" lon="-1.89971">
        <ele>111</ele>
        <time>2022-04-09T10:50:29Z</time>
      </trkpt>
      <trkpt lat="47.17349" lon="-1.89971">
        <ele>111</ele>
        <time>2022-04-09T10:50:31Z</time>
      </trkpt>
      <trkpt lat="47.17335" lon="-1.89972">
        <ele>110</ele>
        <time>2022-04-09T10:50:33Z</time>
      </trkpt>
      <trkpt lat="47.17321" lon="-1.89973">
        <ele>110</ele>
        <time>2022-04-09T10:50:35Z</time>
      </trkpt>
      <trkpt lat="47.17308" lon="-1.89973">
        <ele>111</ele>
        <time>2022-04-09T10:50:37Z</time>
      </trkpt>
      <trkpt lat="47.17294" lon="-1.89973">
        <ele>111</ele>
        <time>2022-04-09T10:50:39Z</time>
      </trkpt>
      <trkpt lat="47.1728" lon="-1.89974">
        <ele>111</ele>
        <time>2022-04-09T10:50:41Z</time>
      </trkpt>
      <trkpt lat="47.17266" lon="-1.89974">
        <ele>111</ele>
        <time>2022-04-09T10:50:43Z</time>
      </trkpt>
      <trkpt lat="47.17252" lon="-1.89975">
        <ele>111</ele>
        <time>2022-04-09T10:50:45Z</time>
      </trkpt>
      <trkpt lat="47.17237" lon="-1.89975">
        <ele>111</ele>
        <time>2022-04-09T10:50:47Z</time>
      </trkpt>
      <trkpt lat="47.17223" lon="-1.89975">
        <ele>111</ele>
        <time>2022-04-09T10:50:49Z</time>
      </trkpt>
      <trkpt lat="47.17209" lon="-1.89976">
        <ele>111</ele>
        <time>2022-04-09T10:50:51Z</time>
      </trkpt>
      <trkpt lat="47.17194" lon="-1.89976">
        <ele>112</ele>
        <time>2022-04-09T10:50:53Z</time>
      </trkpt>
      <trkpt lat="47.1718" lon="-1.89977">
        <ele>112</ele>
        <time>2022-04-09T10:50:55Z</time>
      </trkpt>
      <trkpt lat="47.17165" lon="-1.89977">
        <ele>112</ele>
        <time>2022-04-09T10:50:57Z</time>
      </trkpt>
      <trkpt lat="47.1715" lon="-1.89978">
        <ele>112</ele>
        <time>2022-04-09T10:50:59Z</time>
      </trkpt>
      <trkpt lat="47.17136" lon="-1.89978">
        <ele>112</ele>
        <time>2022-04-09T10:51:01Z</time>
      </trkpt>
      <trkpt lat="47.17121" lon="-1.89979">
        <ele>111</ele>
        <time>2022-04-09T10:51:03Z</time>
      </trkpt>
      <trkpt lat="47.17107" lon="-1.89979">
        <ele>111</ele>
        <time>2022-04-09T10:51:05Z</time>
      </trkpt>
      <trkpt lat="47.17092" lon="-1.89979">
        <ele>111</ele>
        <time>2022-04-09T10:51:07Z</time>
      </trkpt>
      <trkpt lat="47.17078" lon="-1.8998">
        <ele>111</ele>
        <time>2022-04-09T10:51:09Z</time>
      </trkpt>
      <trkpt lat="47.17063" lon="-1.8998">
        <ele>112</ele>
        <time>2022-04-09T10:51:11Z</time>
      </trkpt>
      <trkpt lat="47.17049" lon="-1.89981">
        <ele>112</ele>
        <time>2022-04-09T10:51:13Z</time>
      </trkpt>
      <trkpt lat="47.17034" lon="-1.89982">
        <ele>113</ele>
        <time>2022-04-09T10:51:15Z</time>
      </trkpt>
      <trkpt lat="47.17021" lon="-1.89983">
        <ele>112</ele>
        <time>2022-04-09T10:51:17Z</time>
      </trkpt>
      <trkpt lat="47.17006" lon="-1.89986">
        <ele>112</ele>
        <time>2022-04-09T10:51:19Z</time>
      </trkpt>
      <trkpt lat="47.16992" lon="-1.89988">
        <ele>112</ele>
        <time>2022-04-09T10:51:21Z</time>
      </trkpt>
      <trkpt lat="47.16977" lon="-1.89992">
        <ele>112</ele>
        <time>2022-04-09T10:51:23Z</time>
      </trkpt>
      <trkpt lat="47.16964" lon="-1.89995">
        <ele>113</ele>
        <time>2022-04-09T10:51:25Z</time>
      </trkpt>
      <trkpt lat="47.1695" lon="-1.89998">
        <ele>113</ele>
        <time>2022-04-09T10:51:27Z</time>
      </trkpt>
      <trkpt lat="47.16936" lon="-1.90001">
        <ele>113</ele>
        <time>2022-04-09T10:51:29Z</time>
      </trkpt>
      <trkpt lat="47.16922" lon="-1.90004">
        <ele>114</ele>
        <time>2022-04-09T10:51:31Z</time>
      </trkpt>
      <trkpt lat="47.16908" lon="-1.90007">
        <ele>114</ele>
        <time>2022-04-09T10:51:33Z</time>
      </trkpt>
      <trkpt lat="47.16894" lon="-1.9001">
        <ele>114</ele>
        <time>2022-04-09T10:51:35Z</time>
      </trkpt>
      <trkpt lat="47.16879" lon="-1.90013">
        <ele>114</ele>
        <time>2022-04-09T10:51:37Z</time>
      </trkpt>
      <trkpt lat="47.16865" lon="-1.90015">
        <ele>114</ele>
        <time>2022-04-09T10:51:39Z</time>
      </trkpt>
      <trkpt lat="47.16851" lon="-1.90018">
        <ele>114</ele>
        <time>2022-04-09T10:51:41Z</time>
      </trkpt>
      <trkpt lat="47.16836" lon="-1.90021">
        <ele>113</ele>
        <time>2022-04-09T10:51:43Z</time>
      </trkpt>
      <trkpt lat="47.16822" lon="-1.90024">
        <ele>113</ele>
        <time>2022-04-09T10:51:45Z</time>
      </trkpt>
      <trkpt lat="47.16808" lon="-1.90026">
        <ele>112</ele>
        <time>2022-04-09T10:51:47Z</time>
      </trkpt>
      <trkpt lat="47.16794" lon="-1.90029">
        <ele>112</ele>
        <time>2022-04-09T10:51:49Z</time>
      </trkpt>
      <trkpt lat="47.1678" lon="-1.90032">
        <ele>113</ele>
        <time>2022-04-09T10:51:51Z</time>
      </trkpt>
      <trkpt lat="47.16765" lon="-1.90034">
        <ele>113</ele>
        <time>2022-04-09T10:51:53Z</time>
      </trkpt>
      <trkpt lat="47.16752" lon="-1.90037">
        <ele>114</ele>
        <time>2022-04-09T10:51:55Z</time>
      </trkpt>
      <trkpt lat="47.16738" lon="-1.9004">
        <ele>114</ele>
        <time>2022-04-09T10:51:57Z</time>
      </trkpt>
      <trkpt lat="47.16725" lon="-1.90044">
        <ele>115</ele>
        <time>2022-04-09T10:51:59Z</time>
      </trkpt>
      <trkpt lat="47.16711" lon="-1.90047">
        <ele>114</ele>
        <time>2022-04-09T10:52:01Z</time>
      </trkpt>
      <trkpt lat="47.16697" lon="-1.9005">
        <ele>113</ele>
        <time>2022-04-09T10:52:03Z</time>
      </trkpt>
      <trkpt lat="47.16684" lon="-1.90053">
        <ele>113</ele>
        <time>2022-04-09T10:52:05Z</time>
      </trkpt>
      <trkpt lat="47.16669" lon="-1.90056">
        <ele>113</ele>
        <time>2022-04-09T10:52:07Z</time>
      </trkpt>
      <trkpt lat="47.16654" lon="-1.90057">
        <ele>111</ele>
        <time>2022-04-09T10:52:09Z</time>
      </trkpt>
      <trkpt lat="47.16639" lon="-1.9006">
        <ele>111</ele>
        <time>2022-04-09T10:52:11Z</time>
      </trkpt>
      <trkpt lat="47.16626" lon="-1.90062">
        <ele>110</ele>
        <time>2022-04-09T10:52:13Z</time>
      </trkpt>
      <trkpt lat="47.16612" lon="-1.90066">
        <ele>110</ele>
        <time>2022-04-09T10:52:15Z</time>
      </trkpt>
      <trkpt lat="47.16598" lon="-1.90068">
        <ele>110</ele>
        <time>2022-04-09T10:52:17Z</time>
      </trkpt>
      <trkpt lat="47.16584" lon="-1.90071">
        <ele>110</ele>
        <time>2022-04-09T10:52:19Z</time>
      </trkpt>
      <trkpt lat="47.1657" lon="-1.90075">
        <ele>110</ele>
        <time>2022-04-09T10:52:21Z</time>
      </trkpt>
      <trkpt lat="47.16555" lon="-1.90078">
        <ele>110</ele>
        <time>2022-04-09T10:52:23Z</time>
      </trkpt>
      <trkpt lat="47.16541" lon="-1.90081">
        <ele>111</ele>
        <time>2022-04-09T10:52:25Z</time>
      </trkpt>
      <trkpt lat="47.16527" lon="-1.90085">
        <ele>111</ele>
        <time>2022-04-09T10:52:27Z</time>
      </trkpt>
      <trkpt lat="47.16513" lon="-1.90088">
        <ele>112</ele>
        <time>2022-04-09T10:52:29Z</time>
      </trkpt>
      <trkpt lat="47.16499" lon="-1.90091">
        <ele>112</ele>
        <time>2022-04-09T10:52:31Z</time>
      </trkpt>
      <trkpt lat="47.16485" lon="-1.90095">
        <ele>112</ele>
        <time>2022-04-09T10:52:33Z</time>
      </trkpt>
      <trkpt lat="47.16471" lon="-1.90098">
        <ele>112</ele>
        <time>2022-04-09T10:52:35Z</time>
      </trkpt>
      <trkpt lat="47.16458" lon="-1.90102">
        <ele>113</ele>
        <time>2022-04-09T10:52:37Z</time>
      </trkpt>
      <trkpt lat="47.16443" lon="-1.90105">
        <ele>113</ele>
        <time>2022-04-09T10:52:39Z</time>
      </trkpt>
      <trkpt lat="47.16428" lon="-1.90107">
        <ele>113</ele>
        <time>2022-04-09T10:52:41Z</time>
      </trkpt>
      <trkpt lat="47.16414" lon="-1.9011">
        <ele>113</ele>
        <time>2022-04-09T10:52:43Z</time>
      </trkpt>
      <trkpt lat="47.164" lon="-1.90112">
        <ele>113</ele>
        <time>2022-04-09T10:52:45Z</time>
      </trkpt>
      <trkpt lat="47.16385" lon="-1.90115">
        <ele>113</ele>
        <time>2022-04-09T10:52:47Z</time>
      </trkpt>
      <trkpt lat="47.16371" lon="-1.90118">
        <ele>113</ele>
        <time>2022-04-09T10:52:49Z</time>
      </trkpt>
      <trkpt lat="47.16358" lon="-1.90121">
        <ele>113</ele>
        <time>2022-04-09T10:52:51Z</time>
      </trkpt>
      <trkpt lat="47.16344" lon="-1.90124">
        <ele>112</ele>
        <time>2022-04-09T10:52:53Z</time>
      </trkpt>
      <trkpt lat="47.1633" lon="-1.90128">
        <ele>112</ele>
        <time>2022-04-09T10:52:55Z</time>
      </trkpt>
      <trkpt lat="47.16316" lon="-1.9013">
        <ele>112</ele>
        <time>2022-04-09T10:52:57Z</time>
      </trkpt>
      <trkpt lat="47.16301" lon="-1.90133">
        <ele>112</ele>
        <time>2022-04-09T10:52:59Z</time>
      </trkpt>
      <trkpt lat="47.16287" lon="-1.90134">
        <ele>112</ele>
        <time>2022-04-09T10:53:01Z</time>
      </trkpt>
      <trkpt lat="47.16273" lon="-1.90137">
        <ele>111</ele>
        <time>2022-04-09T10:53:03Z</time>
      </trkpt>
      <trkpt lat="47.16259" lon="-1.9014">
        <ele>111</ele>
        <time>2022-04-09T10:53:05Z</time>
      </trkpt>
      <trkpt lat="47.16244" lon="-1.90142">
        <ele>111</ele>
        <time>2022-04-09T10:53:07Z</time>
      </trkpt>
      <trkpt lat="47.1623" lon="-1.90146">
        <ele>110</ele>
        <time>2022-04-09T10:53:09Z</time>
      </trkpt>
      <trkpt lat="47.16214" lon="-1.90149">
        <ele>109</ele>
        <time>2022-04-09T10:53:11Z</time>
      </trkpt>
      <trkpt lat="47.16199" lon="-1.90152">
        <ele>109</ele>
        <time>2022-04-09T10:53:13Z</time>
      </trkpt>
      <trkpt lat="47.16183" lon="-1.90155">
        <ele>109</ele>
        <time>2022-04-09T10:53:15Z</time>
      </trkpt>
      <trkpt lat="47.16168" lon="-1.90159">
        <ele>109</ele>
        <time>2022-04-09T10:53:17Z</time>
      </trkpt>
      <trkpt lat="47.16153" lon="-1.90163">
        <ele>109</ele>
        <time>2022-04-09T10:53:19Z</time>
      </trkpt>
      <trkpt lat="47.16138" lon="-1.90166">
        <ele>110</ele>
        <time>2022-04-09T10:53:21Z</time>
      </trkpt>
      <trkpt lat="47.16122" lon="-1.9017">
        <ele>110</ele>
        <time>2022-04-09T10:53:23Z</time>
      </trkpt>
      <trkpt lat="47.16106" lon="-1.90173">
        <ele>111</ele>
        <time>2022-04-09T10:53:25Z</time>
      </trkpt>
      <trkpt lat="47.16091" lon="-1.90176">
        <ele>111</ele>
        <time>2022-04-09T10:53:27Z</time>
      </trkpt>
      <trkpt lat="47.16076" lon="-1.9018">
        <ele>111</ele>
        <time>2022-04-09T10:53:29Z</time>
      </trkpt>
      <trkpt lat="47.1606" lon="-1.90182">
        <ele>111</ele>
        <time>2022-04-09T10:53:31Z</time>
      </trkpt>
      <trkpt lat="47.16045" lon="-1.90185">
        <ele>111</ele>
        <time>2022-04-09T10:53:33Z</time>
      </trkpt>
      <trkpt lat="47.16029" lon="-1.90188">
        <ele>112</ele>
        <time>2022-04-09T10:53:35Z</time>
      </trkpt>
      <trkpt lat="47.16014" lon="-1.90192">
        <ele>111</ele>
        <time>2022-04-09T10:53:37Z</time>
      </trkpt>
      <trkpt lat="47.15998" lon="-1.90196">
        <ele>111</ele>
        <time>2022-04-09T10:53:39Z</time>
      </trkpt>
      <trkpt lat="47.15982" lon="-1.90199">
        <ele>110</ele>
        <time>2022-04-09T10:53:41Z</time>
      </trkpt>
      <trkpt lat="47.15966" lon="-1.90202">
        <ele>110</ele>
        <time>2022-04-09T10:53:43Z</time>
      </trkpt>
      <trkpt lat="47.1595" lon="-1.90206">
        <ele>109</ele>
        <time>2022-04-09T10:53:45Z</time>
      </trkpt>
      <trkpt lat="47.15934" lon="-1.9021">
        <ele>109</ele>
        <time>2022-04-09T10:53:47Z</time>
      </trkpt>
      <trkpt lat="47.15918" lon="-1.90213">
        <ele>109</ele>
        <time>2022-04-09T10:53:49Z</time>
      </trkpt>
      <trkpt lat="47.15903" lon="-1.90213">
        <ele>109</ele>
        <time>2022-04-09T10:53:51Z</time>
      </trkpt>
      <trkpt lat="47.15888" lon="-1.90212">
        <ele>107</ele>
        <time>2022-04-09T10:53:53Z</time>
      </trkpt>
      <trkpt lat="47.15873" lon="-1.90208">
        <ele>106</ele>
        <time>2022-04-09T10:53:55Z</time>
      </trkpt>
      <trkpt lat="47.15858" lon="-1.90205">
        <ele>105</ele>
        <time>2022-04-09T10:53:57Z</time>
      </trkpt>
      <trkpt lat="47.15844" lon="-1.90203">
        <ele>105</ele>
        <time>2022-04-09T10:53:59Z</time>
      </trkpt>
      <trkpt lat="47.15829" lon="-1.90204">
        <ele>105</ele>
        <time>2022-04-09T10:54:01Z</time>
      </trkpt>
      <trkpt lat="47.15814" lon="-1.90209">
        <ele>105</ele>
        <time>2022-04-09T10:54:03Z</time>
      </trkpt>
      <trkpt lat="47.158" lon="-1.90217">
        <ele>103</ele>
        <time>2022-04-09T10:54:05Z</time>
      </trkpt>
      <trkpt lat="47.15785" lon="-1.90225">
        <ele>100</ele>
        <time>2022-04-09T10:54:07Z</time>
      </trkpt>
      <trkpt lat="47.1577" lon="-1.90235">
        <ele>99</ele>
        <time>2022-04-09T10:54:09Z</time>
      </trkpt>
      <trkpt lat="47.15755" lon="-1.90242">
        <ele>99</ele>
        <time>2022-04-09T10:54:11Z</time>
      </trkpt>
      <trkpt lat="47.1574" lon="-1.90247">
        <ele>98</ele>
        <time>2022-04-09T10:54:13Z</time>
      </trkpt>
      <trkpt lat="47.15724" lon="-1.90252">
        <ele>98</ele>
        <time>2022-04-09T10:54:15Z</time>
      </trkpt>
      <trkpt lat="47.15709" lon="-1.90256">
        <ele>98</ele>
        <time>2022-04-09T10:54:17Z</time>
      </trkpt>
      <trkpt lat="47.15693" lon="-1.90259">
        <ele>98</ele>
        <time>2022-04-09T10:54:19Z</time>
      </trkpt>
      <trkpt lat="47.15677" lon="-1.90263">
        <ele>98</ele>
        <time>2022-04-09T10:54:21Z</time>
      </trkpt>
      <trkpt lat="47.15661" lon="-1.90267">
        <ele>98</ele>
        <time>2022-04-09T10:54:23Z</time>
      </trkpt>
      <trkpt lat="47.15644" lon="-1.90271">
        <ele>98</ele>
        <time>2022-04-09T10:54:25Z</time>
      </trkpt>
      <trkpt lat="47.15627" lon="-1.90275">
        <ele>98</ele>
        <time>2022-04-09T10:54:27Z</time>
      </trkpt>
      <trkpt lat="47.15611" lon="-1.90279">
        <ele>99</ele>
        <time>2022-04-09T10:54:29Z</time>
      </trkpt>
      <trkpt lat="47.15594" lon="-1.90283">
        <ele>98</ele>
        <time>2022-04-09T10:54:31Z</time>
      </trkpt>
      <trkpt lat="47.15577" lon="-1.90286">
        <ele>98</ele>
        <time>2022-04-09T10:54:33Z</time>
      </trkpt>
      <trkpt lat="47.15561" lon="-1.9029">
        <ele>97</ele>
        <time>2022-04-09T10:54:35Z</time>
      </trkpt>
      <trkpt lat="47.15545" lon="-1.90294">
        <ele>97</ele>
        <time>2022-04-09T10:54:37Z</time>
      </trkpt>
      <trkpt lat="47.15529" lon="-1.90296">
        <ele>96</ele>
        <time>2022-04-09T10:54:39Z</time>
      </trkpt>
      <trkpt lat="47.15512" lon="-1.903">
        <ele>96</ele>
        <time>2022-04-09T10:54:41Z</time>
      </trkpt>
      <trkpt lat="47.15496" lon="-1.90304">
        <ele>96</ele>
        <time>2022-04-09T10:54:43Z</time>
      </trkpt>
      <trkpt lat="47.15481" lon="-1.90308">
        <ele>97</ele>
        <time>2022-04-09T10:54:45Z</time>
      </trkpt>
      <trkpt lat="47.15465" lon="-1.90312">
        <ele>96</ele>
        <time>2022-04-09T10:54:47Z</time>
      </trkpt>
      <trkpt lat="47.1545" lon="-1.90317">
        <ele>95</ele>
        <time>2022-04-09T10:54:49Z</time>
      </trkpt>
      <trkpt lat="47.15436" lon="-1.90325">
        <ele>94</ele>
        <time>2022-04-09T10:54:51Z</time>
      </trkpt>
      <trkpt lat="47.15422" lon="-1.90333">
        <ele>93</ele>
        <time>2022-04-09T10:54:53Z</time>
      </trkpt>
      <trkpt lat="47.15406" lon="-1.90338">
        <ele>93</ele>
        <time>2022-04-09T10:54:55Z</time>
      </trkpt>
      <trkpt lat="47.15391" lon="-1.90342">
        <ele>93</ele>
        <time>2022-04-09T10:54:57Z</time>
      </trkpt>
      <trkpt lat="47.15375" lon="-1.90346">
        <ele>92</ele>
        <time>2022-04-09T10:54:59Z</time>
      </trkpt>
      <trkpt lat="47.1536" lon="-1.90349">
        <ele>92</ele>
        <time>2022-04-09T10:55:01Z</time>
      </trkpt>
      <trkpt lat="47.15345" lon="-1.90352">
        <ele>91</ele>
        <time>2022-04-09T10:55:03Z</time>
      </trkpt>
      <trkpt lat="47.15329" lon="-1.90355">
        <ele>91</ele>
        <time>2022-04-09T10:55:05Z</time>
      </trkpt>
      <trkpt lat="47.15314" lon="-1.90358">
        <ele>90</ele>
        <time>2022-04-09T10:55:07Z</time>
      </trkpt>
      <trkpt lat="47.15298" lon="-1.90362">
        <ele>90</ele>
        <time>2022-04-09T10:55:09Z</time>
      </trkpt>
      <trkpt lat="47.15282" lon="-1.90365">
        <ele>89</ele>
        <time>2022-04-09T10:55:11Z</time>
      </trkpt>
      <trkpt lat="47.15266" lon="-1.90368">
        <ele>89</ele>
        <time>2022-04-09T10:55:13Z</time>
      </trkpt>
      <trkpt lat="47.15251" lon="-1.90371">
        <ele>88</ele>
        <time>2022-04-09T10:55:15Z</time>
      </trkpt>
      <trkpt lat="47.15235" lon="-1.90375">
        <ele>87</ele>
        <time>2022-04-09T10:55:17Z</time>
      </trkpt>
      <trkpt lat="47.15219" lon="-1.90378">
        <ele>86</ele>
        <time>2022-04-09T10:55:19Z</time>
      </trkpt>
      <trkpt lat="47.15203" lon="-1.90382">
        <ele>86</ele>
        <time>2022-04-09T10:55:21Z</time>
      </trkpt>
      <trkpt lat="47.15187" lon="-1.90386">
        <ele>86</ele>
        <time>2022-04-09T10:55:23Z</time>
      </trkpt>
      <trkpt lat="47.15171" lon="-1.90389">
        <ele>86</ele>
        <time>2022-04-09T10:55:25Z</time>
      </trkpt>
      <trkpt lat="47.15156" lon="-1.90393">
        <ele>85</ele>
        <time>2022-04-09T10:55:27Z</time>
      </trkpt>
      <trkpt lat="47.1514" lon="-1.90396">
        <ele>85</ele>
        <time>2022-04-09T10:55:29Z</time>
      </trkpt>
      <trkpt lat="47.15125" lon="-1.90399">
        <ele>84</ele>
        <time>2022-04-09T10:55:31Z</time>
      </trkpt>
      <trkpt lat="47.1511" lon="-1.90403">
        <ele>84</ele>
        <time>2022-04-09T10:55:33Z</time>
      </trkpt>
      <trkpt lat="47.15094" lon="-1.90406">
        <ele>84</ele>
        <time>2022-04-09T10:55:35Z</time>
      </trkpt>
      <trkpt lat="47.15079" lon="-1.9041">
        <ele>84</ele>
        <time>2022-04-09T10:55:37Z</time>
      </trkpt>
      <trkpt lat="47.15064" lon="-1.90414">
        <ele>84</ele>
        <time>2022-04-09T10:55:39Z</time>
      </trkpt>
      <trkpt lat="47.15048" lon="-1.90418">
        <ele>84</ele>
        <time>2022-04-09T10:55:41Z</time>
      </trkpt>
      <trkpt lat="47.15032" lon="-1.90421">
        <ele>84</ele>
        <time>2022-04-09T10:55:43Z</time>
      </trkpt>
      <trkpt lat="47.15017" lon="-1.90424">
        <ele>84</ele>
        <time>2022-04-09T10:55:45Z</time>
      </trkpt>
      <trkpt lat="47.15001" lon="-1.90428">
        <ele>84</ele>
        <time>2022-04-09T10:55:47Z</time>
      </trkpt>
      <trkpt lat="47.14986" lon="-1.90432">
        <ele>84</ele>
        <time>2022-04-09T10:55:49Z</time>
      </trkpt>
      <trkpt lat="47.14971" lon="-1.90435">
        <ele>84</ele>
        <time>2022-04-09T10:55:51Z</time>
      </trkpt>
      <trkpt lat="47.14956" lon="-1.90439">
        <ele>83</ele>
        <time>2022-04-09T10:55:53Z</time>
      </trkpt>
      <trkpt lat="47.1494" lon="-1.90443">
        <ele>83</ele>
        <time>2022-04-09T10:55:55Z</time>
      </trkpt>
      <trkpt lat="47.14925" lon="-1.90446">
        <ele>83</ele>
        <time>2022-04-09T10:55:57Z</time>
      </trkpt>
      <trkpt lat="47.1491" lon="-1.9045">
        <ele>83</ele>
        <time>2022-04-09T10:55:59Z</time>
      </trkpt>
      <trkpt lat="47.14895" lon="-1.90453">
        <ele>83</ele>
        <time>2022-04-09T10:56:01Z</time>
      </trkpt>
      <trkpt lat="47.1488" lon="-1.90456">
        <ele>83</ele>
        <time>2022-04-09T10:56:03Z</time>
      </trkpt>
      <trkpt lat="47.14865" lon="-1.90459">
        <ele>83</ele>
        <time>2022-04-09T10:56:05Z</time>
      </trkpt>
      <trkpt lat="47.1485" lon="-1.90463">
        <ele>82</ele>
        <time>2022-04-09T10:56:07Z</time>
      </trkpt>
      <trkpt lat="47.14835" lon="-1.90465">
        <ele>82</ele>
        <time>2022-04-09T10:56:09Z</time>
      </trkpt>
      <trkpt lat="47.1482" lon="-1.90469">
        <ele>82</ele>
        <time>2022-04-09T10:56:11Z</time>
      </trkpt>
      <trkpt lat="47.14805" lon="-1.90472">
        <ele>83</ele>
        <time>2022-04-09T10:56:13Z</time>
      </trkpt>
      <trkpt lat="47.1479" lon="-1.90476">
        <ele>83</ele>
        <time>2022-04-09T10:56:15Z</time>
      </trkpt>
      <trkpt lat="47.14775" lon="-1.90479">
        <ele>83</ele>
        <time>2022-04-09T10:56:17Z</time>
      </trkpt>
      <trkpt lat="47.14761" lon="-1.90482">
        <ele>83</ele>
        <time>2022-04-09T10:56:19Z</time>
      </trkpt>
      <trkpt lat="47.14745" lon="-1.90485">
        <ele>83</ele>
        <time>2022-04-09T10:56:21Z</time>
      </trkpt>
      <trkpt lat="47.1473" lon="-1.90489">
        <ele>83</ele>
        <time>2022-04-09T10:56:23Z</time>
      </trkpt>
      <trkpt lat="47.14715" lon="-1.90493">
        <ele>83</ele>
        <time>2022-04-09T10:56:25Z</time>
      </trkpt>
      <trkpt lat="47.14701" lon="-1.90496">
        <ele>83</ele>
        <time>2022-04-09T10:56:27Z</time>
      </trkpt>
      <trkpt lat="47.14686" lon="-1.905">
        <ele>83</ele>
        <time>2022-04-09T10:56:29Z</time>
      </trkpt>
      <trkpt lat="47.14671" lon="-1.90503">
        <ele>83</ele>
        <time>2022-04-09T10:56:31Z</time>
      </trkpt>
      <trkpt lat="47.14655" lon="-1.90507">
        <ele>83</ele>
        <time>2022-04-09T10:56:33Z</time>
      </trkpt>
      <trkpt lat="47.1464" lon="-1.9051">
        <ele>83</ele>
        <time>2022-04-09T10:56:35Z</time>
      </trkpt>
      <trkpt lat="47.14625" lon="-1.90514">
        <ele>83</ele>
        <time>2022-04-09T10:56:37Z</time>
      </trkpt>
      <trkpt lat="47.1461" lon="-1.90517">
        <ele>83</ele>
        <time>2022-04-09T10:56:39Z</time>
      </trkpt>
      <trkpt lat="47.14595" lon="-1.9052">
        <ele>83</ele>
        <time>2022-04-09T10:56:41Z</time>
      </trkpt>
      <trkpt lat="47.1458" lon="-1.90524">
        <ele>83</ele>
        <time>2022-04-09T10:56:43Z</time>
      </trkpt>
      <trkpt lat="47.14565" lon="-1.90527">
        <ele>83</ele>
        <time>2022-04-09T10:56:45Z</time>
      </trkpt>
      <trkpt lat="47.1455" lon="-1.90531">
        <ele>83</ele>
        <time>2022-04-09T10:56:47Z</time>
      </trkpt>
      <trkpt lat="47.14535" lon="-1.90534">
        <ele>82</ele>
        <time>2022-04-09T10:56:49Z</time>
      </trkpt>
      <trkpt lat="47.14519" lon="-1.90537">
        <ele>82</ele>
        <time>2022-04-09T10:56:51Z</time>
      </trkpt>
      <trkpt lat="47.14504" lon="-1.9054">
        <ele>81</ele>
        <time>2022-04-09T10:56:53Z</time>
      </trkpt>
      <trkpt lat="47.14489" lon="-1.90544">
        <ele>81</ele>
        <time>2022-04-09T10:56:55Z</time>
      </trkpt>
      <trkpt lat="47.14474" lon="-1.90547">
        <ele>80</ele>
        <time>2022-04-09T10:56:57Z</time>
      </trkpt>
      <trkpt lat="47.14459" lon="-1.9055">
        <ele>80</ele>
        <time>2022-04-09T10:56:59Z</time>
      </trkpt>
      <trkpt lat="47.14443" lon="-1.90554">
        <ele>79</ele>
        <time>2022-04-09T10:57:01Z</time>
      </trkpt>
      <trkpt lat="47.14428" lon="-1.90557">
        <ele>78</ele>
        <time>2022-04-09T10:57:03Z</time>
      </trkpt>
      <trkpt lat="47.14412" lon="-1.90561">
        <ele>78</ele>
        <time>2022-04-09T10:57:05Z</time>
      </trkpt>
      <trkpt lat="47.14396" lon="-1.90565">
        <ele>78</ele>
        <time>2022-04-09T10:57:07Z</time>
      </trkpt>
      <trkpt lat="47.14381" lon="-1.90569">
        <ele>78</ele>
        <time>2022-04-09T10:57:09Z</time>
      </trkpt>
      <trkpt lat="47.14365" lon="-1.90572">
        <ele>78</ele>
        <time>2022-04-09T10:57:11Z</time>
      </trkpt>
      <trkpt lat="47.1435" lon="-1.90576">
        <ele>79</ele>
        <time>2022-04-09T10:57:13Z</time>
      </trkpt>
      <trkpt lat="47.14334" lon="-1.90579">
        <ele>78</ele>
        <time>2022-04-09T10:57:15Z</time>
      </trkpt>
      <trkpt lat="47.14319" lon="-1.90583">
        <ele>78</ele>
        <time>2022-04-09T10:57:17Z</time>
      </trkpt>
      <trkpt lat="47.14303" lon="-1.90587">
        <ele>78</ele>
        <time>2022-04-09T10:57:19Z</time>
      </trkpt>
      <trkpt lat="47.14288" lon="-1.9059">
        <ele>78</ele>
        <time>2022-04-09T10:57:21Z</time>
      </trkpt>
      <trkpt lat="47.14272" lon="-1.90594">
        <ele>78</ele>
        <time>2022-04-09T10:57:23Z</time>
      </trkpt>
      <trkpt lat="47.14257" lon="-1.90597">
        <ele>77</ele>
        <time>2022-04-09T10:57:25Z</time>
      </trkpt>
      <trkpt lat="47.14243" lon="-1.906">
        <ele>77</ele>
        <time>2022-04-09T10:57:27Z</time>
      </trkpt>
      <trkpt lat="47.14228" lon="-1.90603">
        <ele>77</ele>
        <time>2022-04-09T10:57:29Z</time>
      </trkpt>
      <trkpt lat="47.14213" lon="-1.90606">
        <ele>77</ele>
        <time>2022-04-09T10:57:31Z</time>
      </trkpt>
      <trkpt lat="47.14198" lon="-1.90609">
        <ele>76</ele>
        <time>2022-04-09T10:57:33Z</time>
      </trkpt>
      <trkpt lat="47.14184" lon="-1.90612">
        <ele>76</ele>
        <time>2022-04-09T10:57:35Z</time>
      </trkpt>
      <trkpt lat="47.14171" lon="-1.90613">
        <ele>76</ele>
        <time>2022-04-09T10:57:37Z</time>
      </trkpt>
      <trkpt lat="47.14157" lon="-1.90617">
        <ele>76</ele>
        <time>2022-04-09T10:57:39Z</time>
      </trkpt>
      <trkpt lat="47.14141" lon="-1.90622">
        <ele>75</ele>
        <time>2022-04-09T10:57:41Z</time>
      </trkpt>
      <trkpt lat="47.14126" lon="-1.90623">
        <ele>75</ele>
        <time>2022-04-09T10:57:43Z</time>
      </trkpt>
      <trkpt lat="47.1411" lon="-1.90624">
        <ele>75</ele>
        <time>2022-04-09T10:57:45Z</time>
      </trkpt>
      <trkpt lat="47.14095" lon="-1.90625">
        <ele>75</ele>
        <time>2022-04-09T10:57:47Z</time>
      </trkpt>
      <trkpt lat="47.14079" lon="-1.90627">
        <ele>75</ele>
        <time>2022-04-09T10:57:49Z</time>
      </trkpt>
      <trkpt lat="47.14063" lon="-1.90627">
        <ele>75</ele>
        <time>2022-04-09T10:57:51Z</time>
      </trkpt>
      <trkpt lat="47.14048" lon="-1.90629">
        <ele>75</ele>
        <time>2022-04-09T10:57:53Z</time>
      </trkpt>
      <trkpt lat="47.14032" lon="-1.90632">
        <ele>75</ele>
        <time>2022-04-09T10:57:55Z</time>
      </trkpt>
      <trkpt lat="47.14016" lon="-1.90634">
        <ele>75</ele>
        <time>2022-04-09T10:57:57Z</time>
      </trkpt>
      <trkpt lat="47.14001" lon="-1.90638">
        <ele>75</ele>
        <time>2022-04-09T10:57:59Z</time>
      </trkpt>
      <trkpt lat="47.13985" lon="-1.90641">
        <ele>74</ele>
        <time>2022-04-09T10:58:01Z</time>
      </trkpt>
      <trkpt lat="47.13969" lon="-1.90644">
        <ele>74</ele>
        <time>2022-04-09T10:58:03Z</time>
      </trkpt>
      <trkpt lat="47.13953" lon="-1.90649">
        <ele>74</ele>
        <time>2022-04-09T10:58:05Z</time>
      </trkpt>
      <trkpt lat="47.13937" lon="-1.90653">
        <ele>74</ele>
        <time>2022-04-09T10:58:07Z</time>
      </trkpt>
      <trkpt lat="47.13921" lon="-1.90657">
        <ele>73</ele>
        <time>2022-04-09T10:58:09Z</time>
      </trkpt>
      <trkpt lat="47.13905" lon="-1.90661">
        <ele>73</ele>
        <time>2022-04-09T10:58:11Z</time>
      </trkpt>
      <trkpt lat="47.13888" lon="-1.90665">
        <ele>73</ele>
        <time>2022-04-09T10:58:13Z</time>
      </trkpt>
      <trkpt lat="47.13872" lon="-1.9067">
        <ele>73</ele>
        <time>2022-04-09T10:58:15Z</time>
      </trkpt>
      <trkpt lat="47.13856" lon="-1.90674">
        <ele>73</ele>
        <time>2022-04-09T10:58:17Z</time>
      </trkpt>
      <trkpt lat="47.1384" lon="-1.90678">
        <ele>73</ele>
        <time>2022-04-09T10:58:19Z</time>
      </trkpt>
      <trkpt lat="47.13824" lon="-1.90681">
        <ele>73</ele>
        <time>2022-04-09T10:58:21Z</time>
      </trkpt>
      <trkpt lat="47.13808" lon="-1.90685">
        <ele>72</ele>
        <time>2022-04-09T10:58:23Z</time>
      </trkpt>
      <trkpt lat="47.13791" lon="-1.90689">
        <ele>71</ele>
        <time>2022-04-09T10:58:25Z</time>
      </trkpt>
      <trkpt lat="47.13775" lon="-1.90696">
        <ele>70</ele>
        <time>2022-04-09T10:58:27Z</time>
      </trkpt>
      <trkpt lat="47.13759" lon="-1.90708">
        <ele>70</ele>
        <time>2022-04-09T10:58:29Z</time>
      </trkpt>
      <trkpt lat="47.13747" lon="-1.90724">
        <ele>69</ele>
        <time>2022-04-09T10:58:31Z</time>
      </trkpt>
      <trkpt lat="47.13736" lon="-1.90745">
        <ele>69</ele>
        <time>2022-04-09T10:58:33Z</time>
      </trkpt>
      <trkpt lat="47.13728" lon="-1.90765">
        <ele>68</ele>
        <time>2022-04-09T10:58:35Z</time>
      </trkpt>
      <trkpt lat="47.13719" lon="-1.90786">
        <ele>68</ele>
        <time>2022-04-09T10:58:37Z</time>
      </trkpt>
      <trkpt lat="47.1371" lon="-1.90808">
        <ele>68</ele>
        <time>2022-04-09T10:58:39Z</time>
      </trkpt>
      <trkpt lat="47.13701" lon="-1.90828">
        <ele>68</ele>
        <time>2022-04-09T10:58:41Z</time>
      </trkpt>
      <trkpt lat="47.13692" lon="-1.90848">
        <ele>67</ele>
        <time>2022-04-09T10:58:43Z</time>
      </trkpt>
      <trkpt lat="47.13684" lon="-1.90868">
        <ele>67</ele>
        <time>2022-04-09T10:58:45Z</time>
      </trkpt>
      <trkpt lat="47.13675" lon="-1.90889">
        <ele>66</ele>
        <time>2022-04-09T10:58:47Z</time>
      </trkpt>
      <trkpt lat="47.13666" lon="-1.90909">
        <ele>66</ele>
        <time>2022-04-09T10:58:49Z</time>
      </trkpt>
      <trkpt lat="47.13659" lon="-1.90928">
        <ele>66</ele>
        <time>2022-04-09T10:58:51Z</time>
      </trkpt>
      <trkpt lat="47.1365" lon="-1.90947">
        <ele>66</ele>
        <time>2022-04-09T10:58:53Z</time>
      </trkpt>
      <trkpt lat="47.13642" lon="-1.90967">
        <ele>66</ele>
        <time>2022-04-09T10:58:55Z</time>
      </trkpt>
      <trkpt lat="47.13634" lon="-1.90986">
        <ele>65</ele>
        <time>2022-04-09T10:58:57Z</time>
      </trkpt>
      <trkpt lat="47.13626" lon="-1.91004">
        <ele>65</ele>
        <time>2022-04-09T10:58:59Z</time>
      </trkpt>
      <trkpt lat="47.13618" lon="-1.91022">
        <ele>65</ele>
        <time>2022-04-09T10:59:01Z</time>
      </trkpt>
      <trkpt lat="47.13608" lon="-1.91037">
        <ele>66</ele>
        <time>2022-04-09T10:59:03Z</time>
      </trkpt>
      <trkpt lat="47.13595" lon="-1.91046">
        <ele>66</ele>
        <time>2022-04-09T10:59:05Z</time>
      </trkpt>
      <trkpt lat="47.13581" lon="-1.91051">
        <ele>66</ele>
        <time>2022-04-09T10:59:07Z</time>
      </trkpt>
      <trkpt lat="47.13567" lon="-1.91054">
        <ele>67</ele>
        <time>2022-04-09T10:59:09Z</time>
      </trkpt>
      <trkpt lat="47.13553" lon="-1.91056">
        <ele>67</ele>
        <time>2022-04-09T10:59:11Z</time>
      </trkpt>
      <trkpt lat="47.13537" lon="-1.91058">
        <ele>67</ele>
        <time>2022-04-09T10:59:13Z</time>
      </trkpt>
      <trkpt lat="47.13522" lon="-1.91059">
        <ele>67</ele>
        <time>2022-04-09T10:59:15Z</time>
      </trkpt>
      <trkpt lat="47.13506" lon="-1.9106">
        <ele>66</ele>
        <time>2022-04-09T10:59:17Z</time>
      </trkpt>
      <trkpt lat="47.13491" lon="-1.91061">
        <ele>66</ele>
        <time>2022-04-09T10:59:19Z</time>
      </trkpt>
      <trkpt lat="47.13475" lon="-1.91063">
        <ele>66</ele>
        <time>2022-04-09T10:59:21Z</time>
      </trkpt>
      <trkpt lat="47.13461" lon="-1.91064">
        <ele>66</ele>
        <time>2022-04-09T10:59:23Z</time>
      </trkpt>
      <trkpt lat="47.13446" lon="-1.91065">
        <ele>66</ele>
        <time>2022-04-09T10:59:25Z</time>
      </trkpt>
      <trkpt lat="47.13432" lon="-1.91063">
        <ele>66</ele>
        <time>2022-04-09T10:59:27Z</time>
      </trkpt>
      <trkpt lat="47.13418" lon="-1.9106">
        <ele>66</ele>
        <time>2022-04-09T10:59:29Z</time>
      </trkpt>
      <trkpt lat="47.13405" lon="-1.91053">
        <ele>65</ele>
        <time>2022-04-09T10:59:31Z</time>
      </trkpt>
      <trkpt lat="47.13393" lon="-1.91044">
        <ele>65</ele>
        <time>2022-04-09T10:59:33Z</time>
      </trkpt>
      <trkpt lat="47.13382" lon="-1.91032">
        <ele>65</ele>
        <time>2022-04-09T10:59:35Z</time>
      </trkpt>
      <trkpt lat="47.1337" lon="-1.9102">
        <ele>65</ele>
        <time>2022-04-09T10:59:37Z</time>
      </trkpt>
      <trkpt lat="47.13357" lon="-1.9101">
        <ele>64</ele>
        <time>2022-04-09T10:59:39Z</time>
      </trkpt>
      <trkpt lat="47.13344" lon="-1.91003">
        <ele>65</ele>
        <time>2022-04-09T10:59:41Z</time>
      </trkpt>
      <trkpt lat="47.1333" lon="-1.91002">
        <ele>65</ele>
        <time>2022-04-09T10:59:43Z</time>
      </trkpt>
      <trkpt lat="47.13316" lon="-1.91003">
        <ele>64</ele>
        <time>2022-04-09T10:59:45Z</time>
      </trkpt>
      <trkpt lat="47.13302" lon="-1.91007">
        <ele>64</ele>
        <time>2022-04-09T10:59:47Z</time>
      </trkpt>
      <trkpt lat="47.13289" lon="-1.91011">
        <ele>64</ele>
        <time>2022-04-09T10:59:49Z</time>
      </trkpt>
      <trkpt lat="47.13275" lon="-1.91015">
        <ele>65</ele>
        <time>2022-04-09T10:59:51Z</time>
      </trkpt>
      <trkpt lat="47.13262" lon="-1.91019">
        <ele>64</ele>
        <time>2022-04-09T10:59:53Z</time>
      </trkpt>
      <trkpt lat="47.13248" lon="-1.91023">
        <ele>64</ele>
        <time>2022-04-09T10:59:55Z</time>
      </trkpt>
      <trkpt lat="47.13235" lon="-1.91026">
        <ele>64</ele>
        <time>2022-04-09T10:59:57Z</time>
      </trkpt>
      <trkpt lat="47.13221" lon="-1.9103">
        <ele>64</ele>
        <time>2022-04-09T10:59:59Z</time>
      </trkpt>
      <trkpt lat="47.13207" lon="-1.91033">
        <ele>64</ele>
        <time>2022-04-09T11:00:01Z</time>
      </trkpt>
      <trkpt lat="47.13194" lon="-1.91038">
        <ele>64</ele>
        <time>2022-04-09T11:00:03Z</time>
      </trkpt>
      <trkpt lat="47.1318" lon="-1.91041">
        <ele>65</ele>
        <time>2022-04-09T11:00:05Z</time>
      </trkpt>
      <trkpt lat="47.13167" lon="-1.91045">
        <ele>65</ele>
        <time>2022-04-09T11:00:07Z</time>
      </trkpt>
      <trkpt lat="47.13153" lon="-1.91049">
        <ele>65</ele>
        <time>2022-04-09T11:00:09Z</time>
      </trkpt>
      <trkpt lat="47.13139" lon="-1.91052">
        <ele>65</ele>
        <time>2022-04-09T11:00:11Z</time>
      </trkpt>
      <trkpt lat="47.13125" lon="-1.91056">
        <ele>65</ele>
        <time>2022-04-09T11:00:13Z</time>
      </trkpt>
      <trkpt lat="47.13111" lon="-1.91059">
        <ele>65</ele>
        <time>2022-04-09T11:00:15Z</time>
      </trkpt>
      <trkpt lat="47.13098" lon="-1.91061">
        <ele>65</ele>
        <time>2022-04-09T11:00:17Z</time>
      </trkpt>
      <trkpt lat="47.13084" lon="-1.91062">
        <ele>64</ele>
        <time>2022-04-09T11:00:19Z</time>
      </trkpt>
      <trkpt lat="47.13071" lon="-1.91062">
        <ele>64</ele>
        <time>2022-04-09T11:00:21Z</time>
      </trkpt>
      <trkpt lat="47.13057" lon="-1.91062">
        <ele>64</ele>
        <time>2022-04-09T11:00:23Z</time>
      </trkpt>
      <trkpt lat="47.13043" lon="-1.91062">
        <ele>65</ele>
        <time>2022-04-09T11:00:25Z</time>
      </trkpt>
      <trkpt lat="47.13028" lon="-1.91062">
        <ele>64</ele>
        <time>2022-04-09T11:00:27Z</time>
      </trkpt>
      <trkpt lat="47.13014" lon="-1.91061">
        <ele>64</ele>
        <time>2022-04-09T11:00:29Z</time>
      </trkpt>
      <trkpt lat="47.13" lon="-1.91061">
        <ele>64</ele>
        <time>2022-04-09T11:00:31Z</time>
      </trkpt>
      <trkpt lat="47.12985" lon="-1.91062">
        <ele>64</ele>
        <time>2022-04-09T11:00:33Z</time>
      </trkpt>
      <trkpt lat="47.12971" lon="-1.91062">
        <ele>64</ele>
        <time>2022-04-09T11:00:35Z</time>
      </trkpt>
      <trkpt lat="47.12957" lon="-1.91061">
        <ele>64</ele>
        <time>2022-04-09T11:00:37Z</time>
      </trkpt>
      <trkpt lat="47.12944" lon="-1.91061">
        <ele>64</ele>
        <time>2022-04-09T11:00:39Z</time>
      </trkpt>
      <trkpt lat="47.1293" lon="-1.91061">
        <ele>63</ele>
        <time>2022-04-09T11:00:41Z</time>
      </trkpt>
      <trkpt lat="47.12916" lon="-1.9106">
        <ele>63</ele>
        <time>2022-04-09T11:00:43Z</time>
      </trkpt>
      <trkpt lat="47.12903" lon="-1.9106">
        <ele>64</ele>
        <time>2022-04-09T11:00:45Z</time>
      </trkpt>
      <trkpt lat="47.12889" lon="-1.9106">
        <ele>64</ele>
        <time>2022-04-09T11:00:47Z</time>
      </trkpt>
      <trkpt lat="47.12875" lon="-1.9106">
        <ele>64</ele>
        <time>2022-04-09T11:00:49Z</time>
      </trkpt>
      <trkpt lat="47.12861" lon="-1.9106">
        <ele>64</ele>
        <time>2022-04-09T11:00:51Z</time>
      </trkpt>
      <trkpt lat="47.12847" lon="-1.91061">
        <ele>64</ele>
        <time>2022-04-09T11:00:53Z</time>
      </trkpt>
      <trkpt lat="47.12832" lon="-1.91065">
        <ele>64</ele>
        <time>2022-04-09T11:00:55Z</time>
      </trkpt>
      <trkpt lat="47.1282" lon="-1.91075">
        <ele>64</ele>
        <time>2022-04-09T11:00:57Z</time>
      </trkpt>
      <trkpt lat="47.12809" lon="-1.91085">
        <ele>64</ele>
        <time>2022-04-09T11:00:59Z</time>
      </trkpt>
      <trkpt lat="47.12796" lon="-1.91094">
        <ele>64</ele>
        <time>2022-04-09T11:01:01Z</time>
      </trkpt>
      <trkpt lat="47.12784" lon="-1.9109">
        <ele>64</ele>
        <time>2022-04-09T11:01:03Z</time>
      </trkpt>
      <trkpt lat="47.12773" lon="-1.91079">
        <ele>64</ele>
        <time>2022-04-09T11:01:05Z</time>
      </trkpt>
      <trkpt lat="47.12761" lon="-1.9107">
        <ele>64</ele>
        <time>2022-04-09T11:01:07Z</time>
      </trkpt>
      <trkpt lat="47.12747" lon="-1.91064">
        <ele>64</ele>
        <time>2022-04-09T11:01:09Z</time>
      </trkpt>
      <trkpt lat="47.12733" lon="-1.91062">
        <ele>64</ele>
        <time>2022-04-09T11:01:11Z</time>
      </trkpt>
      <trkpt lat="47.12719" lon="-1.91061">
        <ele>64</ele>
        <time>2022-04-09T11:01:13Z</time>
      </trkpt>
      <trkpt lat="47.12705" lon="-1.9106">
        <ele>64</ele>
        <time>2022-04-09T11:01:15Z</time>
      </trkpt>
      <trkpt lat="47.1269" lon="-1.9106">
        <ele>64</ele>
        <time>2022-04-09T11:01:17Z</time>
      </trkpt>
      <trkpt lat="47.12677" lon="-1.91067">
        <ele>64</ele>
        <time>2022-04-09T11:01:19Z</time>
      </trkpt>
      <trkpt lat="47.12663" lon="-1.91068">
        <ele>64</ele>
        <time>2022-04-09T11:01:21Z</time>
      </trkpt>
      <trkpt lat="47.12648" lon="-1.91068">
        <ele>64</ele>
        <time>2022-04-09T11:01:23Z</time>
      </trkpt>
      <trkpt lat="47.12633" lon="-1.91068">
        <ele>64</ele>
        <time>2022-04-09T11:01:25Z</time>
      </trkpt>
      <trkpt lat="47.12618" lon="-1.91068">
        <ele>64</ele>
        <time>2022-04-09T11:01:27Z</time>
      </trkpt>
      <trkpt lat="47.12603" lon="-1.91068">
        <ele>64</ele>
        <time>2022-04-09T11:01:29Z</time>
      </trkpt>
      <trkpt lat="47.12588" lon="-1.91068">
        <ele>64</ele>
        <time>2022-04-09T11:01:31Z</time>
      </trkpt>
      <trkpt lat="47.12573" lon="-1.91068">
        <ele>64</ele>
        <time>2022-04-09T11:01:33Z</time>
      </trkpt>
      <trkpt lat="47.12558" lon="-1.9107">
        <ele>66</ele>
        <time>2022-04-09T11:01:35Z</time>
      </trkpt>
      <trkpt lat="47.12542" lon="-1.91071">
        <ele>66</ele>
        <time>2022-04-09T11:01:37Z</time>
      </trkpt>
      <trkpt lat="47.12527" lon="-1.9107">
        <ele>66</ele>
        <time>2022-04-09T11:01:39Z</time>
      </trkpt>
      <trkpt lat="47.12513" lon="-1.91069">
        <ele>64</ele>
        <time>2022-04-09T11:01:41Z</time>
      </trkpt>
      <trkpt lat="47.12499" lon="-1.91072">
        <ele>64</ele>
        <time>2022-04-09T11:01:43Z</time>
      </trkpt>
      <trkpt lat="47.12485" lon="-1.91077">
        <ele>63</ele>
        <time>2022-04-09T11:01:45Z</time>
      </trkpt>
      <trkpt lat="47.12472" lon="-1.91082">
        <ele>64</ele>
        <time>2022-04-09T11:01:47Z</time>
      </trkpt>
      <trkpt lat="47.1246" lon="-1.91084">
        <ele>63</ele>
        <time>2022-04-09T11:01:49Z</time>
      </trkpt>
      <trkpt lat="47.12449" lon="-1.91086">
        <ele>63</ele>
        <time>2022-04-09T11:01:51Z</time>
      </trkpt>
      <trkpt lat="47.12437" lon="-1.9109">
        <ele>62</ele>
        <time>2022-04-09T11:01:53Z</time>
      </trkpt>
      <trkpt lat="47.12424" lon="-1.91097">
        <ele>63</ele>
        <time>2022-04-09T11:01:55Z</time>
      </trkpt>
      <trkpt lat="47.12411" lon="-1.91106">
        <ele>63</ele>
        <time>2022-04-09T11:01:57Z</time>
      </trkpt>
      <trkpt lat="47.12397" lon="-1.91118">
        <ele>63</ele>
        <time>2022-04-09T11:01:59Z</time>
      </trkpt>
      <trkpt lat="47.12387" lon="-1.91134">
        <ele>63</ele>
        <time>2022-04-09T11:02:01Z</time>
      </trkpt>
      <trkpt lat="47.12378" lon="-1.91149">
        <ele>62</ele>
        <time>2022-04-09T11:02:03Z</time>
      </trkpt>
      <trkpt lat="47.1237" lon="-1.91163">
        <ele>62</ele>
        <time>2022-04-09T11:02:05Z</time>
      </trkpt>
      <trkpt lat="47.12364" lon="-1.91175">
        <ele>62</ele>
        <time>2022-04-09T11:02:07Z</time>
      </trkpt>
      <trkpt lat="47.12357" lon="-1.91191">
        <ele>62</ele>
        <time>2022-04-09T11:02:09Z</time>
      </trkpt>
      <trkpt lat="47.12349" lon="-1.91209">
        <ele>62</ele>
        <time>2022-04-09T11:02:11Z</time>
      </trkpt>
      <trkpt lat="47.1234" lon="-1.91226">
        <ele>62</ele>
        <time>2022-04-09T11:02:13Z</time>
      </trkpt>
      <trkpt lat="47.1233" lon="-1.91245">
        <ele>61</ele>
        <time>2022-04-09T11:02:15Z</time>
      </trkpt>
      <trkpt lat="47.12322" lon="-1.91263">
        <ele>61</ele>
        <time>2022-04-09T11:02:17Z</time>
      </trkpt>
      <trkpt lat="47.12313" lon="-1.91281">
        <ele>61</ele>
        <time>2022-04-09T11:02:19Z</time>
      </trkpt>
      <trkpt lat="47.12304" lon="-1.91298">
        <ele>61</ele>
        <time>2022-04-09T11:02:21Z</time>
      </trkpt>
      <trkpt lat="47.12295" lon="-1.91316">
        <ele>62</ele>
        <time>2022-04-09T11:02:23Z</time>
      </trkpt>
      <trkpt lat="47.12286" lon="-1.91333">
        <ele>61</ele>
        <time>2022-04-09T11:02:25Z</time>
      </trkpt>
      <trkpt lat="47.12276" lon="-1.9135">
        <ele>62</ele>
        <time>2022-04-09T11:02:27Z</time>
      </trkpt>
      <trkpt lat="47.12268" lon="-1.91366">
        <ele>62</ele>
        <time>2022-04-09T11:02:29Z</time>
      </trkpt>
      <trkpt lat="47.12259" lon="-1.91381">
        <ele>62</ele>
        <time>2022-04-09T11:02:31Z</time>
      </trkpt>
      <trkpt lat="47.12249" lon="-1.91396">
        <ele>62</ele>
        <time>2022-04-09T11:02:33Z</time>
      </trkpt>
      <trkpt lat="47.12241" lon="-1.91411">
        <ele>62</ele>
        <time>2022-04-09T11:02:35Z</time>
      </trkpt>
      <trkpt lat="47.12233" lon="-1.91421">
        <ele>62</ele>
        <time>2022-04-09T11:02:37Z</time>
      </trkpt>
      <trkpt lat="47.12225" lon="-1.9141">
        <ele>62</ele>
        <time>2022-04-09T11:02:39Z</time>
      </trkpt>
      <trkpt lat="47.12214" lon="-1.91398">
        <ele>62</ele>
        <time>2022-04-09T11:02:41Z</time>
      </trkpt>
      <trkpt lat="47.12202" lon="-1.91385">
        <ele>63</ele>
        <time>2022-04-09T11:02:43Z</time>
      </trkpt>
      <trkpt lat="47.1219" lon="-1.91371">
        <ele>63</ele>
        <time>2022-04-09T11:02:45Z</time>
      </trkpt>
      <trkpt lat="47.12179" lon="-1.91357">
        <ele>63</ele>
        <time>2022-04-09T11:02:47Z</time>
      </trkpt>
      <trkpt lat="47.12168" lon="-1.91343">
        <ele>63</ele>
        <time>2022-04-09T11:02:49Z</time>
      </trkpt>
      <trkpt lat="47.12157" lon="-1.9133">
        <ele>63</ele>
        <time>2022-04-09T11:02:51Z</time>
      </trkpt>
      <trkpt lat="47.12146" lon="-1.91315">
        <ele>63</ele>
        <time>2022-04-09T11:02:53Z</time>
      </trkpt>
      <trkpt lat="47.12135" lon="-1.91302">
        <ele>63</ele>
        <time>2022-04-09T11:02:55Z</time>
      </trkpt>
      <trkpt lat="47.12124" lon="-1.91288">
        <ele>63</ele>
        <time>2022-04-09T11:02:57Z</time>
      </trkpt>
      <trkpt lat="47.12113" lon="-1.91274">
        <ele>63</ele>
        <time>2022-04-09T11:02:59Z</time>
      </trkpt>
      <trkpt lat="47.12102" lon="-1.9126">
        <ele>63</ele>
        <time>2022-04-09T11:03:01Z</time>
      </trkpt>
      <trkpt lat="47.1209" lon="-1.91247">
        <ele>62</ele>
        <time>2022-04-09T11:03:03Z</time>
      </trkpt>
      <trkpt lat="47.12078" lon="-1.91236">
        <ele>62</ele>
        <time>2022-04-09T11:03:05Z</time>
      </trkpt>
      <trkpt lat="47.12065" lon="-1.91224">
        <ele>62</ele>
        <time>2022-04-09T11:03:07Z</time>
      </trkpt>
      <trkpt lat="47.12053" lon="-1.91214">
        <ele>62</ele>
        <time>2022-04-09T11:03:09Z</time>
      </trkpt>
      <trkpt lat="47.1204" lon="-1.912">
        <ele>62</ele>
        <time>2022-04-09T11:03:11Z</time>
      </trkpt>
      <trkpt lat="47.12028" lon="-1.91186">
        <ele>61</ele>
        <time>2022-04-09T11:03:13Z</time>
      </trkpt>
      <trkpt lat="47.12018" lon="-1.91171">
        <ele>61</ele>
        <time>2022-04-09T11:03:15Z</time>
      </trkpt>
      <trkpt lat="47.12008" lon="-1.91154">
        <ele>61</ele>
        <time>2022-04-09T11:03:17Z</time>
      </trkpt>
      <trkpt lat="47.11999" lon="-1.91137">
        <ele>61</ele>
        <time>2022-04-09T11:03:19Z</time>
      </trkpt>
      <trkpt lat="47.1199" lon="-1.91119">
        <ele>61</ele>
        <time>2022-04-09T11:03:21Z</time>
      </trkpt>
      <trkpt lat="47.11981" lon="-1.91102">
        <ele>61</ele>
        <time>2022-04-09T11:03:23Z</time>
      </trkpt>
      <trkpt lat="47.11972" lon="-1.91085">
        <ele>61</ele>
        <time>2022-04-09T11:03:25Z</time>
      </trkpt>
      <trkpt lat="47.11963" lon="-1.91068">
        <ele>61</ele>
        <time>2022-04-09T11:03:27Z</time>
      </trkpt>
      <trkpt lat="47.11954" lon="-1.91052">
        <ele>61</ele>
        <time>2022-04-09T11:03:29Z</time>
      </trkpt>
      <trkpt lat="47.11945" lon="-1.91035">
        <ele>61</ele>
        <time>2022-04-09T11:03:31Z</time>
      </trkpt>
      <trkpt lat="47.11936" lon="-1.91018">
        <ele>61</ele>
        <time>2022-04-09T11:03:33Z</time>
      </trkpt>
      <trkpt lat="47.11927" lon="-1.91001">
        <ele>61</ele>
        <time>2022-04-09T11:03:35Z</time>
      </trkpt>
      <trkpt lat="47.11918" lon="-1.90984">
        <ele>61</ele>
        <time>2022-04-09T11:03:37Z</time>
      </trkpt>
      <trkpt lat="47.11909" lon="-1.90967">
        <ele>61</ele>
        <time>2022-04-09T11:03:39Z</time>
      </trkpt>
      <trkpt lat="47.119" lon="-1.9095">
        <ele>60</ele>
        <time>2022-04-09T11:03:41Z</time>
      </trkpt>
      <trkpt lat="47.11891" lon="-1.90932">
        <ele>60</ele>
        <time>2022-04-09T11:03:43Z</time>
      </trkpt>
      <trkpt lat="47.11883" lon="-1.90915">
        <ele>60</ele>
        <time>2022-04-09T11:03:45Z</time>
      </trkpt>
      <trkpt lat="47.11873" lon="-1.90898">
        <ele>60</ele>
        <time>2022-04-09T11:03:47Z</time>
      </trkpt>
      <trkpt lat="47.11864" lon="-1.90881">
        <ele>60</ele>
        <time>2022-04-09T11:03:49Z</time>
      </trkpt>
      <trkpt lat="47.11855" lon="-1.90863">
        <ele>60</ele>
        <time>2022-04-09T11:03:51Z</time>
      </trkpt>
      <trkpt lat="47.11846" lon="-1.90846">
        <ele>60</ele>
        <time>2022-04-09T11:03:53Z</time>
      </trkpt>
      <trkpt lat="47.11837" lon="-1.90829">
        <ele>60</ele>
        <time>2022-04-09T11:03:55Z</time>
      </trkpt>
      <trkpt lat="47.11829" lon="-1.90811">
        <ele>60</ele>
        <time>2022-04-09T11:03:57Z</time>
      </trkpt>
      <trkpt lat="47.1182" lon="-1.90795">
        <ele>60</ele>
        <time>2022-04-09T11:03:59Z</time>
      </trkpt>
      <trkpt lat="47.11811" lon="-1.90778">
        <ele>60</ele>
        <time>2022-04-09T11:04:01Z</time>
      </trkpt>
      <trkpt lat="47.11803" lon="-1.90761">
        <ele>60</ele>
        <time>2022-04-09T11:04:03Z</time>
      </trkpt>
      <trkpt lat="47.11794" lon="-1.90744">
        <ele>60</ele>
        <time>2022-04-09T11:04:05Z</time>
      </trkpt>
      <trkpt lat="47.11785" lon="-1.90727">
        <ele>60</ele>
        <time>2022-04-09T11:04:07Z</time>
      </trkpt>
      <trkpt lat="47.11776" lon="-1.9071">
        <ele>60</ele>
        <time>2022-04-09T11:04:09Z</time>
      </trkpt>
      <trkpt lat="47.11767" lon="-1.90693">
        <ele>60</ele>
        <time>2022-04-09T11:04:11Z</time>
      </trkpt>
      <trkpt lat="47.11758" lon="-1.90676">
        <ele>60</ele>
        <time>2022-04-09T11:04:13Z</time>
      </trkpt>
      <trkpt lat="47.11749" lon="-1.90659">
        <ele>60</ele>
        <time>2022-04-09T11:04:15Z</time>
      </trkpt>
      <trkpt lat="47.1174" lon="-1.90642">
        <ele>61</ele>
        <time>2022-04-09T11:04:17Z</time>
      </trkpt>
      <trkpt lat="47.11732" lon="-1.90625">
        <ele>61</ele>
        <time>2022-04-09T11:04:19Z</time>
      </trkpt>
      <trkpt lat="47.11723" lon="-1.90608">
        <ele>61</ele>
        <time>2022-04-09T11:04:21Z</time>
      </trkpt>
      <trkpt lat="47.11715" lon="-1.9059">
        <ele>61</ele>
        <time>2022-04-09T11:04:23Z</time>
      </trkpt>
      <trkpt lat="47.11707" lon="-1.90572">
        <ele>60</ele>
        <time>2022-04-09T11:04:25Z</time>
      </trkpt>
      <trkpt lat="47.11699" lon="-1.90554">
        <ele>61</ele>
        <time>2022-04-09T11:04:27Z</time>
      </trkpt>
      <trkpt lat="47.11692" lon="-1.90534">
        <ele>61</ele>
        <time>2022-04-09T11:04:29Z</time>
      </trkpt>
      <trkpt lat="47.11686" lon="-1.90514">
        <ele>61</ele>
        <time>2022-04-09T11:04:31Z</time>
      </trkpt>
      <trkpt lat="47.11681" lon="-1.90495">
        <ele>62</ele>
        <time>2022-04-09T11:04:33Z</time>
      </trkpt>
      <trkpt lat="47.11675" lon="-1.90476">
        <ele>62</ele>
        <time>2022-04-09T11:04:35Z</time>
      </trkpt>
      <trkpt lat="47.11669" lon="-1.90457">
        <ele>62</ele>
        <time>2022-04-09T11:04:37Z</time>
      </trkpt>
      <trkpt lat="47.11664" lon="-1.90438">
        <ele>62</ele>
        <time>2022-04-09T11:04:39Z</time>
      </trkpt>
      <trkpt lat="47.11658" lon="-1.90418">
        <ele>62</ele>
        <time>2022-04-09T11:04:41Z</time>
      </trkpt>
      <trkpt lat="47.11651" lon="-1.90398">
        <ele>62</ele>
        <time>2022-04-09T11:04:43Z</time>
      </trkpt>
      <trkpt lat="47.11645" lon="-1.90379">
        <ele>61</ele>
        <time>2022-04-09T11:04:45Z</time>
      </trkpt>
      <trkpt lat="47.11639" lon="-1.90359">
        <ele>61</ele>
        <time>2022-04-09T11:04:47Z</time>
      </trkpt>
      <trkpt lat="47.11633" lon="-1.90341">
        <ele>61</ele>
        <time>2022-04-09T11:04:49Z</time>
      </trkpt>
      <trkpt lat="47.11627" lon="-1.90322">
        <ele>61</ele>
        <time>2022-04-09T11:04:51Z</time>
      </trkpt>
      <trkpt lat="47.11621" lon="-1.90302">
        <ele>61</ele>
        <time>2022-04-09T11:04:53Z</time>
      </trkpt>
      <trkpt lat="47.11614" lon="-1.90283">
        <ele>61</ele>
        <time>2022-04-09T11:04:55Z</time>
      </trkpt>
      <trkpt lat="47.11609" lon="-1.90264">
        <ele>61</ele>
        <time>2022-04-09T11:04:57Z</time>
      </trkpt>
      <trkpt lat="47.11603" lon="-1.90244">
        <ele>61</ele>
        <time>2022-04-09T11:04:59Z</time>
      </trkpt>
      <trkpt lat="47.11597" lon="-1.90225">
        <ele>61</ele>
        <time>2022-04-09T11:05:01Z</time>
      </trkpt>
      <trkpt lat="47.11591" lon="-1.90206">
        <ele>60</ele>
        <time>2022-04-09T11:05:03Z</time>
      </trkpt>
      <trkpt lat="47.11585" lon="-1.90188">
        <ele>60</ele>
        <time>2022-04-09T11:05:05Z</time>
      </trkpt>
      <trkpt lat="47.11579" lon="-1.90169">
        <ele>60</ele>
        <time>2022-04-09T11:05:07Z</time>
      </trkpt>
      <trkpt lat="47.11573" lon="-1.90151">
        <ele>60</ele>
        <time>2022-04-09T11:05:09Z</time>
      </trkpt>
      <trkpt lat="47.11567" lon="-1.90132">
        <ele>61</ele>
        <time>2022-04-09T11:05:11Z</time>
      </trkpt>
      <trkpt lat="47.11562" lon="-1.90112">
        <ele>60</ele>
        <time>2022-04-09T11:05:13Z</time>
      </trkpt>
      <trkpt lat="47.11556" lon="-1.90094">
        <ele>60</ele>
        <time>2022-04-09T11:05:15Z</time>
      </trkpt>
      <trkpt lat="47.11549" lon="-1.90075">
        <ele>61</ele>
        <time>2022-04-09T11:05:17Z</time>
      </trkpt>
      <trkpt lat="47.11543" lon="-1.90056">
        <ele>61</ele>
        <time>2022-04-09T11:05:19Z</time>
      </trkpt>
      <trkpt lat="47.11537" lon="-1.90037">
        <ele>61</ele>
        <time>2022-04-09T11:05:21Z</time>
      </trkpt>
      <trkpt lat="47.11532" lon="-1.90018">
        <ele>61</ele>
        <time>2022-04-09T11:05:23Z</time>
      </trkpt>
      <trkpt lat="47.11525" lon="-1.9">
        <ele>61</ele>
        <time>2022-04-09T11:05:25Z</time>
      </trkpt>
      <trkpt lat="47.11519" lon="-1.89981">
        <ele>61</ele>
        <time>2022-04-09T11:05:27Z</time>
      </trkpt>
      <trkpt lat="47.11512" lon="-1.89963">
        <ele>61</ele>
        <time>2022-04-09T11:05:29Z</time>
      </trkpt>
      <trkpt lat="47.11504" lon="-1.89945">
        <ele>60</ele>
        <time>2022-04-09T11:05:31Z</time>
      </trkpt>
      <trkpt lat="47.11496" lon="-1.89929">
        <ele>60</ele>
        <time>2022-04-09T11:05:33Z</time>
      </trkpt>
      <trkpt lat="47.11486" lon="-1.89914">
        <ele>61</ele>
        <time>2022-04-09T11:05:35Z</time>
      </trkpt>
      <trkpt lat="47.11476" lon="-1.89901">
        <ele>61</ele>
        <time>2022-04-09T11:05:37Z</time>
      </trkpt>
      <trkpt lat="47.11466" lon="-1.89888">
        <ele>60</ele>
        <time>2022-04-09T11:05:39Z</time>
      </trkpt>
      <trkpt lat="47.11456" lon="-1.89875">
        <ele>60</ele>
        <time>2022-04-09T11:05:41Z</time>
      </trkpt>
      <trkpt lat="47.11446" lon="-1.89861">
        <ele>61</ele>
        <time>2022-04-09T11:05:43Z</time>
      </trkpt>
      <trkpt lat="47.11436" lon="-1.89848">
        <ele>61</ele>
        <time>2022-04-09T11:05:45Z</time>
      </trkpt>
      <trkpt lat="47.11425" lon="-1.89836">
        <ele>62</ele>
        <time>2022-04-09T11:05:47Z</time>
      </trkpt>
      <trkpt lat="47.11416" lon="-1.89823">
        <ele>62</ele>
        <time>2022-04-09T11:05:49Z</time>
      </trkpt>
      <trkpt lat="47.11406" lon="-1.89811">
        <ele>63</ele>
        <time>2022-04-09T11:05:51Z</time>
      </trkpt>
      <trkpt lat="47.11397" lon="-1.89798">
        <ele>62</ele>
        <time>2022-04-09T11:05:53Z</time>
      </trkpt>
      <trkpt lat="47.11387" lon="-1.89785">
        <ele>63</ele>
        <time>2022-04-09T11:05:55Z</time>
      </trkpt>
      <trkpt lat="47.11377" lon="-1.89772">
        <ele>63</ele>
        <time>2022-04-09T11:05:57Z</time>
      </trkpt>
      <trkpt lat="47.11367" lon="-1.89759">
        <ele>63</ele>
        <time>2022-04-09T11:05:59Z</time>
      </trkpt>
      <trkpt lat="47.11356" lon="-1.89745">
        <ele>64</ele>
        <time>2022-04-09T11:06:01Z</time>
      </trkpt>
      <trkpt lat="47.11346" lon="-1.89733">
        <ele>64</ele>
        <time>2022-04-09T11:06:03Z</time>
      </trkpt>
      <trkpt lat="47.11335" lon="-1.8972">
        <ele>64</ele>
        <time>2022-04-09T11:06:05Z</time>
      </trkpt>
      <trkpt lat="47.11325" lon="-1.89707">
        <ele>64</ele>
        <time>2022-04-09T11:06:07Z</time>
      </trkpt>
      <trkpt lat="47.11315" lon="-1.89694">
        <ele>64</ele>
        <time>2022-04-09T11:06:09Z</time>
      </trkpt>
      <trkpt lat="47.11306" lon="-1.8968">
        <ele>64</ele>
        <time>2022-04-09T11:06:11Z</time>
      </trkpt>
      <trkpt lat="47.11296" lon="-1.89667">
        <ele>64</ele>
        <time>2022-04-09T11:06:13Z</time>
      </trkpt>
      <trkpt lat="47.11285" lon="-1.89654">
        <ele>65</ele>
        <time>2022-04-09T11:06:15Z</time>
      </trkpt>
      <trkpt lat="47.11275" lon="-1.89641">
        <ele>65</ele>
        <time>2022-04-09T11:06:17Z</time>
      </trkpt>
      <trkpt lat="47.11265" lon="-1.89628">
        <ele>65</ele>
        <time>2022-04-09T11:06:19Z</time>
      </trkpt>
      <trkpt lat="47.11255" lon="-1.89615">
        <ele>65</ele>
        <time>2022-04-09T11:06:21Z</time>
      </trkpt>
      <trkpt lat="47.11245" lon="-1.89602">
        <ele>65</ele>
        <time>2022-04-09T11:06:23Z</time>
      </trkpt>
      <trkpt lat="47.11235" lon="-1.8959">
        <ele>65</ele>
        <time>2022-04-09T11:06:25Z</time>
      </trkpt>
      <trkpt lat="47.11225" lon="-1.89577">
        <ele>65</ele>
        <time>2022-04-09T11:06:27Z</time>
      </trkpt>
      <trkpt lat="47.11215" lon="-1.89565">
        <ele>66</ele>
        <time>2022-04-09T11:06:29Z</time>
      </trkpt>
      <trkpt lat="47.11205" lon="-1.89552">
        <ele>66</ele>
        <time>2022-04-09T11:06:31Z</time>
      </trkpt>
      <trkpt lat="47.11196" lon="-1.8954">
        <ele>66</ele>
        <time>2022-04-09T11:06:33Z</time>
      </trkpt>
      <trkpt lat="47.11187" lon="-1.89528">
        <ele>67</ele>
        <time>2022-04-09T11:06:35Z</time>
      </trkpt>
      <trkpt lat="47.11177" lon="-1.89515">
        <ele>66</ele>
        <time>2022-04-09T11:06:37Z</time>
      </trkpt>
      <trkpt lat="47.11167" lon="-1.89503">
        <ele>67</ele>
        <time>2022-04-09T11:06:39Z</time>
      </trkpt>
      <trkpt lat="47.11158" lon="-1.8949">
        <ele>66</ele>
        <time>2022-04-09T11:06:41Z</time>
      </trkpt>
      <trkpt lat="47.11148" lon="-1.89477">
        <ele>67</ele>
        <time>2022-04-09T11:06:43Z</time>
      </trkpt>
      <trkpt lat="47.11138" lon="-1.89465">
        <ele>67</ele>
        <time>2022-04-09T11:06:45Z</time>
      </trkpt>
      <trkpt lat="47.11129" lon="-1.89452">
        <ele>67</ele>
        <time>2022-04-09T11:06:47Z</time>
      </trkpt>
      <trkpt lat="47.11119" lon="-1.89439">
        <ele>67</ele>
        <time>2022-04-09T11:06:49Z</time>
      </trkpt>
      <trkpt lat="47.1111" lon="-1.89426">
        <ele>67</ele>
        <time>2022-04-09T11:06:51Z</time>
      </trkpt>
      <trkpt lat="47.11101" lon="-1.89412">
        <ele>66</ele>
        <time>2022-04-09T11:06:53Z</time>
      </trkpt>
      <trkpt lat="47.11092" lon="-1.89398">
        <ele>67</ele>
        <time>2022-04-09T11:06:55Z</time>
      </trkpt>
      <trkpt lat="47.11084" lon="-1.89383">
        <ele>67</ele>
        <time>2022-04-09T11:06:57Z</time>
      </trkpt>
      <trkpt lat="47.11076" lon="-1.89368">
        <ele>67</ele>
        <time>2022-04-09T11:06:59Z</time>
      </trkpt>
      <trkpt lat="47.11069" lon="-1.89351">
        <ele>67</ele>
        <time>2022-04-09T11:07:01Z</time>
      </trkpt>
      <trkpt lat="47.11063" lon="-1.89334">
        <ele>67</ele>
        <time>2022-04-09T11:07:03Z</time>
      </trkpt>
      <trkpt lat="47.11057" lon="-1.89317">
        <ele>67</ele>
        <time>2022-04-09T11:07:05Z</time>
      </trkpt>
      <trkpt lat="47.11051" lon="-1.89299">
        <ele>67</ele>
        <time>2022-04-09T11:07:07Z</time>
      </trkpt>
      <trkpt lat="47.11046" lon="-1.89282">
        <ele>67</ele>
        <time>2022-04-09T11:07:09Z</time>
      </trkpt>
      <trkpt lat="47.11041" lon="-1.89264">
        <ele>67</ele>
        <time>2022-04-09T11:07:11Z</time>
      </trkpt>
      <trkpt lat="47.11036" lon="-1.89246">
        <ele>68</ele>
        <time>2022-04-09T11:07:13Z</time>
      </trkpt>
      <trkpt lat="47.11031" lon="-1.89229">
        <ele>68</ele>
        <time>2022-04-09T11:07:15Z</time>
      </trkpt>
      <trkpt lat="47.11026" lon="-1.89212">
        <ele>68</ele>
        <time>2022-04-09T11:07:17Z</time>
      </trkpt>
      <trkpt lat="47.11021" lon="-1.89195">
        <ele>68</ele>
        <time>2022-04-09T11:07:19Z</time>
      </trkpt>
      <trkpt lat="47.11015" lon="-1.89178">
        <ele>68</ele>
        <time>2022-04-09T11:07:21Z</time>
      </trkpt>
      <trkpt lat="47.11011" lon="-1.89161">
        <ele>67</ele>
        <time>2022-04-09T11:07:23Z</time>
      </trkpt>
      <trkpt lat="47.11005" lon="-1.89143">
        <ele>67</ele>
        <time>2022-04-09T11:07:25Z</time>
      </trkpt>
      <trkpt lat="47.11" lon="-1.89126">
        <ele>67</ele>
        <time>2022-04-09T11:07:27Z</time>
      </trkpt>
      <trkpt lat="47.10995" lon="-1.89108">
        <ele>67</ele>
        <time>2022-04-09T11:07:29Z</time>
      </trkpt>
      <trkpt lat="47.1099" lon="-1.89091">
        <ele>67</ele>
        <time>2022-04-09T11:07:31Z</time>
      </trkpt>
      <trkpt lat="47.10984" lon="-1.89073">
        <ele>67</ele>
        <time>2022-04-09T11:07:33Z</time>
      </trkpt>
      <trkpt lat="47.10979" lon="-1.89055">
        <ele>67</ele>
        <time>2022-04-09T11:07:35Z</time>
      </trkpt>
      <trkpt lat="47.10973" lon="-1.89036">
        <ele>67</ele>
        <time>2022-04-09T11:07:37Z</time>
      </trkpt>
      <trkpt lat="47.10968" lon="-1.89017">
        <ele>66</ele>
        <time>2022-04-09T11:07:39Z</time>
      </trkpt>
      <trkpt lat="47.10962" lon="-1.88999">
        <ele>66</ele>
        <time>2022-04-09T11:07:41Z</time>
      </trkpt>
      <trkpt lat="47.10956" lon="-1.8898">
        <ele>66</ele>
        <time>2022-04-09T11:07:43Z</time>
      </trkpt>
      <trkpt lat="47.10951" lon="-1.88961">
        <ele>66</ele>
        <time>2022-04-09T11:07:45Z</time>
      </trkpt>
      <trkpt lat="47.10945" lon="-1.88942">
        <ele>66</ele>
        <time>2022-04-09T11:07:47Z</time>
      </trkpt>
      <trkpt lat="47.1094" lon="-1.88923">
        <ele>65</ele>
        <time>2022-04-09T11:07:49Z</time>
      </trkpt>
      <trkpt lat="47.10934" lon="-1.88903">
        <ele>65</ele>
        <time>2022-04-09T11:07:51Z</time>
      </trkpt>
      <trkpt lat="47.10928" lon="-1.88883">
        <ele>65</ele>
        <time>2022-04-09T11:07:53Z</time>
      </trkpt>
      <trkpt lat="47.10922" lon="-1.88864">
        <ele>65</ele>
        <time>2022-04-09T11:07:55Z</time>
      </trkpt>
      <trkpt lat="47.10915" lon="-1.88844">
        <ele>65</ele>
        <time>2022-04-09T11:07:57Z</time>
      </trkpt>
      <trkpt lat="47.10908" lon="-1.88825">
        <ele>64</ele>
        <time>2022-04-09T11:07:59Z</time>
      </trkpt>
      <trkpt lat="47.10901" lon="-1.88806">
        <ele>64</ele>
        <time>2022-04-09T11:08:01Z</time>
      </trkpt>
      <trkpt lat="47.10892" lon="-1.88786">
        <ele>64</ele>
        <time>2022-04-09T11:08:03Z</time>
      </trkpt>
      <trkpt lat="47.10884" lon="-1.88767">
        <ele>64</ele>
        <time>2022-04-09T11:08:05Z</time>
      </trkpt>
      <trkpt lat="47.10875" lon="-1.88747">
        <ele>63</ele>
        <time>2022-04-09T11:08:07Z</time>
      </trkpt>
      <trkpt lat="47.10867" lon="-1.88727">
        <ele>63</ele>
        <time>2022-04-09T11:08:09Z</time>
      </trkpt>
      <trkpt lat="47.10858" lon="-1.88706">
        <ele>63</ele>
        <time>2022-04-09T11:08:11Z</time>
      </trkpt>
      <trkpt lat="47.1085" lon="-1.88686">
        <ele>62</ele>
        <time>2022-04-09T11:08:13Z</time>
      </trkpt>
      <trkpt lat="47.10841" lon="-1.88666">
        <ele>62</ele>
        <time>2022-04-09T11:08:15Z</time>
      </trkpt>
      <trkpt lat="47.10833" lon="-1.88646">
        <ele>62</ele>
        <time>2022-04-09T11:08:17Z</time>
      </trkpt>
      <trkpt lat="47.10824" lon="-1.88626">
        <ele>62</ele>
        <time>2022-04-09T11:08:19Z</time>
      </trkpt>
      <trkpt lat="47.10816" lon="-1.88606">
        <ele>62</ele>
        <time>2022-04-09T11:08:21Z</time>
      </trkpt>
      <trkpt lat="47.10807" lon="-1.88586">
        <ele>62</ele>
        <time>2022-04-09T11:08:23Z</time>
      </trkpt>
      <trkpt lat="47.10798" lon="-1.88566">
        <ele>63</ele>
        <time>2022-04-09T11:08:25Z</time>
      </trkpt>
      <trkpt lat="47.1079" lon="-1.88547">
        <ele>62</ele>
        <time>2022-04-09T11:08:27Z</time>
      </trkpt>
      <trkpt lat="47.10782" lon="-1.88527">
        <ele>62</ele>
        <time>2022-04-09T11:08:29Z</time>
      </trkpt>
      <trkpt lat="47.10775" lon="-1.88508">
        <ele>62</ele>
        <time>2022-04-09T11:08:31Z</time>
      </trkpt>
      <trkpt lat="47.10768" lon="-1.88489">
        <ele>62</ele>
        <time>2022-04-09T11:08:33Z</time>
      </trkpt>
      <trkpt lat="47.10762" lon="-1.88469">
        <ele>62</ele>
        <time>2022-04-09T11:08:35Z</time>
      </trkpt>
      <trkpt lat="47.10756" lon="-1.8845">
        <ele>62</ele>
        <time>2022-04-09T11:08:37Z</time>
      </trkpt>
      <trkpt lat="47.10751" lon="-1.8843">
        <ele>62</ele>
        <time>2022-04-09T11:08:39Z</time>
      </trkpt>
      <trkpt lat="47.10745" lon="-1.8841">
        <ele>62</ele>
        <time>2022-04-09T11:08:41Z</time>
      </trkpt>
      <trkpt lat="47.10741" lon="-1.8839">
        <ele>62</ele>
        <time>2022-04-09T11:08:43Z</time>
      </trkpt>
      <trkpt lat="47.10737" lon="-1.88368">
        <ele>63</ele>
        <time>2022-04-09T11:08:45Z</time>
      </trkpt>
      <trkpt lat="47.10733" lon="-1.88347">
        <ele>63</ele>
        <time>2022-04-09T11:08:47Z</time>
      </trkpt>
      <trkpt lat="47.1073" lon="-1.88326">
        <ele>63</ele>
        <time>2022-04-09T11:08:49Z</time>
      </trkpt>
      <trkpt lat="47.10727" lon="-1.88305">
        <ele>63</ele>
        <time>2022-04-09T11:08:51Z</time>
      </trkpt>
      <trkpt lat="47.10725" lon="-1.88283">
        <ele>64</ele>
        <time>2022-04-09T11:08:53Z</time>
      </trkpt>
      <trkpt lat="47.10723" lon="-1.88262">
        <ele>64</ele>
        <time>2022-04-09T11:08:55Z</time>
      </trkpt>
      <trkpt lat="47.10721" lon="-1.88241">
        <ele>63</ele>
        <time>2022-04-09T11:08:57Z</time>
      </trkpt>
      <trkpt lat="47.10719" lon="-1.88219">
        <ele>63</ele>
        <time>2022-04-09T11:08:59Z</time>
      </trkpt>
      <trkpt lat="47.10716" lon="-1.88198">
        <ele>63</ele>
        <time>2022-04-09T11:09:01Z</time>
      </trkpt>
      <trkpt lat="47.10714" lon="-1.88178">
        <ele>63</ele>
        <time>2022-04-09T11:09:03Z</time>
      </trkpt>
      <trkpt lat="47.10712" lon="-1.88156">
        <ele>63</ele>
        <time>2022-04-09T11:09:05Z</time>
      </trkpt>
      <trkpt lat="47.1071" lon="-1.88135">
        <ele>63</ele>
        <time>2022-04-09T11:09:07Z</time>
      </trkpt>
      <trkpt lat="47.10708" lon="-1.88114">
        <ele>63</ele>
        <time>2022-04-09T11:09:09Z</time>
      </trkpt>
      <trkpt lat="47.10706" lon="-1.88093">
        <ele>62</ele>
        <time>2022-04-09T11:09:11Z</time>
      </trkpt>
      <trkpt lat="47.10704" lon="-1.88072">
        <ele>62</ele>
        <time>2022-04-09T11:09:13Z</time>
      </trkpt>
      <trkpt lat="47.10702" lon="-1.88052">
        <ele>63</ele>
        <time>2022-04-09T11:09:15Z</time>
      </trkpt>
      <trkpt lat="47.107" lon="-1.88031">
        <ele>63</ele>
        <time>2022-04-09T11:09:17Z</time>
      </trkpt>
      <trkpt lat="47.10698" lon="-1.8801">
        <ele>63</ele>
        <time>2022-04-09T11:09:19Z</time>
      </trkpt>
      <trkpt lat="47.10696" lon="-1.87989">
        <ele>63</ele>
        <time>2022-04-09T11:09:21Z</time>
      </trkpt>
      <trkpt lat="47.10692" lon="-1.87968">
        <ele>62</ele>
        <time>2022-04-09T11:09:23Z</time>
      </trkpt>
      <trkpt lat="47.10688" lon="-1.87947">
        <ele>62</ele>
        <time>2022-04-09T11:09:25Z</time>
      </trkpt>
      <trkpt lat="47.10683" lon="-1.87927">
        <ele>62</ele>
        <time>2022-04-09T11:09:27Z</time>
      </trkpt>
      <trkpt lat="47.10676" lon="-1.87909">
        <ele>62</ele>
        <time>2022-04-09T11:09:29Z</time>
      </trkpt>
      <trkpt lat="47.1067" lon="-1.87891">
        <ele>62</ele>
        <time>2022-04-09T11:09:31Z</time>
      </trkpt>
      <trkpt lat="47.10663" lon="-1.87873">
        <ele>63</ele>
        <time>2022-04-09T11:09:33Z</time>
      </trkpt>
      <trkpt lat="47.10657" lon="-1.87855">
        <ele>63</ele>
        <time>2022-04-09T11:09:35Z</time>
      </trkpt>
      <trkpt lat="47.1065" lon="-1.87837">
        <ele>63</ele>
        <time>2022-04-09T11:09:37Z</time>
      </trkpt>
      <trkpt lat="47.10644" lon="-1.8782">
        <ele>64</ele>
        <time>2022-04-09T11:09:39Z</time>
      </trkpt>
      <trkpt lat="47.10638" lon="-1.87803">
        <ele>64</ele>
        <time>2022-04-09T11:09:41Z</time>
      </trkpt>
      <trkpt lat="47.10632" lon="-1.87785">
        <ele>64</ele>
        <time>2022-04-09T11:09:43Z</time>
      </trkpt>
      <trkpt lat="47.10626" lon="-1.87768">
        <ele>64</ele>
        <time>2022-04-09T11:09:45Z</time>
      </trkpt>
      <trkpt lat="47.1062" lon="-1.8775">
        <ele>64</ele>
        <time>2022-04-09T11:09:47Z</time>
      </trkpt>
      <trkpt lat="47.10613" lon="-1.87733">
        <ele>65</ele>
        <time>2022-04-09T11:09:49Z</time>
      </trkpt>
      <trkpt lat="47.10607" lon="-1.87715">
        <ele>65</ele>
        <time>2022-04-09T11:09:51Z</time>
      </trkpt>
      <trkpt lat="47.10601" lon="-1.87697">
        <ele>65</ele>
        <time>2022-04-09T11:09:53Z</time>
      </trkpt>
      <trkpt lat="47.10595" lon="-1.8768">
        <ele>65</ele>
        <time>2022-04-09T11:09:55Z</time>
      </trkpt>
      <trkpt lat="47.10589" lon="-1.87663">
        <ele>66</ele>
        <time>2022-04-09T11:09:57Z</time>
      </trkpt>
      <trkpt lat="47.10584" lon="-1.87646">
        <ele>66</ele>
        <time>2022-04-09T11:09:59Z</time>
      </trkpt>
      <trkpt lat="47.10579" lon="-1.87628">
        <ele>66</ele>
        <time>2022-04-09T11:10:01Z</time>
      </trkpt>
      <trkpt lat="47.10574" lon="-1.8761">
        <ele>66</ele>
        <time>2022-04-09T11:10:03Z</time>
      </trkpt>
      <trkpt lat="47.10571" lon="-1.87591">
        <ele>66</ele>
        <time>2022-04-09T11:10:05Z</time>
      </trkpt>
      <trkpt lat="47.10568" lon="-1.87573">
        <ele>66</ele>
        <time>2022-04-09T11:10:07Z</time>
      </trkpt>
      <trkpt lat="47.10564" lon="-1.87554">
        <ele>65</ele>
        <time>2022-04-09T11:10:09Z</time>
      </trkpt>
      <trkpt lat="47.10559" lon="-1.87535">
        <ele>65</ele>
        <time>2022-04-09T11:10:11Z</time>
      </trkpt>
      <trkpt lat="47.10556" lon="-1.87516">
        <ele>65</ele>
        <time>2022-04-09T11:10:13Z</time>
      </trkpt>
      <trkpt lat="47.10552" lon="-1.87497">
        <ele>65</ele>
        <time>2022-04-09T11:10:15Z</time>
      </trkpt>
      <trkpt lat="47.10549" lon="-1.87479">
        <ele>65</ele>
        <time>2022-04-09T11:10:17Z</time>
      </trkpt>
      <trkpt lat="47.10546" lon="-1.8746">
        <ele>65</ele>
        <time>2022-04-09T11:10:19Z</time>
      </trkpt>
      <trkpt lat="47.10542" lon="-1.87441">
        <ele>66</ele>
        <time>2022-04-09T11:10:21Z</time>
      </trkpt>
      <trkpt lat="47.10538" lon="-1.87422">
        <ele>66</ele>
        <time>2022-04-09T11:10:23Z</time>
      </trkpt>
      <trkpt lat="47.10535" lon="-1.87403">
        <ele>66</ele>
        <time>2022-04-09T11:10:25Z</time>
      </trkpt>
      <trkpt lat="47.1053" lon="-1.87384">
        <ele>66</ele>
        <time>2022-04-09T11:10:27Z</time>
      </trkpt>
      <trkpt lat="47.10526" lon="-1.87365">
        <ele>66</ele>
        <time>2022-04-09T11:10:29Z</time>
      </trkpt>
      <trkpt lat="47.10523" lon="-1.87346">
        <ele>66</ele>
        <time>2022-04-09T11:10:31Z</time>
      </trkpt>
      <trkpt lat="47.10519" lon="-1.87328">
        <ele>66</ele>
        <time>2022-04-09T11:10:33Z</time>
      </trkpt>
      <trkpt lat="47.10515" lon="-1.8731">
        <ele>66</ele>
        <time>2022-04-09T11:10:35Z</time>
      </trkpt>
      <trkpt lat="47.1051" lon="-1.87292">
        <ele>66</ele>
        <time>2022-04-09T11:10:37Z</time>
      </trkpt>
      <trkpt lat="47.10505" lon="-1.87275">
        <ele>66</ele>
        <time>2022-04-09T11:10:39Z</time>
      </trkpt>
      <trkpt lat="47.10499" lon="-1.87259">
        <ele>67</ele>
        <time>2022-04-09T11:10:41Z</time>
      </trkpt>
      <trkpt lat="47.10493" lon="-1.87244">
        <ele>67</ele>
        <time>2022-04-09T11:10:43Z</time>
      </trkpt>
      <trkpt lat="47.10485" lon="-1.8723">
        <ele>67</ele>
        <time>2022-04-09T11:10:45Z</time>
      </trkpt>
      <trkpt lat="47.10481" lon="-1.87212">
        <ele>67</ele>
        <time>2022-04-09T11:10:47Z</time>
      </trkpt>
      <trkpt lat="47.10479" lon="-1.8719">
        <ele>67</ele>
        <time>2022-04-09T11:10:49Z</time>
      </trkpt>
      <trkpt lat="47.10475" lon="-1.87171">
        <ele>68</ele>
        <time>2022-04-09T11:10:51Z</time>
      </trkpt>
      <trkpt lat="47.1047" lon="-1.87152">
        <ele>68</ele>
        <time>2022-04-09T11:10:53Z</time>
      </trkpt>
      <trkpt lat="47.10465" lon="-1.87133">
        <ele>68</ele>
        <time>2022-04-09T11:10:55Z</time>
      </trkpt>
      <trkpt lat="47.10462" lon="-1.87115">
        <ele>68</ele>
        <time>2022-04-09T11:10:57Z</time>
      </trkpt>
      <trkpt lat="47.10457" lon="-1.87096">
        <ele>69</ele>
        <time>2022-04-09T11:10:59Z</time>
      </trkpt>
      <trkpt lat="47.10454" lon="-1.87077">
        <ele>69</ele>
        <time>2022-04-09T11:11:01Z</time>
      </trkpt>
      <trkpt lat="47.1045" lon="-1.87058">
        <ele>69</ele>
        <time>2022-04-09T11:11:03Z</time>
      </trkpt>
      <trkpt lat="47.10446" lon="-1.8704">
        <ele>69</ele>
        <time>2022-04-09T11:11:05Z</time>
      </trkpt>
      <trkpt lat="47.10442" lon="-1.87022">
        <ele>69</ele>
        <time>2022-04-09T11:11:07Z</time>
      </trkpt>
      <trkpt lat="47.10439" lon="-1.87004">
        <ele>69</ele>
        <time>2022-04-09T11:11:09Z</time>
      </trkpt>
      <trkpt lat="47.10436" lon="-1.86986">
        <ele>69</ele>
        <time>2022-04-09T11:11:11Z</time>
      </trkpt>
      <trkpt lat="47.10432" lon="-1.86969">
        <ele>69</ele>
        <time>2022-04-09T11:11:13Z</time>
      </trkpt>
      <trkpt lat="47.10428" lon="-1.86951">
        <ele>69</ele>
        <time>2022-04-09T11:11:15Z</time>
      </trkpt>
      <trkpt lat="47.10425" lon="-1.86933">
        <ele>69</ele>
        <time>2022-04-09T11:11:17Z</time>
      </trkpt>
      <trkpt lat="47.10421" lon="-1.86914">
        <ele>69</ele>
        <time>2022-04-09T11:11:19Z</time>
      </trkpt>
      <trkpt lat="47.10418" lon="-1.86895">
        <ele>69</ele>
        <time>2022-04-09T11:11:21Z</time>
      </trkpt>
      <trkpt lat="47.10414" lon="-1.86877">
        <ele>69</ele>
        <time>2022-04-09T11:11:23Z</time>
      </trkpt>
      <trkpt lat="47.1041" lon="-1.86858">
        <ele>69</ele>
        <time>2022-04-09T11:11:25Z</time>
      </trkpt>
      <trkpt lat="47.10406" lon="-1.86839">
        <ele>69</ele>
        <time>2022-04-09T11:11:27Z</time>
      </trkpt>
      <trkpt lat="47.10403" lon="-1.86819">
        <ele>69</ele>
        <time>2022-04-09T11:11:29Z</time>
      </trkpt>
      <trkpt lat="47.10399" lon="-1.868">
        <ele>69</ele>
        <time>2022-04-09T11:11:31Z</time>
      </trkpt>
      <trkpt lat="47.10395" lon="-1.86781">
        <ele>68</ele>
        <time>2022-04-09T11:11:33Z</time>
      </trkpt>
      <trkpt lat="47.10392" lon="-1.86761">
        <ele>68</ele>
        <time>2022-04-09T11:11:35Z</time>
      </trkpt>
      <trkpt lat="47.10388" lon="-1.86742">
        <ele>68</ele>
        <time>2022-04-09T11:11:37Z</time>
      </trkpt>
      <trkpt lat="47.10385" lon="-1.86723">
        <ele>68</ele>
        <time>2022-04-09T11:11:39Z</time>
      </trkpt>
      <trkpt lat="47.10381" lon="-1.86704">
        <ele>68</ele>
        <time>2022-04-09T11:11:41Z</time>
      </trkpt>
      <trkpt lat="47.10377" lon="-1.86684">
        <ele>68</ele>
        <time>2022-04-09T11:11:43Z</time>
      </trkpt>
      <trkpt lat="47.10374" lon="-1.86664">
        <ele>68</ele>
        <time>2022-04-09T11:11:45Z</time>
      </trkpt>
      <trkpt lat="47.10371" lon="-1.86644">
        <ele>68</ele>
        <time>2022-04-09T11:11:47Z</time>
      </trkpt>
      <trkpt lat="47.1037" lon="-1.86624">
        <ele>69</ele>
        <time>2022-04-09T11:11:49Z</time>
      </trkpt>
      <trkpt lat="47.10371" lon="-1.86603">
        <ele>68</ele>
        <time>2022-04-09T11:11:51Z</time>
      </trkpt>
      <trkpt lat="47.10369" lon="-1.86583">
        <ele>68</ele>
        <time>2022-04-09T11:11:53Z</time>
      </trkpt>
      <trkpt lat="47.10366" lon="-1.86564">
        <ele>68</ele>
        <time>2022-04-09T11:11:55Z</time>
      </trkpt>
      <trkpt lat="47.1036" lon="-1.86546">
        <ele>67</ele>
        <time>2022-04-09T11:11:57Z</time>
      </trkpt>
      <trkpt lat="47.10354" lon="-1.86527">
        <ele>67</ele>
        <time>2022-04-09T11:11:59Z</time>
      </trkpt>
      <trkpt lat="47.10347" lon="-1.86509">
        <ele>67</ele>
        <time>2022-04-09T11:12:01Z</time>
      </trkpt>
      <trkpt lat="47.10339" lon="-1.86492">
        <ele>67</ele>
        <time>2022-04-09T11:12:03Z</time>
      </trkpt>
      <trkpt lat="47.1033" lon="-1.86475">
        <ele>67</ele>
        <time>2022-04-09T11:12:05Z</time>
      </trkpt>
      <trkpt lat="47.10323" lon="-1.86457">
        <ele>67</ele>
        <time>2022-04-09T11:12:07Z</time>
      </trkpt>
      <trkpt lat="47.10314" lon="-1.86438">
        <ele>66</ele>
        <time>2022-04-09T11:12:09Z</time>
      </trkpt>
      <trkpt lat="47.10309" lon="-1.86416">
        <ele>65</ele>
        <time>2022-04-09T11:12:11Z</time>
      </trkpt>
      <trkpt lat="47.10307" lon="-1.86392">
        <ele>65</ele>
        <time>2022-04-09T11:12:13Z</time>
      </trkpt>
      <trkpt lat="47.10304" lon="-1.86369">
        <ele>64</ele>
        <time>2022-04-09T11:12:15Z</time>
      </trkpt>
      <trkpt lat="47.103" lon="-1.86345">
        <ele>64</ele>
        <time>2022-04-09T11:12:17Z</time>
      </trkpt>
      <trkpt lat="47.10295" lon="-1.86323">
        <ele>64</ele>
        <time>2022-04-09T11:12:19Z</time>
      </trkpt>
      <trkpt lat="47.1029" lon="-1.86302">
        <ele>64</ele>
        <time>2022-04-09T11:12:21Z</time>
      </trkpt>
      <trkpt lat="47.10284" lon="-1.86281">
        <ele>64</ele>
        <time>2022-04-09T11:12:23Z</time>
      </trkpt>
      <trkpt lat="47.10277" lon="-1.86262">
        <ele>65</ele>
        <time>2022-04-09T11:12:25Z</time>
      </trkpt>
      <trkpt lat="47.10269" lon="-1.86243">
        <ele>65</ele>
        <time>2022-04-09T11:12:27Z</time>
      </trkpt>
      <trkpt lat="47.10261" lon="-1.86226">
        <ele>65</ele>
        <time>2022-04-09T11:12:29Z</time>
      </trkpt>
      <trkpt lat="47.10254" lon="-1.86209">
        <ele>66</ele>
        <time>2022-04-09T11:12:31Z</time>
      </trkpt>
      <trkpt lat="47.10247" lon="-1.86192">
        <ele>67</ele>
        <time>2022-04-09T11:12:33Z</time>
      </trkpt>
      <trkpt lat="47.10241" lon="-1.86175">
        <ele>67</ele>
        <time>2022-04-09T11:12:35Z</time>
      </trkpt>
      <trkpt lat="47.10234" lon="-1.86159">
        <ele>67</ele>
        <time>2022-04-09T11:12:37Z</time>
      </trkpt>
      <trkpt lat="47.10229" lon="-1.86143">
        <ele>67</ele>
        <time>2022-04-09T11:12:39Z</time>
      </trkpt>
      <trkpt lat="47.10222" lon="-1.86126">
        <ele>67</ele>
        <time>2022-04-09T11:12:41Z</time>
      </trkpt>
      <trkpt lat="47.10215" lon="-1.86108">
        <ele>66</ele>
        <time>2022-04-09T11:12:43Z</time>
      </trkpt>
      <trkpt lat="47.10209" lon="-1.8609">
        <ele>66</ele>
        <time>2022-04-09T11:12:45Z</time>
      </trkpt>
      <trkpt lat="47.10203" lon="-1.86073">
        <ele>67</ele>
        <time>2022-04-09T11:12:47Z</time>
      </trkpt>
      <trkpt lat="47.10197" lon="-1.86056">
        <ele>67</ele>
        <time>2022-04-09T11:12:49Z</time>
      </trkpt>
      <trkpt lat="47.1019" lon="-1.86039">
        <ele>67</ele>
        <time>2022-04-09T11:12:51Z</time>
      </trkpt>
      <trkpt lat="47.10184" lon="-1.86023">
        <ele>67</ele>
        <time>2022-04-09T11:12:53Z</time>
      </trkpt>
      <trkpt lat="47.10179" lon="-1.86007">
        <ele>67</ele>
        <time>2022-04-09T11:12:55Z</time>
      </trkpt>
      <trkpt lat="47.10173" lon="-1.85991">
        <ele>68</ele>
        <time>2022-04-09T11:12:57Z</time>
      </trkpt>
      <trkpt lat="47.10166" lon="-1.85976">
        <ele>68</ele>
        <time>2022-04-09T11:12:59Z</time>
      </trkpt>
      <trkpt lat="47.1016" lon="-1.8596">
        <ele>68</ele>
        <time>2022-04-09T11:13:01Z</time>
      </trkpt>
      <trkpt lat="47.10153" lon="-1.85943">
        <ele>68</ele>
        <time>2022-04-09T11:13:03Z</time>
      </trkpt>
      <trkpt lat="47.10146" lon="-1.85927">
        <ele>68</ele>
        <time>2022-04-09T11:13:05Z</time>
      </trkpt>
      <trkpt lat="47.1014" lon="-1.85912">
        <ele>68</ele>
        <time>2022-04-09T11:13:07Z</time>
      </trkpt>
      <trkpt lat="47.10133" lon="-1.85897">
        <ele>68</ele>
        <time>2022-04-09T11:13:09Z</time>
      </trkpt>
      <trkpt lat="47.10125" lon="-1.85882">
        <ele>68</ele>
        <time>2022-04-09T11:13:11Z</time>
      </trkpt>
      <trkpt lat="47.10118" lon="-1.85867">
        <ele>68</ele>
        <time>2022-04-09T11:13:13Z</time>
      </trkpt>
      <trkpt lat="47.1011" lon="-1.85853">
        <ele>67</ele>
        <time>2022-04-09T11:13:15Z</time>
      </trkpt>
      <trkpt lat="47.10099" lon="-1.85845">
        <ele>68</ele>
        <time>2022-04-09T11:13:17Z</time>
      </trkpt>
      <trkpt lat="47.10092" lon="-1.85831">
        <ele>68</ele>
        <time>2022-04-09T11:13:19Z</time>
      </trkpt>
      <trkpt lat="47.10097" lon="-1.85814">
        <ele>68</ele>
        <time>2022-04-09T11:13:21Z</time>
      </trkpt>
      <trkpt lat="47.10097" lon="-1.85795">
        <ele>68</ele>
        <time>2022-04-09T11:13:23Z</time>
      </trkpt>
      <trkpt lat="47.10095" lon="-1.85776">
        <ele>68</ele>
        <time>2022-04-09T11:13:25Z</time>
      </trkpt>
      <trkpt lat="47.10093" lon="-1.85757">
        <ele>68</ele>
        <time>2022-04-09T11:13:27Z</time>
      </trkpt>
      <trkpt lat="47.10091" lon="-1.85738">
        <ele>68</ele>
        <time>2022-04-09T11:13:29Z</time>
      </trkpt>
      <trkpt lat="47.10089" lon="-1.85718">
        <ele>68</ele>
        <time>2022-04-09T11:13:31Z</time>
      </trkpt>
      <trkpt lat="47.10087" lon="-1.85697">
        <ele>68</ele>
        <time>2022-04-09T11:13:33Z</time>
      </trkpt>
      <trkpt lat="47.10086" lon="-1.85677">
        <ele>67</ele>
        <time>2022-04-09T11:13:35Z</time>
      </trkpt>
      <trkpt lat="47.10084" lon="-1.85657">
        <ele>67</ele>
        <time>2022-04-09T11:13:37Z</time>
      </trkpt>
      <trkpt lat="47.10082" lon="-1.85637">
        <ele>67</ele>
        <time>2022-04-09T11:13:39Z</time>
      </trkpt>
      <trkpt lat="47.10081" lon="-1.85616">
        <ele>67</ele>
        <time>2022-04-09T11:13:41Z</time>
      </trkpt>
      <trkpt lat="47.10078" lon="-1.85596">
        <ele>66</ele>
        <time>2022-04-09T11:13:43Z</time>
      </trkpt>
      <trkpt lat="47.10074" lon="-1.85577">
        <ele>66</ele>
        <time>2022-04-09T11:13:45Z</time>
      </trkpt>
      <trkpt lat="47.10068" lon="-1.85557">
        <ele>65</ele>
        <time>2022-04-09T11:13:47Z</time>
      </trkpt>
      <trkpt lat="47.1006" lon="-1.85538">
        <ele>65</ele>
        <time>2022-04-09T11:13:49Z</time>
      </trkpt>
      <trkpt lat="47.10049" lon="-1.85521">
        <ele>64</ele>
        <time>2022-04-09T11:13:51Z</time>
      </trkpt>
      <trkpt lat="47.10037" lon="-1.85504">
        <ele>63</ele>
        <time>2022-04-09T11:13:53Z</time>
      </trkpt>
      <trkpt lat="47.10024" lon="-1.85487">
        <ele>63</ele>
        <time>2022-04-09T11:13:55Z</time>
      </trkpt>
      <trkpt lat="47.10011" lon="-1.8547">
        <ele>62</ele>
        <time>2022-04-09T11:13:57Z</time>
      </trkpt>
      <trkpt lat="47.09998" lon="-1.85453">
        <ele>62</ele>
        <time>2022-04-09T11:13:59Z</time>
      </trkpt>
      <trkpt lat="47.09986" lon="-1.85437">
        <ele>62</ele>
        <time>2022-04-09T11:14:01Z</time>
      </trkpt>
      <trkpt lat="47.09974" lon="-1.8542">
        <ele>62</ele>
        <time>2022-04-09T11:14:03Z</time>
      </trkpt>
      <trkpt lat="47.09962" lon="-1.85404">
        <ele>62</ele>
        <time>2022-04-09T11:14:05Z</time>
      </trkpt>
      <trkpt lat="47.09952" lon="-1.85386">
        <ele>62</ele>
        <time>2022-04-09T11:14:07Z</time>
      </trkpt>
      <trkpt lat="47.09943" lon="-1.85367">
        <ele>62</ele>
        <time>2022-04-09T11:14:09Z</time>
      </trkpt>
      <trkpt lat="47.09938" lon="-1.85347">
        <ele>63</ele>
        <time>2022-04-09T11:14:11Z</time>
      </trkpt>
      <trkpt lat="47.09935" lon="-1.85327">
        <ele>63</ele>
        <time>2022-04-09T11:14:13Z</time>
      </trkpt>
      <trkpt lat="47.09933" lon="-1.85306">
        <ele>63</ele>
        <time>2022-04-09T11:14:15Z</time>
      </trkpt>
      <trkpt lat="47.09932" lon="-1.85286">
        <ele>64</ele>
        <time>2022-04-09T11:14:17Z</time>
      </trkpt>
      <trkpt lat="47.09931" lon="-1.85267">
        <ele>64</ele>
        <time>2022-04-09T11:14:19Z</time>
      </trkpt>
      <trkpt lat="47.0993" lon="-1.85248">
        <ele>64</ele>
        <time>2022-04-09T11:14:21Z</time>
      </trkpt>
      <trkpt lat="47.09928" lon="-1.8523">
        <ele>64</ele>
        <time>2022-04-09T11:14:23Z</time>
      </trkpt>
      <trkpt lat="47.09925" lon="-1.85212">
        <ele>64</ele>
        <time>2022-04-09T11:14:25Z</time>
      </trkpt>
      <trkpt lat="47.09923" lon="-1.85194">
        <ele>65</ele>
        <time>2022-04-09T11:14:27Z</time>
      </trkpt>
      <trkpt lat="47.09921" lon="-1.85177">
        <ele>65</ele>
        <time>2022-04-09T11:14:29Z</time>
      </trkpt>
      <trkpt lat="47.09919" lon="-1.85158">
        <ele>66</ele>
        <time>2022-04-09T11:14:31Z</time>
      </trkpt>
      <trkpt lat="47.09918" lon="-1.85139">
        <ele>66</ele>
        <time>2022-04-09T11:14:33Z</time>
      </trkpt>
      <trkpt lat="47.09918" lon="-1.8512">
        <ele>67</ele>
        <time>2022-04-09T11:14:35Z</time>
      </trkpt>
      <trkpt lat="47.09918" lon="-1.85101">
        <ele>67</ele>
        <time>2022-04-09T11:14:37Z</time>
      </trkpt>
      <trkpt lat="47.09919" lon="-1.85082">
        <ele>67</ele>
        <time>2022-04-09T11:14:39Z</time>
      </trkpt>
      <trkpt lat="47.09919" lon="-1.85063">
        <ele>67</ele>
        <time>2022-04-09T11:14:41Z</time>
      </trkpt>
      <trkpt lat="47.0992" lon="-1.85044">
        <ele>67</ele>
        <time>2022-04-09T11:14:43Z</time>
      </trkpt>
      <trkpt lat="47.09921" lon="-1.85025">
        <ele>67</ele>
        <time>2022-04-09T11:14:45Z</time>
      </trkpt>
      <trkpt lat="47.09921" lon="-1.85005">
        <ele>67</ele>
        <time>2022-04-09T11:14:47Z</time>
      </trkpt>
      <trkpt lat="47.09922" lon="-1.84986">
        <ele>68</ele>
        <time>2022-04-09T11:14:49Z</time>
      </trkpt>
      <trkpt lat="47.09922" lon="-1.84966">
        <ele>68</ele>
        <time>2022-04-09T11:14:51Z</time>
      </trkpt>
      <trkpt lat="47.09922" lon="-1.84947">
        <ele>68</ele>
        <time>2022-04-09T11:14:53Z</time>
      </trkpt>
      <trkpt lat="47.09921" lon="-1.84927">
        <ele>68</ele>
        <time>2022-04-09T11:14:55Z</time>
      </trkpt>
      <trkpt lat="47.0992" lon="-1.84908">
        <ele>68</ele>
        <time>2022-04-09T11:14:57Z</time>
      </trkpt>
      <trkpt lat="47.0992" lon="-1.84889">
        <ele>67</ele>
        <time>2022-04-09T11:14:59Z</time>
      </trkpt>
      <trkpt lat="47.09919" lon="-1.8487">
        <ele>67</ele>
        <time>2022-04-09T11:15:01Z</time>
      </trkpt>
      <trkpt lat="47.09918" lon="-1.84852">
        <ele>67</ele>
        <time>2022-04-09T11:15:03Z</time>
      </trkpt>
      <trkpt lat="47.09917" lon="-1.84834">
        <ele>68</ele>
        <time>2022-04-09T11:15:05Z</time>
      </trkpt>
      <trkpt lat="47.09917" lon="-1.84817">
        <ele>68</ele>
        <time>2022-04-09T11:15:07Z</time>
      </trkpt>
      <trkpt lat="47.09915" lon="-1.84799">
        <ele>68</ele>
        <time>2022-04-09T11:15:09Z</time>
      </trkpt>
      <trkpt lat="47.09914" lon="-1.84782">
        <ele>69</ele>
        <time>2022-04-09T11:15:11Z</time>
      </trkpt>
      <trkpt lat="47.09913" lon="-1.84763">
        <ele>69</ele>
        <time>2022-04-09T11:15:13Z</time>
      </trkpt>
      <trkpt lat="47.09912" lon="-1.84746">
        <ele>69</ele>
        <time>2022-04-09T11:15:15Z</time>
      </trkpt>
      <trkpt lat="47.0991" lon="-1.84728">
        <ele>70</ele>
        <time>2022-04-09T11:15:17Z</time>
      </trkpt>
      <trkpt lat="47.09909" lon="-1.8471">
        <ele>70</ele>
        <time>2022-04-09T11:15:19Z</time>
      </trkpt>
      <trkpt lat="47.09908" lon="-1.84691">
        <ele>71</ele>
        <time>2022-04-09T11:15:21Z</time>
      </trkpt>
      <trkpt lat="47.09907" lon="-1.84673">
        <ele>72</ele>
        <time>2022-04-09T11:15:23Z</time>
      </trkpt>
      <trkpt lat="47.09907" lon="-1.84654">
        <ele>71</ele>
        <time>2022-04-09T11:15:25Z</time>
      </trkpt>
      <trkpt lat="47.09906" lon="-1.84636">
        <ele>71</ele>
        <time>2022-04-09T11:15:27Z</time>
      </trkpt>
      <trkpt lat="47.09905" lon="-1.84617">
        <ele>71</ele>
        <time>2022-04-09T11:15:29Z</time>
      </trkpt>
      <trkpt lat="47.09904" lon="-1.84599">
        <ele>71</ele>
        <time>2022-04-09T11:15:31Z</time>
      </trkpt>
      <trkpt lat="47.09903" lon="-1.8458">
        <ele>71</ele>
        <time>2022-04-09T11:15:33Z</time>
      </trkpt>
      <trkpt lat="47.09902" lon="-1.84562">
        <ele>71</ele>
        <time>2022-04-09T11:15:35Z</time>
      </trkpt>
      <trkpt lat="47.099" lon="-1.84543">
        <ele>71</ele>
        <time>2022-04-09T11:15:37Z</time>
      </trkpt>
      <trkpt lat="47.09897" lon="-1.84524">
        <ele>71</ele>
        <time>2022-04-09T11:15:39Z</time>
      </trkpt>
      <trkpt lat="47.09895" lon="-1.84506">
        <ele>71</ele>
        <time>2022-04-09T11:15:41Z</time>
      </trkpt>
      <trkpt lat="47.09892" lon="-1.84488">
        <ele>71</ele>
        <time>2022-04-09T11:15:43Z</time>
      </trkpt>
      <trkpt lat="47.0989" lon="-1.8447">
        <ele>71</ele>
        <time>2022-04-09T11:15:45Z</time>
      </trkpt>
      <trkpt lat="47.09889" lon="-1.84451">
        <ele>71</ele>
        <time>2022-04-09T11:15:47Z</time>
      </trkpt>
      <trkpt lat="47.09888" lon="-1.84432">
        <ele>71</ele>
        <time>2022-04-09T11:15:49Z</time>
      </trkpt>
      <trkpt lat="47.09888" lon="-1.84412">
        <ele>71</ele>
        <time>2022-04-09T11:15:51Z</time>
      </trkpt>
      <trkpt lat="47.09888" lon="-1.84393">
        <ele>71</ele>
        <time>2022-04-09T11:15:53Z</time>
      </trkpt>
      <trkpt lat="47.09888" lon="-1.84374">
        <ele>70</ele>
        <time>2022-04-09T11:15:55Z</time>
      </trkpt>
      <trkpt lat="47.09888" lon="-1.84354">
        <ele>71</ele>
        <time>2022-04-09T11:15:57Z</time>
      </trkpt>
      <trkpt lat="47.09889" lon="-1.84335">
        <ele>71</ele>
        <time>2022-04-09T11:15:59Z</time>
      </trkpt>
      <trkpt lat="47.09889" lon="-1.84315">
        <ele>71</ele>
        <time>2022-04-09T11:16:01Z</time>
      </trkpt>
      <trkpt lat="47.09889" lon="-1.84296">
        <ele>71</ele>
        <time>2022-04-09T11:16:03Z</time>
      </trkpt>
      <trkpt lat="47.09889" lon="-1.84276">
        <ele>71</ele>
        <time>2022-04-09T11:16:05Z</time>
      </trkpt>
      <trkpt lat="47.09888" lon="-1.84256">
        <ele>71</ele>
        <time>2022-04-09T11:16:07Z</time>
      </trkpt>
      <trkpt lat="47.09887" lon="-1.84236">
        <ele>71</ele>
        <time>2022-04-09T11:16:09Z</time>
      </trkpt>
      <trkpt lat="47.09885" lon="-1.84216">
        <ele>70</ele>
        <time>2022-04-09T11:16:11Z</time>
      </trkpt>
      <trkpt lat="47.09882" lon="-1.84196">
        <ele>70</ele>
        <time>2022-04-09T11:16:13Z</time>
      </trkpt>
      <trkpt lat="47.09879" lon="-1.84176">
        <ele>70</ele>
        <time>2022-04-09T11:16:15Z</time>
      </trkpt>
      <trkpt lat="47.09876" lon="-1.84156">
        <ele>70</ele>
        <time>2022-04-09T11:16:17Z</time>
      </trkpt>
      <trkpt lat="47.09873" lon="-1.84136">
        <ele>69</ele>
        <time>2022-04-09T11:16:19Z</time>
      </trkpt>
      <trkpt lat="47.09869" lon="-1.84116">
        <ele>69</ele>
        <time>2022-04-09T11:16:21Z</time>
      </trkpt>
      <trkpt lat="47.09866" lon="-1.84095">
        <ele>69</ele>
        <time>2022-04-09T11:16:23Z</time>
      </trkpt>
      <trkpt lat="47.09862" lon="-1.84074">
        <ele>69</ele>
        <time>2022-04-09T11:16:25Z</time>
      </trkpt>
      <trkpt lat="47.09859" lon="-1.84054">
        <ele>68</ele>
        <time>2022-04-09T11:16:27Z</time>
      </trkpt>
      <trkpt lat="47.09856" lon="-1.84033">
        <ele>68</ele>
        <time>2022-04-09T11:16:29Z</time>
      </trkpt>
      <trkpt lat="47.09853" lon="-1.84011">
        <ele>67</ele>
        <time>2022-04-09T11:16:31Z</time>
      </trkpt>
      <trkpt lat="47.09851" lon="-1.8399">
        <ele>67</ele>
        <time>2022-04-09T11:16:33Z</time>
      </trkpt>
      <trkpt lat="47.09851" lon="-1.83968">
        <ele>67</ele>
        <time>2022-04-09T11:16:35Z</time>
      </trkpt>
      <trkpt lat="47.0985" lon="-1.83946">
        <ele>67</ele>
        <time>2022-04-09T11:16:37Z</time>
      </trkpt>
      <trkpt lat="47.09851" lon="-1.83925">
        <ele>67</ele>
        <time>2022-04-09T11:16:39Z</time>
      </trkpt>
      <trkpt lat="47.09853" lon="-1.83905">
        <ele>66</ele>
        <time>2022-04-09T11:16:41Z</time>
      </trkpt>
      <trkpt lat="47.09855" lon="-1.83885">
        <ele>66</ele>
        <time>2022-04-09T11:16:43Z</time>
      </trkpt>
      <trkpt lat="47.09856" lon="-1.83864">
        <ele>66</ele>
        <time>2022-04-09T11:16:45Z</time>
      </trkpt>
      <trkpt lat="47.09858" lon="-1.83844">
        <ele>66</ele>
        <time>2022-04-09T11:16:47Z</time>
      </trkpt>
      <trkpt lat="47.09858" lon="-1.83824">
        <ele>66</ele>
        <time>2022-04-09T11:16:49Z</time>
      </trkpt>
      <trkpt lat="47.09858" lon="-1.83804">
        <ele>66</ele>
        <time>2022-04-09T11:16:51Z</time>
      </trkpt>
      <trkpt lat="47.09859" lon="-1.83784">
        <ele>66</ele>
        <time>2022-04-09T11:16:53Z</time>
      </trkpt>
      <trkpt lat="47.09859" lon="-1.83764">
        <ele>66</ele>
        <time>2022-04-09T11:16:55Z</time>
      </trkpt>
      <trkpt lat="47.0986" lon="-1.83742">
        <ele>66</ele>
        <time>2022-04-09T11:16:57Z</time>
      </trkpt>
      <trkpt lat="47.0986" lon="-1.83722">
        <ele>65</ele>
        <time>2022-04-09T11:16:59Z</time>
      </trkpt>
      <trkpt lat="47.09861" lon="-1.83701">
        <ele>65</ele>
        <time>2022-04-09T11:17:01Z</time>
      </trkpt>
      <trkpt lat="47.09861" lon="-1.83681">
        <ele>65</ele>
        <time>2022-04-09T11:17:03Z</time>
      </trkpt>
      <trkpt lat="47.09861" lon="-1.8366">
        <ele>65</ele>
        <time>2022-04-09T11:17:05Z</time>
      </trkpt>
      <trkpt lat="47.09861" lon="-1.8364">
        <ele>65</ele>
        <time>2022-04-09T11:17:07Z</time>
      </trkpt>
      <trkpt lat="47.09861" lon="-1.83619">
        <ele>64</ele>
        <time>2022-04-09T11:17:09Z</time>
      </trkpt>
      <trkpt lat="47.09861" lon="-1.83599">
        <ele>64</ele>
        <time>2022-04-09T11:17:11Z</time>
      </trkpt>
      <trkpt lat="47.09859" lon="-1.83579">
        <ele>64</ele>
        <time>2022-04-09T11:17:13Z</time>
      </trkpt>
      <trkpt lat="47.09857" lon="-1.83559">
        <ele>65</ele>
        <time>2022-04-09T11:17:15Z</time>
      </trkpt>
      <trkpt lat="47.09855" lon="-1.83539">
        <ele>65</ele>
        <time>2022-04-09T11:17:17Z</time>
      </trkpt>
      <trkpt lat="47.09854" lon="-1.83519">
        <ele>65</ele>
        <time>2022-04-09T11:17:19Z</time>
      </trkpt>
      <trkpt lat="47.09852" lon="-1.83499">
        <ele>65</ele>
        <time>2022-04-09T11:17:21Z</time>
      </trkpt>
      <trkpt lat="47.09852" lon="-1.83479">
        <ele>65</ele>
        <time>2022-04-09T11:17:23Z</time>
      </trkpt>
      <trkpt lat="47.09853" lon="-1.8346">
        <ele>65</ele>
        <time>2022-04-09T11:17:25Z</time>
      </trkpt>
      <trkpt lat="47.09854" lon="-1.8344">
        <ele>65</ele>
        <time>2022-04-09T11:17:27Z</time>
      </trkpt>
      <trkpt lat="47.09857" lon="-1.8342">
        <ele>65</ele>
        <time>2022-04-09T11:17:29Z</time>
      </trkpt>
      <trkpt lat="47.09861" lon="-1.83402">
        <ele>66</ele>
        <time>2022-04-09T11:17:31Z</time>
      </trkpt>
      <trkpt lat="47.09865" lon="-1.83383">
        <ele>66</ele>
        <time>2022-04-09T11:17:33Z</time>
      </trkpt>
      <trkpt lat="47.09868" lon="-1.83365">
        <ele>65</ele>
        <time>2022-04-09T11:17:35Z</time>
      </trkpt>
      <trkpt lat="47.09872" lon="-1.83346">
        <ele>65</ele>
        <time>2022-04-09T11:17:37Z</time>
      </trkpt>
      <trkpt lat="47.09876" lon="-1.83327">
        <ele>64</ele>
        <time>2022-04-09T11:17:39Z</time>
      </trkpt>
      <trkpt lat="47.09879" lon="-1.83309">
        <ele>64</ele>
        <time>2022-04-09T11:17:41Z</time>
      </trkpt>
      <trkpt lat="47.09881" lon="-1.8329">
        <ele>64</ele>
        <time>2022-04-09T11:17:43Z</time>
      </trkpt>
      <trkpt lat="47.09882" lon="-1.83272">
        <ele>65</ele>
        <time>2022-04-09T11:17:45Z</time>
      </trkpt>
      <trkpt lat="47.09883" lon="-1.83253">
        <ele>65</ele>
        <time>2022-04-09T11:17:47Z</time>
      </trkpt>
      <trkpt lat="47.09883" lon="-1.83234">
        <ele>66</ele>
        <time>2022-04-09T11:17:49Z</time>
      </trkpt>
      <trkpt lat="47.09882" lon="-1.83214">
        <ele>66</ele>
        <time>2022-04-09T11:17:51Z</time>
      </trkpt>
      <trkpt lat="47.0988" lon="-1.83193">
        <ele>67</ele>
        <time>2022-04-09T11:17:53Z</time>
      </trkpt>
      <trkpt lat="47.09878" lon="-1.83172">
        <ele>67</ele>
        <time>2022-04-09T11:17:55Z</time>
      </trkpt>
      <trkpt lat="47.09876" lon="-1.8315">
        <ele>67</ele>
        <time>2022-04-09T11:17:57Z</time>
      </trkpt>
      <trkpt lat="47.09874" lon="-1.8313">
        <ele>68</ele>
        <time>2022-04-09T11:17:59Z</time>
      </trkpt>
      <trkpt lat="47.09871" lon="-1.8311">
        <ele>68</ele>
        <time>2022-04-09T11:18:01Z</time>
      </trkpt>
      <trkpt lat="47.09869" lon="-1.8309">
        <ele>68</ele>
        <time>2022-04-09T11:18:03Z</time>
      </trkpt>
      <trkpt lat="47.09867" lon="-1.8307">
        <ele>68</ele>
        <time>2022-04-09T11:18:05Z</time>
      </trkpt>
      <trkpt lat="47.09865" lon="-1.83049">
        <ele>69</ele>
        <time>2022-04-09T11:18:07Z</time>
      </trkpt>
      <trkpt lat="47.09863" lon="-1.83029">
        <ele>69</ele>
        <time>2022-04-09T11:18:09Z</time>
      </trkpt>
      <trkpt lat="47.09861" lon="-1.83008">
        <ele>69</ele>
        <time>2022-04-09T11:18:11Z</time>
      </trkpt>
      <trkpt lat="47.09859" lon="-1.82987">
        <ele>69</ele>
        <time>2022-04-09T11:18:13Z</time>
      </trkpt>
      <trkpt lat="47.09857" lon="-1.82966">
        <ele>70</ele>
        <time>2022-04-09T11:18:15Z</time>
      </trkpt>
      <trkpt lat="47.09855" lon="-1.82944">
        <ele>70</ele>
        <time>2022-04-09T11:18:17Z</time>
      </trkpt>
      <trkpt lat="47.09853" lon="-1.82924">
        <ele>70</ele>
        <time>2022-04-09T11:18:19Z</time>
      </trkpt>
      <trkpt lat="47.09851" lon="-1.82904">
        <ele>70</ele>
        <time>2022-04-09T11:18:21Z</time>
      </trkpt>
      <trkpt lat="47.0985" lon="-1.82884">
        <ele>71</ele>
        <time>2022-04-09T11:18:23Z</time>
      </trkpt>
      <trkpt lat="47.09849" lon="-1.82865">
        <ele>71</ele>
        <time>2022-04-09T11:18:25Z</time>
      </trkpt>
      <trkpt lat="47.09848" lon="-1.82846">
        <ele>71</ele>
        <time>2022-04-09T11:18:27Z</time>
      </trkpt>
      <trkpt lat="47.09849" lon="-1.82826">
        <ele>71</ele>
        <time>2022-04-09T11:18:29Z</time>
      </trkpt>
      <trkpt lat="47.0985" lon="-1.82806">
        <ele>71</ele>
        <time>2022-04-09T11:18:31Z</time>
      </trkpt>
      <trkpt lat="47.0985" lon="-1.82787">
        <ele>71</ele>
        <time>2022-04-09T11:18:33Z</time>
      </trkpt>
      <trkpt lat="47.09848" lon="-1.82768">
        <ele>71</ele>
        <time>2022-04-09T11:18:35Z</time>
      </trkpt>
      <trkpt lat="47.09846" lon="-1.8275">
        <ele>71</ele>
        <time>2022-04-09T11:18:37Z</time>
      </trkpt>
      <trkpt lat="47.09842" lon="-1.82733">
        <ele>71</ele>
        <time>2022-04-09T11:18:39Z</time>
      </trkpt>
      <trkpt lat="47.09838" lon="-1.82715">
        <ele>71</ele>
        <time>2022-04-09T11:18:41Z</time>
      </trkpt>
      <trkpt lat="47.09834" lon="-1.82697">
        <ele>71</ele>
        <time>2022-04-09T11:18:43Z</time>
      </trkpt>
      <trkpt lat="47.0983" lon="-1.8268">
        <ele>71</ele>
        <time>2022-04-09T11:18:45Z</time>
      </trkpt>
      <trkpt lat="47.09827" lon="-1.82662">
        <ele>71</ele>
        <time>2022-04-09T11:18:47Z</time>
      </trkpt>
      <trkpt lat="47.09823" lon="-1.82644">
        <ele>71</ele>
        <time>2022-04-09T11:18:49Z</time>
      </trkpt>
      <trkpt lat="47.09819" lon="-1.82626">
        <ele>70</ele>
        <time>2022-04-09T11:18:51Z</time>
      </trkpt>
      <trkpt lat="47.09816" lon="-1.82607">
        <ele>70</ele>
        <time>2022-04-09T11:18:53Z</time>
      </trkpt>
      <trkpt lat="47.09813" lon="-1.82589">
        <ele>70</ele>
        <time>2022-04-09T11:18:55Z</time>
      </trkpt>
      <trkpt lat="47.0981" lon="-1.8257">
        <ele>70</ele>
        <time>2022-04-09T11:18:57Z</time>
      </trkpt>
      <trkpt lat="47.09807" lon="-1.82551">
        <ele>70</ele>
        <time>2022-04-09T11:18:59Z</time>
      </trkpt>
      <trkpt lat="47.09805" lon="-1.82531">
        <ele>70</ele>
        <time>2022-04-09T11:19:01Z</time>
      </trkpt>
      <trkpt lat="47.09803" lon="-1.82512">
        <ele>70</ele>
        <time>2022-04-09T11:19:03Z</time>
      </trkpt>
      <trkpt lat="47.09801" lon="-1.82494">
        <ele>70</ele>
        <time>2022-04-09T11:19:05Z</time>
      </trkpt>
      <trkpt lat="47.09799" lon="-1.82475">
        <ele>70</ele>
        <time>2022-04-09T11:19:07Z</time>
      </trkpt>
      <trkpt lat="47.09797" lon="-1.82456">
        <ele>70</ele>
        <time>2022-04-09T11:19:09Z</time>
      </trkpt>
      <trkpt lat="47.09795" lon="-1.82437">
        <ele>69</ele>
        <time>2022-04-09T11:19:11Z</time>
      </trkpt>
      <trkpt lat="47.09792" lon="-1.82417">
        <ele>70</ele>
        <time>2022-04-09T11:19:13Z</time>
      </trkpt>
      <trkpt lat="47.09789" lon="-1.82399">
        <ele>70</ele>
        <time>2022-04-09T11:19:15Z</time>
      </trkpt>
      <trkpt lat="47.09785" lon="-1.8238">
        <ele>69</ele>
        <time>2022-04-09T11:19:17Z</time>
      </trkpt>
      <trkpt lat="47.09779" lon="-1.82362">
        <ele>69</ele>
        <time>2022-04-09T11:19:19Z</time>
      </trkpt>
      <trkpt lat="47.09774" lon="-1.82345">
        <ele>69</ele>
        <time>2022-04-09T11:19:21Z</time>
      </trkpt>
      <trkpt lat="47.09767" lon="-1.82328">
        <ele>69</ele>
        <time>2022-04-09T11:19:23Z</time>
      </trkpt>
      <trkpt lat="47.09761" lon="-1.82312">
        <ele>69</ele>
        <time>2022-04-09T11:19:25Z</time>
      </trkpt>
      <trkpt lat="47.09754" lon="-1.82295">
        <ele>69</ele>
        <time>2022-04-09T11:19:27Z</time>
      </trkpt>
      <trkpt lat="47.09748" lon="-1.82279">
        <ele>69</ele>
        <time>2022-04-09T11:19:29Z</time>
      </trkpt>
      <trkpt lat="47.09742" lon="-1.82262">
        <ele>69</ele>
        <time>2022-04-09T11:19:31Z</time>
      </trkpt>
      <trkpt lat="47.09734" lon="-1.82247">
        <ele>69</ele>
        <time>2022-04-09T11:19:33Z</time>
      </trkpt>
      <trkpt lat="47.09727" lon="-1.82231">
        <ele>70</ele>
        <time>2022-04-09T11:19:35Z</time>
      </trkpt>
      <trkpt lat="47.0972" lon="-1.82215">
        <ele>70</ele>
        <time>2022-04-09T11:19:37Z</time>
      </trkpt>
      <trkpt lat="47.09713" lon="-1.82201">
        <ele>70</ele>
        <time>2022-04-09T11:19:39Z</time>
      </trkpt>
      <trkpt lat="47.09706" lon="-1.82186">
        <ele>70</ele>
        <time>2022-04-09T11:19:41Z</time>
      </trkpt>
      <trkpt lat="47.097" lon="-1.82172">
        <ele>70</ele>
        <time>2022-04-09T11:19:43Z</time>
      </trkpt>
      <trkpt lat="47.09694" lon="-1.8216">
        <ele>70</ele>
        <time>2022-04-09T11:19:45Z</time>
      </trkpt>
      <trkpt lat="47.09694" lon="-1.82145">
        <ele>70</ele>
        <time>2022-04-09T11:19:47Z</time>
      </trkpt>
      <trkpt lat="47.09699" lon="-1.82128">
        <ele>70</ele>
        <time>2022-04-09T11:19:49Z</time>
      </trkpt>
      <trkpt lat="47.09704" lon="-1.82111">
        <ele>70</ele>
        <time>2022-04-09T11:19:51Z</time>
      </trkpt>
      <trkpt lat="47.09709" lon="-1.82094">
        <ele>70</ele>
        <time>2022-04-09T11:19:53Z</time>
      </trkpt>
      <trkpt lat="47.09714" lon="-1.82077">
        <ele>70</ele>
        <time>2022-04-09T11:19:55Z</time>
      </trkpt>
      <trkpt lat="47.09719" lon="-1.82059">
        <ele>70</ele>
        <time>2022-04-09T11:19:57Z</time>
      </trkpt>
      <trkpt lat="47.09724" lon="-1.82042">
        <ele>70</ele>
        <time>2022-04-09T11:19:59Z</time>
      </trkpt>
      <trkpt lat="47.09729" lon="-1.82025">
        <ele>70</ele>
        <time>2022-04-09T11:20:01Z</time>
      </trkpt>
      <trkpt lat="47.09734" lon="-1.82009">
        <ele>70</ele>
        <time>2022-04-09T11:20:03Z</time>
      </trkpt>
      <trkpt lat="47.09739" lon="-1.81993">
        <ele>70</ele>
        <time>2022-04-09T11:20:05Z</time>
      </trkpt>
      <trkpt lat="47.09731" lon="-1.81983">
        <ele>70</ele>
        <time>2022-04-09T11:20:07Z</time>
      </trkpt>
      <trkpt lat="47.09721" lon="-1.81992">
        <ele>70</ele>
        <time>2022-04-09T11:20:09Z</time>
      </trkpt>
      <trkpt lat="47.0971" lon="-1.82002">
        <ele>70</ele>
        <time>2022-04-09T11:20:11Z</time>
      </trkpt>
      <trkpt lat="47.09699" lon="-1.82012">
        <ele>71</ele>
        <time>2022-04-09T11:20:13Z</time>
      </trkpt>
      <trkpt lat="47.09688" lon="-1.82023">
        <ele>71</ele>
        <time>2022-04-09T11:20:15Z</time>
      </trkpt>
      <trkpt lat="47.09678" lon="-1.82033">
        <ele>71</ele>
        <time>2022-04-09T11:20:17Z</time>
      </trkpt>
      <trkpt lat="47.09666" lon="-1.82042">
        <ele>70</ele>
        <time>2022-04-09T11:20:19Z</time>
      </trkpt>
      <trkpt lat="47.09653" lon="-1.82044">
        <ele>70</ele>
        <time>2022-04-09T11:20:21Z</time>
      </trkpt>
      <trkpt lat="47.09642" lon="-1.82031">
        <ele>70</ele>
        <time>2022-04-09T11:20:23Z</time>
      </trkpt>
      <trkpt lat="47.09635" lon="-1.82014">
        <ele>69</ele>
        <time>2022-04-09T11:20:25Z</time>
      </trkpt>
      <trkpt lat="47.09627" lon="-1.81998">
        <ele>68</ele>
        <time>2022-04-09T11:20:27Z</time>
      </trkpt>
      <trkpt lat="47.09619" lon="-1.81982">
        <ele>68</ele>
        <time>2022-04-09T11:20:29Z</time>
      </trkpt>
      <trkpt lat="47.0961" lon="-1.81967">
        <ele>69</ele>
        <time>2022-04-09T11:20:31Z</time>
      </trkpt>
      <trkpt lat="47.09601" lon="-1.81952">
        <ele>69</ele>
        <time>2022-04-09T11:20:33Z</time>
      </trkpt>
      <trkpt lat="47.09593" lon="-1.81937">
        <ele>69</ele>
        <time>2022-04-09T11:20:35Z</time>
      </trkpt>
      <trkpt lat="47.09584" lon="-1.81922">
        <ele>70</ele>
        <time>2022-04-09T11:20:37Z</time>
      </trkpt>
      <trkpt lat="47.09575" lon="-1.81907">
        <ele>69</ele>
        <time>2022-04-09T11:20:39Z</time>
      </trkpt>
      <trkpt lat="47.09566" lon="-1.81891">
        <ele>69</ele>
        <time>2022-04-09T11:20:41Z</time>
      </trkpt>
      <trkpt lat="47.09557" lon="-1.81877">
        <ele>69</ele>
        <time>2022-04-09T11:20:43Z</time>
      </trkpt>
      <trkpt lat="47.09549" lon="-1.81862">
        <ele>70</ele>
        <time>2022-04-09T11:20:45Z</time>
      </trkpt>
      <trkpt lat="47.0954" lon="-1.81847">
        <ele>70</ele>
        <time>2022-04-09T11:20:47Z</time>
      </trkpt>
      <trkpt lat="47.09531" lon="-1.81832">
        <ele>70</ele>
        <time>2022-04-09T11:20:49Z</time>
      </trkpt>
      <trkpt lat="47.09524" lon="-1.81816">
        <ele>70</ele>
        <time>2022-04-09T11:20:51Z</time>
      </trkpt>
      <trkpt lat="47.09516" lon="-1.81799">
        <ele>70</ele>
        <time>2022-04-09T11:20:53Z</time>
      </trkpt>
      <trkpt lat="47.0951" lon="-1.81781">
        <ele>69</ele>
        <time>2022-04-09T11:20:55Z</time>
      </trkpt>
      <trkpt lat="47.09504" lon="-1.81763">
        <ele>70</ele>
        <time>2022-04-09T11:20:57Z</time>
      </trkpt>
      <trkpt lat="47.09498" lon="-1.81745">
        <ele>69</ele>
        <time>2022-04-09T11:20:59Z</time>
      </trkpt>
      <trkpt lat="47.09493" lon="-1.81726">
        <ele>69</ele>
        <time>2022-04-09T11:21:01Z</time>
      </trkpt>
      <trkpt lat="47.09488" lon="-1.81708">
        <ele>69</ele>
        <time>2022-04-09T11:21:03Z</time>
      </trkpt>
      <trkpt lat="47.09483" lon="-1.81689">
        <ele>70</ele>
        <time>2022-04-09T11:21:05Z</time>
      </trkpt>
      <trkpt lat="47.09479" lon="-1.81671">
        <ele>70</ele>
        <time>2022-04-09T11:21:07Z</time>
      </trkpt>
      <trkpt lat="47.09474" lon="-1.81652">
        <ele>70</ele>
        <time>2022-04-09T11:21:09Z</time>
      </trkpt>
      <trkpt lat="47.0947" lon="-1.81633">
        <ele>70</ele>
        <time>2022-04-09T11:21:11Z</time>
      </trkpt>
      <trkpt lat="47.09467" lon="-1.81614">
        <ele>70</ele>
        <time>2022-04-09T11:21:13Z</time>
      </trkpt>
      <trkpt lat="47.09463" lon="-1.81594">
        <ele>70</ele>
        <time>2022-04-09T11:21:15Z</time>
      </trkpt>
      <trkpt lat="47.09458" lon="-1.81575">
        <ele>69</ele>
        <time>2022-04-09T11:21:17Z</time>
      </trkpt>
      <trkpt lat="47.09453" lon="-1.81555">
        <ele>69</ele>
        <time>2022-04-09T11:21:19Z</time>
      </trkpt>
      <trkpt lat="47.09447" lon="-1.81536">
        <ele>68</ele>
        <time>2022-04-09T11:21:21Z</time>
      </trkpt>
      <trkpt lat="47.09441" lon="-1.81516">
        <ele>68</ele>
        <time>2022-04-09T11:21:23Z</time>
      </trkpt>
      <trkpt lat="47.09434" lon="-1.81497">
        <ele>67</ele>
        <time>2022-04-09T11:21:25Z</time>
      </trkpt>
      <trkpt lat="47.09428" lon="-1.81477">
        <ele>66</ele>
        <time>2022-04-09T11:21:27Z</time>
      </trkpt>
      <trkpt lat="47.09421" lon="-1.81456">
        <ele>66</ele>
        <time>2022-04-09T11:21:29Z</time>
      </trkpt>
      <trkpt lat="47.09414" lon="-1.81435">
        <ele>66</ele>
        <time>2022-04-09T11:21:31Z</time>
      </trkpt>
      <trkpt lat="47.09408" lon="-1.81414">
        <ele>65</ele>
        <time>2022-04-09T11:21:33Z</time>
      </trkpt>
      <trkpt lat="47.09401" lon="-1.81393">
        <ele>65</ele>
        <time>2022-04-09T11:21:35Z</time>
      </trkpt>
      <trkpt lat="47.09393" lon="-1.81371">
        <ele>64</ele>
        <time>2022-04-09T11:21:37Z</time>
      </trkpt>
      <trkpt lat="47.09384" lon="-1.8135">
        <ele>64</ele>
        <time>2022-04-09T11:21:39Z</time>
      </trkpt>
      <trkpt lat="47.09374" lon="-1.81331">
        <ele>63</ele>
        <time>2022-04-09T11:21:41Z</time>
      </trkpt>
      <trkpt lat="47.09363" lon="-1.81313">
        <ele>63</ele>
        <time>2022-04-09T11:21:43Z</time>
      </trkpt>
      <trkpt lat="47.09352" lon="-1.81296">
        <ele>63</ele>
        <time>2022-04-09T11:21:45Z</time>
      </trkpt>
      <trkpt lat="47.09341" lon="-1.81278">
        <ele>63</ele>
        <time>2022-04-09T11:21:47Z</time>
      </trkpt>
      <trkpt lat="47.09329" lon="-1.81262">
        <ele>63</ele>
        <time>2022-04-09T11:21:49Z</time>
      </trkpt>
      <trkpt lat="47.09318" lon="-1.81245">
        <ele>62</ele>
        <time>2022-04-09T11:21:51Z</time>
      </trkpt>
      <trkpt lat="47.09307" lon="-1.81228">
        <ele>62</ele>
        <time>2022-04-09T11:21:53Z</time>
      </trkpt>
      <trkpt lat="47.09297" lon="-1.81211">
        <ele>62</ele>
        <time>2022-04-09T11:21:55Z</time>
      </trkpt>
      <trkpt lat="47.09286" lon="-1.81194">
        <ele>61</ele>
        <time>2022-04-09T11:21:57Z</time>
      </trkpt>
      <trkpt lat="47.09275" lon="-1.81176">
        <ele>60</ele>
        <time>2022-04-09T11:21:59Z</time>
      </trkpt>
      <trkpt lat="47.09264" lon="-1.81159">
        <ele>60</ele>
        <time>2022-04-09T11:22:01Z</time>
      </trkpt>
      <trkpt lat="47.09253" lon="-1.81141">
        <ele>60</ele>
        <time>2022-04-09T11:22:03Z</time>
      </trkpt>
      <trkpt lat="47.09241" lon="-1.81123">
        <ele>59</ele>
        <time>2022-04-09T11:22:05Z</time>
      </trkpt>
      <trkpt lat="47.09229" lon="-1.81106">
        <ele>58</ele>
        <time>2022-04-09T11:22:07Z</time>
      </trkpt>
      <trkpt lat="47.09217" lon="-1.8109">
        <ele>58</ele>
        <time>2022-04-09T11:22:09Z</time>
      </trkpt>
      <trkpt lat="47.09203" lon="-1.81077">
        <ele>58</ele>
        <time>2022-04-09T11:22:11Z</time>
      </trkpt>
      <trkpt lat="47.0919" lon="-1.81066">
        <ele>58</ele>
        <time>2022-04-09T11:22:13Z</time>
      </trkpt>
      <trkpt lat="47.09177" lon="-1.81055">
        <ele>58</ele>
        <time>2022-04-09T11:22:15Z</time>
      </trkpt>
      <trkpt lat="47.09163" lon="-1.81046">
        <ele>58</ele>
        <time>2022-04-09T11:22:17Z</time>
      </trkpt>
      <trkpt lat="47.0915" lon="-1.81036">
        <ele>58</ele>
        <time>2022-04-09T11:22:19Z</time>
      </trkpt>
      <trkpt lat="47.09138" lon="-1.81026">
        <ele>59</ele>
        <time>2022-04-09T11:22:21Z</time>
      </trkpt>
      <trkpt lat="47.09126" lon="-1.81017">
        <ele>59</ele>
        <time>2022-04-09T11:22:23Z</time>
      </trkpt>
      <trkpt lat="47.09114" lon="-1.81009">
        <ele>59</ele>
        <time>2022-04-09T11:22:25Z</time>
      </trkpt>
      <trkpt lat="47.09102" lon="-1.81">
        <ele>59</ele>
        <time>2022-04-09T11:22:27Z</time>
      </trkpt>
      <trkpt lat="47.0909" lon="-1.80991">
        <ele>60</ele>
        <time>2022-04-09T11:22:29Z</time>
      </trkpt>
      <trkpt lat="47.09078" lon="-1.80982">
        <ele>59</ele>
        <time>2022-04-09T11:22:31Z</time>
      </trkpt>
      <trkpt lat="47.09066" lon="-1.80974">
        <ele>60</ele>
        <time>2022-04-09T11:22:33Z</time>
      </trkpt>
      <trkpt lat="47.09054" lon="-1.80965">
        <ele>60</ele>
        <time>2022-04-09T11:22:35Z</time>
      </trkpt>
      <trkpt lat="47.09043" lon="-1.80957">
        <ele>60</ele>
        <time>2022-04-09T11:22:37Z</time>
      </trkpt>
      <trkpt lat="47.09031" lon="-1.80948">
        <ele>60</ele>
        <time>2022-04-09T11:22:39Z</time>
      </trkpt>
      <trkpt lat="47.09019" lon="-1.80939">
        <ele>60</ele>
        <time>2022-04-09T11:22:41Z</time>
      </trkpt>
      <trkpt lat="47.09008" lon="-1.8093">
        <ele>60</ele>
        <time>2022-04-09T11:22:43Z</time>
      </trkpt>
      <trkpt lat="47.08996" lon="-1.80922">
        <ele>60</ele>
        <time>2022-04-09T11:22:45Z</time>
      </trkpt>
      <trkpt lat="47.08984" lon="-1.80913">
        <ele>60</ele>
        <time>2022-04-09T11:22:47Z</time>
      </trkpt>
      <trkpt lat="47.08973" lon="-1.80905">
        <ele>61</ele>
        <time>2022-04-09T11:22:49Z</time>
      </trkpt>
      <trkpt lat="47.08961" lon="-1.80896">
        <ele>61</ele>
        <time>2022-04-09T11:22:51Z</time>
      </trkpt>
      <trkpt lat="47.0895" lon="-1.80888">
        <ele>61</ele>
        <time>2022-04-09T11:22:53Z</time>
      </trkpt>
      <trkpt lat="47.08939" lon="-1.80878">
        <ele>61</ele>
        <time>2022-04-09T11:22:55Z</time>
      </trkpt>
      <trkpt lat="47.08929" lon="-1.80867">
        <ele>61</ele>
        <time>2022-04-09T11:22:57Z</time>
      </trkpt>
      <trkpt lat="47.08918" lon="-1.80855">
        <ele>62</ele>
        <time>2022-04-09T11:22:59Z</time>
      </trkpt>
      <trkpt lat="47.08909" lon="-1.80843">
        <ele>63</ele>
        <time>2022-04-09T11:23:01Z</time>
      </trkpt>
      <trkpt lat="47.08901" lon="-1.80829">
        <ele>64</ele>
        <time>2022-04-09T11:23:03Z</time>
      </trkpt>
      <trkpt lat="47.08893" lon="-1.80814">
        <ele>64</ele>
        <time>2022-04-09T11:23:05Z</time>
      </trkpt>
      <trkpt lat="47.08886" lon="-1.80801">
        <ele>64</ele>
        <time>2022-04-09T11:23:07Z</time>
      </trkpt>
      <trkpt lat="47.08878" lon="-1.80787">
        <ele>64</ele>
        <time>2022-04-09T11:23:09Z</time>
      </trkpt>
      <trkpt lat="47.0887" lon="-1.80773">
        <ele>65</ele>
        <time>2022-04-09T11:23:11Z</time>
      </trkpt>
      <trkpt lat="47.08862" lon="-1.8076">
        <ele>65</ele>
        <time>2022-04-09T11:23:13Z</time>
      </trkpt>
      <trkpt lat="47.08855" lon="-1.80746">
        <ele>66</ele>
        <time>2022-04-09T11:23:15Z</time>
      </trkpt>
      <trkpt lat="47.08847" lon="-1.80732">
        <ele>66</ele>
        <time>2022-04-09T11:23:17Z</time>
      </trkpt>
      <trkpt lat="47.0884" lon="-1.80717">
        <ele>66</ele>
        <time>2022-04-09T11:23:19Z</time>
      </trkpt>
      <trkpt lat="47.08831" lon="-1.80703">
        <ele>66</ele>
        <time>2022-04-09T11:23:21Z</time>
      </trkpt>
      <trkpt lat="47.08823" lon="-1.80689">
        <ele>66</ele>
        <time>2022-04-09T11:23:23Z</time>
      </trkpt>
      <trkpt lat="47.08815" lon="-1.80674">
        <ele>66</ele>
        <time>2022-04-09T11:23:25Z</time>
      </trkpt>
      <trkpt lat="47.08806" lon="-1.8066">
        <ele>66</ele>
        <time>2022-04-09T11:23:27Z</time>
      </trkpt>
      <trkpt lat="47.08798" lon="-1.80646">
        <ele>66</ele>
        <time>2022-04-09T11:23:29Z</time>
      </trkpt>
      <trkpt lat="47.0879" lon="-1.80633">
        <ele>67</ele>
        <time>2022-04-09T11:23:31Z</time>
      </trkpt>
      <trkpt lat="47.08781" lon="-1.80621">
        <ele>67</ele>
        <time>2022-04-09T11:23:33Z</time>
      </trkpt>
      <trkpt lat="47.08771" lon="-1.80608">
        <ele>67</ele>
        <time>2022-04-09T11:23:35Z</time>
      </trkpt>
      <trkpt lat="47.08761" lon="-1.80597">
        <ele>68</ele>
        <time>2022-04-09T11:23:37Z</time>
      </trkpt>
      <trkpt lat="47.08751" lon="-1.80587">
        <ele>67</ele>
        <time>2022-04-09T11:23:39Z</time>
      </trkpt>
      <trkpt lat="47.0874" lon="-1.80578">
        <ele>68</ele>
        <time>2022-04-09T11:23:41Z</time>
      </trkpt>
      <trkpt lat="47.08729" lon="-1.80569">
        <ele>67</ele>
        <time>2022-04-09T11:23:43Z</time>
      </trkpt>
      <trkpt lat="47.08718" lon="-1.80561">
        <ele>67</ele>
        <time>2022-04-09T11:23:45Z</time>
      </trkpt>
      <trkpt lat="47.08707" lon="-1.80552">
        <ele>68</ele>
        <time>2022-04-09T11:23:47Z</time>
      </trkpt>
      <trkpt lat="47.08696" lon="-1.80544">
        <ele>68</ele>
        <time>2022-04-09T11:23:49Z</time>
      </trkpt>
      <trkpt lat="47.08685" lon="-1.80535">
        <ele>68</ele>
        <time>2022-04-09T11:23:51Z</time>
      </trkpt>
      <trkpt lat="47.08674" lon="-1.80527">
        <ele>68</ele>
        <time>2022-04-09T11:23:53Z</time>
      </trkpt>
      <trkpt lat="47.08662" lon="-1.80521">
        <ele>69</ele>
        <time>2022-04-09T11:23:55Z</time>
      </trkpt>
      <trkpt lat="47.0865" lon="-1.80515">
        <ele>69</ele>
        <time>2022-04-09T11:23:57Z</time>
      </trkpt>
      <trkpt lat="47.08638" lon="-1.80511">
        <ele>69</ele>
        <time>2022-04-09T11:23:59Z</time>
      </trkpt>
      <trkpt lat="47.08626" lon="-1.80508">
        <ele>69</ele>
        <time>2022-04-09T11:24:01Z</time>
      </trkpt>
      <trkpt lat="47.08614" lon="-1.80505">
        <ele>69</ele>
        <time>2022-04-09T11:24:03Z</time>
      </trkpt>
      <trkpt lat="47.08601" lon="-1.80502">
        <ele>69</ele>
        <time>2022-04-09T11:24:05Z</time>
      </trkpt>
      <trkpt lat="47.08589" lon="-1.80499">
        <ele>70</ele>
        <time>2022-04-09T11:24:07Z</time>
      </trkpt>
      <trkpt lat="47.08577" lon="-1.80496">
        <ele>70</ele>
        <time>2022-04-09T11:24:09Z</time>
      </trkpt>
      <trkpt lat="47.08564" lon="-1.80493">
        <ele>71</ele>
        <time>2022-04-09T11:24:11Z</time>
      </trkpt>
      <trkpt lat="47.08552" lon="-1.80489">
        <ele>72</ele>
        <time>2022-04-09T11:24:13Z</time>
      </trkpt>
      <trkpt lat="47.08539" lon="-1.80486">
        <ele>72</ele>
        <time>2022-04-09T11:24:15Z</time>
      </trkpt>
      <trkpt lat="47.08527" lon="-1.80483">
        <ele>72</ele>
        <time>2022-04-09T11:24:17Z</time>
      </trkpt>
      <trkpt lat="47.08514" lon="-1.8048">
        <ele>72</ele>
        <time>2022-04-09T11:24:19Z</time>
      </trkpt>
      <trkpt lat="47.08502" lon="-1.80477">
        <ele>72</ele>
        <time>2022-04-09T11:24:21Z</time>
      </trkpt>
      <trkpt lat="47.08489" lon="-1.80474">
        <ele>72</ele>
        <time>2022-04-09T11:24:23Z</time>
      </trkpt>
      <trkpt lat="47.08477" lon="-1.80472">
        <ele>72</ele>
        <time>2022-04-09T11:24:25Z</time>
      </trkpt>
      <trkpt lat="47.08464" lon="-1.80471">
        <ele>72</ele>
        <time>2022-04-09T11:24:27Z</time>
      </trkpt>
      <trkpt lat="47.08451" lon="-1.80471">
        <ele>72</ele>
        <time>2022-04-09T11:24:29Z</time>
      </trkpt>
      <trkpt lat="47.08439" lon="-1.8047">
        <ele>72</ele>
        <time>2022-04-09T11:24:31Z</time>
      </trkpt>
      <trkpt lat="47.08426" lon="-1.8047">
        <ele>73</ele>
        <time>2022-04-09T11:24:33Z</time>
      </trkpt>
      <trkpt lat="47.08413" lon="-1.80471">
        <ele>73</ele>
        <time>2022-04-09T11:24:35Z</time>
      </trkpt>
      <trkpt lat="47.084" lon="-1.80471">
        <ele>74</ele>
        <time>2022-04-09T11:24:37Z</time>
      </trkpt>
      <trkpt lat="47.08388" lon="-1.80471">
        <ele>74</ele>
        <time>2022-04-09T11:24:39Z</time>
      </trkpt>
      <trkpt lat="47.08375" lon="-1.80471">
        <ele>74</ele>
        <time>2022-04-09T11:24:41Z</time>
      </trkpt>
      <trkpt lat="47.08363" lon="-1.80472">
        <ele>74</ele>
        <time>2022-04-09T11:24:43Z</time>
      </trkpt>
      <trkpt lat="47.0835" lon="-1.80472">
        <ele>74</ele>
        <time>2022-04-09T11:24:45Z</time>
      </trkpt>
      <trkpt lat="47.08337" lon="-1.80473">
        <ele>74</ele>
        <time>2022-04-09T11:24:47Z</time>
      </trkpt>
      <trkpt lat="47.08325" lon="-1.80476">
        <ele>74</ele>
        <time>2022-04-09T11:24:49Z</time>
      </trkpt>
      <trkpt lat="47.08312" lon="-1.80479">
        <ele>74</ele>
        <time>2022-04-09T11:24:51Z</time>
      </trkpt>
      <trkpt lat="47.083" lon="-1.80483">
        <ele>73</ele>
        <time>2022-04-09T11:24:53Z</time>
      </trkpt>
      <trkpt lat="47.08286" lon="-1.80488">
        <ele>73</ele>
        <time>2022-04-09T11:24:55Z</time>
      </trkpt>
      <trkpt lat="47.08273" lon="-1.80492">
        <ele>73</ele>
        <time>2022-04-09T11:24:57Z</time>
      </trkpt>
      <trkpt lat="47.08259" lon="-1.80497">
        <ele>73</ele>
        <time>2022-04-09T11:24:59Z</time>
      </trkpt>
      <trkpt lat="47.08245" lon="-1.80502">
        <ele>73</ele>
        <time>2022-04-09T11:25:01Z</time>
      </trkpt>
      <trkpt lat="47.08231" lon="-1.80507">
        <ele>72</ele>
        <time>2022-04-09T11:25:03Z</time>
      </trkpt>
      <trkpt lat="47.08217" lon="-1.80513">
        <ele>72</ele>
        <time>2022-04-09T11:25:05Z</time>
      </trkpt>
      <trkpt lat="47.08203" lon="-1.80519">
        <ele>71</ele>
        <time>2022-04-09T11:25:07Z</time>
      </trkpt>
      <trkpt lat="47.08188" lon="-1.80526">
        <ele>70</ele>
        <time>2022-04-09T11:25:09Z</time>
      </trkpt>
      <trkpt lat="47.08173" lon="-1.80533">
        <ele>70</ele>
        <time>2022-04-09T11:25:11Z</time>
      </trkpt>
      <trkpt lat="47.08158" lon="-1.80539">
        <ele>70</ele>
        <time>2022-04-09T11:25:13Z</time>
      </trkpt>
      <trkpt lat="47.08143" lon="-1.80545">
        <ele>69</ele>
        <time>2022-04-09T11:25:15Z</time>
      </trkpt>
      <trkpt lat="47.08127" lon="-1.8055">
        <ele>68</ele>
        <time>2022-04-09T11:25:17Z</time>
      </trkpt>
      <trkpt lat="47.08111" lon="-1.80555">
        <ele>68</ele>
        <time>2022-04-09T11:25:19Z</time>
      </trkpt>
      <trkpt lat="47.08096" lon="-1.80559">
        <ele>67</ele>
        <time>2022-04-09T11:25:21Z</time>
      </trkpt>
      <trkpt lat="47.0808" lon="-1.80564">
        <ele>67</ele>
        <time>2022-04-09T11:25:23Z</time>
      </trkpt>
      <trkpt lat="47.08063" lon="-1.80568">
        <ele>67</ele>
        <time>2022-04-09T11:25:25Z</time>
      </trkpt>
      <trkpt lat="47.08047" lon="-1.80573">
        <ele>67</ele>
        <time>2022-04-09T11:25:27Z</time>
      </trkpt>
      <trkpt lat="47.08032" lon="-1.80576">
        <ele>67</ele>
        <time>2022-04-09T11:25:29Z</time>
      </trkpt>
      <trkpt lat="47.08016" lon="-1.8058">
        <ele>67</ele>
        <time>2022-04-09T11:25:31Z</time>
      </trkpt>
      <trkpt lat="47.08001" lon="-1.80582">
        <ele>67</ele>
        <time>2022-04-09T11:25:33Z</time>
      </trkpt>
      <trkpt lat="47.07985" lon="-1.80583">
        <ele>67</ele>
        <time>2022-04-09T11:25:35Z</time>
      </trkpt>
      <trkpt lat="47.0797" lon="-1.80581">
        <ele>67</ele>
        <time>2022-04-09T11:25:37Z</time>
      </trkpt>
      <trkpt lat="47.07956" lon="-1.80577">
        <ele>67</ele>
        <time>2022-04-09T11:25:39Z</time>
      </trkpt>
      <trkpt lat="47.07942" lon="-1.80567">
        <ele>67</ele>
        <time>2022-04-09T11:25:41Z</time>
      </trkpt>
      <trkpt lat="47.07932" lon="-1.80552">
        <ele>67</ele>
        <time>2022-04-09T11:25:43Z</time>
      </trkpt>
      <trkpt lat="47.07924" lon="-1.80534">
        <ele>67</ele>
        <time>2022-04-09T11:25:45Z</time>
      </trkpt>
      <trkpt lat="47.07916" lon="-1.80515">
        <ele>67</ele>
        <time>2022-04-09T11:25:47Z</time>
      </trkpt>
      <trkpt lat="47.07909" lon="-1.80495">
        <ele>67</ele>
        <time>2022-04-09T11:25:49Z</time>
      </trkpt>
      <trkpt lat="47.07905" lon="-1.80474">
        <ele>67</ele>
        <time>2022-04-09T11:25:51Z</time>
      </trkpt>
      <trkpt lat="47.07903" lon="-1.80451">
        <ele>66</ele>
        <time>2022-04-09T11:25:53Z</time>
      </trkpt>
      <trkpt lat="47.07902" lon="-1.80429">
        <ele>66</ele>
        <time>2022-04-09T11:25:55Z</time>
      </trkpt>
      <trkpt lat="47.07902" lon="-1.80407">
        <ele>66</ele>
        <time>2022-04-09T11:25:57Z</time>
      </trkpt>
      <trkpt lat="47.07902" lon="-1.80384">
        <ele>66</ele>
        <time>2022-04-09T11:25:59Z</time>
      </trkpt>
      <trkpt lat="47.07903" lon="-1.80362">
        <ele>66</ele>
        <time>2022-04-09T11:26:01Z</time>
      </trkpt>
      <trkpt lat="47.07903" lon="-1.8034">
        <ele>66</ele>
        <time>2022-04-09T11:26:03Z</time>
      </trkpt>
      <trkpt lat="47.07903" lon="-1.80319">
        <ele>66</ele>
        <time>2022-04-09T11:26:05Z</time>
      </trkpt>
      <trkpt lat="47.07903" lon="-1.80298">
        <ele>66</ele>
        <time>2022-04-09T11:26:07Z</time>
      </trkpt>
      <trkpt lat="47.07903" lon="-1.80277">
        <ele>67</ele>
        <time>2022-04-09T11:26:09Z</time>
      </trkpt>
      <trkpt lat="47.07903" lon="-1.80257">
        <ele>67</ele>
        <time>2022-04-09T11:26:11Z</time>
      </trkpt>
      <trkpt lat="47.07902" lon="-1.80236">
        <ele>67</ele>
        <time>2022-04-09T11:26:13Z</time>
      </trkpt>
      <trkpt lat="47.07902" lon="-1.80216">
        <ele>67</ele>
        <time>2022-04-09T11:26:15Z</time>
      </trkpt>
      <trkpt lat="47.07901" lon="-1.80195">
        <ele>66</ele>
        <time>2022-04-09T11:26:17Z</time>
      </trkpt>
      <trkpt lat="47.07901" lon="-1.80173">
        <ele>66</ele>
        <time>2022-04-09T11:26:19Z</time>
      </trkpt>
      <trkpt lat="47.07901" lon="-1.80152">
        <ele>66</ele>
        <time>2022-04-09T11:26:21Z</time>
      </trkpt>
      <trkpt lat="47.07901" lon="-1.80131">
        <ele>65</ele>
        <time>2022-04-09T11:26:23Z</time>
      </trkpt>
      <trkpt lat="47.079" lon="-1.80111">
        <ele>66</ele>
        <time>2022-04-09T11:26:25Z</time>
      </trkpt>
      <trkpt lat="47.079" lon="-1.80091">
        <ele>66</ele>
        <time>2022-04-09T11:26:27Z</time>
      </trkpt>
      <trkpt lat="47.079" lon="-1.8007">
        <ele>65</ele>
        <time>2022-04-09T11:26:29Z</time>
      </trkpt>
      <trkpt lat="47.07899" lon="-1.8005">
        <ele>65</ele>
        <time>2022-04-09T11:26:31Z</time>
      </trkpt>
      <trkpt lat="47.07896" lon="-1.80029">
        <ele>65</ele>
        <time>2022-04-09T11:26:33Z</time>
      </trkpt>
      <trkpt lat="47.07891" lon="-1.80011">
        <ele>65</ele>
        <time>2022-04-09T11:26:35Z</time>
      </trkpt>
      <trkpt lat="47.0789" lon="-1.79991">
        <ele>65</ele>
        <time>2022-04-09T11:26:37Z</time>
      </trkpt>
      <trkpt lat="47.07897" lon="-1.79972">
        <ele>65</ele>
        <time>2022-04-09T11:26:39Z</time>
      </trkpt>
      <trkpt lat="47.07903" lon="-1.79952">
        <ele>65</ele>
        <time>2022-04-09T11:26:41Z</time>
      </trkpt>
      <trkpt lat="47.07908" lon="-1.79931">
        <ele>65</ele>
        <time>2022-04-09T11:26:43Z</time>
      </trkpt>
      <trkpt lat="47.07914" lon="-1.79911">
        <ele>65</ele>
        <time>2022-04-09T11:26:45Z</time>
      </trkpt>
      <trkpt lat="47.07921" lon="-1.79892">
        <ele>65</ele>
        <time>2022-04-09T11:26:47Z</time>
      </trkpt>
      <trkpt lat="47.07927" lon="-1.79874">
        <ele>65</ele>
        <time>2022-04-09T11:26:49Z</time>
      </trkpt>
      <trkpt lat="47.07935" lon="-1.79855">
        <ele>64</ele>
        <time>2022-04-09T11:26:51Z</time>
      </trkpt>
      <trkpt lat="47.07941" lon="-1.79837">
        <ele>64</ele>
        <time>2022-04-09T11:26:53Z</time>
      </trkpt>
      <trkpt lat="47.07948" lon="-1.79818">
        <ele>64</ele>
        <time>2022-04-09T11:26:55Z</time>
      </trkpt>
      <trkpt lat="47.07953" lon="-1.79799">
        <ele>65</ele>
        <time>2022-04-09T11:26:57Z</time>
      </trkpt>
      <trkpt lat="47.07957" lon="-1.7978">
        <ele>65</ele>
        <time>2022-04-09T11:26:59Z</time>
      </trkpt>
      <trkpt lat="47.07959" lon="-1.79761">
        <ele>65</ele>
        <time>2022-04-09T11:27:01Z</time>
      </trkpt>
      <trkpt lat="47.07961" lon="-1.79743">
        <ele>65</ele>
        <time>2022-04-09T11:27:03Z</time>
      </trkpt>
      <trkpt lat="47.07962" lon="-1.79724">
        <ele>66</ele>
        <time>2022-04-09T11:27:05Z</time>
      </trkpt>
      <trkpt lat="47.07964" lon="-1.79706">
        <ele>66</ele>
        <time>2022-04-09T11:27:07Z</time>
      </trkpt>
      <trkpt lat="47.07965" lon="-1.79688">
        <ele>67</ele>
        <time>2022-04-09T11:27:09Z</time>
      </trkpt>
      <trkpt lat="47.07966" lon="-1.7967">
        <ele>67</ele>
        <time>2022-04-09T11:27:11Z</time>
      </trkpt>
      <trkpt lat="47.07967" lon="-1.79651">
        <ele>67</ele>
        <time>2022-04-09T11:27:13Z</time>
      </trkpt>
      <trkpt lat="47.07967" lon="-1.79632">
        <ele>67</ele>
        <time>2022-04-09T11:27:15Z</time>
      </trkpt>
      <trkpt lat="47.07966" lon="-1.79613">
        <ele>67</ele>
        <time>2022-04-09T11:27:17Z</time>
      </trkpt>
      <trkpt lat="47.07965" lon="-1.79594">
        <ele>67</ele>
        <time>2022-04-09T11:27:19Z</time>
      </trkpt>
      <trkpt lat="47.07964" lon="-1.79575">
        <ele>66</ele>
        <time>2022-04-09T11:27:21Z</time>
      </trkpt>
      <trkpt lat="47.07962" lon="-1.79556">
        <ele>66</ele>
        <time>2022-04-09T11:27:23Z</time>
      </trkpt>
      <trkpt lat="47.07958" lon="-1.79537">
        <ele>66</ele>
        <time>2022-04-09T11:27:25Z</time>
      </trkpt>
      <trkpt lat="47.07954" lon="-1.79517">
        <ele>66</ele>
        <time>2022-04-09T11:27:27Z</time>
      </trkpt>
      <trkpt lat="47.0795" lon="-1.79498">
        <ele>65</ele>
        <time>2022-04-09T11:27:29Z</time>
      </trkpt>
      <trkpt lat="47.07945" lon="-1.79478">
        <ele>65</ele>
        <time>2022-04-09T11:27:31Z</time>
      </trkpt>
      <trkpt lat="47.0794" lon="-1.79459">
        <ele>65</ele>
        <time>2022-04-09T11:27:33Z</time>
      </trkpt>
      <trkpt lat="47.07934" lon="-1.79438">
        <ele>64</ele>
        <time>2022-04-09T11:27:35Z</time>
      </trkpt>
      <trkpt lat="47.07929" lon="-1.79418">
        <ele>64</ele>
        <time>2022-04-09T11:27:37Z</time>
      </trkpt>
      <trkpt lat="47.07924" lon="-1.79398">
        <ele>63</ele>
        <time>2022-04-09T11:27:39Z</time>
      </trkpt>
      <trkpt lat="47.07918" lon="-1.79376">
        <ele>63</ele>
        <time>2022-04-09T11:27:41Z</time>
      </trkpt>
      <trkpt lat="47.07912" lon="-1.79355">
        <ele>62</ele>
        <time>2022-04-09T11:27:43Z</time>
      </trkpt>
      <trkpt lat="47.07907" lon="-1.79334">
        <ele>62</ele>
        <time>2022-04-09T11:27:45Z</time>
      </trkpt>
      <trkpt lat="47.07901" lon="-1.79313">
        <ele>62</ele>
        <time>2022-04-09T11:27:47Z</time>
      </trkpt>
      <trkpt lat="47.07896" lon="-1.79292">
        <ele>61</ele>
        <time>2022-04-09T11:27:49Z</time>
      </trkpt>
      <trkpt lat="47.0789" lon="-1.79271">
        <ele>61</ele>
        <time>2022-04-09T11:27:51Z</time>
      </trkpt>
      <trkpt lat="47.07885" lon="-1.79249">
        <ele>60</ele>
        <time>2022-04-09T11:27:53Z</time>
      </trkpt>
      <trkpt lat="47.07879" lon="-1.79227">
        <ele>60</ele>
        <time>2022-04-09T11:27:55Z</time>
      </trkpt>
      <trkpt lat="47.07873" lon="-1.79204">
        <ele>59</ele>
        <time>2022-04-09T11:27:57Z</time>
      </trkpt>
      <trkpt lat="47.07866" lon="-1.7918">
        <ele>58</ele>
        <time>2022-04-09T11:27:59Z</time>
      </trkpt>
      <trkpt lat="47.0786" lon="-1.79156">
        <ele>57</ele>
        <time>2022-04-09T11:28:01Z</time>
      </trkpt>
      <trkpt lat="47.07854" lon="-1.79133">
        <ele>57</ele>
        <time>2022-04-09T11:28:03Z</time>
      </trkpt>
      <trkpt lat="47.07848" lon="-1.7911">
        <ele>57</ele>
        <time>2022-04-09T11:28:05Z</time>
      </trkpt>
      <trkpt lat="47.07842" lon="-1.79087">
        <ele>57</ele>
        <time>2022-04-09T11:28:07Z</time>
      </trkpt>
      <trkpt lat="47.07836" lon="-1.79065">
        <ele>57</ele>
        <time>2022-04-09T11:28:09Z</time>
      </trkpt>
      <trkpt lat="47.0783" lon="-1.79043">
        <ele>57</ele>
        <time>2022-04-09T11:28:11Z</time>
      </trkpt>
      <trkpt lat="47.07825" lon="-1.79022">
        <ele>57</ele>
        <time>2022-04-09T11:28:13Z</time>
      </trkpt>
      <trkpt lat="47.0782" lon="-1.79001">
        <ele>57</ele>
        <time>2022-04-09T11:28:15Z</time>
      </trkpt>
      <trkpt lat="47.07814" lon="-1.78981">
        <ele>57</ele>
        <time>2022-04-09T11:28:17Z</time>
      </trkpt>
      <trkpt lat="47.07809" lon="-1.78961">
        <ele>57</ele>
        <time>2022-04-09T11:28:19Z</time>
      </trkpt>
      <trkpt lat="47.07805" lon="-1.78942">
        <ele>58</ele>
        <time>2022-04-09T11:28:21Z</time>
      </trkpt>
      <trkpt lat="47.078" lon="-1.78926">
        <ele>58</ele>
        <time>2022-04-09T11:28:23Z</time>
      </trkpt>
      <trkpt lat="47.07796" lon="-1.7891">
        <ele>59</ele>
        <time>2022-04-09T11:28:25Z</time>
      </trkpt>
      <trkpt lat="47.07792" lon="-1.78895">
        <ele>60</ele>
        <time>2022-04-09T11:28:27Z</time>
      </trkpt>
      <trkpt lat="47.07788" lon="-1.7888">
        <ele>61</ele>
        <time>2022-04-09T11:28:29Z</time>
      </trkpt>
      <trkpt lat="47.07785" lon="-1.78863">
        <ele>61</ele>
        <time>2022-04-09T11:28:31Z</time>
      </trkpt>
      <trkpt lat="47.07781" lon="-1.78848">
        <ele>62</ele>
        <time>2022-04-09T11:28:33Z</time>
      </trkpt>
      <trkpt lat="47.07776" lon="-1.78831">
        <ele>62</ele>
        <time>2022-04-09T11:28:35Z</time>
      </trkpt>
      <trkpt lat="47.07772" lon="-1.78814">
        <ele>63</ele>
        <time>2022-04-09T11:28:37Z</time>
      </trkpt>
      <trkpt lat="47.07767" lon="-1.78797">
        <ele>64</ele>
        <time>2022-04-09T11:28:39Z</time>
      </trkpt>
      <trkpt lat="47.07763" lon="-1.78781">
        <ele>64</ele>
        <time>2022-04-09T11:28:41Z</time>
      </trkpt>
      <trkpt lat="47.07757" lon="-1.78765">
        <ele>65</ele>
        <time>2022-04-09T11:28:43Z</time>
      </trkpt>
      <trkpt lat="47.07751" lon="-1.78749">
        <ele>65</ele>
        <time>2022-04-09T11:28:45Z</time>
      </trkpt>
      <trkpt lat="47.07744" lon="-1.78734">
        <ele>66</ele>
        <time>2022-04-09T11:28:47Z</time>
      </trkpt>
      <trkpt lat="47.07737" lon="-1.78718">
        <ele>66</ele>
        <time>2022-04-09T11:28:49Z</time>
      </trkpt>
      <trkpt lat="47.0773" lon="-1.78704">
        <ele>67</ele>
        <time>2022-04-09T11:28:51Z</time>
      </trkpt>
      <trkpt lat="47.07723" lon="-1.78689">
        <ele>68</ele>
        <time>2022-04-09T11:28:53Z</time>
      </trkpt>
      <trkpt lat="47.07717" lon="-1.78676">
        <ele>68</ele>
        <time>2022-04-09T11:28:55Z</time>
      </trkpt>
      <trkpt lat="47.0771" lon="-1.78663">
        <ele>69</ele>
        <time>2022-04-09T11:28:57Z</time>
      </trkpt>
      <trkpt lat="47.07703" lon="-1.78649">
        <ele>69</ele>
        <time>2022-04-09T11:28:59Z</time>
      </trkpt>
      <trkpt lat="47.07697" lon="-1.78636">
        <ele>69</ele>
        <time>2022-04-09T11:29:01Z</time>
      </trkpt>
      <trkpt lat="47.07691" lon="-1.78623">
        <ele>69</ele>
        <time>2022-04-09T11:29:03Z</time>
      </trkpt>
      <trkpt lat="47.07684" lon="-1.7861">
        <ele>70</ele>
        <time>2022-04-09T11:29:05Z</time>
      </trkpt>
      <trkpt lat="47.07678" lon="-1.78596">
        <ele>70</ele>
        <time>2022-04-09T11:29:07Z</time>
      </trkpt>
      <trkpt lat="47.07672" lon="-1.78582">
        <ele>70</ele>
        <time>2022-04-09T11:29:09Z</time>
      </trkpt>
      <trkpt lat="47.07667" lon="-1.78568">
        <ele>70</ele>
        <time>2022-04-09T11:29:11Z</time>
      </trkpt>
      <trkpt lat="47.07661" lon="-1.78553">
        <ele>70</ele>
        <time>2022-04-09T11:29:13Z</time>
      </trkpt>
      <trkpt lat="47.07656" lon="-1.78537">
        <ele>70</ele>
        <time>2022-04-09T11:29:15Z</time>
      </trkpt>
      <trkpt lat="47.07651" lon="-1.7852">
        <ele>70</ele>
        <time>2022-04-09T11:29:17Z</time>
      </trkpt>
      <trkpt lat="47.07647" lon="-1.78503">
        <ele>70</ele>
        <time>2022-04-09T11:29:19Z</time>
      </trkpt>
      <trkpt lat="47.07642" lon="-1.78486">
        <ele>70</ele>
        <time>2022-04-09T11:29:21Z</time>
      </trkpt>
      <trkpt lat="47.07637" lon="-1.7847">
        <ele>70</ele>
        <time>2022-04-09T11:29:23Z</time>
      </trkpt>
      <trkpt lat="47.07631" lon="-1.78453">
        <ele>69</ele>
        <time>2022-04-09T11:29:25Z</time>
      </trkpt>
      <trkpt lat="47.07624" lon="-1.78436">
        <ele>69</ele>
        <time>2022-04-09T11:29:27Z</time>
      </trkpt>
      <trkpt lat="47.07617" lon="-1.7842">
        <ele>69</ele>
        <time>2022-04-09T11:29:29Z</time>
      </trkpt>
      <trkpt lat="47.0761" lon="-1.78404">
        <ele>70</ele>
        <time>2022-04-09T11:29:31Z</time>
      </trkpt>
      <trkpt lat="47.07603" lon="-1.78388">
        <ele>69</ele>
        <time>2022-04-09T11:29:33Z</time>
      </trkpt>
      <trkpt lat="47.07594" lon="-1.78373">
        <ele>69</ele>
        <time>2022-04-09T11:29:35Z</time>
      </trkpt>
      <trkpt lat="47.07587" lon="-1.78358">
        <ele>69</ele>
        <time>2022-04-09T11:29:37Z</time>
      </trkpt>
      <trkpt lat="47.07578" lon="-1.78344">
        <ele>69</ele>
        <time>2022-04-09T11:29:39Z</time>
      </trkpt>
      <trkpt lat="47.07571" lon="-1.78329">
        <ele>69</ele>
        <time>2022-04-09T11:29:41Z</time>
      </trkpt>
      <trkpt lat="47.07563" lon="-1.78315">
        <ele>69</ele>
        <time>2022-04-09T11:29:43Z</time>
      </trkpt>
      <trkpt lat="47.07555" lon="-1.783">
        <ele>69</ele>
        <time>2022-04-09T11:29:45Z</time>
      </trkpt>
      <trkpt lat="47.07547" lon="-1.78286">
        <ele>69</ele>
        <time>2022-04-09T11:29:47Z</time>
      </trkpt>
      <trkpt lat="47.07539" lon="-1.78272">
        <ele>69</ele>
        <time>2022-04-09T11:29:49Z</time>
      </trkpt>
      <trkpt lat="47.07532" lon="-1.78258">
        <ele>70</ele>
        <time>2022-04-09T11:29:51Z</time>
      </trkpt>
      <trkpt lat="47.07525" lon="-1.78243">
        <ele>70</ele>
        <time>2022-04-09T11:29:53Z</time>
      </trkpt>
      <trkpt lat="47.07517" lon="-1.78228">
        <ele>70</ele>
        <time>2022-04-09T11:29:55Z</time>
      </trkpt>
      <trkpt lat="47.07508" lon="-1.78214">
        <ele>70</ele>
        <time>2022-04-09T11:29:57Z</time>
      </trkpt>
      <trkpt lat="47.07499" lon="-1.78201">
        <ele>70</ele>
        <time>2022-04-09T11:29:59Z</time>
      </trkpt>
      <trkpt lat="47.0749" lon="-1.78187">
        <ele>70</ele>
        <time>2022-04-09T11:30:01Z</time>
      </trkpt>
      <trkpt lat="47.0748" lon="-1.78175">
        <ele>70</ele>
        <time>2022-04-09T11:30:03Z</time>
      </trkpt>
      <trkpt lat="47.0747" lon="-1.78163">
        <ele>71</ele>
        <time>2022-04-09T11:30:05Z</time>
      </trkpt>
      <trkpt lat="47.0746" lon="-1.78153">
        <ele>71</ele>
        <time>2022-04-09T11:30:07Z</time>
      </trkpt>
      <trkpt lat="47.07449" lon="-1.78143">
        <ele>71</ele>
        <time>2022-04-09T11:30:09Z</time>
      </trkpt>
      <trkpt lat="47.07438" lon="-1.78134">
        <ele>71</ele>
        <time>2022-04-09T11:30:11Z</time>
      </trkpt>
      <trkpt lat="47.07427" lon="-1.78124">
        <ele>71</ele>
        <time>2022-04-09T11:30:13Z</time>
      </trkpt>
      <trkpt lat="47.07417" lon="-1.78115">
        <ele>72</ele>
        <time>2022-04-09T11:30:15Z</time>
      </trkpt>
      <trkpt lat="47.07407" lon="-1.78105">
        <ele>72</ele>
        <time>2022-04-09T11:30:17Z</time>
      </trkpt>
      <trkpt lat="47.07391" lon="-1.78088">
        <ele>73</ele>
        <time>2022-04-09T11:30:20Z</time>
      </trkpt>
      <trkpt lat="47.07377" lon="-1.78071">
        <ele>74</ele>
        <time>2022-04-09T11:30:23Z</time>
      </trkpt>
      <trkpt lat="47.07367" lon="-1.78059">
        <ele>74</ele>
        <time>2022-04-09T11:30:25Z</time>
      </trkpt>
      <trkpt lat="47.07357" lon="-1.78046">
        <ele>74</ele>
        <time>2022-04-09T11:30:27Z</time>
      </trkpt>
      <trkpt lat="47.07347" lon="-1.78034">
        <ele>74</ele>
        <time>2022-04-09T11:30:29Z</time>
      </trkpt>
      <trkpt lat="47.07337" lon="-1.78023">
        <ele>75</ele>
        <time>2022-04-09T11:30:31Z</time>
      </trkpt>
      <trkpt lat="47.07328" lon="-1.7801">
        <ele>75</ele>
        <time>2022-04-09T11:30:33Z</time>
      </trkpt>
      <trkpt lat="47.07318" lon="-1.77999">
        <ele>76</ele>
        <time>2022-04-09T11:30:35Z</time>
      </trkpt>
      <trkpt lat="47.07309" lon="-1.77988">
        <ele>77</ele>
        <time>2022-04-09T11:30:37Z</time>
      </trkpt>
      <trkpt lat="47.07299" lon="-1.77977">
        <ele>78</ele>
        <time>2022-04-09T11:30:39Z</time>
      </trkpt>
      <trkpt lat="47.0729" lon="-1.77966">
        <ele>78</ele>
        <time>2022-04-09T11:30:41Z</time>
      </trkpt>
      <trkpt lat="47.0728" lon="-1.77954">
        <ele>79</ele>
        <time>2022-04-09T11:30:43Z</time>
      </trkpt>
      <trkpt lat="47.07271" lon="-1.77942">
        <ele>80</ele>
        <time>2022-04-09T11:30:45Z</time>
      </trkpt>
      <trkpt lat="47.0726" lon="-1.7793">
        <ele>81</ele>
        <time>2022-04-09T11:30:47Z</time>
      </trkpt>
      <trkpt lat="47.07251" lon="-1.77919">
        <ele>81</ele>
        <time>2022-04-09T11:30:49Z</time>
      </trkpt>
      <trkpt lat="47.07242" lon="-1.77907">
        <ele>82</ele>
        <time>2022-04-09T11:30:51Z</time>
      </trkpt>
      <trkpt lat="47.07232" lon="-1.77895">
        <ele>83</ele>
        <time>2022-04-09T11:30:53Z</time>
      </trkpt>
      <trkpt lat="47.07222" lon="-1.77883">
        <ele>83</ele>
        <time>2022-04-09T11:30:55Z</time>
      </trkpt>
      <trkpt lat="47.07211" lon="-1.7787">
        <ele>83</ele>
        <time>2022-04-09T11:30:57Z</time>
      </trkpt>
      <trkpt lat="47.072" lon="-1.77859">
        <ele>81</ele>
        <time>2022-04-09T11:30:59Z</time>
      </trkpt>
      <trkpt lat="47.07189" lon="-1.77846">
        <ele>81</ele>
        <time>2022-04-09T11:31:01Z</time>
      </trkpt>
      <trkpt lat="47.07179" lon="-1.77835">
        <ele>81</ele>
        <time>2022-04-09T11:31:03Z</time>
      </trkpt>
      <trkpt lat="47.07169" lon="-1.77822">
        <ele>81</ele>
        <time>2022-04-09T11:31:05Z</time>
      </trkpt>
      <trkpt lat="47.07159" lon="-1.77809">
        <ele>80</ele>
        <time>2022-04-09T11:31:07Z</time>
      </trkpt>
      <trkpt lat="47.0715" lon="-1.77796">
        <ele>79</ele>
        <time>2022-04-09T11:31:09Z</time>
      </trkpt>
      <trkpt lat="47.07141" lon="-1.77783">
        <ele>78</ele>
        <time>2022-04-09T11:31:11Z</time>
      </trkpt>
      <trkpt lat="47.07133" lon="-1.77768">
        <ele>77</ele>
        <time>2022-04-09T11:31:13Z</time>
      </trkpt>
      <trkpt lat="47.07126" lon="-1.77752">
        <ele>77</ele>
        <time>2022-04-09T11:31:15Z</time>
      </trkpt>
      <trkpt lat="47.0712" lon="-1.77735">
        <ele>76</ele>
        <time>2022-04-09T11:31:17Z</time>
      </trkpt>
      <trkpt lat="47.07113" lon="-1.77719">
        <ele>76</ele>
        <time>2022-04-09T11:31:19Z</time>
      </trkpt>
      <trkpt lat="47.07106" lon="-1.77703">
        <ele>76</ele>
        <time>2022-04-09T11:31:21Z</time>
      </trkpt>
      <trkpt lat="47.07099" lon="-1.77686">
        <ele>76</ele>
        <time>2022-04-09T11:31:23Z</time>
      </trkpt>
      <trkpt lat="47.07092" lon="-1.77669">
        <ele>77</ele>
        <time>2022-04-09T11:31:25Z</time>
      </trkpt>
      <trkpt lat="47.07085" lon="-1.77652">
        <ele>76</ele>
        <time>2022-04-09T11:31:27Z</time>
      </trkpt>
      <trkpt lat="47.07079" lon="-1.77635">
        <ele>76</ele>
        <time>2022-04-09T11:31:29Z</time>
      </trkpt>
      <trkpt lat="47.07072" lon="-1.77617">
        <ele>76</ele>
        <time>2022-04-09T11:31:31Z</time>
      </trkpt>
      <trkpt lat="47.07066" lon="-1.776">
        <ele>76</ele>
        <time>2022-04-09T11:31:33Z</time>
      </trkpt>
      <trkpt lat="47.07059" lon="-1.77583">
        <ele>76</ele>
        <time>2022-04-09T11:31:35Z</time>
      </trkpt>
      <trkpt lat="47.07052" lon="-1.77566">
        <ele>76</ele>
        <time>2022-04-09T11:31:37Z</time>
      </trkpt>
      <trkpt lat="47.07046" lon="-1.77549">
        <ele>77</ele>
        <time>2022-04-09T11:31:39Z</time>
      </trkpt>
      <trkpt lat="47.0704" lon="-1.77533">
        <ele>77</ele>
        <time>2022-04-09T11:31:41Z</time>
      </trkpt>
      <trkpt lat="47.07033" lon="-1.77516">
        <ele>77</ele>
        <time>2022-04-09T11:31:43Z</time>
      </trkpt>
      <trkpt lat="47.07027" lon="-1.77501">
        <ele>78</ele>
        <time>2022-04-09T11:31:45Z</time>
      </trkpt>
      <trkpt lat="47.0702" lon="-1.77485">
        <ele>78</ele>
        <time>2022-04-09T11:31:47Z</time>
      </trkpt>
      <trkpt lat="47.07013" lon="-1.77468">
        <ele>78</ele>
        <time>2022-04-09T11:31:49Z</time>
      </trkpt>
      <trkpt lat="47.07005" lon="-1.77451">
        <ele>77</ele>
        <time>2022-04-09T11:31:51Z</time>
      </trkpt>
      <trkpt lat="47.06997" lon="-1.77437">
        <ele>77</ele>
        <time>2022-04-09T11:31:53Z</time>
      </trkpt>
      <trkpt lat="47.06988" lon="-1.77423">
        <ele>77</ele>
        <time>2022-04-09T11:31:55Z</time>
      </trkpt>
      <trkpt lat="47.06979" lon="-1.7741">
        <ele>78</ele>
        <time>2022-04-09T11:31:57Z</time>
      </trkpt>
      <trkpt lat="47.06969" lon="-1.77396">
        <ele>78</ele>
        <time>2022-04-09T11:31:59Z</time>
      </trkpt>
      <trkpt lat="47.0696" lon="-1.77384">
        <ele>78</ele>
        <time>2022-04-09T11:32:01Z</time>
      </trkpt>
      <trkpt lat="47.0695" lon="-1.77371">
        <ele>78</ele>
        <time>2022-04-09T11:32:03Z</time>
      </trkpt>
      <trkpt lat="47.06941" lon="-1.77358">
        <ele>79</ele>
        <time>2022-04-09T11:32:05Z</time>
      </trkpt>
      <trkpt lat="47.06932" lon="-1.77345">
        <ele>79</ele>
        <time>2022-04-09T11:32:07Z</time>
      </trkpt>
      <trkpt lat="47.06923" lon="-1.77332">
        <ele>79</ele>
        <time>2022-04-09T11:32:09Z</time>
      </trkpt>
      <trkpt lat="47.06913" lon="-1.77319">
        <ele>80</ele>
        <time>2022-04-09T11:32:11Z</time>
      </trkpt>
      <trkpt lat="47.06904" lon="-1.77307">
        <ele>80</ele>
        <time>2022-04-09T11:32:13Z</time>
      </trkpt>
      <trkpt lat="47.06895" lon="-1.77294">
        <ele>80</ele>
        <time>2022-04-09T11:32:15Z</time>
      </trkpt>
      <trkpt lat="47.06885" lon="-1.77281">
        <ele>80</ele>
        <time>2022-04-09T11:32:17Z</time>
      </trkpt>
      <trkpt lat="47.06876" lon="-1.77268">
        <ele>80</ele>
        <time>2022-04-09T11:32:19Z</time>
      </trkpt>
      <trkpt lat="47.06867" lon="-1.77256">
        <ele>80</ele>
        <time>2022-04-09T11:32:21Z</time>
      </trkpt>
      <trkpt lat="47.06858" lon="-1.77243">
        <ele>80</ele>
        <time>2022-04-09T11:32:23Z</time>
      </trkpt>
      <trkpt lat="47.06849" lon="-1.7723">
        <ele>81</ele>
        <time>2022-04-09T11:32:25Z</time>
      </trkpt>
      <trkpt lat="47.0684" lon="-1.77217">
        <ele>81</ele>
        <time>2022-04-09T11:32:27Z</time>
      </trkpt>
      <trkpt lat="47.06831" lon="-1.77205">
        <ele>81</ele>
        <time>2022-04-09T11:32:29Z</time>
      </trkpt>
      <trkpt lat="47.06822" lon="-1.77191">
        <ele>80</ele>
        <time>2022-04-09T11:32:31Z</time>
      </trkpt>
      <trkpt lat="47.06813" lon="-1.77177">
        <ele>81</ele>
        <time>2022-04-09T11:32:33Z</time>
      </trkpt>
      <trkpt lat="47.06805" lon="-1.77164">
        <ele>81</ele>
        <time>2022-04-09T11:32:35Z</time>
      </trkpt>
      <trkpt lat="47.06796" lon="-1.7715">
        <ele>81</ele>
        <time>2022-04-09T11:32:37Z</time>
      </trkpt>
      <trkpt lat="47.06787" lon="-1.77136">
        <ele>81</ele>
        <time>2022-04-09T11:32:39Z</time>
      </trkpt>
      <trkpt lat="47.06779" lon="-1.77121">
        <ele>80</ele>
        <time>2022-04-09T11:32:41Z</time>
      </trkpt>
      <trkpt lat="47.06771" lon="-1.77107">
        <ele>80</ele>
        <time>2022-04-09T11:32:43Z</time>
      </trkpt>
      <trkpt lat="47.06762" lon="-1.77092">
        <ele>80</ele>
        <time>2022-04-09T11:32:45Z</time>
      </trkpt>
      <trkpt lat="47.06754" lon="-1.77078">
        <ele>80</ele>
        <time>2022-04-09T11:32:47Z</time>
      </trkpt>
      <trkpt lat="47.06745" lon="-1.77064">
        <ele>80</ele>
        <time>2022-04-09T11:32:49Z</time>
      </trkpt>
      <trkpt lat="47.06737" lon="-1.77049">
        <ele>80</ele>
        <time>2022-04-09T11:32:51Z</time>
      </trkpt>
      <trkpt lat="47.06728" lon="-1.77035">
        <ele>80</ele>
        <time>2022-04-09T11:32:53Z</time>
      </trkpt>
      <trkpt lat="47.0672" lon="-1.77021">
        <ele>80</ele>
        <time>2022-04-09T11:32:55Z</time>
      </trkpt>
      <trkpt lat="47.06712" lon="-1.77008">
        <ele>81</ele>
        <time>2022-04-09T11:32:57Z</time>
      </trkpt>
      <trkpt lat="47.06703" lon="-1.76993">
        <ele>81</ele>
        <time>2022-04-09T11:32:59Z</time>
      </trkpt>
      <trkpt lat="47.06694" lon="-1.76979">
        <ele>81</ele>
        <time>2022-04-09T11:33:01Z</time>
      </trkpt>
      <trkpt lat="47.06686" lon="-1.76965">
        <ele>82</ele>
        <time>2022-04-09T11:33:03Z</time>
      </trkpt>
      <trkpt lat="47.06678" lon="-1.76952">
        <ele>82</ele>
        <time>2022-04-09T11:33:05Z</time>
      </trkpt>
      <trkpt lat="47.0667" lon="-1.76937">
        <ele>82</ele>
        <time>2022-04-09T11:33:07Z</time>
      </trkpt>
      <trkpt lat="47.06661" lon="-1.76923">
        <ele>82</ele>
        <time>2022-04-09T11:33:09Z</time>
      </trkpt>
      <trkpt lat="47.06653" lon="-1.76909">
        <ele>82</ele>
        <time>2022-04-09T11:33:11Z</time>
      </trkpt>
      <trkpt lat="47.06645" lon="-1.76895">
        <ele>83</ele>
        <time>2022-04-09T11:33:13Z</time>
      </trkpt>
      <trkpt lat="47.06637" lon="-1.76881">
        <ele>83</ele>
        <time>2022-04-09T11:33:15Z</time>
      </trkpt>
      <trkpt lat="47.06628" lon="-1.76867">
        <ele>83</ele>
        <time>2022-04-09T11:33:17Z</time>
      </trkpt>
      <trkpt lat="47.0662" lon="-1.76853">
        <ele>83</ele>
        <time>2022-04-09T11:33:19Z</time>
      </trkpt>
      <trkpt lat="47.06612" lon="-1.76838">
        <ele>83</ele>
        <time>2022-04-09T11:33:21Z</time>
      </trkpt>
      <trkpt lat="47.06603" lon="-1.76824">
        <ele>83</ele>
        <time>2022-04-09T11:33:23Z</time>
      </trkpt>
      <trkpt lat="47.06595" lon="-1.76811">
        <ele>84</ele>
        <time>2022-04-09T11:33:25Z</time>
      </trkpt>
      <trkpt lat="47.06587" lon="-1.76797">
        <ele>84</ele>
        <time>2022-04-09T11:33:27Z</time>
      </trkpt>
      <trkpt lat="47.06579" lon="-1.76784">
        <ele>84</ele>
        <time>2022-04-09T11:33:29Z</time>
      </trkpt>
      <trkpt lat="47.06571" lon="-1.7677">
        <ele>84</ele>
        <time>2022-04-09T11:33:31Z</time>
      </trkpt>
      <trkpt lat="47.06563" lon="-1.76756">
        <ele>84</ele>
        <time>2022-04-09T11:33:33Z</time>
      </trkpt>
      <trkpt lat="47.06555" lon="-1.76743">
        <ele>84</ele>
        <time>2022-04-09T11:33:35Z</time>
      </trkpt>
      <trkpt lat="47.06547" lon="-1.76729">
        <ele>85</ele>
        <time>2022-04-09T11:33:37Z</time>
      </trkpt>
      <trkpt lat="47.0654" lon="-1.76717">
        <ele>85</ele>
        <time>2022-04-09T11:33:39Z</time>
      </trkpt>
      <trkpt lat="47.06533" lon="-1.76704">
        <ele>85</ele>
        <time>2022-04-09T11:33:41Z</time>
      </trkpt>
      <trkpt lat="47.06525" lon="-1.76691">
        <ele>85</ele>
        <time>2022-04-09T11:33:43Z</time>
      </trkpt>
      <trkpt lat="47.06517" lon="-1.76678">
        <ele>84</ele>
        <time>2022-04-09T11:33:45Z</time>
      </trkpt>
      <trkpt lat="47.0651" lon="-1.76665">
        <ele>84</ele>
        <time>2022-04-09T11:33:47Z</time>
      </trkpt>
      <trkpt lat="47.06501" lon="-1.76651">
        <ele>84</ele>
        <time>2022-04-09T11:33:49Z</time>
      </trkpt>
      <trkpt lat="47.06493" lon="-1.76637">
        <ele>83</ele>
        <time>2022-04-09T11:33:51Z</time>
      </trkpt>
      <trkpt lat="47.06485" lon="-1.76622">
        <ele>83</ele>
        <time>2022-04-09T11:33:53Z</time>
      </trkpt>
      <trkpt lat="47.06477" lon="-1.76606">
        <ele>83</ele>
        <time>2022-04-09T11:33:55Z</time>
      </trkpt>
      <trkpt lat="47.06469" lon="-1.7659">
        <ele>83</ele>
        <time>2022-04-09T11:33:57Z</time>
      </trkpt>
      <trkpt lat="47.06462" lon="-1.76573">
        <ele>83</ele>
        <time>2022-04-09T11:33:59Z</time>
      </trkpt>
      <trkpt lat="47.06455" lon="-1.76556">
        <ele>83</ele>
        <time>2022-04-09T11:34:01Z</time>
      </trkpt>
      <trkpt lat="47.06449" lon="-1.7654">
        <ele>83</ele>
        <time>2022-04-09T11:34:03Z</time>
      </trkpt>
      <trkpt lat="47.06441" lon="-1.76523">
        <ele>83</ele>
        <time>2022-04-09T11:34:05Z</time>
      </trkpt>
      <trkpt lat="47.06435" lon="-1.76507">
        <ele>83</ele>
        <time>2022-04-09T11:34:07Z</time>
      </trkpt>
      <trkpt lat="47.06428" lon="-1.76491">
        <ele>83</ele>
        <time>2022-04-09T11:34:09Z</time>
      </trkpt>
      <trkpt lat="47.06421" lon="-1.76474">
        <ele>82</ele>
        <time>2022-04-09T11:34:11Z</time>
      </trkpt>
      <trkpt lat="47.06414" lon="-1.76458">
        <ele>82</ele>
        <time>2022-04-09T11:34:13Z</time>
      </trkpt>
      <trkpt lat="47.06406" lon="-1.76443">
        <ele>82</ele>
        <time>2022-04-09T11:34:15Z</time>
      </trkpt>
      <trkpt lat="47.06396" lon="-1.7643">
        <ele>82</ele>
        <time>2022-04-09T11:34:17Z</time>
      </trkpt>
      <trkpt lat="47.06385" lon="-1.76418">
        <ele>81</ele>
        <time>2022-04-09T11:34:19Z</time>
      </trkpt>
      <trkpt lat="47.06374" lon="-1.76408">
        <ele>82</ele>
        <time>2022-04-09T11:34:21Z</time>
      </trkpt>
      <trkpt lat="47.06361" lon="-1.76401">
        <ele>81</ele>
        <time>2022-04-09T11:34:23Z</time>
      </trkpt>
      <trkpt lat="47.0635" lon="-1.76395">
        <ele>81</ele>
        <time>2022-04-09T11:34:25Z</time>
      </trkpt>
      <trkpt lat="47.06338" lon="-1.7639">
        <ele>81</ele>
        <time>2022-04-09T11:34:27Z</time>
      </trkpt>
      <trkpt lat="47.06326" lon="-1.76384">
        <ele>81</ele>
        <time>2022-04-09T11:34:29Z</time>
      </trkpt>
      <trkpt lat="47.06315" lon="-1.76376">
        <ele>81</ele>
        <time>2022-04-09T11:34:31Z</time>
      </trkpt>
      <trkpt lat="47.06307" lon="-1.76365">
        <ele>82</ele>
        <time>2022-04-09T11:34:33Z</time>
      </trkpt>
      <trkpt lat="47.06302" lon="-1.76352">
        <ele>82</ele>
        <time>2022-04-09T11:34:35Z</time>
      </trkpt>
      <trkpt lat="47.06304" lon="-1.76336">
        <ele>82</ele>
        <time>2022-04-09T11:34:38Z</time>
      </trkpt>
      <trkpt lat="47.06312" lon="-1.76326">
        <ele>82</ele>
        <time>2022-04-09T11:34:40Z</time>
      </trkpt>
      <trkpt lat="47.06323" lon="-1.7632">
        <ele>82</ele>
        <time>2022-04-09T11:34:42Z</time>
      </trkpt>
      <trkpt lat="47.06334" lon="-1.76314">
        <ele>82</ele>
        <time>2022-04-09T11:34:44Z</time>
      </trkpt>
      <trkpt lat="47.06345" lon="-1.76309">
        <ele>83</ele>
        <time>2022-04-09T11:34:46Z</time>
      </trkpt>
      <trkpt lat="47.06356" lon="-1.76305">
        <ele>83</ele>
        <time>2022-04-09T11:34:48Z</time>
      </trkpt>
      <trkpt lat="47.06367" lon="-1.763">
        <ele>83</ele>
        <time>2022-04-09T11:34:50Z</time>
      </trkpt>
      <trkpt lat="47.06379" lon="-1.76296">
        <ele>83</ele>
        <time>2022-04-09T11:34:52Z</time>
      </trkpt>
      <trkpt lat="47.0639" lon="-1.76291">
        <ele>84</ele>
        <time>2022-04-09T11:34:54Z</time>
      </trkpt>
      <trkpt lat="47.06401" lon="-1.76286">
        <ele>84</ele>
        <time>2022-04-09T11:34:56Z</time>
      </trkpt>
      <trkpt lat="47.06411" lon="-1.7628">
        <ele>84</ele>
        <time>2022-04-09T11:34:58Z</time>
      </trkpt>
      <trkpt lat="47.06421" lon="-1.76275">
        <ele>84</ele>
        <time>2022-04-09T11:35:00Z</time>
      </trkpt>
      <trkpt lat="47.06432" lon="-1.76271">
        <ele>84</ele>
        <time>2022-04-09T11:35:02Z</time>
      </trkpt>
      <trkpt lat="47.06441" lon="-1.76266">
        <ele>84</ele>
        <time>2022-04-09T11:35:04Z</time>
      </trkpt>
      <trkpt lat="47.06451" lon="-1.76262">
        <ele>85</ele>
        <time>2022-04-09T11:35:06Z</time>
      </trkpt>
      <trkpt lat="47.06461" lon="-1.76257">
        <ele>85</ele>
        <time>2022-04-09T11:35:08Z</time>
      </trkpt>
      <trkpt lat="47.0647" lon="-1.76253">
        <ele>85</ele>
        <time>2022-04-09T11:35:10Z</time>
      </trkpt>
      <trkpt lat="47.0648" lon="-1.76247">
        <ele>85</ele>
        <time>2022-04-09T11:35:12Z</time>
      </trkpt>
      <trkpt lat="47.0649" lon="-1.76243">
        <ele>85</ele>
        <time>2022-04-09T11:35:14Z</time>
      </trkpt>
      <trkpt lat="47.065" lon="-1.76238">
        <ele>86</ele>
        <time>2022-04-09T11:35:16Z</time>
      </trkpt>
      <trkpt lat="47.0651" lon="-1.76234">
        <ele>86</ele>
        <time>2022-04-09T11:35:18Z</time>
      </trkpt>
      <trkpt lat="47.0652" lon="-1.76229">
        <ele>86</ele>
        <time>2022-04-09T11:35:20Z</time>
      </trkpt>
      <trkpt lat="47.06529" lon="-1.76224">
        <ele>87</ele>
        <time>2022-04-09T11:35:22Z</time>
      </trkpt>
      <trkpt lat="47.06539" lon="-1.76219">
        <ele>87</ele>
        <time>2022-04-09T11:35:24Z</time>
      </trkpt>
      <trkpt lat="47.06549" lon="-1.76215">
        <ele>88</ele>
        <time>2022-04-09T11:35:26Z</time>
      </trkpt>
      <trkpt lat="47.06559" lon="-1.7621">
        <ele>88</ele>
        <time>2022-04-09T11:35:28Z</time>
      </trkpt>
      <trkpt lat="47.06568" lon="-1.76205">
        <ele>88</ele>
        <time>2022-04-09T11:35:30Z</time>
      </trkpt>
      <trkpt lat="47.06578" lon="-1.762">
        <ele>88</ele>
        <time>2022-04-09T11:35:32Z</time>
      </trkpt>
      <trkpt lat="47.06588" lon="-1.76195">
        <ele>88</ele>
        <time>2022-04-09T11:35:34Z</time>
      </trkpt>
      <trkpt lat="47.06599" lon="-1.7619">
        <ele>87</ele>
        <time>2022-04-09T11:35:36Z</time>
      </trkpt>
      <trkpt lat="47.06609" lon="-1.76186">
        <ele>87</ele>
        <time>2022-04-09T11:35:38Z</time>
      </trkpt>
      <trkpt lat="47.0662" lon="-1.76181">
        <ele>87</ele>
        <time>2022-04-09T11:35:40Z</time>
      </trkpt>
      <trkpt lat="47.06631" lon="-1.76176">
        <ele>86</ele>
        <time>2022-04-09T11:35:42Z</time>
      </trkpt>
      <trkpt lat="47.06642" lon="-1.76171">
        <ele>86</ele>
        <time>2022-04-09T11:35:44Z</time>
      </trkpt>
      <trkpt lat="47.06654" lon="-1.76165">
        <ele>85</ele>
        <time>2022-04-09T11:35:46Z</time>
      </trkpt>
      <trkpt lat="47.06665" lon="-1.7616">
        <ele>84</ele>
        <time>2022-04-09T11:35:48Z</time>
      </trkpt>
      <trkpt lat="47.06677" lon="-1.76155">
        <ele>84</ele>
        <time>2022-04-09T11:35:50Z</time>
      </trkpt>
      <trkpt lat="47.06688" lon="-1.76149">
        <ele>83</ele>
        <time>2022-04-09T11:35:52Z</time>
      </trkpt>
      <trkpt lat="47.067" lon="-1.76144">
        <ele>83</ele>
        <time>2022-04-09T11:35:54Z</time>
      </trkpt>
      <trkpt lat="47.06713" lon="-1.76139">
        <ele>82</ele>
        <time>2022-04-09T11:35:56Z</time>
      </trkpt>
      <trkpt lat="47.06725" lon="-1.76133">
        <ele>81</ele>
        <time>2022-04-09T11:35:58Z</time>
      </trkpt>
      <trkpt lat="47.06737" lon="-1.76128">
        <ele>81</ele>
        <time>2022-04-09T11:36:00Z</time>
      </trkpt>
      <trkpt lat="47.06749" lon="-1.76122">
        <ele>80</ele>
        <time>2022-04-09T11:36:02Z</time>
      </trkpt>
      <trkpt lat="47.06762" lon="-1.76116">
        <ele>80</ele>
        <time>2022-04-09T11:36:04Z</time>
      </trkpt>
      <trkpt lat="47.06775" lon="-1.76111">
        <ele>80</ele>
        <time>2022-04-09T11:36:06Z</time>
      </trkpt>
      <trkpt lat="47.06787" lon="-1.76105">
        <ele>79</ele>
        <time>2022-04-09T11:36:08Z</time>
      </trkpt>
      <trkpt lat="47.068" lon="-1.76099">
        <ele>79</ele>
        <time>2022-04-09T11:36:10Z</time>
      </trkpt>
      <trkpt lat="47.06813" lon="-1.76093">
        <ele>79</ele>
        <time>2022-04-09T11:36:12Z</time>
      </trkpt>
      <trkpt lat="47.06826" lon="-1.76088">
        <ele>79</ele>
        <time>2022-04-09T11:36:14Z</time>
      </trkpt>
      <trkpt lat="47.06839" lon="-1.76082">
        <ele>78</ele>
        <time>2022-04-09T11:36:16Z</time>
      </trkpt>
      <trkpt lat="47.06852" lon="-1.76076">
        <ele>77</ele>
        <time>2022-04-09T11:36:18Z</time>
      </trkpt>
      <trkpt lat="47.06866" lon="-1.7607">
        <ele>77</ele>
        <time>2022-04-09T11:36:20Z</time>
      </trkpt>
      <trkpt lat="47.06879" lon="-1.76063">
        <ele>77</ele>
        <time>2022-04-09T11:36:22Z</time>
      </trkpt>
      <trkpt lat="47.06892" lon="-1.76056">
        <ele>77</ele>
        <time>2022-04-09T11:36:24Z</time>
      </trkpt>
      <trkpt lat="47.06905" lon="-1.76048">
        <ele>76</ele>
        <time>2022-04-09T11:36:26Z</time>
      </trkpt>
      <trkpt lat="47.06918" lon="-1.7604">
        <ele>76</ele>
        <time>2022-04-09T11:36:28Z</time>
      </trkpt>
      <trkpt lat="47.06931" lon="-1.76029">
        <ele>76</ele>
        <time>2022-04-09T11:36:30Z</time>
      </trkpt>
      <trkpt lat="47.06944" lon="-1.76018">
        <ele>75</ele>
        <time>2022-04-09T11:36:32Z</time>
      </trkpt>
      <trkpt lat="47.06956" lon="-1.76005">
        <ele>75</ele>
        <time>2022-04-09T11:36:34Z</time>
      </trkpt>
      <trkpt lat="47.06968" lon="-1.75992">
        <ele>75</ele>
        <time>2022-04-09T11:36:36Z</time>
      </trkpt>
      <trkpt lat="47.06979" lon="-1.75979">
        <ele>74</ele>
        <time>2022-04-09T11:36:38Z</time>
      </trkpt>
      <trkpt lat="47.0699" lon="-1.75966">
        <ele>74</ele>
        <time>2022-04-09T11:36:40Z</time>
      </trkpt>
      <trkpt lat="47.07001" lon="-1.75954">
        <ele>74</ele>
        <time>2022-04-09T11:36:42Z</time>
      </trkpt>
      <trkpt lat="47.07012" lon="-1.75941">
        <ele>74</ele>
        <time>2022-04-09T11:36:44Z</time>
      </trkpt>
      <trkpt lat="47.07023" lon="-1.75929">
        <ele>73</ele>
        <time>2022-04-09T11:36:46Z</time>
      </trkpt>
      <trkpt lat="47.07034" lon="-1.75916">
        <ele>73</ele>
        <time>2022-04-09T11:36:48Z</time>
      </trkpt>
      <trkpt lat="47.07045" lon="-1.75903">
        <ele>73</ele>
        <time>2022-04-09T11:36:50Z</time>
      </trkpt>
      <trkpt lat="47.07055" lon="-1.7589">
        <ele>73</ele>
        <time>2022-04-09T11:36:52Z</time>
      </trkpt>
      <trkpt lat="47.07066" lon="-1.75878">
        <ele>73</ele>
        <time>2022-04-09T11:36:54Z</time>
      </trkpt>
      <trkpt lat="47.07076" lon="-1.75865">
        <ele>72</ele>
        <time>2022-04-09T11:36:56Z</time>
      </trkpt>
      <trkpt lat="47.07087" lon="-1.75853">
        <ele>72</ele>
        <time>2022-04-09T11:36:58Z</time>
      </trkpt>
      <trkpt lat="47.07098" lon="-1.7584">
        <ele>72</ele>
        <time>2022-04-09T11:37:00Z</time>
      </trkpt>
      <trkpt lat="47.07109" lon="-1.75827">
        <ele>72</ele>
        <time>2022-04-09T11:37:02Z</time>
      </trkpt>
      <trkpt lat="47.07119" lon="-1.75814">
        <ele>72</ele>
        <time>2022-04-09T11:37:04Z</time>
      </trkpt>
      <trkpt lat="47.0713" lon="-1.75802">
        <ele>72</ele>
        <time>2022-04-09T11:37:06Z</time>
      </trkpt>
      <trkpt lat="47.07141" lon="-1.75789">
        <ele>72</ele>
        <time>2022-04-09T11:37:08Z</time>
      </trkpt>
      <trkpt lat="47.07152" lon="-1.75776">
        <ele>71</ele>
        <time>2022-04-09T11:37:10Z</time>
      </trkpt>
      <trkpt lat="47.07163" lon="-1.75764">
        <ele>71</ele>
        <time>2022-04-09T11:37:12Z</time>
      </trkpt>
      <trkpt lat="47.07173" lon="-1.75752">
        <ele>71</ele>
        <time>2022-04-09T11:37:14Z</time>
      </trkpt>
      <trkpt lat="47.07184" lon="-1.7574">
        <ele>70</ele>
        <time>2022-04-09T11:37:16Z</time>
      </trkpt>
      <trkpt lat="47.07194" lon="-1.75727">
        <ele>71</ele>
        <time>2022-04-09T11:37:18Z</time>
      </trkpt>
      <trkpt lat="47.07205" lon="-1.75715">
        <ele>71</ele>
        <time>2022-04-09T11:37:20Z</time>
      </trkpt>
      <trkpt lat="47.07216" lon="-1.75702">
        <ele>70</ele>
        <time>2022-04-09T11:37:22Z</time>
      </trkpt>
      <trkpt lat="47.07227" lon="-1.75689">
        <ele>70</ele>
        <time>2022-04-09T11:37:24Z</time>
      </trkpt>
      <trkpt lat="47.07237" lon="-1.75676">
        <ele>70</ele>
        <time>2022-04-09T11:37:26Z</time>
      </trkpt>
      <trkpt lat="47.07249" lon="-1.75663">
        <ele>70</ele>
        <time>2022-04-09T11:37:28Z</time>
      </trkpt>
      <trkpt lat="47.0726" lon="-1.75651">
        <ele>69</ele>
        <time>2022-04-09T11:37:30Z</time>
      </trkpt>
      <trkpt lat="47.07271" lon="-1.75641">
        <ele>69</ele>
        <time>2022-04-09T11:37:32Z</time>
      </trkpt>
      <trkpt lat="47.07283" lon="-1.75631">
        <ele>69</ele>
        <time>2022-04-09T11:37:34Z</time>
      </trkpt>
      <trkpt lat="47.07295" lon="-1.75623">
        <ele>69</ele>
        <time>2022-04-09T11:37:36Z</time>
      </trkpt>
      <trkpt lat="47.07308" lon="-1.75615">
        <ele>69</ele>
        <time>2022-04-09T11:37:38Z</time>
      </trkpt>
      <trkpt lat="47.07321" lon="-1.7561">
        <ele>69</ele>
        <time>2022-04-09T11:37:40Z</time>
      </trkpt>
      <trkpt lat="47.07334" lon="-1.75604">
        <ele>69</ele>
        <time>2022-04-09T11:37:42Z</time>
      </trkpt>
      <trkpt lat="47.07347" lon="-1.75599">
        <ele>69</ele>
        <time>2022-04-09T11:37:44Z</time>
      </trkpt>
      <trkpt lat="47.07361" lon="-1.75594">
        <ele>68</ele>
        <time>2022-04-09T11:37:46Z</time>
      </trkpt>
      <trkpt lat="47.07375" lon="-1.75589">
        <ele>68</ele>
        <time>2022-04-09T11:37:48Z</time>
      </trkpt>
      <trkpt lat="47.07388" lon="-1.75583">
        <ele>68</ele>
        <time>2022-04-09T11:37:50Z</time>
      </trkpt>
      <trkpt lat="47.07402" lon="-1.75579">
        <ele>68</ele>
        <time>2022-04-09T11:37:52Z</time>
      </trkpt>
      <trkpt lat="47.07416" lon="-1.75573">
        <ele>68</ele>
        <time>2022-04-09T11:37:54Z</time>
      </trkpt>
      <trkpt lat="47.0743" lon="-1.75567">
        <ele>67</ele>
        <time>2022-04-09T11:37:56Z</time>
      </trkpt>
      <trkpt lat="47.07443" lon="-1.75562">
        <ele>66</ele>
        <time>2022-04-09T11:37:58Z</time>
      </trkpt>
      <trkpt lat="47.07458" lon="-1.75557">
        <ele>66</ele>
        <time>2022-04-09T11:38:00Z</time>
      </trkpt>
      <trkpt lat="47.07472" lon="-1.75551">
        <ele>65</ele>
        <time>2022-04-09T11:38:02Z</time>
      </trkpt>
      <trkpt lat="47.07487" lon="-1.75546">
        <ele>65</ele>
        <time>2022-04-09T11:38:04Z</time>
      </trkpt>
      <trkpt lat="47.07501" lon="-1.7554">
        <ele>65</ele>
        <time>2022-04-09T11:38:06Z</time>
      </trkpt>
      <trkpt lat="47.07516" lon="-1.75534">
        <ele>64</ele>
        <time>2022-04-09T11:38:08Z</time>
      </trkpt>
      <trkpt lat="47.07531" lon="-1.75528">
        <ele>64</ele>
        <time>2022-04-09T11:38:10Z</time>
      </trkpt>
      <trkpt lat="47.07546" lon="-1.75522">
        <ele>63</ele>
        <time>2022-04-09T11:38:12Z</time>
      </trkpt>
      <trkpt lat="47.07561" lon="-1.75517">
        <ele>63</ele>
        <time>2022-04-09T11:38:14Z</time>
      </trkpt>
      <trkpt lat="47.07577" lon="-1.75511">
        <ele>62</ele>
        <time>2022-04-09T11:38:16Z</time>
      </trkpt>
      <trkpt lat="47.07592" lon="-1.75504">
        <ele>62</ele>
        <time>2022-04-09T11:38:18Z</time>
      </trkpt>
      <trkpt lat="47.07607" lon="-1.75498">
        <ele>62</ele>
        <time>2022-04-09T11:38:20Z</time>
      </trkpt>
      <trkpt lat="47.07622" lon="-1.75493">
        <ele>61</ele>
        <time>2022-04-09T11:38:22Z</time>
      </trkpt>
      <trkpt lat="47.07637" lon="-1.75486">
        <ele>61</ele>
        <time>2022-04-09T11:38:24Z</time>
      </trkpt>
      <trkpt lat="47.07652" lon="-1.75481">
        <ele>61</ele>
        <time>2022-04-09T11:38:26Z</time>
      </trkpt>
      <trkpt lat="47.07667" lon="-1.75475">
        <ele>60</ele>
        <time>2022-04-09T11:38:28Z</time>
      </trkpt>
      <trkpt lat="47.07682" lon="-1.75469">
        <ele>60</ele>
        <time>2022-04-09T11:38:30Z</time>
      </trkpt>
      <trkpt lat="47.07697" lon="-1.75463">
        <ele>59</ele>
        <time>2022-04-09T11:38:32Z</time>
      </trkpt>
      <trkpt lat="47.07712" lon="-1.75457">
        <ele>59</ele>
        <time>2022-04-09T11:38:34Z</time>
      </trkpt>
      <trkpt lat="47.07728" lon="-1.75451">
        <ele>59</ele>
        <time>2022-04-09T11:38:36Z</time>
      </trkpt>
      <trkpt lat="47.07743" lon="-1.75445">
        <ele>59</ele>
        <time>2022-04-09T11:38:38Z</time>
      </trkpt>
      <trkpt lat="47.07757" lon="-1.75439">
        <ele>58</ele>
        <time>2022-04-09T11:38:40Z</time>
      </trkpt>
      <trkpt lat="47.07772" lon="-1.75434">
        <ele>58</ele>
        <time>2022-04-09T11:38:42Z</time>
      </trkpt>
      <trkpt lat="47.07787" lon="-1.75428">
        <ele>58</ele>
        <time>2022-04-09T11:38:44Z</time>
      </trkpt>
      <trkpt lat="47.07801" lon="-1.75423">
        <ele>58</ele>
        <time>2022-04-09T11:38:46Z</time>
      </trkpt>
      <trkpt lat="47.0781" lon="-1.7541">
        <ele>57</ele>
        <time>2022-04-09T11:38:48Z</time>
      </trkpt>
      <trkpt lat="47.07804" lon="-1.75391">
        <ele>56</ele>
        <time>2022-04-09T11:38:50Z</time>
      </trkpt>
      <trkpt lat="47.07796" lon="-1.75373">
        <ele>57</ele>
        <time>2022-04-09T11:38:52Z</time>
      </trkpt>
      <trkpt lat="47.07788" lon="-1.75356">
        <ele>58</ele>
        <time>2022-04-09T11:38:54Z</time>
      </trkpt>
      <trkpt lat="47.0778" lon="-1.75337">
        <ele>58</ele>
        <time>2022-04-09T11:38:56Z</time>
      </trkpt>
      <trkpt lat="47.07772" lon="-1.75319">
        <ele>58</ele>
        <time>2022-04-09T11:38:58Z</time>
      </trkpt>
      <trkpt lat="47.07764" lon="-1.753">
        <ele>58</ele>
        <time>2022-04-09T11:39:00Z</time>
      </trkpt>
      <trkpt lat="47.07757" lon="-1.75281">
        <ele>58</ele>
        <time>2022-04-09T11:39:02Z</time>
      </trkpt>
      <trkpt lat="47.0775" lon="-1.75263">
        <ele>58</ele>
        <time>2022-04-09T11:39:04Z</time>
      </trkpt>
      <trkpt lat="47.07744" lon="-1.75244">
        <ele>58</ele>
        <time>2022-04-09T11:39:06Z</time>
      </trkpt>
      <trkpt lat="47.07739" lon="-1.75226">
        <ele>58</ele>
        <time>2022-04-09T11:39:08Z</time>
      </trkpt>
      <trkpt lat="47.07733" lon="-1.75209">
        <ele>59</ele>
        <time>2022-04-09T11:39:10Z</time>
      </trkpt>
      <trkpt lat="47.07727" lon="-1.75192">
        <ele>59</ele>
        <time>2022-04-09T11:39:12Z</time>
      </trkpt>
      <trkpt lat="47.07723" lon="-1.75173">
        <ele>59</ele>
        <time>2022-04-09T11:39:14Z</time>
      </trkpt>
      <trkpt lat="47.07718" lon="-1.75155">
        <ele>59</ele>
        <time>2022-04-09T11:39:16Z</time>
      </trkpt>
      <trkpt lat="47.07715" lon="-1.75136">
        <ele>58</ele>
        <time>2022-04-09T11:39:18Z</time>
      </trkpt>
      <trkpt lat="47.07712" lon="-1.75118">
        <ele>57</ele>
        <time>2022-04-09T11:39:20Z</time>
      </trkpt>
      <trkpt lat="47.07711" lon="-1.75099">
        <ele>57</ele>
        <time>2022-04-09T11:39:22Z</time>
      </trkpt>
      <trkpt lat="47.07711" lon="-1.7508">
        <ele>57</ele>
        <time>2022-04-09T11:39:24Z</time>
      </trkpt>
      <trkpt lat="47.07714" lon="-1.75063">
        <ele>57</ele>
        <time>2022-04-09T11:39:26Z</time>
      </trkpt>
      <trkpt lat="47.07725" lon="-1.75058">
        <ele>57</ele>
        <time>2022-04-09T11:39:28Z</time>
      </trkpt>
      <trkpt lat="47.07738" lon="-1.75057">
        <ele>56</ele>
        <time>2022-04-09T11:39:30Z</time>
      </trkpt>
      <trkpt lat="47.07752" lon="-1.75056">
        <ele>56</ele>
        <time>2022-04-09T11:39:32Z</time>
      </trkpt>
      <trkpt lat="47.07765" lon="-1.75055">
        <ele>56</ele>
        <time>2022-04-09T11:39:34Z</time>
      </trkpt>
      <trkpt lat="47.07778" lon="-1.75054">
        <ele>57</ele>
        <time>2022-04-09T11:39:36Z</time>
      </trkpt>
      <trkpt lat="47.07791" lon="-1.75053">
        <ele>57</ele>
        <time>2022-04-09T11:39:38Z</time>
      </trkpt>
      <trkpt lat="47.07805" lon="-1.75053">
        <ele>57</ele>
        <time>2022-04-09T11:39:40Z</time>
      </trkpt>
      <trkpt lat="47.07819" lon="-1.75052">
        <ele>56</ele>
        <time>2022-04-09T11:39:42Z</time>
      </trkpt>
      <trkpt lat="47.07833" lon="-1.7505">
        <ele>56</ele>
        <time>2022-04-09T11:39:44Z</time>
      </trkpt>
      <trkpt lat="47.07846" lon="-1.75046">
        <ele>55</ele>
        <time>2022-04-09T11:39:46Z</time>
      </trkpt>
      <trkpt lat="47.0786" lon="-1.7504">
        <ele>55</ele>
        <time>2022-04-09T11:39:48Z</time>
      </trkpt>
      <trkpt lat="47.07873" lon="-1.75032">
        <ele>56</ele>
        <time>2022-04-09T11:39:50Z</time>
      </trkpt>
      <trkpt lat="47.07885" lon="-1.75024">
        <ele>56</ele>
        <time>2022-04-09T11:39:52Z</time>
      </trkpt>
      <trkpt lat="47.07898" lon="-1.75017">
        <ele>57</ele>
        <time>2022-04-09T11:39:54Z</time>
      </trkpt>
      <trkpt lat="47.07911" lon="-1.75008">
        <ele>58</ele>
        <time>2022-04-09T11:39:56Z</time>
      </trkpt>
      <trkpt lat="47.07923" lon="-1.75">
        <ele>59</ele>
        <time>2022-04-09T11:39:58Z</time>
      </trkpt>
      <trkpt lat="47.07936" lon="-1.74992">
        <ele>60</ele>
        <time>2022-04-09T11:40:00Z</time>
      </trkpt>
      <trkpt lat="47.07949" lon="-1.74986">
        <ele>59</ele>
        <time>2022-04-09T11:40:02Z</time>
      </trkpt>
      <trkpt lat="47.07962" lon="-1.74978">
        <ele>59</ele>
        <time>2022-04-09T11:40:04Z</time>
      </trkpt>
      <trkpt lat="47.07975" lon="-1.7497">
        <ele>59</ele>
        <time>2022-04-09T11:40:06Z</time>
      </trkpt>
      <trkpt lat="47.07988" lon="-1.74963">
        <ele>59</ele>
        <time>2022-04-09T11:40:08Z</time>
      </trkpt>
      <trkpt lat="47.08001" lon="-1.74956">
        <ele>59</ele>
        <time>2022-04-09T11:40:10Z</time>
      </trkpt>
      <trkpt lat="47.08012" lon="-1.74948">
        <ele>60</ele>
        <time>2022-04-09T11:40:12Z</time>
      </trkpt>
      <trkpt lat="47.08024" lon="-1.74941">
        <ele>60</ele>
        <time>2022-04-09T11:40:14Z</time>
      </trkpt>
      <trkpt lat="47.08035" lon="-1.74933">
        <ele>61</ele>
        <time>2022-04-09T11:40:16Z</time>
      </trkpt>
      <trkpt lat="47.08046" lon="-1.74922">
        <ele>62</ele>
        <time>2022-04-09T11:40:18Z</time>
      </trkpt>
      <trkpt lat="47.08057" lon="-1.7491">
        <ele>63</ele>
        <time>2022-04-09T11:40:20Z</time>
      </trkpt>
      <trkpt lat="47.08068" lon="-1.74897">
        <ele>64</ele>
        <time>2022-04-09T11:40:22Z</time>
      </trkpt>
      <trkpt lat="47.08081" lon="-1.74887">
        <ele>64</ele>
        <time>2022-04-09T11:40:24Z</time>
      </trkpt>
      <trkpt lat="47.08095" lon="-1.74879">
        <ele>63</ele>
        <time>2022-04-09T11:40:26Z</time>
      </trkpt>
      <trkpt lat="47.08108" lon="-1.74876">
        <ele>63</ele>
        <time>2022-04-09T11:40:28Z</time>
      </trkpt>
      <trkpt lat="47.08121" lon="-1.74873">
        <ele>64</ele>
        <time>2022-04-09T11:40:30Z</time>
      </trkpt>
      <trkpt lat="47.08133" lon="-1.7487">
        <ele>63</ele>
        <time>2022-04-09T11:40:32Z</time>
      </trkpt>
      <trkpt lat="47.08146" lon="-1.74863">
        <ele>63</ele>
        <time>2022-04-09T11:40:34Z</time>
      </trkpt>
      <trkpt lat="47.08158" lon="-1.74853">
        <ele>62</ele>
        <time>2022-04-09T11:40:36Z</time>
      </trkpt>
      <trkpt lat="47.08171" lon="-1.74844">
        <ele>61</ele>
        <time>2022-04-09T11:40:38Z</time>
      </trkpt>
      <trkpt lat="47.08183" lon="-1.74835">
        <ele>60</ele>
        <time>2022-04-09T11:40:40Z</time>
      </trkpt>
      <trkpt lat="47.08192" lon="-1.7482">
        <ele>59</ele>
        <time>2022-04-09T11:40:42Z</time>
      </trkpt>
      <trkpt lat="47.08199" lon="-1.74791">
        <ele>59</ele>
        <time>2022-04-09T11:40:45Z</time>
      </trkpt>
      <trkpt lat="47.08203" lon="-1.74772">
        <ele>59</ele>
        <time>2022-04-09T11:40:47Z</time>
      </trkpt>
      <trkpt lat="47.08206" lon="-1.74752">
        <ele>59</ele>
        <time>2022-04-09T11:40:49Z</time>
      </trkpt>
      <trkpt lat="47.08211" lon="-1.74733">
        <ele>60</ele>
        <time>2022-04-09T11:40:51Z</time>
      </trkpt>
      <trkpt lat="47.08218" lon="-1.74717">
        <ele>61</ele>
        <time>2022-04-09T11:40:53Z</time>
      </trkpt>
      <trkpt lat="47.08227" lon="-1.74701">
        <ele>61</ele>
        <time>2022-04-09T11:40:55Z</time>
      </trkpt>
      <trkpt lat="47.08237" lon="-1.74686">
        <ele>61</ele>
        <time>2022-04-09T11:40:57Z</time>
      </trkpt>
      <trkpt lat="47.08246" lon="-1.74671">
        <ele>60</ele>
        <time>2022-04-09T11:40:59Z</time>
      </trkpt>
      <trkpt lat="47.08257" lon="-1.74656">
        <ele>59</ele>
        <time>2022-04-09T11:41:01Z</time>
      </trkpt>
      <trkpt lat="47.08266" lon="-1.74643">
        <ele>59</ele>
        <time>2022-04-09T11:41:03Z</time>
      </trkpt>
      <trkpt lat="47.08276" lon="-1.7463">
        <ele>59</ele>
        <time>2022-04-09T11:41:05Z</time>
      </trkpt>
      <trkpt lat="47.08286" lon="-1.74616">
        <ele>58</ele>
        <time>2022-04-09T11:41:07Z</time>
      </trkpt>
      <trkpt lat="47.08297" lon="-1.74603">
        <ele>58</ele>
        <time>2022-04-09T11:41:09Z</time>
      </trkpt>
      <trkpt lat="47.08307" lon="-1.7459">
        <ele>58</ele>
        <time>2022-04-09T11:41:11Z</time>
      </trkpt>
      <trkpt lat="47.08317" lon="-1.7458">
        <ele>59</ele>
        <time>2022-04-09T11:41:13Z</time>
      </trkpt>
      <trkpt lat="47.0833" lon="-1.74572">
        <ele>59</ele>
        <time>2022-04-09T11:41:15Z</time>
      </trkpt>
      <trkpt lat="47.08342" lon="-1.74567">
        <ele>60</ele>
        <time>2022-04-09T11:41:17Z</time>
      </trkpt>
      <trkpt lat="47.08354" lon="-1.74562">
        <ele>61</ele>
        <time>2022-04-09T11:41:19Z</time>
      </trkpt>
      <trkpt lat="47.08365" lon="-1.74555">
        <ele>61</ele>
        <time>2022-04-09T11:41:21Z</time>
      </trkpt>
      <trkpt lat="47.08375" lon="-1.74546">
        <ele>61</ele>
        <time>2022-04-09T11:41:23Z</time>
      </trkpt>
      <trkpt lat="47.08386" lon="-1.74533">
        <ele>60</ele>
        <time>2022-04-09T11:41:25Z</time>
      </trkpt>
      <trkpt lat="47.08397" lon="-1.74519">
        <ele>60</ele>
        <time>2022-04-09T11:41:27Z</time>
      </trkpt>
      <trkpt lat="47.08409" lon="-1.74507">
        <ele>59</ele>
        <time>2022-04-09T11:41:29Z</time>
      </trkpt>
      <trkpt lat="47.0842" lon="-1.74494">
        <ele>58</ele>
        <time>2022-04-09T11:41:31Z</time>
      </trkpt>
      <trkpt lat="47.08431" lon="-1.74482">
        <ele>57</ele>
        <time>2022-04-09T11:41:33Z</time>
      </trkpt>
      <trkpt lat="47.08443" lon="-1.74469">
        <ele>57</ele>
        <time>2022-04-09T11:41:35Z</time>
      </trkpt>
      <trkpt lat="47.08453" lon="-1.74457">
        <ele>57</ele>
        <time>2022-04-09T11:41:37Z</time>
      </trkpt>
      <trkpt lat="47.08463" lon="-1.74446">
        <ele>57</ele>
        <time>2022-04-09T11:41:39Z</time>
      </trkpt>
      <trkpt lat="47.08473" lon="-1.74435">
        <ele>57</ele>
        <time>2022-04-09T11:41:41Z</time>
      </trkpt>
      <trkpt lat="47.08483" lon="-1.74423">
        <ele>57</ele>
        <time>2022-04-09T11:41:43Z</time>
      </trkpt>
      <trkpt lat="47.08492" lon="-1.74411">
        <ele>58</ele>
        <time>2022-04-09T11:41:45Z</time>
      </trkpt>
      <trkpt lat="47.08503" lon="-1.74399">
        <ele>58</ele>
        <time>2022-04-09T11:41:47Z</time>
      </trkpt>
      <trkpt lat="47.08514" lon="-1.74387">
        <ele>59</ele>
        <time>2022-04-09T11:41:49Z</time>
      </trkpt>
      <trkpt lat="47.08524" lon="-1.74373">
        <ele>59</ele>
        <time>2022-04-09T11:41:51Z</time>
      </trkpt>
      <trkpt lat="47.08531" lon="-1.74357">
        <ele>59</ele>
        <time>2022-04-09T11:41:53Z</time>
      </trkpt>
      <trkpt lat="47.08534" lon="-1.74337">
        <ele>59</ele>
        <time>2022-04-09T11:41:55Z</time>
      </trkpt>
      <trkpt lat="47.08537" lon="-1.74318">
        <ele>59</ele>
        <time>2022-04-09T11:41:57Z</time>
      </trkpt>
      <trkpt lat="47.0854" lon="-1.74299">
        <ele>59</ele>
        <time>2022-04-09T11:41:59Z</time>
      </trkpt>
      <trkpt lat="47.08547" lon="-1.74282">
        <ele>59</ele>
        <time>2022-04-09T11:42:01Z</time>
      </trkpt>
      <trkpt lat="47.08558" lon="-1.74268">
        <ele>58</ele>
        <time>2022-04-09T11:42:03Z</time>
      </trkpt>
      <trkpt lat="47.08569" lon="-1.74254">
        <ele>58</ele>
        <time>2022-04-09T11:42:05Z</time>
      </trkpt>
      <trkpt lat="47.08579" lon="-1.74241">
        <ele>58</ele>
        <time>2022-04-09T11:42:07Z</time>
      </trkpt>
      <trkpt lat="47.0859" lon="-1.74228">
        <ele>58</ele>
        <time>2022-04-09T11:42:09Z</time>
      </trkpt>
      <trkpt lat="47.08601" lon="-1.74216">
        <ele>58</ele>
        <time>2022-04-09T11:42:11Z</time>
      </trkpt>
      <trkpt lat="47.08611" lon="-1.74203">
        <ele>57</ele>
        <time>2022-04-09T11:42:13Z</time>
      </trkpt>
      <trkpt lat="47.08621" lon="-1.7419">
        <ele>56</ele>
        <time>2022-04-09T11:42:15Z</time>
      </trkpt>
      <trkpt lat="47.08632" lon="-1.74177">
        <ele>57</ele>
        <time>2022-04-09T11:42:17Z</time>
      </trkpt>
      <trkpt lat="47.08642" lon="-1.74165">
        <ele>57</ele>
        <time>2022-04-09T11:42:19Z</time>
      </trkpt>
      <trkpt lat="47.08652" lon="-1.74151">
        <ele>57</ele>
        <time>2022-04-09T11:42:21Z</time>
      </trkpt>
      <trkpt lat="47.08661" lon="-1.74136">
        <ele>57</ele>
        <time>2022-04-09T11:42:23Z</time>
      </trkpt>
      <trkpt lat="47.08669" lon="-1.7412">
        <ele>57</ele>
        <time>2022-04-09T11:42:25Z</time>
      </trkpt>
      <trkpt lat="47.08676" lon="-1.74102">
        <ele>57</ele>
        <time>2022-04-09T11:42:27Z</time>
      </trkpt>
      <trkpt lat="47.08684" lon="-1.74084">
        <ele>57</ele>
        <time>2022-04-09T11:42:29Z</time>
      </trkpt>
      <trkpt lat="47.08691" lon="-1.74066">
        <ele>57</ele>
        <time>2022-04-09T11:42:31Z</time>
      </trkpt>
      <trkpt lat="47.08699" lon="-1.74048">
        <ele>57</ele>
        <time>2022-04-09T11:42:33Z</time>
      </trkpt>
      <trkpt lat="47.08706" lon="-1.7403">
        <ele>57</ele>
        <time>2022-04-09T11:42:35Z</time>
      </trkpt>
      <trkpt lat="47.08713" lon="-1.74012">
        <ele>58</ele>
        <time>2022-04-09T11:42:37Z</time>
      </trkpt>
      <trkpt lat="47.08721" lon="-1.73995">
        <ele>57</ele>
        <time>2022-04-09T11:42:39Z</time>
      </trkpt>
      <trkpt lat="47.08729" lon="-1.73978">
        <ele>57</ele>
        <time>2022-04-09T11:42:41Z</time>
      </trkpt>
      <trkpt lat="47.08738" lon="-1.73961">
        <ele>57</ele>
        <time>2022-04-09T11:42:43Z</time>
      </trkpt>
      <trkpt lat="47.08747" lon="-1.73944">
        <ele>57</ele>
        <time>2022-04-09T11:42:45Z</time>
      </trkpt>
      <trkpt lat="47.08755" lon="-1.73926">
        <ele>56</ele>
        <time>2022-04-09T11:42:47Z</time>
      </trkpt>
      <trkpt lat="47.08763" lon="-1.7391">
        <ele>56</ele>
        <time>2022-04-09T11:42:49Z</time>
      </trkpt>
      <trkpt lat="47.08771" lon="-1.73894">
        <ele>56</ele>
        <time>2022-04-09T11:42:51Z</time>
      </trkpt>
      <trkpt lat="47.08779" lon="-1.73878">
        <ele>56</ele>
        <time>2022-04-09T11:42:53Z</time>
      </trkpt>
      <trkpt lat="47.08787" lon="-1.73862">
        <ele>56</ele>
        <time>2022-04-09T11:42:55Z</time>
      </trkpt>
      <trkpt lat="47.08797" lon="-1.73848">
        <ele>56</ele>
        <time>2022-04-09T11:42:57Z</time>
      </trkpt>
      <trkpt lat="47.08807" lon="-1.73836">
        <ele>56</ele>
        <time>2022-04-09T11:42:59Z</time>
      </trkpt>
      <trkpt lat="47.08818" lon="-1.73824">
        <ele>56</ele>
        <time>2022-04-09T11:43:01Z</time>
      </trkpt>
      <trkpt lat="47.08828" lon="-1.73811">
        <ele>56</ele>
        <time>2022-04-09T11:43:03Z</time>
      </trkpt>
      <trkpt lat="47.08838" lon="-1.73798">
        <ele>56</ele>
        <time>2022-04-09T11:43:05Z</time>
      </trkpt>
      <trkpt lat="47.08848" lon="-1.73786">
        <ele>56</ele>
        <time>2022-04-09T11:43:07Z</time>
      </trkpt>
      <trkpt lat="47.08857" lon="-1.73771">
        <ele>56</ele>
        <time>2022-04-09T11:43:09Z</time>
      </trkpt>
      <trkpt lat="47.08865" lon="-1.73755">
        <ele>55</ele>
        <time>2022-04-09T11:43:11Z</time>
      </trkpt>
      <trkpt lat="47.08873" lon="-1.7374">
        <ele>55</ele>
        <time>2022-04-09T11:43:13Z</time>
      </trkpt>
      <trkpt lat="47.08881" lon="-1.73724">
        <ele>55</ele>
        <time>2022-04-09T11:43:15Z</time>
      </trkpt>
      <trkpt lat="47.08889" lon="-1.73709">
        <ele>55</ele>
        <time>2022-04-09T11:43:17Z</time>
      </trkpt>
      <trkpt lat="47.08897" lon="-1.73693">
        <ele>55</ele>
        <time>2022-04-09T11:43:19Z</time>
      </trkpt>
      <trkpt lat="47.08904" lon="-1.73677">
        <ele>56</ele>
        <time>2022-04-09T11:43:21Z</time>
      </trkpt>
      <trkpt lat="47.08911" lon="-1.73661">
        <ele>56</ele>
        <time>2022-04-09T11:43:23Z</time>
      </trkpt>
      <trkpt lat="47.08917" lon="-1.73643">
        <ele>56</ele>
        <time>2022-04-09T11:43:25Z</time>
      </trkpt>
      <trkpt lat="47.0892" lon="-1.73626">
        <ele>56</ele>
        <time>2022-04-09T11:43:27Z</time>
      </trkpt>
      <trkpt lat="47.08922" lon="-1.73607">
        <ele>56</ele>
        <time>2022-04-09T11:43:29Z</time>
      </trkpt>
      <trkpt lat="47.08925" lon="-1.73589">
        <ele>56</ele>
        <time>2022-04-09T11:43:31Z</time>
      </trkpt>
      <trkpt lat="47.08928" lon="-1.73571">
        <ele>56</ele>
        <time>2022-04-09T11:43:33Z</time>
      </trkpt>
      <trkpt lat="47.08932" lon="-1.73552">
        <ele>56</ele>
        <time>2022-04-09T11:43:35Z</time>
      </trkpt>
      <trkpt lat="47.08936" lon="-1.73534">
        <ele>56</ele>
        <time>2022-04-09T11:43:37Z</time>
      </trkpt>
      <trkpt lat="47.0894" lon="-1.73516">
        <ele>56</ele>
        <time>2022-04-09T11:43:39Z</time>
      </trkpt>
      <trkpt lat="47.08945" lon="-1.73499">
        <ele>56</ele>
        <time>2022-04-09T11:43:41Z</time>
      </trkpt>
      <trkpt lat="47.08949" lon="-1.73481">
        <ele>56</ele>
        <time>2022-04-09T11:43:43Z</time>
      </trkpt>
      <trkpt lat="47.08956" lon="-1.73463">
        <ele>56</ele>
        <time>2022-04-09T11:43:45Z</time>
      </trkpt>
      <trkpt lat="47.08964" lon="-1.73447">
        <ele>57</ele>
        <time>2022-04-09T11:43:47Z</time>
      </trkpt>
      <trkpt lat="47.08973" lon="-1.73435">
        <ele>57</ele>
        <time>2022-04-09T11:43:49Z</time>
      </trkpt>
      <trkpt lat="47.08984" lon="-1.73423">
        <ele>57</ele>
        <time>2022-04-09T11:43:51Z</time>
      </trkpt>
      <trkpt lat="47.08993" lon="-1.73411">
        <ele>58</ele>
        <time>2022-04-09T11:43:53Z</time>
      </trkpt>
      <trkpt lat="47.09004" lon="-1.734">
        <ele>58</ele>
        <time>2022-04-09T11:43:55Z</time>
      </trkpt>
      <trkpt lat="47.09014" lon="-1.73389">
        <ele>58</ele>
        <time>2022-04-09T11:43:57Z</time>
      </trkpt>
      <trkpt lat="47.09025" lon="-1.73378">
        <ele>60</ele>
        <time>2022-04-09T11:43:59Z</time>
      </trkpt>
      <trkpt lat="47.09036" lon="-1.73369">
        <ele>60</ele>
        <time>2022-04-09T11:44:01Z</time>
      </trkpt>
      <trkpt lat="47.09046" lon="-1.73359">
        <ele>60</ele>
        <time>2022-04-09T11:44:03Z</time>
      </trkpt>
      <trkpt lat="47.09057" lon="-1.73349">
        <ele>60</ele>
        <time>2022-04-09T11:44:05Z</time>
      </trkpt>
      <trkpt lat="47.09068" lon="-1.7334">
        <ele>61</ele>
        <time>2022-04-09T11:44:07Z</time>
      </trkpt>
      <trkpt lat="47.09079" lon="-1.73331">
        <ele>62</ele>
        <time>2022-04-09T11:44:09Z</time>
      </trkpt>
      <trkpt lat="47.09092" lon="-1.7332">
        <ele>60</ele>
        <time>2022-04-09T11:44:11Z</time>
      </trkpt>
      <trkpt lat="47.09105" lon="-1.73309">
        <ele>59</ele>
        <time>2022-04-09T11:44:13Z</time>
      </trkpt>
      <trkpt lat="47.09118" lon="-1.73298">
        <ele>58</ele>
        <time>2022-04-09T11:44:15Z</time>
      </trkpt>
      <trkpt lat="47.0913" lon="-1.73288">
        <ele>57</ele>
        <time>2022-04-09T11:44:17Z</time>
      </trkpt>
      <trkpt lat="47.09142" lon="-1.73279">
        <ele>56</ele>
        <time>2022-04-09T11:44:19Z</time>
      </trkpt>
      <trkpt lat="47.09155" lon="-1.7327">
        <ele>55</ele>
        <time>2022-04-09T11:44:21Z</time>
      </trkpt>
      <trkpt lat="47.09167" lon="-1.7326">
        <ele>55</ele>
        <time>2022-04-09T11:44:23Z</time>
      </trkpt>
      <trkpt lat="47.09179" lon="-1.73251">
        <ele>55</ele>
        <time>2022-04-09T11:44:25Z</time>
      </trkpt>
      <trkpt lat="47.09191" lon="-1.7324">
        <ele>55</ele>
        <time>2022-04-09T11:44:27Z</time>
      </trkpt>
      <trkpt lat="47.09203" lon="-1.73231">
        <ele>55</ele>
        <time>2022-04-09T11:44:29Z</time>
      </trkpt>
      <trkpt lat="47.09215" lon="-1.73222">
        <ele>56</ele>
        <time>2022-04-09T11:44:31Z</time>
      </trkpt>
      <trkpt lat="47.09227" lon="-1.73211">
        <ele>56</ele>
        <time>2022-04-09T11:44:33Z</time>
      </trkpt>
      <trkpt lat="47.09239" lon="-1.73202">
        <ele>57</ele>
        <time>2022-04-09T11:44:35Z</time>
      </trkpt>
      <trkpt lat="47.0925" lon="-1.73192">
        <ele>57</ele>
        <time>2022-04-09T11:44:37Z</time>
      </trkpt>
      <trkpt lat="47.09262" lon="-1.73183">
        <ele>58</ele>
        <time>2022-04-09T11:44:39Z</time>
      </trkpt>
      <trkpt lat="47.09274" lon="-1.73173">
        <ele>58</ele>
        <time>2022-04-09T11:44:41Z</time>
      </trkpt>
      <trkpt lat="47.09286" lon="-1.73163">
        <ele>58</ele>
        <time>2022-04-09T11:44:43Z</time>
      </trkpt>
      <trkpt lat="47.09298" lon="-1.73153">
        <ele>59</ele>
        <time>2022-04-09T11:44:45Z</time>
      </trkpt>
      <trkpt lat="47.09311" lon="-1.73145">
        <ele>58</ele>
        <time>2022-04-09T11:44:47Z</time>
      </trkpt>
      <trkpt lat="47.09322" lon="-1.73136">
        <ele>58</ele>
        <time>2022-04-09T11:44:49Z</time>
      </trkpt>
      <trkpt lat="47.09334" lon="-1.73128">
        <ele>57</ele>
        <time>2022-04-09T11:44:51Z</time>
      </trkpt>
      <trkpt lat="47.09345" lon="-1.73118">
        <ele>57</ele>
        <time>2022-04-09T11:44:53Z</time>
      </trkpt>
      <trkpt lat="47.09356" lon="-1.73109">
        <ele>57</ele>
        <time>2022-04-09T11:44:55Z</time>
      </trkpt>
      <trkpt lat="47.09366" lon="-1.73099">
        <ele>57</ele>
        <time>2022-04-09T11:44:57Z</time>
      </trkpt>
      <trkpt lat="47.09374" lon="-1.73086">
        <ele>57</ele>
        <time>2022-04-09T11:44:59Z</time>
      </trkpt>
      <trkpt lat="47.09381" lon="-1.7307">
        <ele>57</ele>
        <time>2022-04-09T11:45:01Z</time>
      </trkpt>
      <trkpt lat="47.09385" lon="-1.73052">
        <ele>57</ele>
        <time>2022-04-09T11:45:03Z</time>
      </trkpt>
      <trkpt lat="47.09387" lon="-1.73031">
        <ele>57</ele>
        <time>2022-04-09T11:45:05Z</time>
      </trkpt>
      <trkpt lat="47.09388" lon="-1.7301">
        <ele>57</ele>
        <time>2022-04-09T11:45:07Z</time>
      </trkpt>
      <trkpt lat="47.0939" lon="-1.72991">
        <ele>57</ele>
        <time>2022-04-09T11:45:09Z</time>
      </trkpt>
      <trkpt lat="47.09393" lon="-1.72972">
        <ele>57</ele>
        <time>2022-04-09T11:45:11Z</time>
      </trkpt>
      <trkpt lat="47.09399" lon="-1.72954">
        <ele>57</ele>
        <time>2022-04-09T11:45:13Z</time>
      </trkpt>
      <trkpt lat="47.09406" lon="-1.72938">
        <ele>56</ele>
        <time>2022-04-09T11:45:15Z</time>
      </trkpt>
      <trkpt lat="47.09413" lon="-1.72923">
        <ele>56</ele>
        <time>2022-04-09T11:45:17Z</time>
      </trkpt>
      <trkpt lat="47.0942" lon="-1.72908">
        <ele>56</ele>
        <time>2022-04-09T11:45:19Z</time>
      </trkpt>
      <trkpt lat="47.09427" lon="-1.72894">
        <ele>56</ele>
        <time>2022-04-09T11:45:21Z</time>
      </trkpt>
      <trkpt lat="47.09434" lon="-1.72879">
        <ele>56</ele>
        <time>2022-04-09T11:45:23Z</time>
      </trkpt>
      <trkpt lat="47.09441" lon="-1.72865">
        <ele>56</ele>
        <time>2022-04-09T11:45:25Z</time>
      </trkpt>
      <trkpt lat="47.09449" lon="-1.7285">
        <ele>56</ele>
        <time>2022-04-09T11:45:27Z</time>
      </trkpt>
      <trkpt lat="47.09456" lon="-1.72834">
        <ele>56</ele>
        <time>2022-04-09T11:45:29Z</time>
      </trkpt>
      <trkpt lat="47.09464" lon="-1.72819">
        <ele>56</ele>
        <time>2022-04-09T11:45:31Z</time>
      </trkpt>
      <trkpt lat="47.09471" lon="-1.72803">
        <ele>55</ele>
        <time>2022-04-09T11:45:33Z</time>
      </trkpt>
      <trkpt lat="47.09478" lon="-1.72787">
        <ele>56</ele>
        <time>2022-04-09T11:45:35Z</time>
      </trkpt>
      <trkpt lat="47.09486" lon="-1.72772">
        <ele>56</ele>
        <time>2022-04-09T11:45:37Z</time>
      </trkpt>
      <trkpt lat="47.09493" lon="-1.72756">
        <ele>56</ele>
        <time>2022-04-09T11:45:39Z</time>
      </trkpt>
      <trkpt lat="47.095" lon="-1.72742">
        <ele>56</ele>
        <time>2022-04-09T11:45:41Z</time>
      </trkpt>
      <trkpt lat="47.09508" lon="-1.72727">
        <ele>56</ele>
        <time>2022-04-09T11:45:43Z</time>
      </trkpt>
      <trkpt lat="47.09515" lon="-1.72712">
        <ele>56</ele>
        <time>2022-04-09T11:45:45Z</time>
      </trkpt>
      <trkpt lat="47.09523" lon="-1.72696">
        <ele>55</ele>
        <time>2022-04-09T11:45:47Z</time>
      </trkpt>
      <trkpt lat="47.09533" lon="-1.72684">
        <ele>55</ele>
        <time>2022-04-09T11:45:49Z</time>
      </trkpt>
      <trkpt lat="47.09546" lon="-1.72679">
        <ele>55</ele>
        <time>2022-04-09T11:45:51Z</time>
      </trkpt>
      <trkpt lat="47.09558" lon="-1.7268">
        <ele>55</ele>
        <time>2022-04-09T11:45:53Z</time>
      </trkpt>
      <trkpt lat="47.09569" lon="-1.72685">
        <ele>55</ele>
        <time>2022-04-09T11:45:55Z</time>
      </trkpt>
      <trkpt lat="47.09581" lon="-1.7269">
        <ele>55</ele>
        <time>2022-04-09T11:45:57Z</time>
      </trkpt>
      <trkpt lat="47.09592" lon="-1.72697">
        <ele>55</ele>
        <time>2022-04-09T11:45:59Z</time>
      </trkpt>
      <trkpt lat="47.09603" lon="-1.72702">
        <ele>56</ele>
        <time>2022-04-09T11:46:01Z</time>
      </trkpt>
      <trkpt lat="47.09614" lon="-1.72707">
        <ele>56</ele>
        <time>2022-04-09T11:46:03Z</time>
      </trkpt>
      <trkpt lat="47.09625" lon="-1.72712">
        <ele>56</ele>
        <time>2022-04-09T11:46:05Z</time>
      </trkpt>
      <trkpt lat="47.09635" lon="-1.72717">
        <ele>56</ele>
        <time>2022-04-09T11:46:07Z</time>
      </trkpt>
      <trkpt lat="47.09646" lon="-1.72721">
        <ele>57</ele>
        <time>2022-04-09T11:46:09Z</time>
      </trkpt>
      <trkpt lat="47.09657" lon="-1.72723">
        <ele>57</ele>
        <time>2022-04-09T11:46:11Z</time>
      </trkpt>
      <trkpt lat="47.09667" lon="-1.72725">
        <ele>57</ele>
        <time>2022-04-09T11:46:13Z</time>
      </trkpt>
      <trkpt lat="47.09679" lon="-1.72729">
        <ele>57</ele>
        <time>2022-04-09T11:46:15Z</time>
      </trkpt>
      <trkpt lat="47.0969" lon="-1.72734">
        <ele>57</ele>
        <time>2022-04-09T11:46:17Z</time>
      </trkpt>
      <trkpt lat="47.097" lon="-1.72741">
        <ele>57</ele>
        <time>2022-04-09T11:46:19Z</time>
      </trkpt>
      <trkpt lat="47.09709" lon="-1.72751">
        <ele>57</ele>
        <time>2022-04-09T11:46:21Z</time>
      </trkpt>
      <trkpt lat="47.09716" lon="-1.72765">
        <ele>57</ele>
        <time>2022-04-09T11:46:23Z</time>
      </trkpt>
      <trkpt lat="47.09723" lon="-1.72779">
        <ele>57</ele>
        <time>2022-04-09T11:46:25Z</time>
      </trkpt>
      <trkpt lat="47.09729" lon="-1.72793">
        <ele>57</ele>
        <time>2022-04-09T11:46:27Z</time>
      </trkpt>
      <trkpt lat="47.09735" lon="-1.72807">
        <ele>57</ele>
        <time>2022-04-09T11:46:29Z</time>
      </trkpt>
      <trkpt lat="47.09741" lon="-1.72821">
        <ele>57</ele>
        <time>2022-04-09T11:46:31Z</time>
      </trkpt>
      <trkpt lat="47.09747" lon="-1.72835">
        <ele>58</ele>
        <time>2022-04-09T11:46:33Z</time>
      </trkpt>
      <trkpt lat="47.09753" lon="-1.72849">
        <ele>57</ele>
        <time>2022-04-09T11:46:35Z</time>
      </trkpt>
      <trkpt lat="47.09759" lon="-1.72863">
        <ele>58</ele>
        <time>2022-04-09T11:46:37Z</time>
      </trkpt>
      <trkpt lat="47.09766" lon="-1.72872">
        <ele>57</ele>
        <time>2022-04-09T11:46:39Z</time>
      </trkpt>
      <trkpt lat="47.09775" lon="-1.7287">
        <ele>58</ele>
        <time>2022-04-09T11:46:41Z</time>
      </trkpt>
      <trkpt lat="47.09784" lon="-1.7286">
        <ele>58</ele>
        <time>2022-04-09T11:46:43Z</time>
      </trkpt>
      <trkpt lat="47.09793" lon="-1.72849">
        <ele>58</ele>
        <time>2022-04-09T11:46:45Z</time>
      </trkpt>
      <trkpt lat="47.09803" lon="-1.72839">
        <ele>59</ele>
        <time>2022-04-09T11:46:47Z</time>
      </trkpt>
      <trkpt lat="47.09814" lon="-1.72831">
        <ele>59</ele>
        <time>2022-04-09T11:46:49Z</time>
      </trkpt>
      <trkpt lat="47.09825" lon="-1.72825">
        <ele>59</ele>
        <time>2022-04-09T11:46:51Z</time>
      </trkpt>
      <trkpt lat="47.09836" lon="-1.72819">
        <ele>59</ele>
        <time>2022-04-09T11:46:53Z</time>
      </trkpt>
      <trkpt lat="47.09848" lon="-1.72813">
        <ele>59</ele>
        <time>2022-04-09T11:46:55Z</time>
      </trkpt>
      <trkpt lat="47.09859" lon="-1.72807">
        <ele>60</ele>
        <time>2022-04-09T11:46:57Z</time>
      </trkpt>
      <trkpt lat="47.0987" lon="-1.72802">
        <ele>60</ele>
        <time>2022-04-09T11:46:59Z</time>
      </trkpt>
      <trkpt lat="47.0988" lon="-1.72796">
        <ele>60</ele>
        <time>2022-04-09T11:47:01Z</time>
      </trkpt>
      <trkpt lat="47.09891" lon="-1.72791">
        <ele>60</ele>
        <time>2022-04-09T11:47:03Z</time>
      </trkpt>
      <trkpt lat="47.09901" lon="-1.72786">
        <ele>60</ele>
        <time>2022-04-09T11:47:05Z</time>
      </trkpt>
      <trkpt lat="47.09912" lon="-1.7278">
        <ele>60</ele>
        <time>2022-04-09T11:47:07Z</time>
      </trkpt>
      <trkpt lat="47.09923" lon="-1.72774">
        <ele>61</ele>
        <time>2022-04-09T11:47:09Z</time>
      </trkpt>
      <trkpt lat="47.09934" lon="-1.72768">
        <ele>61</ele>
        <time>2022-04-09T11:47:11Z</time>
      </trkpt>
      <trkpt lat="47.09945" lon="-1.72763">
        <ele>61</ele>
        <time>2022-04-09T11:47:13Z</time>
      </trkpt>
      <trkpt lat="47.09956" lon="-1.72757">
        <ele>61</ele>
        <time>2022-04-09T11:47:15Z</time>
      </trkpt>
      <trkpt lat="47.09968" lon="-1.72751">
        <ele>61</ele>
        <time>2022-04-09T11:47:17Z</time>
      </trkpt>
      <trkpt lat="47.09979" lon="-1.72745">
        <ele>61</ele>
        <time>2022-04-09T11:47:19Z</time>
      </trkpt>
      <trkpt lat="47.0999" lon="-1.72737">
        <ele>61</ele>
        <time>2022-04-09T11:47:21Z</time>
      </trkpt>
      <trkpt lat="47.1" lon="-1.72729">
        <ele>61</ele>
        <time>2022-04-09T11:47:23Z</time>
      </trkpt>
      <trkpt lat="47.10011" lon="-1.72721">
        <ele>61</ele>
        <time>2022-04-09T11:47:25Z</time>
      </trkpt>
      <trkpt lat="47.10022" lon="-1.72712">
        <ele>61</ele>
        <time>2022-04-09T11:47:27Z</time>
      </trkpt>
      <trkpt lat="47.10033" lon="-1.72703">
        <ele>61</ele>
        <time>2022-04-09T11:47:29Z</time>
      </trkpt>
      <trkpt lat="47.10044" lon="-1.72693">
        <ele>61</ele>
        <time>2022-04-09T11:47:31Z</time>
      </trkpt>
      <trkpt lat="47.10054" lon="-1.72683">
        <ele>61</ele>
        <time>2022-04-09T11:47:33Z</time>
      </trkpt>
      <trkpt lat="47.10064" lon="-1.72673">
        <ele>61</ele>
        <time>2022-04-09T11:47:35Z</time>
      </trkpt>
      <trkpt lat="47.10075" lon="-1.72663">
        <ele>61</ele>
        <time>2022-04-09T11:47:37Z</time>
      </trkpt>
      <trkpt lat="47.10085" lon="-1.72653">
        <ele>61</ele>
        <time>2022-04-09T11:47:39Z</time>
      </trkpt>
      <trkpt lat="47.10095" lon="-1.72642">
        <ele>61</ele>
        <time>2022-04-09T11:47:41Z</time>
      </trkpt>
      <trkpt lat="47.10106" lon="-1.72633">
        <ele>61</ele>
        <time>2022-04-09T11:47:43Z</time>
      </trkpt>
      <trkpt lat="47.10116" lon="-1.72622">
        <ele>62</ele>
        <time>2022-04-09T11:47:45Z</time>
      </trkpt>
      <trkpt lat="47.10126" lon="-1.72612">
        <ele>63</ele>
        <time>2022-04-09T11:47:47Z</time>
      </trkpt>
      <trkpt lat="47.10137" lon="-1.72602">
        <ele>63</ele>
        <time>2022-04-09T11:47:49Z</time>
      </trkpt>
      <trkpt lat="47.10146" lon="-1.72591">
        <ele>63</ele>
        <time>2022-04-09T11:47:51Z</time>
      </trkpt>
      <trkpt lat="47.10156" lon="-1.72579">
        <ele>63</ele>
        <time>2022-04-09T11:47:53Z</time>
      </trkpt>
      <trkpt lat="47.10166" lon="-1.72567">
        <ele>62</ele>
        <time>2022-04-09T11:47:55Z</time>
      </trkpt>
      <trkpt lat="47.10175" lon="-1.72554">
        <ele>62</ele>
        <time>2022-04-09T11:47:57Z</time>
      </trkpt>
      <trkpt lat="47.10185" lon="-1.7254">
        <ele>62</ele>
        <time>2022-04-09T11:47:59Z</time>
      </trkpt>
      <trkpt lat="47.10194" lon="-1.72527">
        <ele>61</ele>
        <time>2022-04-09T11:48:01Z</time>
      </trkpt>
      <trkpt lat="47.10202" lon="-1.72513">
        <ele>61</ele>
        <time>2022-04-09T11:48:03Z</time>
      </trkpt>
      <trkpt lat="47.10211" lon="-1.72498">
        <ele>61</ele>
        <time>2022-04-09T11:48:05Z</time>
      </trkpt>
      <trkpt lat="47.10219" lon="-1.72483">
        <ele>61</ele>
        <time>2022-04-09T11:48:07Z</time>
      </trkpt>
      <trkpt lat="47.10228" lon="-1.72468">
        <ele>61</ele>
        <time>2022-04-09T11:48:09Z</time>
      </trkpt>
      <trkpt lat="47.10236" lon="-1.72453">
        <ele>61</ele>
        <time>2022-04-09T11:48:11Z</time>
      </trkpt>
      <trkpt lat="47.10245" lon="-1.72439">
        <ele>61</ele>
        <time>2022-04-09T11:48:13Z</time>
      </trkpt>
      <trkpt lat="47.10254" lon="-1.72425">
        <ele>61</ele>
        <time>2022-04-09T11:48:15Z</time>
      </trkpt>
      <trkpt lat="47.10264" lon="-1.72413">
        <ele>60</ele>
        <time>2022-04-09T11:48:17Z</time>
      </trkpt>
      <trkpt lat="47.10275" lon="-1.72404">
        <ele>60</ele>
        <time>2022-04-09T11:48:19Z</time>
      </trkpt>
      <trkpt lat="47.10287" lon="-1.72396">
        <ele>60</ele>
        <time>2022-04-09T11:48:21Z</time>
      </trkpt>
      <trkpt lat="47.10299" lon="-1.7239">
        <ele>60</ele>
        <time>2022-04-09T11:48:23Z</time>
      </trkpt>
      <trkpt lat="47.10311" lon="-1.72384">
        <ele>60</ele>
        <time>2022-04-09T11:48:25Z</time>
      </trkpt>
      <trkpt lat="47.10323" lon="-1.72377">
        <ele>60</ele>
        <time>2022-04-09T11:48:27Z</time>
      </trkpt>
      <trkpt lat="47.10335" lon="-1.72371">
        <ele>60</ele>
        <time>2022-04-09T11:48:29Z</time>
      </trkpt>
      <trkpt lat="47.10348" lon="-1.72365">
        <ele>60</ele>
        <time>2022-04-09T11:48:31Z</time>
      </trkpt>
      <trkpt lat="47.1036" lon="-1.72359">
        <ele>59</ele>
        <time>2022-04-09T11:48:33Z</time>
      </trkpt>
      <trkpt lat="47.10372" lon="-1.72353">
        <ele>59</ele>
        <time>2022-04-09T11:48:35Z</time>
      </trkpt>
      <trkpt lat="47.10385" lon="-1.72346">
        <ele>59</ele>
        <time>2022-04-09T11:48:37Z</time>
      </trkpt>
      <trkpt lat="47.10398" lon="-1.7234">
        <ele>59</ele>
        <time>2022-04-09T11:48:39Z</time>
      </trkpt>
      <trkpt lat="47.10411" lon="-1.72334">
        <ele>58</ele>
        <time>2022-04-09T11:48:41Z</time>
      </trkpt>
      <trkpt lat="47.10423" lon="-1.72327">
        <ele>58</ele>
        <time>2022-04-09T11:48:43Z</time>
      </trkpt>
      <trkpt lat="47.10436" lon="-1.7232">
        <ele>58</ele>
        <time>2022-04-09T11:48:45Z</time>
      </trkpt>
      <trkpt lat="47.10449" lon="-1.72313">
        <ele>58</ele>
        <time>2022-04-09T11:48:47Z</time>
      </trkpt>
      <trkpt lat="47.10462" lon="-1.72307">
        <ele>58</ele>
        <time>2022-04-09T11:48:49Z</time>
      </trkpt>
      <trkpt lat="47.10475" lon="-1.723">
        <ele>58</ele>
        <time>2022-04-09T11:48:51Z</time>
      </trkpt>
      <trkpt lat="47.10488" lon="-1.72293">
        <ele>58</ele>
        <time>2022-04-09T11:48:53Z</time>
      </trkpt>
      <trkpt lat="47.105" lon="-1.72285">
        <ele>58</ele>
        <time>2022-04-09T11:48:55Z</time>
      </trkpt>
      <trkpt lat="47.10513" lon="-1.72275">
        <ele>58</ele>
        <time>2022-04-09T11:48:57Z</time>
      </trkpt>
      <trkpt lat="47.10525" lon="-1.72263">
        <ele>58</ele>
        <time>2022-04-09T11:48:59Z</time>
      </trkpt>
      <trkpt lat="47.10536" lon="-1.7225">
        <ele>58</ele>
        <time>2022-04-09T11:49:01Z</time>
      </trkpt>
      <trkpt lat="47.10545" lon="-1.72235">
        <ele>58</ele>
        <time>2022-04-09T11:49:03Z</time>
      </trkpt>
      <trkpt lat="47.10554" lon="-1.72221">
        <ele>58</ele>
        <time>2022-04-09T11:49:05Z</time>
      </trkpt>
      <trkpt lat="47.10563" lon="-1.72206">
        <ele>57</ele>
        <time>2022-04-09T11:49:07Z</time>
      </trkpt>
      <trkpt lat="47.10572" lon="-1.72192">
        <ele>57</ele>
        <time>2022-04-09T11:49:09Z</time>
      </trkpt>
      <trkpt lat="47.10581" lon="-1.72178">
        <ele>57</ele>
        <time>2022-04-09T11:49:11Z</time>
      </trkpt>
      <trkpt lat="47.1059" lon="-1.72165">
        <ele>57</ele>
        <time>2022-04-09T11:49:13Z</time>
      </trkpt>
      <trkpt lat="47.106" lon="-1.72153">
        <ele>58</ele>
        <time>2022-04-09T11:49:15Z</time>
      </trkpt>
      <trkpt lat="47.10609" lon="-1.72143">
        <ele>58</ele>
        <time>2022-04-09T11:49:17Z</time>
      </trkpt>
      <trkpt lat="47.1062" lon="-1.72135">
        <ele>58</ele>
        <time>2022-04-09T11:49:19Z</time>
      </trkpt>
      <trkpt lat="47.10631" lon="-1.7213">
        <ele>58</ele>
        <time>2022-04-09T11:49:21Z</time>
      </trkpt>
      <trkpt lat="47.10644" lon="-1.72125">
        <ele>58</ele>
        <time>2022-04-09T11:49:23Z</time>
      </trkpt>
      <trkpt lat="47.10656" lon="-1.72121">
        <ele>58</ele>
        <time>2022-04-09T11:49:25Z</time>
      </trkpt>
      <trkpt lat="47.10668" lon="-1.72118">
        <ele>58</ele>
        <time>2022-04-09T11:49:27Z</time>
      </trkpt>
      <trkpt lat="47.1068" lon="-1.72114">
        <ele>58</ele>
        <time>2022-04-09T11:49:29Z</time>
      </trkpt>
      <trkpt lat="47.10692" lon="-1.7211">
        <ele>58</ele>
        <time>2022-04-09T11:49:31Z</time>
      </trkpt>
      <trkpt lat="47.10703" lon="-1.72106">
        <ele>58</ele>
        <time>2022-04-09T11:49:33Z</time>
      </trkpt>
      <trkpt lat="47.10715" lon="-1.72102">
        <ele>57</ele>
        <time>2022-04-09T11:49:35Z</time>
      </trkpt>
      <trkpt lat="47.10727" lon="-1.72099">
        <ele>57</ele>
        <time>2022-04-09T11:49:37Z</time>
      </trkpt>
      <trkpt lat="47.1074" lon="-1.72096">
        <ele>56</ele>
        <time>2022-04-09T11:49:39Z</time>
      </trkpt>
      <trkpt lat="47.10752" lon="-1.72096">
        <ele>56</ele>
        <time>2022-04-09T11:49:41Z</time>
      </trkpt>
      <trkpt lat="47.10764" lon="-1.72098">
        <ele>56</ele>
        <time>2022-04-09T11:49:43Z</time>
      </trkpt>
      <trkpt lat="47.10777" lon="-1.72101">
        <ele>56</ele>
        <time>2022-04-09T11:49:45Z</time>
      </trkpt>
      <trkpt lat="47.10789" lon="-1.72105">
        <ele>56</ele>
        <time>2022-04-09T11:49:47Z</time>
      </trkpt>
      <trkpt lat="47.108" lon="-1.72113">
        <ele>55</ele>
        <time>2022-04-09T11:49:49Z</time>
      </trkpt>
      <trkpt lat="47.10811" lon="-1.72123">
        <ele>55</ele>
        <time>2022-04-09T11:49:51Z</time>
      </trkpt>
      <trkpt lat="47.1082" lon="-1.72134">
        <ele>55</ele>
        <time>2022-04-09T11:49:53Z</time>
      </trkpt>
      <trkpt lat="47.1083" lon="-1.72141">
        <ele>55</ele>
        <time>2022-04-09T11:49:55Z</time>
      </trkpt>
      <trkpt lat="47.1084" lon="-1.72141">
        <ele>55</ele>
        <time>2022-04-09T11:49:57Z</time>
      </trkpt>
      <trkpt lat="47.10851" lon="-1.72135">
        <ele>55</ele>
        <time>2022-04-09T11:49:59Z</time>
      </trkpt>
      <trkpt lat="47.10862" lon="-1.72127">
        <ele>56</ele>
        <time>2022-04-09T11:50:01Z</time>
      </trkpt>
      <trkpt lat="47.10871" lon="-1.72114">
        <ele>56</ele>
        <time>2022-04-09T11:50:03Z</time>
      </trkpt>
      <trkpt lat="47.10879" lon="-1.72101">
        <ele>56</ele>
        <time>2022-04-09T11:50:05Z</time>
      </trkpt>
      <trkpt lat="47.10888" lon="-1.72088">
        <ele>56</ele>
        <time>2022-04-09T11:50:07Z</time>
      </trkpt>
      <trkpt lat="47.10896" lon="-1.72077">
        <ele>56</ele>
        <time>2022-04-09T11:50:09Z</time>
      </trkpt>
      <trkpt lat="47.10905" lon="-1.72065">
        <ele>57</ele>
        <time>2022-04-09T11:50:11Z</time>
      </trkpt>
      <trkpt lat="47.10913" lon="-1.72053">
        <ele>57</ele>
        <time>2022-04-09T11:50:13Z</time>
      </trkpt>
      <trkpt lat="47.10921" lon="-1.72041">
        <ele>57</ele>
        <time>2022-04-09T11:50:15Z</time>
      </trkpt>
      <trkpt lat="47.1093" lon="-1.72029">
        <ele>57</ele>
        <time>2022-04-09T11:50:17Z</time>
      </trkpt>
      <trkpt lat="47.10939" lon="-1.72016">
        <ele>57</ele>
        <time>2022-04-09T11:50:19Z</time>
      </trkpt>
      <trkpt lat="47.10948" lon="-1.72003">
        <ele>58</ele>
        <time>2022-04-09T11:50:21Z</time>
      </trkpt>
      <trkpt lat="47.10956" lon="-1.71991">
        <ele>58</ele>
        <time>2022-04-09T11:50:23Z</time>
      </trkpt>
      <trkpt lat="47.10964" lon="-1.71978">
        <ele>58</ele>
        <time>2022-04-09T11:50:25Z</time>
      </trkpt>
      <trkpt lat="47.10973" lon="-1.71967">
        <ele>58</ele>
        <time>2022-04-09T11:50:27Z</time>
      </trkpt>
      <trkpt lat="47.10981" lon="-1.71955">
        <ele>58</ele>
        <time>2022-04-09T11:50:29Z</time>
      </trkpt>
      <trkpt lat="47.1099" lon="-1.71943">
        <ele>58</ele>
        <time>2022-04-09T11:50:31Z</time>
      </trkpt>
      <trkpt lat="47.10998" lon="-1.71931">
        <ele>59</ele>
        <time>2022-04-09T11:50:33Z</time>
      </trkpt>
      <trkpt lat="47.11007" lon="-1.71919">
        <ele>59</ele>
        <time>2022-04-09T11:50:35Z</time>
      </trkpt>
      <trkpt lat="47.11019" lon="-1.71901">
        <ele>59</ele>
        <time>2022-04-09T11:50:38Z</time>
      </trkpt>
      <trkpt lat="47.11028" lon="-1.71889">
        <ele>59</ele>
        <time>2022-04-09T11:50:40Z</time>
      </trkpt>
      <trkpt lat="47.11036" lon="-1.71877">
        <ele>59</ele>
        <time>2022-04-09T11:50:42Z</time>
      </trkpt>
      <trkpt lat="47.11045" lon="-1.71865">
        <ele>59</ele>
        <time>2022-04-09T11:50:44Z</time>
      </trkpt>
      <trkpt lat="47.11054" lon="-1.71852">
        <ele>59</ele>
        <time>2022-04-09T11:50:46Z</time>
      </trkpt>
      <trkpt lat="47.11063" lon="-1.71841">
        <ele>58</ele>
        <time>2022-04-09T11:50:48Z</time>
      </trkpt>
      <trkpt lat="47.11073" lon="-1.7183">
        <ele>58</ele>
        <time>2022-04-09T11:50:50Z</time>
      </trkpt>
      <trkpt lat="47.11082" lon="-1.71819">
        <ele>58</ele>
        <time>2022-04-09T11:50:52Z</time>
      </trkpt>
      <trkpt lat="47.11092" lon="-1.71809">
        <ele>58</ele>
        <time>2022-04-09T11:50:54Z</time>
      </trkpt>
      <trkpt lat="47.11102" lon="-1.71799">
        <ele>58</ele>
        <time>2022-04-09T11:50:56Z</time>
      </trkpt>
      <trkpt lat="47.11112" lon="-1.7179">
        <ele>58</ele>
        <time>2022-04-09T11:50:58Z</time>
      </trkpt>
      <trkpt lat="47.11122" lon="-1.71781">
        <ele>58</ele>
        <time>2022-04-09T11:51:00Z</time>
      </trkpt>
      <trkpt lat="47.11133" lon="-1.71772">
        <ele>58</ele>
        <time>2022-04-09T11:51:02Z</time>
      </trkpt>
      <trkpt lat="47.11144" lon="-1.71762">
        <ele>57</ele>
        <time>2022-04-09T11:51:04Z</time>
      </trkpt>
      <trkpt lat="47.11155" lon="-1.71752">
        <ele>57</ele>
        <time>2022-04-09T11:51:06Z</time>
      </trkpt>
      <trkpt lat="47.11167" lon="-1.71742">
        <ele>56</ele>
        <time>2022-04-09T11:51:08Z</time>
      </trkpt>
      <trkpt lat="47.11178" lon="-1.71732">
        <ele>56</ele>
        <time>2022-04-09T11:51:10Z</time>
      </trkpt>
      <trkpt lat="47.11189" lon="-1.71722">
        <ele>56</ele>
        <time>2022-04-09T11:51:12Z</time>
      </trkpt>
      <trkpt lat="47.112" lon="-1.71713">
        <ele>56</ele>
        <time>2022-04-09T11:51:14Z</time>
      </trkpt>
      <trkpt lat="47.11211" lon="-1.71703">
        <ele>56</ele>
        <time>2022-04-09T11:51:16Z</time>
      </trkpt>
      <trkpt lat="47.11222" lon="-1.71693">
        <ele>55</ele>
        <time>2022-04-09T11:51:18Z</time>
      </trkpt>
      <trkpt lat="47.11233" lon="-1.71683">
        <ele>55</ele>
        <time>2022-04-09T11:51:20Z</time>
      </trkpt>
      <trkpt lat="47.11245" lon="-1.71675">
        <ele>55</ele>
        <time>2022-04-09T11:51:22Z</time>
      </trkpt>
      <trkpt lat="47.11259" lon="-1.71672">
        <ele>55</ele>
        <time>2022-04-09T11:51:24Z</time>
      </trkpt>
      <trkpt lat="47.11272" lon="-1.71674">
        <ele>55</ele>
        <time>2022-04-09T11:51:26Z</time>
      </trkpt>
      <trkpt lat="47.11285" lon="-1.71673">
        <ele>55</ele>
        <time>2022-04-09T11:51:28Z</time>
      </trkpt>
      <trkpt lat="47.11297" lon="-1.71667">
        <ele>55</ele>
        <time>2022-04-09T11:51:30Z</time>
      </trkpt>
      <trkpt lat="47.11309" lon="-1.7166">
        <ele>56</ele>
        <time>2022-04-09T11:51:32Z</time>
      </trkpt>
      <trkpt lat="47.1132" lon="-1.71652">
        <ele>56</ele>
        <time>2022-04-09T11:51:34Z</time>
      </trkpt>
      <trkpt lat="47.11331" lon="-1.71644">
        <ele>56</ele>
        <time>2022-04-09T11:51:36Z</time>
      </trkpt>
      <trkpt lat="47.11341" lon="-1.71635">
        <ele>55</ele>
        <time>2022-04-09T11:51:38Z</time>
      </trkpt>
      <trkpt lat="47.1135" lon="-1.71621">
        <ele>55</ele>
        <time>2022-04-09T11:51:40Z</time>
      </trkpt>
      <trkpt lat="47.11358" lon="-1.71606">
        <ele>54</ele>
        <time>2022-04-09T11:51:42Z</time>
      </trkpt>
      <trkpt lat="47.11365" lon="-1.71591">
        <ele>54</ele>
        <time>2022-04-09T11:51:44Z</time>
      </trkpt>
      <trkpt lat="47.11374" lon="-1.71575">
        <ele>54</ele>
        <time>2022-04-09T11:51:46Z</time>
      </trkpt>
      <trkpt lat="47.11382" lon="-1.71559">
        <ele>54</ele>
        <time>2022-04-09T11:51:48Z</time>
      </trkpt>
      <trkpt lat="47.1139" lon="-1.71544">
        <ele>54</ele>
        <time>2022-04-09T11:51:50Z</time>
      </trkpt>
      <trkpt lat="47.11398" lon="-1.71529">
        <ele>54</ele>
        <time>2022-04-09T11:51:52Z</time>
      </trkpt>
      <trkpt lat="47.11406" lon="-1.71513">
        <ele>54</ele>
        <time>2022-04-09T11:51:54Z</time>
      </trkpt>
      <trkpt lat="47.11414" lon="-1.71497">
        <ele>54</ele>
        <time>2022-04-09T11:51:56Z</time>
      </trkpt>
      <trkpt lat="47.11422" lon="-1.71482">
        <ele>54</ele>
        <time>2022-04-09T11:51:58Z</time>
      </trkpt>
      <trkpt lat="47.11429" lon="-1.71466">
        <ele>54</ele>
        <time>2022-04-09T11:52:00Z</time>
      </trkpt>
      <trkpt lat="47.11437" lon="-1.7145">
        <ele>54</ele>
        <time>2022-04-09T11:52:02Z</time>
      </trkpt>
      <trkpt lat="47.11445" lon="-1.71435">
        <ele>54</ele>
        <time>2022-04-09T11:52:04Z</time>
      </trkpt>
      <trkpt lat="47.11453" lon="-1.7142">
        <ele>54</ele>
        <time>2022-04-09T11:52:06Z</time>
      </trkpt>
      <trkpt lat="47.11461" lon="-1.71404">
        <ele>54</ele>
        <time>2022-04-09T11:52:08Z</time>
      </trkpt>
      <trkpt lat="47.11469" lon="-1.71389">
        <ele>55</ele>
        <time>2022-04-09T11:52:10Z</time>
      </trkpt>
      <trkpt lat="47.11477" lon="-1.71374">
        <ele>55</ele>
        <time>2022-04-09T11:52:12Z</time>
      </trkpt>
      <trkpt lat="47.11485" lon="-1.71359">
        <ele>55</ele>
        <time>2022-04-09T11:52:14Z</time>
      </trkpt>
      <trkpt lat="47.11492" lon="-1.71344">
        <ele>55</ele>
        <time>2022-04-09T11:52:16Z</time>
      </trkpt>
      <trkpt lat="47.11499" lon="-1.71329">
        <ele>55</ele>
        <time>2022-04-09T11:52:18Z</time>
      </trkpt>
      <trkpt lat="47.11507" lon="-1.71314">
        <ele>55</ele>
        <time>2022-04-09T11:52:20Z</time>
      </trkpt>
      <trkpt lat="47.11515" lon="-1.713">
        <ele>55</ele>
        <time>2022-04-09T11:52:22Z</time>
      </trkpt>
      <trkpt lat="47.11523" lon="-1.71285">
        <ele>55</ele>
        <time>2022-04-09T11:52:24Z</time>
      </trkpt>
      <trkpt lat="47.1153" lon="-1.7127">
        <ele>55</ele>
        <time>2022-04-09T11:52:26Z</time>
      </trkpt>
      <trkpt lat="47.11537" lon="-1.71256">
        <ele>55</ele>
        <time>2022-04-09T11:52:28Z</time>
      </trkpt>
      <trkpt lat="47.11545" lon="-1.71242">
        <ele>56</ele>
        <time>2022-04-09T11:52:30Z</time>
      </trkpt>
      <trkpt lat="47.11553" lon="-1.71229">
        <ele>56</ele>
        <time>2022-04-09T11:52:32Z</time>
      </trkpt>
      <trkpt lat="47.11561" lon="-1.71216">
        <ele>56</ele>
        <time>2022-04-09T11:52:34Z</time>
      </trkpt>
      <trkpt lat="47.1157" lon="-1.71204">
        <ele>56</ele>
        <time>2022-04-09T11:52:36Z</time>
      </trkpt>
      <trkpt lat="47.11579" lon="-1.71192">
        <ele>56</ele>
        <time>2022-04-09T11:52:38Z</time>
      </trkpt>
      <trkpt lat="47.11588" lon="-1.7118">
        <ele>56</ele>
        <time>2022-04-09T11:52:40Z</time>
      </trkpt>
      <trkpt lat="47.11598" lon="-1.71169">
        <ele>56</ele>
        <time>2022-04-09T11:52:42Z</time>
      </trkpt>
      <trkpt lat="47.11607" lon="-1.71158">
        <ele>56</ele>
        <time>2022-04-09T11:52:44Z</time>
      </trkpt>
      <trkpt lat="47.11617" lon="-1.71147">
        <ele>57</ele>
        <time>2022-04-09T11:52:46Z</time>
      </trkpt>
      <trkpt lat="47.11627" lon="-1.71138">
        <ele>57</ele>
        <time>2022-04-09T11:52:48Z</time>
      </trkpt>
      <trkpt lat="47.11637" lon="-1.71129">
        <ele>57</ele>
        <time>2022-04-09T11:52:50Z</time>
      </trkpt>
      <trkpt lat="47.11646" lon="-1.71121">
        <ele>57</ele>
        <time>2022-04-09T11:52:52Z</time>
      </trkpt>
      <trkpt lat="47.11657" lon="-1.71113">
        <ele>57</ele>
        <time>2022-04-09T11:52:54Z</time>
      </trkpt>
      <trkpt lat="47.11668" lon="-1.71106">
        <ele>57</ele>
        <time>2022-04-09T11:52:56Z</time>
      </trkpt>
      <trkpt lat="47.11678" lon="-1.71098">
        <ele>58</ele>
        <time>2022-04-09T11:52:58Z</time>
      </trkpt>
      <trkpt lat="47.11689" lon="-1.71091">
        <ele>58</ele>
        <time>2022-04-09T11:53:00Z</time>
      </trkpt>
      <trkpt lat="47.11699" lon="-1.71083">
        <ele>58</ele>
        <time>2022-04-09T11:53:02Z</time>
      </trkpt>
      <trkpt lat="47.11711" lon="-1.71076">
        <ele>58</ele>
        <time>2022-04-09T11:53:04Z</time>
      </trkpt>
      <trkpt lat="47.11722" lon="-1.71069">
        <ele>58</ele>
        <time>2022-04-09T11:53:06Z</time>
      </trkpt>
      <trkpt lat="47.11733" lon="-1.71062">
        <ele>57</ele>
        <time>2022-04-09T11:53:08Z</time>
      </trkpt>
      <trkpt lat="47.11744" lon="-1.71056">
        <ele>57</ele>
        <time>2022-04-09T11:53:10Z</time>
      </trkpt>
      <trkpt lat="47.11755" lon="-1.71048">
        <ele>57</ele>
        <time>2022-04-09T11:53:12Z</time>
      </trkpt>
      <trkpt lat="47.11767" lon="-1.71041">
        <ele>56</ele>
        <time>2022-04-09T11:53:14Z</time>
      </trkpt>
      <trkpt lat="47.11778" lon="-1.71033">
        <ele>56</ele>
        <time>2022-04-09T11:53:16Z</time>
      </trkpt>
      <trkpt lat="47.1179" lon="-1.71026">
        <ele>56</ele>
        <time>2022-04-09T11:53:18Z</time>
      </trkpt>
      <trkpt lat="47.11802" lon="-1.71019">
        <ele>56</ele>
        <time>2022-04-09T11:53:20Z</time>
      </trkpt>
      <trkpt lat="47.11814" lon="-1.71011">
        <ele>56</ele>
        <time>2022-04-09T11:53:22Z</time>
      </trkpt>
      <trkpt lat="47.11825" lon="-1.71003">
        <ele>55</ele>
        <time>2022-04-09T11:53:24Z</time>
      </trkpt>
      <trkpt lat="47.11837" lon="-1.70995">
        <ele>55</ele>
        <time>2022-04-09T11:53:26Z</time>
      </trkpt>
      <trkpt lat="47.11849" lon="-1.70987">
        <ele>55</ele>
        <time>2022-04-09T11:53:28Z</time>
      </trkpt>
      <trkpt lat="47.1186" lon="-1.70979">
        <ele>55</ele>
        <time>2022-04-09T11:53:30Z</time>
      </trkpt>
      <trkpt lat="47.11872" lon="-1.70971">
        <ele>55</ele>
        <time>2022-04-09T11:53:32Z</time>
      </trkpt>
      <trkpt lat="47.11884" lon="-1.70963">
        <ele>56</ele>
        <time>2022-04-09T11:53:34Z</time>
      </trkpt>
      <trkpt lat="47.11896" lon="-1.70955">
        <ele>56</ele>
        <time>2022-04-09T11:53:36Z</time>
      </trkpt>
      <trkpt lat="47.11908" lon="-1.70948">
        <ele>56</ele>
        <time>2022-04-09T11:53:38Z</time>
      </trkpt>
      <trkpt lat="47.11919" lon="-1.7094">
        <ele>56</ele>
        <time>2022-04-09T11:53:40Z</time>
      </trkpt>
      <trkpt lat="47.11931" lon="-1.70933">
        <ele>56</ele>
        <time>2022-04-09T11:53:42Z</time>
      </trkpt>
      <trkpt lat="47.11943" lon="-1.70925">
        <ele>56</ele>
        <time>2022-04-09T11:53:44Z</time>
      </trkpt>
      <trkpt lat="47.11954" lon="-1.70918">
        <ele>56</ele>
        <time>2022-04-09T11:53:46Z</time>
      </trkpt>
      <trkpt lat="47.11964" lon="-1.70911">
        <ele>57</ele>
        <time>2022-04-09T11:53:48Z</time>
      </trkpt>
      <trkpt lat="47.11975" lon="-1.70904">
        <ele>57</ele>
        <time>2022-04-09T11:53:50Z</time>
      </trkpt>
      <trkpt lat="47.11986" lon="-1.70898">
        <ele>57</ele>
        <time>2022-04-09T11:53:52Z</time>
      </trkpt>
      <trkpt lat="47.11997" lon="-1.7089">
        <ele>57</ele>
        <time>2022-04-09T11:53:54Z</time>
      </trkpt>
      <trkpt lat="47.12008" lon="-1.70883">
        <ele>57</ele>
        <time>2022-04-09T11:53:56Z</time>
      </trkpt>
      <trkpt lat="47.12018" lon="-1.70876">
        <ele>57</ele>
        <time>2022-04-09T11:53:58Z</time>
      </trkpt>
      <trkpt lat="47.12029" lon="-1.70869">
        <ele>57</ele>
        <time>2022-04-09T11:54:00Z</time>
      </trkpt>
      <trkpt lat="47.1204" lon="-1.70862">
        <ele>57</ele>
        <time>2022-04-09T11:54:02Z</time>
      </trkpt>
      <trkpt lat="47.12052" lon="-1.70855">
        <ele>57</ele>
        <time>2022-04-09T11:54:04Z</time>
      </trkpt>
      <trkpt lat="47.12063" lon="-1.70848">
        <ele>57</ele>
        <time>2022-04-09T11:54:06Z</time>
      </trkpt>
      <trkpt lat="47.12074" lon="-1.7084">
        <ele>57</ele>
        <time>2022-04-09T11:54:08Z</time>
      </trkpt>
      <trkpt lat="47.12085" lon="-1.70833">
        <ele>57</ele>
        <time>2022-04-09T11:54:10Z</time>
      </trkpt>
      <trkpt lat="47.12096" lon="-1.70825">
        <ele>57</ele>
        <time>2022-04-09T11:54:12Z</time>
      </trkpt>
      <trkpt lat="47.12108" lon="-1.70818">
        <ele>56</ele>
        <time>2022-04-09T11:54:14Z</time>
      </trkpt>
      <trkpt lat="47.1212" lon="-1.7081">
        <ele>56</ele>
        <time>2022-04-09T11:54:16Z</time>
      </trkpt>
      <trkpt lat="47.12132" lon="-1.70802">
        <ele>56</ele>
        <time>2022-04-09T11:54:18Z</time>
      </trkpt>
      <trkpt lat="47.12144" lon="-1.70795">
        <ele>56</ele>
        <time>2022-04-09T11:54:20Z</time>
      </trkpt>
      <trkpt lat="47.12156" lon="-1.70787">
        <ele>56</ele>
        <time>2022-04-09T11:54:22Z</time>
      </trkpt>
      <trkpt lat="47.12168" lon="-1.70779">
        <ele>56</ele>
        <time>2022-04-09T11:54:24Z</time>
      </trkpt>
      <trkpt lat="47.1218" lon="-1.7077">
        <ele>55</ele>
        <time>2022-04-09T11:54:26Z</time>
      </trkpt>
      <trkpt lat="47.12192" lon="-1.70762">
        <ele>55</ele>
        <time>2022-04-09T11:54:28Z</time>
      </trkpt>
      <trkpt lat="47.12204" lon="-1.70752">
        <ele>55</ele>
        <time>2022-04-09T11:54:30Z</time>
      </trkpt>
      <trkpt lat="47.12215" lon="-1.70742">
        <ele>55</ele>
        <time>2022-04-09T11:54:32Z</time>
      </trkpt>
      <trkpt lat="47.12226" lon="-1.70732">
        <ele>55</ele>
        <time>2022-04-09T11:54:34Z</time>
      </trkpt>
      <trkpt lat="47.12237" lon="-1.70721">
        <ele>55</ele>
        <time>2022-04-09T11:54:36Z</time>
      </trkpt>
      <trkpt lat="47.12247" lon="-1.70709">
        <ele>55</ele>
        <time>2022-04-09T11:54:38Z</time>
      </trkpt>
      <trkpt lat="47.12257" lon="-1.70697">
        <ele>55</ele>
        <time>2022-04-09T11:54:40Z</time>
      </trkpt>
      <trkpt lat="47.12266" lon="-1.70684">
        <ele>55</ele>
        <time>2022-04-09T11:54:42Z</time>
      </trkpt>
      <trkpt lat="47.12275" lon="-1.70671">
        <ele>55</ele>
        <time>2022-04-09T11:54:44Z</time>
      </trkpt>
      <trkpt lat="47.12284" lon="-1.70658">
        <ele>54</ele>
        <time>2022-04-09T11:54:46Z</time>
      </trkpt>
      <trkpt lat="47.12293" lon="-1.70645">
        <ele>55</ele>
        <time>2022-04-09T11:54:48Z</time>
      </trkpt>
      <trkpt lat="47.12302" lon="-1.70632">
        <ele>54</ele>
        <time>2022-04-09T11:54:50Z</time>
      </trkpt>
      <trkpt lat="47.1231" lon="-1.70619">
        <ele>54</ele>
        <time>2022-04-09T11:54:52Z</time>
      </trkpt>
      <trkpt lat="47.12319" lon="-1.70606">
        <ele>55</ele>
        <time>2022-04-09T11:54:54Z</time>
      </trkpt>
      <trkpt lat="47.12328" lon="-1.70593">
        <ele>55</ele>
        <time>2022-04-09T11:54:56Z</time>
      </trkpt>
      <trkpt lat="47.12337" lon="-1.70579">
        <ele>55</ele>
        <time>2022-04-09T11:54:58Z</time>
      </trkpt>
      <trkpt lat="47.12346" lon="-1.70566">
        <ele>55</ele>
        <time>2022-04-09T11:55:00Z</time>
      </trkpt>
      <trkpt lat="47.12355" lon="-1.70552">
        <ele>54</ele>
        <time>2022-04-09T11:55:02Z</time>
      </trkpt>
      <trkpt lat="47.12362" lon="-1.70537">
        <ele>54</ele>
        <time>2022-04-09T11:55:04Z</time>
      </trkpt>
      <trkpt lat="47.1237" lon="-1.7052">
        <ele>54</ele>
        <time>2022-04-09T11:55:06Z</time>
      </trkpt>
      <trkpt lat="47.12376" lon="-1.70502">
        <ele>54</ele>
        <time>2022-04-09T11:55:08Z</time>
      </trkpt>
      <trkpt lat="47.12382" lon="-1.70485">
        <ele>54</ele>
        <time>2022-04-09T11:55:10Z</time>
      </trkpt>
      <trkpt lat="47.12387" lon="-1.70466">
        <ele>54</ele>
        <time>2022-04-09T11:55:12Z</time>
      </trkpt>
      <trkpt lat="47.12391" lon="-1.70448">
        <ele>54</ele>
        <time>2022-04-09T11:55:14Z</time>
      </trkpt>
      <trkpt lat="47.12395" lon="-1.70429">
        <ele>54</ele>
        <time>2022-04-09T11:55:16Z</time>
      </trkpt>
      <trkpt lat="47.12399" lon="-1.70411">
        <ele>55</ele>
        <time>2022-04-09T11:55:18Z</time>
      </trkpt>
      <trkpt lat="47.12403" lon="-1.70393">
        <ele>55</ele>
        <time>2022-04-09T11:55:20Z</time>
      </trkpt>
      <trkpt lat="47.12406" lon="-1.70376">
        <ele>55</ele>
        <time>2022-04-09T11:55:22Z</time>
      </trkpt>
      <trkpt lat="47.1241" lon="-1.70357">
        <ele>55</ele>
        <time>2022-04-09T11:55:24Z</time>
      </trkpt>
      <trkpt lat="47.12414" lon="-1.7034">
        <ele>56</ele>
        <time>2022-04-09T11:55:26Z</time>
      </trkpt>
      <trkpt lat="47.12419" lon="-1.70323">
        <ele>57</ele>
        <time>2022-04-09T11:55:28Z</time>
      </trkpt>
      <trkpt lat="47.12425" lon="-1.70307">
        <ele>58</ele>
        <time>2022-04-09T11:55:30Z</time>
      </trkpt>
      <trkpt lat="47.12433" lon="-1.70292">
        <ele>58</ele>
        <time>2022-04-09T11:55:32Z</time>
      </trkpt>
      <trkpt lat="47.12442" lon="-1.70278">
        <ele>59</ele>
        <time>2022-04-09T11:55:34Z</time>
      </trkpt>
      <trkpt lat="47.12454" lon="-1.70269">
        <ele>58</ele>
        <time>2022-04-09T11:55:36Z</time>
      </trkpt>
      <trkpt lat="47.12465" lon="-1.7026">
        <ele>59</ele>
        <time>2022-04-09T11:55:38Z</time>
      </trkpt>
      <trkpt lat="47.12477" lon="-1.70253">
        <ele>59</ele>
        <time>2022-04-09T11:55:40Z</time>
      </trkpt>
      <trkpt lat="47.1249" lon="-1.70247">
        <ele>59</ele>
        <time>2022-04-09T11:55:42Z</time>
      </trkpt>
      <trkpt lat="47.12502" lon="-1.7024">
        <ele>58</ele>
        <time>2022-04-09T11:55:44Z</time>
      </trkpt>
      <trkpt lat="47.12513" lon="-1.70233">
        <ele>58</ele>
        <time>2022-04-09T11:55:46Z</time>
      </trkpt>
      <trkpt lat="47.12525" lon="-1.70227">
        <ele>57</ele>
        <time>2022-04-09T11:55:48Z</time>
      </trkpt>
      <trkpt lat="47.12537" lon="-1.70221">
        <ele>58</ele>
        <time>2022-04-09T11:55:50Z</time>
      </trkpt>
      <trkpt lat="47.12549" lon="-1.70215">
        <ele>58</ele>
        <time>2022-04-09T11:55:52Z</time>
      </trkpt>
      <trkpt lat="47.12561" lon="-1.70209">
        <ele>58</ele>
        <time>2022-04-09T11:55:54Z</time>
      </trkpt>
      <trkpt lat="47.12573" lon="-1.70202">
        <ele>58</ele>
        <time>2022-04-09T11:55:56Z</time>
      </trkpt>
      <trkpt lat="47.12586" lon="-1.70196">
        <ele>58</ele>
        <time>2022-04-09T11:55:58Z</time>
      </trkpt>
      <trkpt lat="47.12597" lon="-1.70189">
        <ele>57</ele>
        <time>2022-04-09T11:56:00Z</time>
      </trkpt>
      <trkpt lat="47.12609" lon="-1.70183">
        <ele>57</ele>
        <time>2022-04-09T11:56:02Z</time>
      </trkpt>
      <trkpt lat="47.12622" lon="-1.70177">
        <ele>57</ele>
        <time>2022-04-09T11:56:04Z</time>
      </trkpt>
      <trkpt lat="47.12634" lon="-1.70171">
        <ele>56</ele>
        <time>2022-04-09T11:56:06Z</time>
      </trkpt>
      <trkpt lat="47.12647" lon="-1.70164">
        <ele>56</ele>
        <time>2022-04-09T11:56:08Z</time>
      </trkpt>
      <trkpt lat="47.1266" lon="-1.70158">
        <ele>55</ele>
        <time>2022-04-09T11:56:10Z</time>
      </trkpt>
      <trkpt lat="47.12672" lon="-1.70151">
        <ele>56</ele>
        <time>2022-04-09T11:56:12Z</time>
      </trkpt>
      <trkpt lat="47.12684" lon="-1.70145">
        <ele>56</ele>
        <time>2022-04-09T11:56:14Z</time>
      </trkpt>
      <trkpt lat="47.12696" lon="-1.70139">
        <ele>56</ele>
        <time>2022-04-09T11:56:16Z</time>
      </trkpt>
      <trkpt lat="47.12709" lon="-1.70133">
        <ele>55</ele>
        <time>2022-04-09T11:56:18Z</time>
      </trkpt>
      <trkpt lat="47.1272" lon="-1.70127">
        <ele>56</ele>
        <time>2022-04-09T11:56:20Z</time>
      </trkpt>
      <trkpt lat="47.12732" lon="-1.70121">
        <ele>57</ele>
        <time>2022-04-09T11:56:22Z</time>
      </trkpt>
      <trkpt lat="47.12744" lon="-1.70114">
        <ele>56</ele>
        <time>2022-04-09T11:56:24Z</time>
      </trkpt>
      <trkpt lat="47.12756" lon="-1.70108">
        <ele>56</ele>
        <time>2022-04-09T11:56:26Z</time>
      </trkpt>
      <trkpt lat="47.12767" lon="-1.70102">
        <ele>56</ele>
        <time>2022-04-09T11:56:28Z</time>
      </trkpt>
      <trkpt lat="47.12779" lon="-1.70096">
        <ele>56</ele>
        <time>2022-04-09T11:56:30Z</time>
      </trkpt>
      <trkpt lat="47.1279" lon="-1.7009">
        <ele>57</ele>
        <time>2022-04-09T11:56:32Z</time>
      </trkpt>
      <trkpt lat="47.12802" lon="-1.70084">
        <ele>58</ele>
        <time>2022-04-09T11:56:34Z</time>
      </trkpt>
      <trkpt lat="47.12813" lon="-1.70079">
        <ele>57</ele>
        <time>2022-04-09T11:56:36Z</time>
      </trkpt>
      <trkpt lat="47.12824" lon="-1.70072">
        <ele>57</ele>
        <time>2022-04-09T11:56:38Z</time>
      </trkpt>
      <trkpt lat="47.12836" lon="-1.70066">
        <ele>57</ele>
        <time>2022-04-09T11:56:40Z</time>
      </trkpt>
      <trkpt lat="47.12847" lon="-1.70059">
        <ele>57</ele>
        <time>2022-04-09T11:56:42Z</time>
      </trkpt>
      <trkpt lat="47.12859" lon="-1.70053">
        <ele>57</ele>
        <time>2022-04-09T11:56:44Z</time>
      </trkpt>
      <trkpt lat="47.12871" lon="-1.70046">
        <ele>58</ele>
        <time>2022-04-09T11:56:46Z</time>
      </trkpt>
      <trkpt lat="47.12883" lon="-1.70041">
        <ele>58</ele>
        <time>2022-04-09T11:56:48Z</time>
      </trkpt>
      <trkpt lat="47.12894" lon="-1.70035">
        <ele>58</ele>
        <time>2022-04-09T11:56:50Z</time>
      </trkpt>
      <trkpt lat="47.12906" lon="-1.70029">
        <ele>58</ele>
        <time>2022-04-09T11:56:52Z</time>
      </trkpt>
      <trkpt lat="47.12918" lon="-1.70023">
        <ele>59</ele>
        <time>2022-04-09T11:56:54Z</time>
      </trkpt>
      <trkpt lat="47.1293" lon="-1.70017">
        <ele>58</ele>
        <time>2022-04-09T11:56:56Z</time>
      </trkpt>
      <trkpt lat="47.12941" lon="-1.7001">
        <ele>58</ele>
        <time>2022-04-09T11:56:58Z</time>
      </trkpt>
      <trkpt lat="47.12953" lon="-1.70004">
        <ele>58</ele>
        <time>2022-04-09T11:57:00Z</time>
      </trkpt>
      <trkpt lat="47.12965" lon="-1.69998">
        <ele>58</ele>
        <time>2022-04-09T11:57:02Z</time>
      </trkpt>
      <trkpt lat="47.12976" lon="-1.69993">
        <ele>58</ele>
        <time>2022-04-09T11:57:04Z</time>
      </trkpt>
      <trkpt lat="47.12988" lon="-1.69987">
        <ele>57</ele>
        <time>2022-04-09T11:57:06Z</time>
      </trkpt>
      <trkpt lat="47.12999" lon="-1.69981">
        <ele>57</ele>
        <time>2022-04-09T11:57:08Z</time>
      </trkpt>
      <trkpt lat="47.13011" lon="-1.69975">
        <ele>57</ele>
        <time>2022-04-09T11:57:10Z</time>
      </trkpt>
      <trkpt lat="47.13023" lon="-1.69968">
        <ele>57</ele>
        <time>2022-04-09T11:57:12Z</time>
      </trkpt>
      <trkpt lat="47.13035" lon="-1.69962">
        <ele>56</ele>
        <time>2022-04-09T11:57:14Z</time>
      </trkpt>
      <trkpt lat="47.13046" lon="-1.69956">
        <ele>57</ele>
        <time>2022-04-09T11:57:16Z</time>
      </trkpt>
      <trkpt lat="47.13058" lon="-1.6995">
        <ele>57</ele>
        <time>2022-04-09T11:57:18Z</time>
      </trkpt>
      <trkpt lat="47.13069" lon="-1.69945">
        <ele>57</ele>
        <time>2022-04-09T11:57:20Z</time>
      </trkpt>
      <trkpt lat="47.1308" lon="-1.69939">
        <ele>57</ele>
        <time>2022-04-09T11:57:22Z</time>
      </trkpt>
      <trkpt lat="47.13091" lon="-1.69933">
        <ele>58</ele>
        <time>2022-04-09T11:57:24Z</time>
      </trkpt>
      <trkpt lat="47.13103" lon="-1.69927">
        <ele>58</ele>
        <time>2022-04-09T11:57:26Z</time>
      </trkpt>
      <trkpt lat="47.13115" lon="-1.69922">
        <ele>58</ele>
        <time>2022-04-09T11:57:28Z</time>
      </trkpt>
      <trkpt lat="47.13126" lon="-1.69916">
        <ele>58</ele>
        <time>2022-04-09T11:57:30Z</time>
      </trkpt>
      <trkpt lat="47.13137" lon="-1.6991">
        <ele>58</ele>
        <time>2022-04-09T11:57:32Z</time>
      </trkpt>
      <trkpt lat="47.13149" lon="-1.69903">
        <ele>59</ele>
        <time>2022-04-09T11:57:34Z</time>
      </trkpt>
      <trkpt lat="47.1316" lon="-1.69898">
        <ele>58</ele>
        <time>2022-04-09T11:57:36Z</time>
      </trkpt>
      <trkpt lat="47.13171" lon="-1.69891">
        <ele>59</ele>
        <time>2022-04-09T11:57:38Z</time>
      </trkpt>
      <trkpt lat="47.13182" lon="-1.69885">
        <ele>59</ele>
        <time>2022-04-09T11:57:40Z</time>
      </trkpt>
      <trkpt lat="47.13194" lon="-1.6988">
        <ele>59</ele>
        <time>2022-04-09T11:57:42Z</time>
      </trkpt>
      <trkpt lat="47.13204" lon="-1.69874">
        <ele>60</ele>
        <time>2022-04-09T11:57:44Z</time>
      </trkpt>
      <trkpt lat="47.13216" lon="-1.69868">
        <ele>60</ele>
        <time>2022-04-09T11:57:46Z</time>
      </trkpt>
      <trkpt lat="47.13227" lon="-1.69862">
        <ele>59</ele>
        <time>2022-04-09T11:57:48Z</time>
      </trkpt>
      <trkpt lat="47.13238" lon="-1.69856">
        <ele>60</ele>
        <time>2022-04-09T11:57:50Z</time>
      </trkpt>
      <trkpt lat="47.13249" lon="-1.69851">
        <ele>59</ele>
        <time>2022-04-09T11:57:52Z</time>
      </trkpt>
      <trkpt lat="47.1326" lon="-1.69846">
        <ele>59</ele>
        <time>2022-04-09T11:57:54Z</time>
      </trkpt>
      <trkpt lat="47.1327" lon="-1.6984">
        <ele>59</ele>
        <time>2022-04-09T11:57:56Z</time>
      </trkpt>
      <trkpt lat="47.13281" lon="-1.69834">
        <ele>58</ele>
        <time>2022-04-09T11:57:58Z</time>
      </trkpt>
      <trkpt lat="47.13292" lon="-1.69828">
        <ele>58</ele>
        <time>2022-04-09T11:58:00Z</time>
      </trkpt>
      <trkpt lat="47.13304" lon="-1.69822">
        <ele>58</ele>
        <time>2022-04-09T11:58:02Z</time>
      </trkpt>
      <trkpt lat="47.13316" lon="-1.69815">
        <ele>58</ele>
        <time>2022-04-09T11:58:04Z</time>
      </trkpt>
      <trkpt lat="47.13328" lon="-1.69809">
        <ele>58</ele>
        <time>2022-04-09T11:58:06Z</time>
      </trkpt>
      <trkpt lat="47.1334" lon="-1.69802">
        <ele>58</ele>
        <time>2022-04-09T11:58:08Z</time>
      </trkpt>
      <trkpt lat="47.13352" lon="-1.69795">
        <ele>58</ele>
        <time>2022-04-09T11:58:10Z</time>
      </trkpt>
      <trkpt lat="47.13365" lon="-1.69789">
        <ele>58</ele>
        <time>2022-04-09T11:58:12Z</time>
      </trkpt>
      <trkpt lat="47.13377" lon="-1.69783">
        <ele>58</ele>
        <time>2022-04-09T11:58:14Z</time>
      </trkpt>
      <trkpt lat="47.13388" lon="-1.69777">
        <ele>59</ele>
        <time>2022-04-09T11:58:16Z</time>
      </trkpt>
      <trkpt lat="47.134" lon="-1.69771">
        <ele>60</ele>
        <time>2022-04-09T11:58:18Z</time>
      </trkpt>
      <trkpt lat="47.13411" lon="-1.69764">
        <ele>60</ele>
        <time>2022-04-09T11:58:20Z</time>
      </trkpt>
      <trkpt lat="47.13423" lon="-1.69757">
        <ele>61</ele>
        <time>2022-04-09T11:58:22Z</time>
      </trkpt>
      <trkpt lat="47.13434" lon="-1.69752">
        <ele>62</ele>
        <time>2022-04-09T11:58:24Z</time>
      </trkpt>
      <trkpt lat="47.13446" lon="-1.69747">
        <ele>62</ele>
        <time>2022-04-09T11:58:26Z</time>
      </trkpt>
      <trkpt lat="47.13457" lon="-1.69743">
        <ele>62</ele>
        <time>2022-04-09T11:58:28Z</time>
      </trkpt>
      <trkpt lat="47.13469" lon="-1.6974">
        <ele>63</ele>
        <time>2022-04-09T11:58:30Z</time>
      </trkpt>
      <trkpt lat="47.13481" lon="-1.69737">
        <ele>62</ele>
        <time>2022-04-09T11:58:32Z</time>
      </trkpt>
      <trkpt lat="47.13494" lon="-1.69734">
        <ele>61</ele>
        <time>2022-04-09T11:58:34Z</time>
      </trkpt>
      <trkpt lat="47.13506" lon="-1.69733">
        <ele>59</ele>
        <time>2022-04-09T11:58:36Z</time>
      </trkpt>
      <trkpt lat="47.13518" lon="-1.69733">
        <ele>58</ele>
        <time>2022-04-09T11:58:38Z</time>
      </trkpt>
      <trkpt lat="47.1353" lon="-1.69734">
        <ele>57</ele>
        <time>2022-04-09T11:58:40Z</time>
      </trkpt>
      <trkpt lat="47.13542" lon="-1.69734">
        <ele>56</ele>
        <time>2022-04-09T11:58:42Z</time>
      </trkpt>
      <trkpt lat="47.13554" lon="-1.69734">
        <ele>56</ele>
        <time>2022-04-09T11:58:44Z</time>
      </trkpt>
      <trkpt lat="47.13565" lon="-1.69734">
        <ele>55</ele>
        <time>2022-04-09T11:58:46Z</time>
      </trkpt>
      <trkpt lat="47.13577" lon="-1.69734">
        <ele>55</ele>
        <time>2022-04-09T11:58:48Z</time>
      </trkpt>
      <trkpt lat="47.13589" lon="-1.69733">
        <ele>55</ele>
        <time>2022-04-09T11:58:50Z</time>
      </trkpt>
      <trkpt lat="47.13601" lon="-1.69733">
        <ele>56</ele>
        <time>2022-04-09T11:58:52Z</time>
      </trkpt>
      <trkpt lat="47.13612" lon="-1.69733">
        <ele>56</ele>
        <time>2022-04-09T11:58:54Z</time>
      </trkpt>
      <trkpt lat="47.13624" lon="-1.69734">
        <ele>56</ele>
        <time>2022-04-09T11:58:56Z</time>
      </trkpt>
      <trkpt lat="47.13636" lon="-1.69734">
        <ele>56</ele>
        <time>2022-04-09T11:58:58Z</time>
      </trkpt>
      <trkpt lat="47.13648" lon="-1.69734">
        <ele>56</ele>
        <time>2022-04-09T11:59:00Z</time>
      </trkpt>
      <trkpt lat="47.1366" lon="-1.69735">
        <ele>56</ele>
        <time>2022-04-09T11:59:02Z</time>
      </trkpt>
      <trkpt lat="47.13671" lon="-1.69734">
        <ele>56</ele>
        <time>2022-04-09T11:59:04Z</time>
      </trkpt>
      <trkpt lat="47.13683" lon="-1.69734">
        <ele>56</ele>
        <time>2022-04-09T11:59:06Z</time>
      </trkpt>
      <trkpt lat="47.13695" lon="-1.69734">
        <ele>56</ele>
        <time>2022-04-09T11:59:08Z</time>
      </trkpt>
      <trkpt lat="47.13706" lon="-1.69733">
        <ele>56</ele>
        <time>2022-04-09T11:59:10Z</time>
      </trkpt>
      <trkpt lat="47.13718" lon="-1.69732">
        <ele>56</ele>
        <time>2022-04-09T11:59:12Z</time>
      </trkpt>
      <trkpt lat="47.13729" lon="-1.69729">
        <ele>57</ele>
        <time>2022-04-09T11:59:14Z</time>
      </trkpt>
      <trkpt lat="47.13741" lon="-1.69726">
        <ele>57</ele>
        <time>2022-04-09T11:59:16Z</time>
      </trkpt>
      <trkpt lat="47.13753" lon="-1.69724">
        <ele>57</ele>
        <time>2022-04-09T11:59:18Z</time>
      </trkpt>
      <trkpt lat="47.13765" lon="-1.69722">
        <ele>57</ele>
        <time>2022-04-09T11:59:20Z</time>
      </trkpt>
      <trkpt lat="47.13777" lon="-1.69722">
        <ele>57</ele>
        <time>2022-04-09T11:59:22Z</time>
      </trkpt>
      <trkpt lat="47.13789" lon="-1.69722">
        <ele>57</ele>
        <time>2022-04-09T11:59:24Z</time>
      </trkpt>
      <trkpt lat="47.13801" lon="-1.69723">
        <ele>57</ele>
        <time>2022-04-09T11:59:26Z</time>
      </trkpt>
      <trkpt lat="47.13813" lon="-1.69723">
        <ele>57</ele>
        <time>2022-04-09T11:59:28Z</time>
      </trkpt>
      <trkpt lat="47.13825" lon="-1.69724">
        <ele>57</ele>
        <time>2022-04-09T11:59:30Z</time>
      </trkpt>
      <trkpt lat="47.13836" lon="-1.69724">
        <ele>58</ele>
        <time>2022-04-09T11:59:32Z</time>
      </trkpt>
      <trkpt lat="47.13847" lon="-1.69723">
        <ele>58</ele>
        <time>2022-04-09T11:59:34Z</time>
      </trkpt>
      <trkpt lat="47.13859" lon="-1.69721">
        <ele>58</ele>
        <time>2022-04-09T11:59:36Z</time>
      </trkpt>
      <trkpt lat="47.13871" lon="-1.69719">
        <ele>58</ele>
        <time>2022-04-09T11:59:38Z</time>
      </trkpt>
      <trkpt lat="47.13883" lon="-1.69717">
        <ele>58</ele>
        <time>2022-04-09T11:59:40Z</time>
      </trkpt>
      <trkpt lat="47.13896" lon="-1.69716">
        <ele>58</ele>
        <time>2022-04-09T11:59:42Z</time>
      </trkpt>
      <trkpt lat="47.13908" lon="-1.69716">
        <ele>58</ele>
        <time>2022-04-09T11:59:44Z</time>
      </trkpt>
      <trkpt lat="47.13921" lon="-1.69715">
        <ele>58</ele>
        <time>2022-04-09T11:59:46Z</time>
      </trkpt>
      <trkpt lat="47.13933" lon="-1.69716">
        <ele>59</ele>
        <time>2022-04-09T11:59:48Z</time>
      </trkpt>
      <trkpt lat="47.13944" lon="-1.69715">
        <ele>60</ele>
        <time>2022-04-09T11:59:50Z</time>
      </trkpt>
      <trkpt lat="47.13955" lon="-1.69716">
        <ele>61</ele>
        <time>2022-04-09T11:59:52Z</time>
      </trkpt>
      <trkpt lat="47.13968" lon="-1.69717">
        <ele>62</ele>
        <time>2022-04-09T11:59:54Z</time>
      </trkpt>
      <trkpt lat="47.13979" lon="-1.69717">
        <ele>62</ele>
        <time>2022-04-09T11:59:56Z</time>
      </trkpt>
      <trkpt lat="47.13991" lon="-1.69718">
        <ele>62</ele>
        <time>2022-04-09T11:59:58Z</time>
      </trkpt>
      <trkpt lat="47.14002" lon="-1.69721">
        <ele>63</ele>
        <time>2022-04-09T12:00:00Z</time>
      </trkpt>
      <trkpt lat="47.14012" lon="-1.69722">
        <ele>63</ele>
        <time>2022-04-09T12:00:02Z</time>
      </trkpt>
      <trkpt lat="47.14023" lon="-1.69722">
        <ele>63</ele>
        <time>2022-04-09T12:00:04Z</time>
      </trkpt>
      <trkpt lat="47.14034" lon="-1.69723">
        <ele>63</ele>
        <time>2022-04-09T12:00:06Z</time>
      </trkpt>
      <trkpt lat="47.14046" lon="-1.69724">
        <ele>62</ele>
        <time>2022-04-09T12:00:08Z</time>
      </trkpt>
      <trkpt lat="47.14058" lon="-1.69724">
        <ele>62</ele>
        <time>2022-04-09T12:00:10Z</time>
      </trkpt>
      <trkpt lat="47.1407" lon="-1.69725">
        <ele>62</ele>
        <time>2022-04-09T12:00:12Z</time>
      </trkpt>
      <trkpt lat="47.14083" lon="-1.69725">
        <ele>62</ele>
        <time>2022-04-09T12:00:14Z</time>
      </trkpt>
      <trkpt lat="47.14095" lon="-1.69725">
        <ele>62</ele>
        <time>2022-04-09T12:00:16Z</time>
      </trkpt>
      <trkpt lat="47.14108" lon="-1.69724">
        <ele>61</ele>
        <time>2022-04-09T12:00:18Z</time>
      </trkpt>
      <trkpt lat="47.14119" lon="-1.69722">
        <ele>61</ele>
        <time>2022-04-09T12:00:20Z</time>
      </trkpt>
      <trkpt lat="47.14131" lon="-1.69721">
        <ele>61</ele>
        <time>2022-04-09T12:00:22Z</time>
      </trkpt>
      <trkpt lat="47.14144" lon="-1.69719">
        <ele>60</ele>
        <time>2022-04-09T12:00:24Z</time>
      </trkpt>
      <trkpt lat="47.14162" lon="-1.69716">
        <ele>60</ele>
        <time>2022-04-09T12:00:27Z</time>
      </trkpt>
      <trkpt lat="47.14173" lon="-1.69714">
        <ele>60</ele>
        <time>2022-04-09T12:00:29Z</time>
      </trkpt>
      <trkpt lat="47.14185" lon="-1.69712">
        <ele>60</ele>
        <time>2022-04-09T12:00:31Z</time>
      </trkpt>
      <trkpt lat="47.14203" lon="-1.69709">
        <ele>60</ele>
        <time>2022-04-09T12:00:34Z</time>
      </trkpt>
      <trkpt lat="47.14214" lon="-1.69707">
        <ele>60</ele>
        <time>2022-04-09T12:00:36Z</time>
      </trkpt>
      <trkpt lat="47.14226" lon="-1.69705">
        <ele>61</ele>
        <time>2022-04-09T12:00:38Z</time>
      </trkpt>
      <trkpt lat="47.14236" lon="-1.69703">
        <ele>61</ele>
        <time>2022-04-09T12:00:40Z</time>
      </trkpt>
      <trkpt lat="47.14247" lon="-1.69702">
        <ele>61</ele>
        <time>2022-04-09T12:00:42Z</time>
      </trkpt>
      <trkpt lat="47.14257" lon="-1.69701">
        <ele>61</ele>
        <time>2022-04-09T12:00:44Z</time>
      </trkpt>
      <trkpt lat="47.14267" lon="-1.69701">
        <ele>61</ele>
        <time>2022-04-09T12:00:46Z</time>
      </trkpt>
      <trkpt lat="47.14277" lon="-1.69701">
        <ele>63</ele>
        <time>2022-04-09T12:00:48Z</time>
      </trkpt>
      <trkpt lat="47.14287" lon="-1.69702">
        <ele>63</ele>
        <time>2022-04-09T12:00:50Z</time>
      </trkpt>
      <trkpt lat="47.14297" lon="-1.69703">
        <ele>63</ele>
        <time>2022-04-09T12:00:52Z</time>
      </trkpt>
      <trkpt lat="47.14307" lon="-1.69704">
        <ele>63</ele>
        <time>2022-04-09T12:00:54Z</time>
      </trkpt>
      <trkpt lat="47.14316" lon="-1.69704">
        <ele>63</ele>
        <time>2022-04-09T12:00:56Z</time>
      </trkpt>
      <trkpt lat="47.14327" lon="-1.69696">
        <ele>63</ele>
        <time>2022-04-09T12:00:59Z</time>
      </trkpt>
      <trkpt lat="47.14332" lon="-1.69683">
        <ele>63</ele>
        <time>2022-04-09T12:01:01Z</time>
      </trkpt>
      <trkpt lat="47.14335" lon="-1.69668">
        <ele>63</ele>
        <time>2022-04-09T12:01:03Z</time>
      </trkpt>
      <trkpt lat="47.14339" lon="-1.69654">
        <ele>64</ele>
        <time>2022-04-09T12:01:05Z</time>
      </trkpt>
      <trkpt lat="47.14342" lon="-1.69639">
        <ele>64</ele>
        <time>2022-04-09T12:01:07Z</time>
      </trkpt>
      <trkpt lat="47.14346" lon="-1.69625">
        <ele>65</ele>
        <time>2022-04-09T12:01:09Z</time>
      </trkpt>
      <trkpt lat="47.14351" lon="-1.69611">
        <ele>65</ele>
        <time>2022-04-09T12:01:11Z</time>
      </trkpt>
      <trkpt lat="47.14355" lon="-1.69597">
        <ele>65</ele>
        <time>2022-04-09T12:01:13Z</time>
      </trkpt>
      <trkpt lat="47.14359" lon="-1.69583">
        <ele>65</ele>
        <time>2022-04-09T12:01:15Z</time>
      </trkpt>
      <trkpt lat="47.14364" lon="-1.69569">
        <ele>65</ele>
        <time>2022-04-09T12:01:17Z</time>
      </trkpt>
      <trkpt lat="47.14368" lon="-1.69556">
        <ele>66</ele>
        <time>2022-04-09T12:01:19Z</time>
      </trkpt>
      <trkpt lat="47.14372" lon="-1.69542">
        <ele>67</ele>
        <time>2022-04-09T12:01:21Z</time>
      </trkpt>
      <trkpt lat="47.14375" lon="-1.69527">
        <ele>67</ele>
        <time>2022-04-09T12:01:23Z</time>
      </trkpt>
      <trkpt lat="47.14377" lon="-1.69512">
        <ele>67</ele>
        <time>2022-04-09T12:01:25Z</time>
      </trkpt>
      <trkpt lat="47.14378" lon="-1.69497">
        <ele>67</ele>
        <time>2022-04-09T12:01:27Z</time>
      </trkpt>
      <trkpt lat="47.14379" lon="-1.69482">
        <ele>68</ele>
        <time>2022-04-09T12:01:29Z</time>
      </trkpt>
      <trkpt lat="47.1438" lon="-1.69467">
        <ele>68</ele>
        <time>2022-04-09T12:01:31Z</time>
      </trkpt>
      <trkpt lat="47.1438" lon="-1.69452">
        <ele>68</ele>
        <time>2022-04-09T12:01:33Z</time>
      </trkpt>
      <trkpt lat="47.14381" lon="-1.69436">
        <ele>68</ele>
        <time>2022-04-09T12:01:35Z</time>
      </trkpt>
      <trkpt lat="47.14381" lon="-1.69422">
        <ele>69</ele>
        <time>2022-04-09T12:01:37Z</time>
      </trkpt>
      <trkpt lat="47.14382" lon="-1.69408">
        <ele>69</ele>
        <time>2022-04-09T12:01:39Z</time>
      </trkpt>
      <trkpt lat="47.14384" lon="-1.69389">
        <ele>71</ele>
        <time>2022-04-09T12:01:42Z</time>
      </trkpt>
      <trkpt lat="47.14386" lon="-1.69374">
        <ele>72</ele>
        <time>2022-04-09T12:01:45Z</time>
      </trkpt>
      <trkpt lat="47.14388" lon="-1.6936">
        <ele>72</ele>
        <time>2022-04-09T12:01:48Z</time>
      </trkpt>
      <trkpt lat="47.1439" lon="-1.69346">
        <ele>72</ele>
        <time>2022-04-09T12:01:51Z</time>
      </trkpt>
      <trkpt lat="47.14391" lon="-1.69333">
        <ele>72</ele>
        <time>2022-04-09T12:01:54Z</time>
      </trkpt>
      <trkpt lat="47.14389" lon="-1.69316">
        <ele>71</ele>
        <time>2022-04-09T12:01:57Z</time>
      </trkpt>
      <trkpt lat="47.14391" lon="-1.693">
        <ele>71</ele>
        <time>2022-04-09T12:01:59Z</time>
      </trkpt>
      <trkpt lat="47.14392" lon="-1.69282">
        <ele>70</ele>
        <time>2022-04-09T12:02:01Z</time>
      </trkpt>
      <trkpt lat="47.14393" lon="-1.69264">
        <ele>70</ele>
        <time>2022-04-09T12:02:03Z</time>
      </trkpt>
      <trkpt lat="47.14394" lon="-1.69247">
        <ele>70</ele>
        <time>2022-04-09T12:02:05Z</time>
      </trkpt>
      <trkpt lat="47.14394" lon="-1.69229">
        <ele>70</ele>
        <time>2022-04-09T12:02:07Z</time>
      </trkpt>
      <trkpt lat="47.14394" lon="-1.69212">
        <ele>70</ele>
        <time>2022-04-09T12:02:09Z</time>
      </trkpt>
      <trkpt lat="47.14394" lon="-1.69195">
        <ele>70</ele>
        <time>2022-04-09T12:02:11Z</time>
      </trkpt>
      <trkpt lat="47.14395" lon="-1.69177">
        <ele>71</ele>
        <time>2022-04-09T12:02:13Z</time>
      </trkpt>
      <trkpt lat="47.14395" lon="-1.6916">
        <ele>71</ele>
        <time>2022-04-09T12:02:15Z</time>
      </trkpt>
      <trkpt lat="47.14395" lon="-1.69142">
        <ele>72</ele>
        <time>2022-04-09T12:02:17Z</time>
      </trkpt>
      <trkpt lat="47.14396" lon="-1.69125">
        <ele>72</ele>
        <time>2022-04-09T12:02:19Z</time>
      </trkpt>
      <trkpt lat="47.14396" lon="-1.69107">
        <ele>72</ele>
        <time>2022-04-09T12:02:21Z</time>
      </trkpt>
      <trkpt lat="47.14396" lon="-1.6909">
        <ele>73</ele>
        <time>2022-04-09T12:02:23Z</time>
      </trkpt>
      <trkpt lat="47.14395" lon="-1.69074">
        <ele>73</ele>
        <time>2022-04-09T12:02:25Z</time>
      </trkpt>
      <trkpt lat="47.14395" lon="-1.69056">
        <ele>73</ele>
        <time>2022-04-09T12:02:27Z</time>
      </trkpt>
      <trkpt lat="47.14395" lon="-1.6904">
        <ele>72</ele>
        <time>2022-04-09T12:02:29Z</time>
      </trkpt>
      <trkpt lat="47.14396" lon="-1.69022">
        <ele>73</ele>
        <time>2022-04-09T12:02:31Z</time>
      </trkpt>
      <trkpt lat="47.14396" lon="-1.69005">
        <ele>73</ele>
        <time>2022-04-09T12:02:33Z</time>
      </trkpt>
      <trkpt lat="47.14397" lon="-1.68987">
        <ele>73</ele>
        <time>2022-04-09T12:02:35Z</time>
      </trkpt>
      <trkpt lat="47.14398" lon="-1.6897">
        <ele>73</ele>
        <time>2022-04-09T12:02:37Z</time>
      </trkpt>
      <trkpt lat="47.14398" lon="-1.68952">
        <ele>72</ele>
        <time>2022-04-09T12:02:39Z</time>
      </trkpt>
      <trkpt lat="47.14399" lon="-1.68934">
        <ele>72</ele>
        <time>2022-04-09T12:02:41Z</time>
      </trkpt>
      <trkpt lat="47.14399" lon="-1.68916">
        <ele>72</ele>
        <time>2022-04-09T12:02:43Z</time>
      </trkpt>
      <trkpt lat="47.14399" lon="-1.68898">
        <ele>71</ele>
        <time>2022-04-09T12:02:45Z</time>
      </trkpt>
      <trkpt lat="47.14401" lon="-1.68878">
        <ele>71</ele>
        <time>2022-04-09T12:02:47Z</time>
      </trkpt>
      <trkpt lat="47.14404" lon="-1.68859">
        <ele>71</ele>
        <time>2022-04-09T12:02:49Z</time>
      </trkpt>
      <trkpt lat="47.14406" lon="-1.6884">
        <ele>71</ele>
        <time>2022-04-09T12:02:51Z</time>
      </trkpt>
      <trkpt lat="47.14408" lon="-1.6882">
        <ele>70</ele>
        <time>2022-04-09T12:02:53Z</time>
      </trkpt>
      <trkpt lat="47.1441" lon="-1.68799">
        <ele>70</ele>
        <time>2022-04-09T12:02:55Z</time>
      </trkpt>
      <trkpt lat="47.14412" lon="-1.68778">
        <ele>69</ele>
        <time>2022-04-09T12:02:57Z</time>
      </trkpt>
      <trkpt lat="47.14413" lon="-1.68757">
        <ele>69</ele>
        <time>2022-04-09T12:02:59Z</time>
      </trkpt>
      <trkpt lat="47.14413" lon="-1.68736">
        <ele>68</ele>
        <time>2022-04-09T12:03:01Z</time>
      </trkpt>
      <trkpt lat="47.14414" lon="-1.68715">
        <ele>68</ele>
        <time>2022-04-09T12:03:03Z</time>
      </trkpt>
      <trkpt lat="47.14415" lon="-1.68696">
        <ele>67</ele>
        <time>2022-04-09T12:03:05Z</time>
      </trkpt>
      <trkpt lat="47.14409" lon="-1.68677">
        <ele>67</ele>
        <time>2022-04-09T12:03:07Z</time>
      </trkpt>
      <trkpt lat="47.14407" lon="-1.68657">
        <ele>67</ele>
        <time>2022-04-09T12:03:09Z</time>
      </trkpt>
      <trkpt lat="47.14399" lon="-1.6864">
        <ele>67</ele>
        <time>2022-04-09T12:03:11Z</time>
      </trkpt>
      <trkpt lat="47.14395" lon="-1.6862">
        <ele>68</ele>
        <time>2022-04-09T12:03:13Z</time>
      </trkpt>
      <trkpt lat="47.14392" lon="-1.686">
        <ele>68</ele>
        <time>2022-04-09T12:03:15Z</time>
      </trkpt>
      <trkpt lat="47.14391" lon="-1.6858">
        <ele>68</ele>
        <time>2022-04-09T12:03:17Z</time>
      </trkpt>
      <trkpt lat="47.14389" lon="-1.6856">
        <ele>68</ele>
        <time>2022-04-09T12:03:19Z</time>
      </trkpt>
      <trkpt lat="47.14389" lon="-1.68539">
        <ele>68</ele>
        <time>2022-04-09T12:03:21Z</time>
      </trkpt>
      <trkpt lat="47.1439" lon="-1.68518">
        <ele>68</ele>
        <time>2022-04-09T12:03:23Z</time>
      </trkpt>
      <trkpt lat="47.14392" lon="-1.68497">
        <ele>68</ele>
        <time>2022-04-09T12:03:25Z</time>
      </trkpt>
      <trkpt lat="47.14394" lon="-1.68477">
        <ele>68</ele>
        <time>2022-04-09T12:03:27Z</time>
      </trkpt>
      <trkpt lat="47.14395" lon="-1.68456">
        <ele>68</ele>
        <time>2022-04-09T12:03:29Z</time>
      </trkpt>
      <trkpt lat="47.14397" lon="-1.68434">
        <ele>67</ele>
        <time>2022-04-09T12:03:31Z</time>
      </trkpt>
      <trkpt lat="47.14398" lon="-1.68413">
        <ele>67</ele>
        <time>2022-04-09T12:03:33Z</time>
      </trkpt>
      <trkpt lat="47.14399" lon="-1.68394">
        <ele>66</ele>
        <time>2022-04-09T12:03:35Z</time>
      </trkpt>
      <trkpt lat="47.14398" lon="-1.68374">
        <ele>66</ele>
        <time>2022-04-09T12:03:37Z</time>
      </trkpt>
      <trkpt lat="47.14397" lon="-1.68354">
        <ele>66</ele>
        <time>2022-04-09T12:03:39Z</time>
      </trkpt>
      <trkpt lat="47.14393" lon="-1.68333">
        <ele>65</ele>
        <time>2022-04-09T12:03:41Z</time>
      </trkpt>
      <trkpt lat="47.14389" lon="-1.68314">
        <ele>65</ele>
        <time>2022-04-09T12:03:43Z</time>
      </trkpt>
      <trkpt lat="47.14384" lon="-1.68293">
        <ele>66</ele>
        <time>2022-04-09T12:03:45Z</time>
      </trkpt>
      <trkpt lat="47.14378" lon="-1.68276">
        <ele>66</ele>
        <time>2022-04-09T12:03:47Z</time>
      </trkpt>
      <trkpt lat="47.14373" lon="-1.68259">
        <ele>66</ele>
        <time>2022-04-09T12:03:49Z</time>
      </trkpt>
      <trkpt lat="47.1437" lon="-1.6824">
        <ele>66</ele>
        <time>2022-04-09T12:03:51Z</time>
      </trkpt>
      <trkpt lat="47.14372" lon="-1.68221">
        <ele>66</ele>
        <time>2022-04-09T12:03:53Z</time>
      </trkpt>
      <trkpt lat="47.14374" lon="-1.68201">
        <ele>66</ele>
        <time>2022-04-09T12:03:55Z</time>
      </trkpt>
      <trkpt lat="47.14374" lon="-1.68182">
        <ele>66</ele>
        <time>2022-04-09T12:03:57Z</time>
      </trkpt>
      <trkpt lat="47.14371" lon="-1.68164">
        <ele>66</ele>
        <time>2022-04-09T12:03:59Z</time>
      </trkpt>
      <trkpt lat="47.14368" lon="-1.68146">
        <ele>67</ele>
        <time>2022-04-09T12:04:01Z</time>
      </trkpt>
      <trkpt lat="47.14371" lon="-1.68128">
        <ele>67</ele>
        <time>2022-04-09T12:04:03Z</time>
      </trkpt>
      <trkpt lat="47.14371" lon="-1.68109">
        <ele>67</ele>
        <time>2022-04-09T12:04:05Z</time>
      </trkpt>
      <trkpt lat="47.1437" lon="-1.6809">
        <ele>67</ele>
        <time>2022-04-09T12:04:07Z</time>
      </trkpt>
      <trkpt lat="47.14369" lon="-1.68071">
        <ele>68</ele>
        <time>2022-04-09T12:04:09Z</time>
      </trkpt>
      <trkpt lat="47.14368" lon="-1.6805">
        <ele>68</ele>
        <time>2022-04-09T12:04:11Z</time>
      </trkpt>
      <trkpt lat="47.14368" lon="-1.68031">
        <ele>68</ele>
        <time>2022-04-09T12:04:13Z</time>
      </trkpt>
      <trkpt lat="47.14367" lon="-1.68011">
        <ele>68</ele>
        <time>2022-04-09T12:04:15Z</time>
      </trkpt>
      <trkpt lat="47.14365" lon="-1.67991">
        <ele>67</ele>
        <time>2022-04-09T12:04:17Z</time>
      </trkpt>
      <trkpt lat="47.14363" lon="-1.67973">
        <ele>67</ele>
        <time>2022-04-09T12:04:19Z</time>
      </trkpt>
      <trkpt lat="47.14361" lon="-1.67954">
        <ele>67</ele>
        <time>2022-04-09T12:04:21Z</time>
      </trkpt>
      <trkpt lat="47.1436" lon="-1.67936">
        <ele>66</ele>
        <time>2022-04-09T12:04:23Z</time>
      </trkpt>
      <trkpt lat="47.14358" lon="-1.6792">
        <ele>66</ele>
        <time>2022-04-09T12:04:25Z</time>
      </trkpt>
      <trkpt lat="47.14353" lon="-1.67905">
        <ele>66</ele>
        <time>2022-04-09T12:04:27Z</time>
      </trkpt>
      <trkpt lat="47.14345" lon="-1.67891">
        <ele>67</ele>
        <time>2022-04-09T12:04:29Z</time>
      </trkpt>
      <trkpt lat="47.14342" lon="-1.67871">
        <ele>66</ele>
        <time>2022-04-09T12:04:31Z</time>
      </trkpt>
      <trkpt lat="47.14342" lon="-1.67853">
        <ele>67</ele>
        <time>2022-04-09T12:04:33Z</time>
      </trkpt>
      <trkpt lat="47.14345" lon="-1.67836">
        <ele>67</ele>
        <time>2022-04-09T12:04:35Z</time>
      </trkpt>
      <trkpt lat="47.14345" lon="-1.67817">
        <ele>67</ele>
        <time>2022-04-09T12:04:37Z</time>
      </trkpt>
      <trkpt lat="47.14343" lon="-1.67798">
        <ele>67</ele>
        <time>2022-04-09T12:04:39Z</time>
      </trkpt>
      <trkpt lat="47.1434" lon="-1.67778">
        <ele>67</ele>
        <time>2022-04-09T12:04:41Z</time>
      </trkpt>
      <trkpt lat="47.14337" lon="-1.6776">
        <ele>67</ele>
        <time>2022-04-09T12:04:43Z</time>
      </trkpt>
      <trkpt lat="47.14332" lon="-1.6774">
        <ele>67</ele>
        <time>2022-04-09T12:04:45Z</time>
      </trkpt>
      <trkpt lat="47.14326" lon="-1.67721">
        <ele>67</ele>
        <time>2022-04-09T12:04:47Z</time>
      </trkpt>
      <trkpt lat="47.14321" lon="-1.67701">
        <ele>66</ele>
        <time>2022-04-09T12:04:49Z</time>
      </trkpt>
      <trkpt lat="47.14316" lon="-1.67682">
        <ele>66</ele>
        <time>2022-04-09T12:04:51Z</time>
      </trkpt>
      <trkpt lat="47.14313" lon="-1.67663">
        <ele>66</ele>
        <time>2022-04-09T12:04:53Z</time>
      </trkpt>
      <trkpt lat="47.14311" lon="-1.67643">
        <ele>66</ele>
        <time>2022-04-09T12:04:55Z</time>
      </trkpt>
      <trkpt lat="47.14309" lon="-1.67623">
        <ele>66</ele>
        <time>2022-04-09T12:04:57Z</time>
      </trkpt>
      <trkpt lat="47.14307" lon="-1.67602">
        <ele>66</ele>
        <time>2022-04-09T12:04:59Z</time>
      </trkpt>
      <trkpt lat="47.14306" lon="-1.67582">
        <ele>66</ele>
        <time>2022-04-09T12:05:01Z</time>
      </trkpt>
      <trkpt lat="47.14304" lon="-1.67562">
        <ele>66</ele>
        <time>2022-04-09T12:05:03Z</time>
      </trkpt>
      <trkpt lat="47.14303" lon="-1.67542">
        <ele>66</ele>
        <time>2022-04-09T12:05:05Z</time>
      </trkpt>
      <trkpt lat="47.143" lon="-1.67523">
        <ele>66</ele>
        <time>2022-04-09T12:05:07Z</time>
      </trkpt>
      <trkpt lat="47.14296" lon="-1.67505">
        <ele>66</ele>
        <time>2022-04-09T12:05:09Z</time>
      </trkpt>
      <trkpt lat="47.14292" lon="-1.67487">
        <ele>66</ele>
        <time>2022-04-09T12:05:11Z</time>
      </trkpt>
      <trkpt lat="47.14287" lon="-1.67469">
        <ele>66</ele>
        <time>2022-04-09T12:05:13Z</time>
      </trkpt>
      <trkpt lat="47.14282" lon="-1.67452">
        <ele>66</ele>
        <time>2022-04-09T12:05:15Z</time>
      </trkpt>
      <trkpt lat="47.14276" lon="-1.67435">
        <ele>67</ele>
        <time>2022-04-09T12:05:17Z</time>
      </trkpt>
      <trkpt lat="47.1427" lon="-1.67419">
        <ele>67</ele>
        <time>2022-04-09T12:05:19Z</time>
      </trkpt>
      <trkpt lat="47.14263" lon="-1.67403">
        <ele>67</ele>
        <time>2022-04-09T12:05:21Z</time>
      </trkpt>
      <trkpt lat="47.14256" lon="-1.67387">
        <ele>67</ele>
        <time>2022-04-09T12:05:23Z</time>
      </trkpt>
      <trkpt lat="47.1425" lon="-1.67371">
        <ele>67</ele>
        <time>2022-04-09T12:05:25Z</time>
      </trkpt>
      <trkpt lat="47.14244" lon="-1.67356">
        <ele>67</ele>
        <time>2022-04-09T12:05:27Z</time>
      </trkpt>
      <trkpt lat="47.14238" lon="-1.67341">
        <ele>67</ele>
        <time>2022-04-09T12:05:29Z</time>
      </trkpt>
      <trkpt lat="47.14232" lon="-1.67327">
        <ele>67</ele>
        <time>2022-04-09T12:05:31Z</time>
      </trkpt>
      <trkpt lat="47.14226" lon="-1.67313">
        <ele>66</ele>
        <time>2022-04-09T12:05:33Z</time>
      </trkpt>
      <trkpt lat="47.14221" lon="-1.67301">
        <ele>67</ele>
        <time>2022-04-09T12:05:35Z</time>
      </trkpt>
      <trkpt lat="47.14216" lon="-1.67288">
        <ele>67</ele>
        <time>2022-04-09T12:05:38Z</time>
      </trkpt>
      <trkpt lat="47.14209" lon="-1.67273">
        <ele>67</ele>
        <time>2022-04-09T12:05:44Z</time>
      </trkpt>
      <trkpt lat="47.14203" lon="-1.67259">
        <ele>68</ele>
        <time>2022-04-09T12:05:46Z</time>
      </trkpt>
      <trkpt lat="47.14198" lon="-1.67241">
        <ele>69</ele>
        <time>2022-04-09T12:05:48Z</time>
      </trkpt>
      <trkpt lat="47.14195" lon="-1.67223">
        <ele>68</ele>
        <time>2022-04-09T12:05:50Z</time>
      </trkpt>
      <trkpt lat="47.14192" lon="-1.67205">
        <ele>68</ele>
        <time>2022-04-09T12:05:52Z</time>
      </trkpt>
      <trkpt lat="47.14188" lon="-1.67186">
        <ele>68</ele>
        <time>2022-04-09T12:05:54Z</time>
      </trkpt>
      <trkpt lat="47.14184" lon="-1.67168">
        <ele>68</ele>
        <time>2022-04-09T12:05:56Z</time>
      </trkpt>
      <trkpt lat="47.14181" lon="-1.6715">
        <ele>67</ele>
        <time>2022-04-09T12:05:58Z</time>
      </trkpt>
      <trkpt lat="47.14178" lon="-1.67132">
        <ele>67</ele>
        <time>2022-04-09T12:06:00Z</time>
      </trkpt>
      <trkpt lat="47.14174" lon="-1.67113">
        <ele>67</ele>
        <time>2022-04-09T12:06:02Z</time>
      </trkpt>
      <trkpt lat="47.14171" lon="-1.67094">
        <ele>67</ele>
        <time>2022-04-09T12:06:04Z</time>
      </trkpt>
      <trkpt lat="47.14169" lon="-1.67075">
        <ele>67</ele>
        <time>2022-04-09T12:06:06Z</time>
      </trkpt>
      <trkpt lat="47.14168" lon="-1.67056">
        <ele>67</ele>
        <time>2022-04-09T12:06:08Z</time>
      </trkpt>
      <trkpt lat="47.14167" lon="-1.67036">
        <ele>66</ele>
        <time>2022-04-09T12:06:10Z</time>
      </trkpt>
      <trkpt lat="47.14165" lon="-1.67016">
        <ele>66</ele>
        <time>2022-04-09T12:06:12Z</time>
      </trkpt>
      <trkpt lat="47.14163" lon="-1.66996">
        <ele>67</ele>
        <time>2022-04-09T12:06:14Z</time>
      </trkpt>
      <trkpt lat="47.14163" lon="-1.66975">
        <ele>67</ele>
        <time>2022-04-09T12:06:16Z</time>
      </trkpt>
      <trkpt lat="47.14163" lon="-1.66954">
        <ele>67</ele>
        <time>2022-04-09T12:06:18Z</time>
      </trkpt>
      <trkpt lat="47.14165" lon="-1.66933">
        <ele>66</ele>
        <time>2022-04-09T12:06:20Z</time>
      </trkpt>
      <trkpt lat="47.14169" lon="-1.66913">
        <ele>66</ele>
        <time>2022-04-09T12:06:22Z</time>
      </trkpt>
      <trkpt lat="47.14174" lon="-1.66892">
        <ele>66</ele>
        <time>2022-04-09T12:06:24Z</time>
      </trkpt>
      <trkpt lat="47.1418" lon="-1.66873">
        <ele>66</ele>
        <time>2022-04-09T12:06:26Z</time>
      </trkpt>
      <trkpt lat="47.14186" lon="-1.66853">
        <ele>66</ele>
        <time>2022-04-09T12:06:28Z</time>
      </trkpt>
      <trkpt lat="47.14191" lon="-1.66835">
        <ele>66</ele>
        <time>2022-04-09T12:06:30Z</time>
      </trkpt>
      <trkpt lat="47.14197" lon="-1.66817">
        <ele>65</ele>
        <time>2022-04-09T12:06:32Z</time>
      </trkpt>
      <trkpt lat="47.14204" lon="-1.66799">
        <ele>65</ele>
        <time>2022-04-09T12:06:34Z</time>
      </trkpt>
      <trkpt lat="47.14209" lon="-1.66781">
        <ele>64</ele>
        <time>2022-04-09T12:06:36Z</time>
      </trkpt>
      <trkpt lat="47.14215" lon="-1.66764">
        <ele>64</ele>
        <time>2022-04-09T12:06:38Z</time>
      </trkpt>
      <trkpt lat="47.14221" lon="-1.66746">
        <ele>64</ele>
        <time>2022-04-09T12:06:40Z</time>
      </trkpt>
      <trkpt lat="47.14227" lon="-1.66729">
        <ele>64</ele>
        <time>2022-04-09T12:06:42Z</time>
      </trkpt>
      <trkpt lat="47.14232" lon="-1.66711">
        <ele>64</ele>
        <time>2022-04-09T12:06:44Z</time>
      </trkpt>
      <trkpt lat="47.14238" lon="-1.66693">
        <ele>64</ele>
        <time>2022-04-09T12:06:46Z</time>
      </trkpt>
      <trkpt lat="47.14243" lon="-1.66676">
        <ele>64</ele>
        <time>2022-04-09T12:06:48Z</time>
      </trkpt>
      <trkpt lat="47.14248" lon="-1.66661">
        <ele>64</ele>
        <time>2022-04-09T12:06:50Z</time>
      </trkpt>
      <trkpt lat="47.14254" lon="-1.66645">
        <ele>64</ele>
        <time>2022-04-09T12:06:52Z</time>
      </trkpt>
      <trkpt lat="47.14258" lon="-1.66629">
        <ele>64</ele>
        <time>2022-04-09T12:06:54Z</time>
      </trkpt>
      <trkpt lat="47.14263" lon="-1.66614">
        <ele>64</ele>
        <time>2022-04-09T12:06:56Z</time>
      </trkpt>
      <trkpt lat="47.14268" lon="-1.66598">
        <ele>65</ele>
        <time>2022-04-09T12:06:58Z</time>
      </trkpt>
      <trkpt lat="47.14273" lon="-1.66582">
        <ele>65</ele>
        <time>2022-04-09T12:07:00Z</time>
      </trkpt>
      <trkpt lat="47.14277" lon="-1.66567">
        <ele>65</ele>
        <time>2022-04-09T12:07:02Z</time>
      </trkpt>
      <trkpt lat="47.14281" lon="-1.66551">
        <ele>65</ele>
        <time>2022-04-09T12:07:04Z</time>
      </trkpt>
      <trkpt lat="47.14285" lon="-1.66536">
        <ele>65</ele>
        <time>2022-04-09T12:07:06Z</time>
      </trkpt>
      <trkpt lat="47.14289" lon="-1.6652">
        <ele>65</ele>
        <time>2022-04-09T12:07:08Z</time>
      </trkpt>
      <trkpt lat="47.14293" lon="-1.66504">
        <ele>65</ele>
        <time>2022-04-09T12:07:10Z</time>
      </trkpt>
      <trkpt lat="47.14297" lon="-1.66488">
        <ele>65</ele>
        <time>2022-04-09T12:07:12Z</time>
      </trkpt>
      <trkpt lat="47.14301" lon="-1.66472">
        <ele>65</ele>
        <time>2022-04-09T12:07:14Z</time>
      </trkpt>
      <trkpt lat="47.14305" lon="-1.66456">
        <ele>65</ele>
        <time>2022-04-09T12:07:16Z</time>
      </trkpt>
      <trkpt lat="47.14309" lon="-1.66439">
        <ele>65</ele>
        <time>2022-04-09T12:07:18Z</time>
      </trkpt>
      <trkpt lat="47.14313" lon="-1.66422">
        <ele>65</ele>
        <time>2022-04-09T12:07:20Z</time>
      </trkpt>
      <trkpt lat="47.14317" lon="-1.66406">
        <ele>66</ele>
        <time>2022-04-09T12:07:22Z</time>
      </trkpt>
      <trkpt lat="47.14321" lon="-1.66389">
        <ele>66</ele>
        <time>2022-04-09T12:07:24Z</time>
      </trkpt>
      <trkpt lat="47.14325" lon="-1.66372">
        <ele>66</ele>
        <time>2022-04-09T12:07:26Z</time>
      </trkpt>
      <trkpt lat="47.1433" lon="-1.66356">
        <ele>66</ele>
        <time>2022-04-09T12:07:28Z</time>
      </trkpt>
      <trkpt lat="47.14334" lon="-1.66339">
        <ele>66</ele>
        <time>2022-04-09T12:07:30Z</time>
      </trkpt>
      <trkpt lat="47.14338" lon="-1.66323">
        <ele>66</ele>
        <time>2022-04-09T12:07:32Z</time>
      </trkpt>
      <trkpt lat="47.14341" lon="-1.66307">
        <ele>67</ele>
        <time>2022-04-09T12:07:34Z</time>
      </trkpt>
      <trkpt lat="47.14345" lon="-1.66291">
        <ele>67</ele>
        <time>2022-04-09T12:07:36Z</time>
      </trkpt>
      <trkpt lat="47.14349" lon="-1.66275">
        <ele>67</ele>
        <time>2022-04-09T12:07:38Z</time>
      </trkpt>
      <trkpt lat="47.14352" lon="-1.66258">
        <ele>67</ele>
        <time>2022-04-09T12:07:40Z</time>
      </trkpt>
      <trkpt lat="47.14356" lon="-1.66241">
        <ele>68</ele>
        <time>2022-04-09T12:07:42Z</time>
      </trkpt>
      <trkpt lat="47.1436" lon="-1.66225">
        <ele>67</ele>
        <time>2022-04-09T12:07:44Z</time>
      </trkpt>
      <trkpt lat="47.14364" lon="-1.66208">
        <ele>67</ele>
        <time>2022-04-09T12:07:46Z</time>
      </trkpt>
      <trkpt lat="47.14363" lon="-1.66192">
        <ele>67</ele>
        <time>2022-04-09T12:07:48Z</time>
      </trkpt>
      <trkpt lat="47.14363" lon="-1.66177">
        <ele>68</ele>
        <time>2022-04-09T12:07:50Z</time>
      </trkpt>
      <trkpt lat="47.14371" lon="-1.66161">
        <ele>68</ele>
        <time>2022-04-09T12:07:53Z</time>
      </trkpt>
      <trkpt lat="47.14375" lon="-1.66148">
        <ele>68</ele>
        <time>2022-04-09T12:07:55Z</time>
      </trkpt>
      <trkpt lat="47.14377" lon="-1.66131">
        <ele>68</ele>
        <time>2022-04-09T12:07:57Z</time>
      </trkpt>
      <trkpt lat="47.14379" lon="-1.66114">
        <ele>68</ele>
        <time>2022-04-09T12:07:59Z</time>
      </trkpt>
      <trkpt lat="47.14381" lon="-1.66098">
        <ele>68</ele>
        <time>2022-04-09T12:08:01Z</time>
      </trkpt>
      <trkpt lat="47.14383" lon="-1.66081">
        <ele>68</ele>
        <time>2022-04-09T12:08:03Z</time>
      </trkpt>
      <trkpt lat="47.14385" lon="-1.66063">
        <ele>68</ele>
        <time>2022-04-09T12:08:05Z</time>
      </trkpt>
      <trkpt lat="47.14387" lon="-1.66045">
        <ele>68</ele>
        <time>2022-04-09T12:08:07Z</time>
      </trkpt>
      <trkpt lat="47.14388" lon="-1.66027">
        <ele>68</ele>
        <time>2022-04-09T12:08:09Z</time>
      </trkpt>
      <trkpt lat="47.1439" lon="-1.66009">
        <ele>68</ele>
        <time>2022-04-09T12:08:11Z</time>
      </trkpt>
      <trkpt lat="47.14391" lon="-1.65992">
        <ele>68</ele>
        <time>2022-04-09T12:08:13Z</time>
      </trkpt>
      <trkpt lat="47.14392" lon="-1.65974">
        <ele>68</ele>
        <time>2022-04-09T12:08:15Z</time>
      </trkpt>
      <trkpt lat="47.14393" lon="-1.65956">
        <ele>69</ele>
        <time>2022-04-09T12:08:17Z</time>
      </trkpt>
      <trkpt lat="47.14394" lon="-1.65938">
        <ele>68</ele>
        <time>2022-04-09T12:08:19Z</time>
      </trkpt>
      <trkpt lat="47.14394" lon="-1.65919">
        <ele>68</ele>
        <time>2022-04-09T12:08:21Z</time>
      </trkpt>
      <trkpt lat="47.14396" lon="-1.659">
        <ele>68</ele>
        <time>2022-04-09T12:08:23Z</time>
      </trkpt>
      <trkpt lat="47.14397" lon="-1.65882">
        <ele>67</ele>
        <time>2022-04-09T12:08:25Z</time>
      </trkpt>
      <trkpt lat="47.14398" lon="-1.65863">
        <ele>67</ele>
        <time>2022-04-09T12:08:27Z</time>
      </trkpt>
      <trkpt lat="47.144" lon="-1.65845">
        <ele>67</ele>
        <time>2022-04-09T12:08:29Z</time>
      </trkpt>
      <trkpt lat="47.14401" lon="-1.65826">
        <ele>67</ele>
        <time>2022-04-09T12:08:31Z</time>
      </trkpt>
      <trkpt lat="47.14403" lon="-1.65807">
        <ele>67</ele>
        <time>2022-04-09T12:08:33Z</time>
      </trkpt>
      <trkpt lat="47.14406" lon="-1.65788">
        <ele>67</ele>
        <time>2022-04-09T12:08:35Z</time>
      </trkpt>
      <trkpt lat="47.14409" lon="-1.65769">
        <ele>67</ele>
        <time>2022-04-09T12:08:37Z</time>
      </trkpt>
      <trkpt lat="47.14411" lon="-1.65749">
        <ele>66</ele>
        <time>2022-04-09T12:08:39Z</time>
      </trkpt>
      <trkpt lat="47.14414" lon="-1.65731">
        <ele>66</ele>
        <time>2022-04-09T12:08:41Z</time>
      </trkpt>
      <trkpt lat="47.14418" lon="-1.65712">
        <ele>67</ele>
        <time>2022-04-09T12:08:43Z</time>
      </trkpt>
      <trkpt lat="47.14422" lon="-1.65694">
        <ele>66</ele>
        <time>2022-04-09T12:08:45Z</time>
      </trkpt>
      <trkpt lat="47.14427" lon="-1.65675">
        <ele>66</ele>
        <time>2022-04-09T12:08:47Z</time>
      </trkpt>
      <trkpt lat="47.14432" lon="-1.65658">
        <ele>66</ele>
        <time>2022-04-09T12:08:49Z</time>
      </trkpt>
      <trkpt lat="47.14438" lon="-1.65639">
        <ele>67</ele>
        <time>2022-04-09T12:08:51Z</time>
      </trkpt>
      <trkpt lat="47.14444" lon="-1.65623">
        <ele>66</ele>
        <time>2022-04-09T12:08:53Z</time>
      </trkpt>
      <trkpt lat="47.1445" lon="-1.65605">
        <ele>66</ele>
        <time>2022-04-09T12:08:55Z</time>
      </trkpt>
      <trkpt lat="47.14457" lon="-1.65589">
        <ele>66</ele>
        <time>2022-04-09T12:08:57Z</time>
      </trkpt>
      <trkpt lat="47.14463" lon="-1.65573">
        <ele>67</ele>
        <time>2022-04-09T12:08:59Z</time>
      </trkpt>
      <trkpt lat="47.1447" lon="-1.65557">
        <ele>67</ele>
        <time>2022-04-09T12:09:01Z</time>
      </trkpt>
      <trkpt lat="47.14477" lon="-1.65541">
        <ele>67</ele>
        <time>2022-04-09T12:09:03Z</time>
      </trkpt>
      <trkpt lat="47.14483" lon="-1.65525">
        <ele>67</ele>
        <time>2022-04-09T12:09:05Z</time>
      </trkpt>
      <trkpt lat="47.14489" lon="-1.65509">
        <ele>67</ele>
        <time>2022-04-09T12:09:07Z</time>
      </trkpt>
      <trkpt lat="47.14496" lon="-1.65494">
        <ele>68</ele>
        <time>2022-04-09T12:09:09Z</time>
      </trkpt>
      <trkpt lat="47.14502" lon="-1.65478">
        <ele>68</ele>
        <time>2022-04-09T12:09:11Z</time>
      </trkpt>
      <trkpt lat="47.14508" lon="-1.65463">
        <ele>67</ele>
        <time>2022-04-09T12:09:13Z</time>
      </trkpt>
      <trkpt lat="47.14515" lon="-1.65446">
        <ele>67</ele>
        <time>2022-04-09T12:09:15Z</time>
      </trkpt>
      <trkpt lat="47.1452" lon="-1.6543">
        <ele>67</ele>
        <time>2022-04-09T12:09:17Z</time>
      </trkpt>
      <trkpt lat="47.14525" lon="-1.65413">
        <ele>67</ele>
        <time>2022-04-09T12:09:19Z</time>
      </trkpt>
      <trkpt lat="47.14526" lon="-1.65395">
        <ele>67</ele>
        <time>2022-04-09T12:09:21Z</time>
      </trkpt>
      <trkpt lat="47.14527" lon="-1.65378">
        <ele>67</ele>
        <time>2022-04-09T12:09:23Z</time>
      </trkpt>
      <trkpt lat="47.14531" lon="-1.65361">
        <ele>67</ele>
        <time>2022-04-09T12:09:25Z</time>
      </trkpt>
      <trkpt lat="47.14535" lon="-1.65344">
        <ele>67</ele>
        <time>2022-04-09T12:09:27Z</time>
      </trkpt>
      <trkpt lat="47.1454" lon="-1.65328">
        <ele>67</ele>
        <time>2022-04-09T12:09:29Z</time>
      </trkpt>
      <trkpt lat="47.14545" lon="-1.65312">
        <ele>68</ele>
        <time>2022-04-09T12:09:31Z</time>
      </trkpt>
      <trkpt lat="47.14553" lon="-1.65298">
        <ele>68</ele>
        <time>2022-04-09T12:09:33Z</time>
      </trkpt>
      <trkpt lat="47.14557" lon="-1.65281">
        <ele>69</ele>
        <time>2022-04-09T12:09:35Z</time>
      </trkpt>
      <trkpt lat="47.1456" lon="-1.65264">
        <ele>69</ele>
        <time>2022-04-09T12:09:37Z</time>
      </trkpt>
      <trkpt lat="47.14564" lon="-1.65247">
        <ele>69</ele>
        <time>2022-04-09T12:09:39Z</time>
      </trkpt>
      <trkpt lat="47.14568" lon="-1.6523">
        <ele>69</ele>
        <time>2022-04-09T12:09:41Z</time>
      </trkpt>
      <trkpt lat="47.14571" lon="-1.65213">
        <ele>69</ele>
        <time>2022-04-09T12:09:43Z</time>
      </trkpt>
      <trkpt lat="47.14576" lon="-1.65195">
        <ele>69</ele>
        <time>2022-04-09T12:09:45Z</time>
      </trkpt>
      <trkpt lat="47.1458" lon="-1.65178">
        <ele>69</ele>
        <time>2022-04-09T12:09:47Z</time>
      </trkpt>
      <trkpt lat="47.14585" lon="-1.65162">
        <ele>69</ele>
        <time>2022-04-09T12:09:49Z</time>
      </trkpt>
      <trkpt lat="47.1459" lon="-1.65145">
        <ele>69</ele>
        <time>2022-04-09T12:09:51Z</time>
      </trkpt>
      <trkpt lat="47.14596" lon="-1.65129">
        <ele>69</ele>
        <time>2022-04-09T12:09:53Z</time>
      </trkpt>
      <trkpt lat="47.14601" lon="-1.65113">
        <ele>69</ele>
        <time>2022-04-09T12:09:55Z</time>
      </trkpt>
      <trkpt lat="47.14608" lon="-1.65097">
        <ele>70</ele>
        <time>2022-04-09T12:09:57Z</time>
      </trkpt>
      <trkpt lat="47.14614" lon="-1.6508">
        <ele>70</ele>
        <time>2022-04-09T12:09:59Z</time>
      </trkpt>
      <trkpt lat="47.1462" lon="-1.65065">
        <ele>70</ele>
        <time>2022-04-09T12:10:01Z</time>
      </trkpt>
      <trkpt lat="47.14626" lon="-1.65049">
        <ele>71</ele>
        <time>2022-04-09T12:10:03Z</time>
      </trkpt>
      <trkpt lat="47.14633" lon="-1.65033">
        <ele>71</ele>
        <time>2022-04-09T12:10:05Z</time>
      </trkpt>
      <trkpt lat="47.14639" lon="-1.65017">
        <ele>71</ele>
        <time>2022-04-09T12:10:07Z</time>
      </trkpt>
      <trkpt lat="47.14645" lon="-1.65001">
        <ele>72</ele>
        <time>2022-04-09T12:10:09Z</time>
      </trkpt>
      <trkpt lat="47.14651" lon="-1.64986">
        <ele>72</ele>
        <time>2022-04-09T12:10:11Z</time>
      </trkpt>
      <trkpt lat="47.14657" lon="-1.64971">
        <ele>72</ele>
        <time>2022-04-09T12:10:13Z</time>
      </trkpt>
      <trkpt lat="47.14662" lon="-1.64955">
        <ele>72</ele>
        <time>2022-04-09T12:10:15Z</time>
      </trkpt>
      <trkpt lat="47.14668" lon="-1.64939">
        <ele>72</ele>
        <time>2022-04-09T12:10:17Z</time>
      </trkpt>
      <trkpt lat="47.14673" lon="-1.64924">
        <ele>72</ele>
        <time>2022-04-09T12:10:19Z</time>
      </trkpt>
      <trkpt lat="47.14679" lon="-1.64908">
        <ele>72</ele>
        <time>2022-04-09T12:10:21Z</time>
      </trkpt>
      <trkpt lat="47.14684" lon="-1.64892">
        <ele>72</ele>
        <time>2022-04-09T12:10:23Z</time>
      </trkpt>
      <trkpt lat="47.14689" lon="-1.64876">
        <ele>72</ele>
        <time>2022-04-09T12:10:25Z</time>
      </trkpt>
      <trkpt lat="47.14693" lon="-1.6486">
        <ele>72</ele>
        <time>2022-04-09T12:10:27Z</time>
      </trkpt>
      <trkpt lat="47.14698" lon="-1.64844">
        <ele>72</ele>
        <time>2022-04-09T12:10:29Z</time>
      </trkpt>
      <trkpt lat="47.14702" lon="-1.64828">
        <ele>73</ele>
        <time>2022-04-09T12:10:31Z</time>
      </trkpt>
      <trkpt lat="47.14706" lon="-1.64812">
        <ele>73</ele>
        <time>2022-04-09T12:10:33Z</time>
      </trkpt>
      <trkpt lat="47.14711" lon="-1.64795">
        <ele>73</ele>
        <time>2022-04-09T12:10:35Z</time>
      </trkpt>
      <trkpt lat="47.14715" lon="-1.64779">
        <ele>73</ele>
        <time>2022-04-09T12:10:37Z</time>
      </trkpt>
      <trkpt lat="47.14719" lon="-1.64763">
        <ele>73</ele>
        <time>2022-04-09T12:10:39Z</time>
      </trkpt>
      <trkpt lat="47.14723" lon="-1.64746">
        <ele>73</ele>
        <time>2022-04-09T12:10:41Z</time>
      </trkpt>
      <trkpt lat="47.14727" lon="-1.64729">
        <ele>73</ele>
        <time>2022-04-09T12:10:43Z</time>
      </trkpt>
      <trkpt lat="47.1473" lon="-1.64712">
        <ele>74</ele>
        <time>2022-04-09T12:10:45Z</time>
      </trkpt>
      <trkpt lat="47.14734" lon="-1.64695">
        <ele>74</ele>
        <time>2022-04-09T12:10:47Z</time>
      </trkpt>
      <trkpt lat="47.14737" lon="-1.64677">
        <ele>74</ele>
        <time>2022-04-09T12:10:49Z</time>
      </trkpt>
      <trkpt lat="47.1474" lon="-1.64659">
        <ele>75</ele>
        <time>2022-04-09T12:10:51Z</time>
      </trkpt>
      <trkpt lat="47.14744" lon="-1.64632">
        <ele>75</ele>
        <time>2022-04-09T12:10:54Z</time>
      </trkpt>
      <trkpt lat="47.14747" lon="-1.64615">
        <ele>75</ele>
        <time>2022-04-09T12:10:56Z</time>
      </trkpt>
      <trkpt lat="47.14749" lon="-1.64598">
        <ele>75</ele>
        <time>2022-04-09T12:10:58Z</time>
      </trkpt>
      <trkpt lat="47.14752" lon="-1.6458">
        <ele>76</ele>
        <time>2022-04-09T12:11:00Z</time>
      </trkpt>
      <trkpt lat="47.14755" lon="-1.64563">
        <ele>76</ele>
        <time>2022-04-09T12:11:02Z</time>
      </trkpt>
      <trkpt lat="47.14758" lon="-1.64545">
        <ele>76</ele>
        <time>2022-04-09T12:11:04Z</time>
      </trkpt>
      <trkpt lat="47.14761" lon="-1.64527">
        <ele>76</ele>
        <time>2022-04-09T12:11:06Z</time>
      </trkpt>
      <trkpt lat="47.14764" lon="-1.6451">
        <ele>76</ele>
        <time>2022-04-09T12:11:08Z</time>
      </trkpt>
      <trkpt lat="47.14766" lon="-1.64492">
        <ele>76</ele>
        <time>2022-04-09T12:11:10Z</time>
      </trkpt>
      <trkpt lat="47.1477" lon="-1.64474">
        <ele>76</ele>
        <time>2022-04-09T12:11:12Z</time>
      </trkpt>
      <trkpt lat="47.14772" lon="-1.64456">
        <ele>76</ele>
        <time>2022-04-09T12:11:14Z</time>
      </trkpt>
      <trkpt lat="47.14775" lon="-1.64439">
        <ele>76</ele>
        <time>2022-04-09T12:11:16Z</time>
      </trkpt>
      <trkpt lat="47.14779" lon="-1.64421">
        <ele>76</ele>
        <time>2022-04-09T12:11:18Z</time>
      </trkpt>
      <trkpt lat="47.14783" lon="-1.64404">
        <ele>77</ele>
        <time>2022-04-09T12:11:20Z</time>
      </trkpt>
      <trkpt lat="47.14786" lon="-1.64387">
        <ele>77</ele>
        <time>2022-04-09T12:11:22Z</time>
      </trkpt>
      <trkpt lat="47.1479" lon="-1.64369">
        <ele>77</ele>
        <time>2022-04-09T12:11:24Z</time>
      </trkpt>
      <trkpt lat="47.14794" lon="-1.64351">
        <ele>77</ele>
        <time>2022-04-09T12:11:26Z</time>
      </trkpt>
      <trkpt lat="47.14798" lon="-1.64333">
        <ele>77</ele>
        <time>2022-04-09T12:11:28Z</time>
      </trkpt>
      <trkpt lat="47.14803" lon="-1.64316">
        <ele>78</ele>
        <time>2022-04-09T12:11:30Z</time>
      </trkpt>
      <trkpt lat="47.14808" lon="-1.64298">
        <ele>77</ele>
        <time>2022-04-09T12:11:32Z</time>
      </trkpt>
      <trkpt lat="47.14813" lon="-1.64281">
        <ele>77</ele>
        <time>2022-04-09T12:11:34Z</time>
      </trkpt>
      <trkpt lat="47.14818" lon="-1.64264">
        <ele>77</ele>
        <time>2022-04-09T12:11:36Z</time>
      </trkpt>
      <trkpt lat="47.14823" lon="-1.64247">
        <ele>77</ele>
        <time>2022-04-09T12:11:38Z</time>
      </trkpt>
      <trkpt lat="47.14828" lon="-1.64229">
        <ele>77</ele>
        <time>2022-04-09T12:11:40Z</time>
      </trkpt>
      <trkpt lat="47.14834" lon="-1.64212">
        <ele>77</ele>
        <time>2022-04-09T12:11:42Z</time>
      </trkpt>
      <trkpt lat="47.14839" lon="-1.64195">
        <ele>77</ele>
        <time>2022-04-09T12:11:44Z</time>
      </trkpt>
      <trkpt lat="47.14845" lon="-1.64177">
        <ele>77</ele>
        <time>2022-04-09T12:11:46Z</time>
      </trkpt>
      <trkpt lat="47.1485" lon="-1.6416">
        <ele>77</ele>
        <time>2022-04-09T12:11:48Z</time>
      </trkpt>
      <trkpt lat="47.14856" lon="-1.64142">
        <ele>76</ele>
        <time>2022-04-09T12:11:50Z</time>
      </trkpt>
      <trkpt lat="47.14862" lon="-1.64125">
        <ele>77</ele>
        <time>2022-04-09T12:11:52Z</time>
      </trkpt>
      <trkpt lat="47.14868" lon="-1.64108">
        <ele>77</ele>
        <time>2022-04-09T12:11:54Z</time>
      </trkpt>
      <trkpt lat="47.14874" lon="-1.64091">
        <ele>77</ele>
        <time>2022-04-09T12:11:56Z</time>
      </trkpt>
      <trkpt lat="47.1488" lon="-1.64074">
        <ele>77</ele>
        <time>2022-04-09T12:11:58Z</time>
      </trkpt>
      <trkpt lat="47.14882" lon="-1.64057">
        <ele>77</ele>
        <time>2022-04-09T12:12:00Z</time>
      </trkpt>
      <trkpt lat="47.14884" lon="-1.64039">
        <ele>77</ele>
        <time>2022-04-09T12:12:02Z</time>
      </trkpt>
      <trkpt lat="47.14892" lon="-1.64024">
        <ele>76</ele>
        <time>2022-04-09T12:12:04Z</time>
      </trkpt>
      <trkpt lat="47.14901" lon="-1.64017">
        <ele>77</ele>
        <time>2022-04-09T12:12:06Z</time>
      </trkpt>
      <trkpt lat="47.14911" lon="-1.6401">
        <ele>77</ele>
        <time>2022-04-09T12:12:08Z</time>
      </trkpt>
      <trkpt lat="47.14917" lon="-1.63993">
        <ele>76</ele>
        <time>2022-04-09T12:12:10Z</time>
      </trkpt>
      <trkpt lat="47.14924" lon="-1.63977">
        <ele>76</ele>
        <time>2022-04-09T12:12:12Z</time>
      </trkpt>
      <trkpt lat="47.14932" lon="-1.63964">
        <ele>77</ele>
        <time>2022-04-09T12:12:14Z</time>
      </trkpt>
      <trkpt lat="47.1494" lon="-1.6395">
        <ele>77</ele>
        <time>2022-04-09T12:12:16Z</time>
      </trkpt>
      <trkpt lat="47.1495" lon="-1.63937">
        <ele>76</ele>
        <time>2022-04-09T12:12:18Z</time>
      </trkpt>
      <trkpt lat="47.14959" lon="-1.63924">
        <ele>76</ele>
        <time>2022-04-09T12:12:20Z</time>
      </trkpt>
      <trkpt lat="47.14969" lon="-1.63911">
        <ele>76</ele>
        <time>2022-04-09T12:12:22Z</time>
      </trkpt>
      <trkpt lat="47.14978" lon="-1.63898">
        <ele>76</ele>
        <time>2022-04-09T12:12:24Z</time>
      </trkpt>
      <trkpt lat="47.14987" lon="-1.63885">
        <ele>76</ele>
        <time>2022-04-09T12:12:26Z</time>
      </trkpt>
      <trkpt lat="47.14996" lon="-1.63873">
        <ele>76</ele>
        <time>2022-04-09T12:12:28Z</time>
      </trkpt>
      <trkpt lat="47.15005" lon="-1.6386">
        <ele>76</ele>
        <time>2022-04-09T12:12:30Z</time>
      </trkpt>
      <trkpt lat="47.15014" lon="-1.63847">
        <ele>76</ele>
        <time>2022-04-09T12:12:32Z</time>
      </trkpt>
      <trkpt lat="47.15023" lon="-1.63835">
        <ele>75</ele>
        <time>2022-04-09T12:12:34Z</time>
      </trkpt>
      <trkpt lat="47.15032" lon="-1.63822">
        <ele>75</ele>
        <time>2022-04-09T12:12:36Z</time>
      </trkpt>
      <trkpt lat="47.15041" lon="-1.6381">
        <ele>75</ele>
        <time>2022-04-09T12:12:38Z</time>
      </trkpt>
      <trkpt lat="47.1505" lon="-1.63798">
        <ele>75</ele>
        <time>2022-04-09T12:12:40Z</time>
      </trkpt>
      <trkpt lat="47.15059" lon="-1.63787">
        <ele>75</ele>
        <time>2022-04-09T12:12:42Z</time>
      </trkpt>
      <trkpt lat="47.15069" lon="-1.63774">
        <ele>75</ele>
        <time>2022-04-09T12:12:44Z</time>
      </trkpt>
      <trkpt lat="47.15078" lon="-1.63763">
        <ele>75</ele>
        <time>2022-04-09T12:12:46Z</time>
      </trkpt>
      <trkpt lat="47.15088" lon="-1.63752">
        <ele>75</ele>
        <time>2022-04-09T12:12:48Z</time>
      </trkpt>
      <trkpt lat="47.15098" lon="-1.63741">
        <ele>75</ele>
        <time>2022-04-09T12:12:50Z</time>
      </trkpt>
      <trkpt lat="47.15108" lon="-1.6373">
        <ele>75</ele>
        <time>2022-04-09T12:12:52Z</time>
      </trkpt>
      <trkpt lat="47.15117" lon="-1.63719">
        <ele>76</ele>
        <time>2022-04-09T12:12:54Z</time>
      </trkpt>
      <trkpt lat="47.15127" lon="-1.63709">
        <ele>76</ele>
        <time>2022-04-09T12:12:56Z</time>
      </trkpt>
      <trkpt lat="47.15136" lon="-1.63699">
        <ele>76</ele>
        <time>2022-04-09T12:12:58Z</time>
      </trkpt>
      <trkpt lat="47.15147" lon="-1.63689">
        <ele>76</ele>
        <time>2022-04-09T12:13:00Z</time>
      </trkpt>
      <trkpt lat="47.15157" lon="-1.63679">
        <ele>76</ele>
        <time>2022-04-09T12:13:02Z</time>
      </trkpt>
      <trkpt lat="47.15168" lon="-1.6367">
        <ele>76</ele>
        <time>2022-04-09T12:13:04Z</time>
      </trkpt>
      <trkpt lat="47.15178" lon="-1.63661">
        <ele>76</ele>
        <time>2022-04-09T12:13:06Z</time>
      </trkpt>
      <trkpt lat="47.15189" lon="-1.63651">
        <ele>76</ele>
        <time>2022-04-09T12:13:08Z</time>
      </trkpt>
      <trkpt lat="47.15199" lon="-1.63642">
        <ele>76</ele>
        <time>2022-04-09T12:13:10Z</time>
      </trkpt>
      <trkpt lat="47.15209" lon="-1.63633">
        <ele>75</ele>
        <time>2022-04-09T12:13:12Z</time>
      </trkpt>
      <trkpt lat="47.1522" lon="-1.63623">
        <ele>75</ele>
        <time>2022-04-09T12:13:14Z</time>
      </trkpt>
      <trkpt lat="47.1523" lon="-1.63613">
        <ele>76</ele>
        <time>2022-04-09T12:13:16Z</time>
      </trkpt>
      <trkpt lat="47.1524" lon="-1.63604">
        <ele>76</ele>
        <time>2022-04-09T12:13:18Z</time>
      </trkpt>
      <trkpt lat="47.15251" lon="-1.63594">
        <ele>76</ele>
        <time>2022-04-09T12:13:20Z</time>
      </trkpt>
      <trkpt lat="47.15261" lon="-1.63585">
        <ele>76</ele>
        <time>2022-04-09T12:13:22Z</time>
      </trkpt>
      <trkpt lat="47.15272" lon="-1.63575">
        <ele>76</ele>
        <time>2022-04-09T12:13:24Z</time>
      </trkpt>
      <trkpt lat="47.15283" lon="-1.63565">
        <ele>76</ele>
        <time>2022-04-09T12:13:26Z</time>
      </trkpt>
      <trkpt lat="47.15293" lon="-1.63556">
        <ele>76</ele>
        <time>2022-04-09T12:13:28Z</time>
      </trkpt>
      <trkpt lat="47.15304" lon="-1.63546">
        <ele>76</ele>
        <time>2022-04-09T12:13:30Z</time>
      </trkpt>
      <trkpt lat="47.15315" lon="-1.63537">
        <ele>76</ele>
        <time>2022-04-09T12:13:32Z</time>
      </trkpt>
      <trkpt lat="47.15325" lon="-1.63527">
        <ele>76</ele>
        <time>2022-04-09T12:13:34Z</time>
      </trkpt>
      <trkpt lat="47.15335" lon="-1.63518">
        <ele>76</ele>
        <time>2022-04-09T12:13:36Z</time>
      </trkpt>
      <trkpt lat="47.15346" lon="-1.63509">
        <ele>76</ele>
        <time>2022-04-09T12:13:38Z</time>
      </trkpt>
      <trkpt lat="47.15357" lon="-1.63499">
        <ele>76</ele>
        <time>2022-04-09T12:13:40Z</time>
      </trkpt>
      <trkpt lat="47.15367" lon="-1.6349">
        <ele>76</ele>
        <time>2022-04-09T12:13:42Z</time>
      </trkpt>
      <trkpt lat="47.15378" lon="-1.63481">
        <ele>76</ele>
        <time>2022-04-09T12:13:44Z</time>
      </trkpt>
      <trkpt lat="47.15388" lon="-1.63471">
        <ele>76</ele>
        <time>2022-04-09T12:13:46Z</time>
      </trkpt>
      <trkpt lat="47.15399" lon="-1.63462">
        <ele>76</ele>
        <time>2022-04-09T12:13:48Z</time>
      </trkpt>
      <trkpt lat="47.1541" lon="-1.63453">
        <ele>75</ele>
        <time>2022-04-09T12:13:50Z</time>
      </trkpt>
      <trkpt lat="47.1542" lon="-1.63443">
        <ele>75</ele>
        <time>2022-04-09T12:13:52Z</time>
      </trkpt>
      <trkpt lat="47.15431" lon="-1.63433">
        <ele>75</ele>
        <time>2022-04-09T12:13:54Z</time>
      </trkpt>
      <trkpt lat="47.15441" lon="-1.63422">
        <ele>75</ele>
        <time>2022-04-09T12:13:56Z</time>
      </trkpt>
      <trkpt lat="47.15452" lon="-1.6341">
        <ele>74</ele>
        <time>2022-04-09T12:13:58Z</time>
      </trkpt>
      <trkpt lat="47.15463" lon="-1.634">
        <ele>74</ele>
        <time>2022-04-09T12:14:00Z</time>
      </trkpt>
      <trkpt lat="47.15475" lon="-1.63392">
        <ele>74</ele>
        <time>2022-04-09T12:14:02Z</time>
      </trkpt>
      <trkpt lat="47.15487" lon="-1.63385">
        <ele>74</ele>
        <time>2022-04-09T12:14:04Z</time>
      </trkpt>
      <trkpt lat="47.15498" lon="-1.63376">
        <ele>73</ele>
        <time>2022-04-09T12:14:06Z</time>
      </trkpt>
      <trkpt lat="47.15509" lon="-1.63367">
        <ele>73</ele>
        <time>2022-04-09T12:14:08Z</time>
      </trkpt>
      <trkpt lat="47.15521" lon="-1.63357">
        <ele>73</ele>
        <time>2022-04-09T12:14:10Z</time>
      </trkpt>
      <trkpt lat="47.15533" lon="-1.63346">
        <ele>72</ele>
        <time>2022-04-09T12:14:12Z</time>
      </trkpt>
      <trkpt lat="47.15545" lon="-1.63335">
        <ele>72</ele>
        <time>2022-04-09T12:14:14Z</time>
      </trkpt>
      <trkpt lat="47.15557" lon="-1.63324">
        <ele>71</ele>
        <time>2022-04-09T12:14:16Z</time>
      </trkpt>
      <trkpt lat="47.1557" lon="-1.63313">
        <ele>70</ele>
        <time>2022-04-09T12:14:18Z</time>
      </trkpt>
      <trkpt lat="47.15583" lon="-1.63302">
        <ele>70</ele>
        <time>2022-04-09T12:14:20Z</time>
      </trkpt>
      <trkpt lat="47.15596" lon="-1.6329">
        <ele>70</ele>
        <time>2022-04-09T12:14:22Z</time>
      </trkpt>
      <trkpt lat="47.15609" lon="-1.63279">
        <ele>69</ele>
        <time>2022-04-09T12:14:24Z</time>
      </trkpt>
      <trkpt lat="47.15621" lon="-1.63268">
        <ele>69</ele>
        <time>2022-04-09T12:14:26Z</time>
      </trkpt>
      <trkpt lat="47.15633" lon="-1.63257">
        <ele>69</ele>
        <time>2022-04-09T12:14:28Z</time>
      </trkpt>
      <trkpt lat="47.15645" lon="-1.63246">
        <ele>70</ele>
        <time>2022-04-09T12:14:30Z</time>
      </trkpt>
      <trkpt lat="47.15656" lon="-1.63237">
        <ele>70</ele>
        <time>2022-04-09T12:14:32Z</time>
      </trkpt>
      <trkpt lat="47.15668" lon="-1.63226">
        <ele>70</ele>
        <time>2022-04-09T12:14:34Z</time>
      </trkpt>
      <trkpt lat="47.1568" lon="-1.63216">
        <ele>70</ele>
        <time>2022-04-09T12:14:36Z</time>
      </trkpt>
      <trkpt lat="47.15692" lon="-1.63205">
        <ele>70</ele>
        <time>2022-04-09T12:14:38Z</time>
      </trkpt>
      <trkpt lat="47.15703" lon="-1.63195">
        <ele>70</ele>
        <time>2022-04-09T12:14:40Z</time>
      </trkpt>
      <trkpt lat="47.15715" lon="-1.63185">
        <ele>70</ele>
        <time>2022-04-09T12:14:42Z</time>
      </trkpt>
      <trkpt lat="47.15726" lon="-1.63174">
        <ele>70</ele>
        <time>2022-04-09T12:14:44Z</time>
      </trkpt>
      <trkpt lat="47.15737" lon="-1.63164">
        <ele>70</ele>
        <time>2022-04-09T12:14:46Z</time>
      </trkpt>
      <trkpt lat="47.15747" lon="-1.63152">
        <ele>70</ele>
        <time>2022-04-09T12:14:48Z</time>
      </trkpt>
      <trkpt lat="47.15758" lon="-1.63144">
        <ele>69</ele>
        <time>2022-04-09T12:14:50Z</time>
      </trkpt>
      <trkpt lat="47.1577" lon="-1.63137">
        <ele>69</ele>
        <time>2022-04-09T12:14:52Z</time>
      </trkpt>
      <trkpt lat="47.15781" lon="-1.63127">
        <ele>68</ele>
        <time>2022-04-09T12:14:54Z</time>
      </trkpt>
      <trkpt lat="47.15793" lon="-1.63116">
        <ele>68</ele>
        <time>2022-04-09T12:14:56Z</time>
      </trkpt>
      <trkpt lat="47.15804" lon="-1.63106">
        <ele>68</ele>
        <time>2022-04-09T12:14:58Z</time>
      </trkpt>
      <trkpt lat="47.15816" lon="-1.63095">
        <ele>67</ele>
        <time>2022-04-09T12:15:00Z</time>
      </trkpt>
      <trkpt lat="47.15829" lon="-1.63084">
        <ele>67</ele>
        <time>2022-04-09T12:15:02Z</time>
      </trkpt>
      <trkpt lat="47.15841" lon="-1.63073">
        <ele>66</ele>
        <time>2022-04-09T12:15:04Z</time>
      </trkpt>
      <trkpt lat="47.15854" lon="-1.63062">
        <ele>66</ele>
        <time>2022-04-09T12:15:06Z</time>
      </trkpt>
      <trkpt lat="47.15866" lon="-1.63051">
        <ele>65</ele>
        <time>2022-04-09T12:15:08Z</time>
      </trkpt>
      <trkpt lat="47.15879" lon="-1.63039">
        <ele>65</ele>
        <time>2022-04-09T12:15:10Z</time>
      </trkpt>
      <trkpt lat="47.15891" lon="-1.63029">
        <ele>65</ele>
        <time>2022-04-09T12:15:12Z</time>
      </trkpt>
      <trkpt lat="47.15904" lon="-1.63017">
        <ele>65</ele>
        <time>2022-04-09T12:15:14Z</time>
      </trkpt>
      <trkpt lat="47.15916" lon="-1.63007">
        <ele>65</ele>
        <time>2022-04-09T12:15:16Z</time>
      </trkpt>
      <trkpt lat="47.15927" lon="-1.62996">
        <ele>66</ele>
        <time>2022-04-09T12:15:18Z</time>
      </trkpt>
      <trkpt lat="47.15938" lon="-1.62987">
        <ele>66</ele>
        <time>2022-04-09T12:15:20Z</time>
      </trkpt>
      <trkpt lat="47.15948" lon="-1.62978">
        <ele>67</ele>
        <time>2022-04-09T12:15:22Z</time>
      </trkpt>
      <trkpt lat="47.15958" lon="-1.62968">
        <ele>67</ele>
        <time>2022-04-09T12:15:24Z</time>
      </trkpt>
      <trkpt lat="47.15967" lon="-1.6296">
        <ele>68</ele>
        <time>2022-04-09T12:15:26Z</time>
      </trkpt>
      <trkpt lat="47.15977" lon="-1.62951">
        <ele>68</ele>
        <time>2022-04-09T12:15:28Z</time>
      </trkpt>
      <trkpt lat="47.15988" lon="-1.62942">
        <ele>68</ele>
        <time>2022-04-09T12:15:30Z</time>
      </trkpt>
      <trkpt lat="47.15998" lon="-1.62933">
        <ele>69</ele>
        <time>2022-04-09T12:15:32Z</time>
      </trkpt>
      <trkpt lat="47.16008" lon="-1.62924">
        <ele>69</ele>
        <time>2022-04-09T12:15:34Z</time>
      </trkpt>
      <trkpt lat="47.16017" lon="-1.62916">
        <ele>70</ele>
        <time>2022-04-09T12:15:36Z</time>
      </trkpt>
      <trkpt lat="47.16027" lon="-1.62907">
        <ele>70</ele>
        <time>2022-04-09T12:15:38Z</time>
      </trkpt>
      <trkpt lat="47.16037" lon="-1.62899">
        <ele>71</ele>
        <time>2022-04-09T12:15:40Z</time>
      </trkpt>
      <trkpt lat="47.16047" lon="-1.6289">
        <ele>71</ele>
        <time>2022-04-09T12:15:42Z</time>
      </trkpt>
      <trkpt lat="47.16056" lon="-1.62881">
        <ele>72</ele>
        <time>2022-04-09T12:15:44Z</time>
      </trkpt>
      <trkpt lat="47.16066" lon="-1.62872">
        <ele>72</ele>
        <time>2022-04-09T12:15:46Z</time>
      </trkpt>
      <trkpt lat="47.16076" lon="-1.62864">
        <ele>72</ele>
        <time>2022-04-09T12:15:48Z</time>
      </trkpt>
      <trkpt lat="47.16086" lon="-1.62856">
        <ele>73</ele>
        <time>2022-04-09T12:15:50Z</time>
      </trkpt>
      <trkpt lat="47.16096" lon="-1.62847">
        <ele>73</ele>
        <time>2022-04-09T12:15:52Z</time>
      </trkpt>
      <trkpt lat="47.16106" lon="-1.62838">
        <ele>73</ele>
        <time>2022-04-09T12:15:54Z</time>
      </trkpt>
      <trkpt lat="47.16116" lon="-1.6283">
        <ele>73</ele>
        <time>2022-04-09T12:15:56Z</time>
      </trkpt>
      <trkpt lat="47.16125" lon="-1.62821">
        <ele>74</ele>
        <time>2022-04-09T12:15:58Z</time>
      </trkpt>
      <trkpt lat="47.16135" lon="-1.62813">
        <ele>74</ele>
        <time>2022-04-09T12:16:00Z</time>
      </trkpt>
      <trkpt lat="47.16144" lon="-1.62805">
        <ele>75</ele>
        <time>2022-04-09T12:16:02Z</time>
      </trkpt>
      <trkpt lat="47.16154" lon="-1.62796">
        <ele>74</ele>
        <time>2022-04-09T12:16:04Z</time>
      </trkpt>
      <trkpt lat="47.16164" lon="-1.62788">
        <ele>74</ele>
        <time>2022-04-09T12:16:06Z</time>
      </trkpt>
      <trkpt lat="47.16173" lon="-1.62779">
        <ele>75</ele>
        <time>2022-04-09T12:16:08Z</time>
      </trkpt>
      <trkpt lat="47.16182" lon="-1.6277">
        <ele>75</ele>
        <time>2022-04-09T12:16:10Z</time>
      </trkpt>
      <trkpt lat="47.16192" lon="-1.6276">
        <ele>75</ele>
        <time>2022-04-09T12:16:12Z</time>
      </trkpt>
      <trkpt lat="47.16201" lon="-1.62752">
        <ele>75</ele>
        <time>2022-04-09T12:16:14Z</time>
      </trkpt>
      <trkpt lat="47.16211" lon="-1.62744">
        <ele>76</ele>
        <time>2022-04-09T12:16:16Z</time>
      </trkpt>
      <trkpt lat="47.1622" lon="-1.62736">
        <ele>76</ele>
        <time>2022-04-09T12:16:18Z</time>
      </trkpt>
      <trkpt lat="47.16229" lon="-1.62728">
        <ele>77</ele>
        <time>2022-04-09T12:16:20Z</time>
      </trkpt>
      <trkpt lat="47.16239" lon="-1.6272">
        <ele>77</ele>
        <time>2022-04-09T12:16:22Z</time>
      </trkpt>
      <trkpt lat="47.16248" lon="-1.62712">
        <ele>78</ele>
        <time>2022-04-09T12:16:24Z</time>
      </trkpt>
      <trkpt lat="47.16258" lon="-1.62705">
        <ele>78</ele>
        <time>2022-04-09T12:16:26Z</time>
      </trkpt>
      <trkpt lat="47.16267" lon="-1.62697">
        <ele>78</ele>
        <time>2022-04-09T12:16:28Z</time>
      </trkpt>
      <trkpt lat="47.16275" lon="-1.6269">
        <ele>78</ele>
        <time>2022-04-09T12:16:30Z</time>
      </trkpt>
      <trkpt lat="47.16278" lon="-1.62671">
        <ele>78</ele>
        <time>2022-04-09T12:16:33Z</time>
      </trkpt>
      <trkpt lat="47.16278" lon="-1.62656">
        <ele>78</ele>
        <time>2022-04-09T12:16:35Z</time>
      </trkpt>
      <trkpt lat="47.1628" lon="-1.6264">
        <ele>78</ele>
        <time>2022-04-09T12:16:37Z</time>
      </trkpt>
      <trkpt lat="47.16283" lon="-1.62624">
        <ele>78</ele>
        <time>2022-04-09T12:16:39Z</time>
      </trkpt>
      <trkpt lat="47.16286" lon="-1.62609">
        <ele>78</ele>
        <time>2022-04-09T12:16:41Z</time>
      </trkpt>
      <trkpt lat="47.16291" lon="-1.62595">
        <ele>78</ele>
        <time>2022-04-09T12:16:43Z</time>
      </trkpt>
      <trkpt lat="47.16297" lon="-1.62582">
        <ele>78</ele>
        <time>2022-04-09T12:16:45Z</time>
      </trkpt>
      <trkpt lat="47.16305" lon="-1.62573">
        <ele>78</ele>
        <time>2022-04-09T12:16:47Z</time>
      </trkpt>
      <trkpt lat="47.16316" lon="-1.62567">
        <ele>78</ele>
        <time>2022-04-09T12:16:49Z</time>
      </trkpt>
      <trkpt lat="47.16327" lon="-1.62567">
        <ele>77</ele>
        <time>2022-04-09T12:16:51Z</time>
      </trkpt>
      <trkpt lat="47.16337" lon="-1.62571">
        <ele>77</ele>
        <time>2022-04-09T12:16:53Z</time>
      </trkpt>
      <trkpt lat="47.16348" lon="-1.62576">
        <ele>78</ele>
        <time>2022-04-09T12:16:55Z</time>
      </trkpt>
      <trkpt lat="47.16358" lon="-1.62579">
        <ele>78</ele>
        <time>2022-04-09T12:16:57Z</time>
      </trkpt>
      <trkpt lat="47.16368" lon="-1.6258">
        <ele>78</ele>
        <time>2022-04-09T12:16:59Z</time>
      </trkpt>
      <trkpt lat="47.16379" lon="-1.62581">
        <ele>79</ele>
        <time>2022-04-09T12:17:01Z</time>
      </trkpt>
      <trkpt lat="47.16389" lon="-1.62577">
        <ele>79</ele>
        <time>2022-04-09T12:17:03Z</time>
      </trkpt>
      <trkpt lat="47.164" lon="-1.6257">
        <ele>79</ele>
        <time>2022-04-09T12:17:05Z</time>
      </trkpt>
      <trkpt lat="47.16411" lon="-1.62561">
        <ele>80</ele>
        <time>2022-04-09T12:17:07Z</time>
      </trkpt>
      <trkpt lat="47.1642" lon="-1.6255">
        <ele>80</ele>
        <time>2022-04-09T12:17:09Z</time>
      </trkpt>
      <trkpt lat="47.1643" lon="-1.62543">
        <ele>80</ele>
        <time>2022-04-09T12:17:11Z</time>
      </trkpt>
      <trkpt lat="47.1644" lon="-1.62537">
        <ele>80</ele>
        <time>2022-04-09T12:17:13Z</time>
      </trkpt>
      <trkpt lat="47.16451" lon="-1.62539">
        <ele>80</ele>
        <time>2022-04-09T12:17:15Z</time>
      </trkpt>
      <trkpt lat="47.16462" lon="-1.62542">
        <ele>79</ele>
        <time>2022-04-09T12:17:17Z</time>
      </trkpt>
      <trkpt lat="47.16472" lon="-1.62545">
        <ele>79</ele>
        <time>2022-04-09T12:17:19Z</time>
      </trkpt>
      <trkpt lat="47.16483" lon="-1.62549">
        <ele>79</ele>
        <time>2022-04-09T12:17:21Z</time>
      </trkpt>
      <trkpt lat="47.16494" lon="-1.62552">
        <ele>79</ele>
        <time>2022-04-09T12:17:23Z</time>
      </trkpt>
      <trkpt lat="47.16505" lon="-1.62556">
        <ele>78</ele>
        <time>2022-04-09T12:17:25Z</time>
      </trkpt>
      <trkpt lat="47.16516" lon="-1.6256">
        <ele>78</ele>
        <time>2022-04-09T12:17:27Z</time>
      </trkpt>
      <trkpt lat="47.16528" lon="-1.62562">
        <ele>78</ele>
        <time>2022-04-09T12:17:29Z</time>
      </trkpt>
      <trkpt lat="47.16538" lon="-1.62559">
        <ele>78</ele>
        <time>2022-04-09T12:17:31Z</time>
      </trkpt>
      <trkpt lat="47.16548" lon="-1.62549">
        <ele>78</ele>
        <time>2022-04-09T12:17:33Z</time>
      </trkpt>
      <trkpt lat="47.16557" lon="-1.62538">
        <ele>78</ele>
        <time>2022-04-09T12:17:35Z</time>
      </trkpt>
      <trkpt lat="47.16564" lon="-1.62525">
        <ele>78</ele>
        <time>2022-04-09T12:17:37Z</time>
      </trkpt>
      <trkpt lat="47.16571" lon="-1.6251">
        <ele>78</ele>
        <time>2022-04-09T12:17:39Z</time>
      </trkpt>
      <trkpt lat="47.16578" lon="-1.62493">
        <ele>78</ele>
        <time>2022-04-09T12:17:41Z</time>
      </trkpt>
      <trkpt lat="47.16584" lon="-1.62476">
        <ele>77</ele>
        <time>2022-04-09T12:17:43Z</time>
      </trkpt>
      <trkpt lat="47.16591" lon="-1.6246">
        <ele>77</ele>
        <time>2022-04-09T12:17:45Z</time>
      </trkpt>
      <trkpt lat="47.16599" lon="-1.62443">
        <ele>76</ele>
        <time>2022-04-09T12:17:47Z</time>
      </trkpt>
      <trkpt lat="47.16606" lon="-1.62427">
        <ele>76</ele>
        <time>2022-04-09T12:17:49Z</time>
      </trkpt>
      <trkpt lat="47.16615" lon="-1.62411">
        <ele>75</ele>
        <time>2022-04-09T12:17:51Z</time>
      </trkpt>
      <trkpt lat="47.16623" lon="-1.62396">
        <ele>74</ele>
        <time>2022-04-09T12:17:53Z</time>
      </trkpt>
      <trkpt lat="47.16633" lon="-1.62383">
        <ele>74</ele>
        <time>2022-04-09T12:17:55Z</time>
      </trkpt>
      <trkpt lat="47.16644" lon="-1.62371">
        <ele>74</ele>
        <time>2022-04-09T12:17:57Z</time>
      </trkpt>
      <trkpt lat="47.16656" lon="-1.62361">
        <ele>74</ele>
        <time>2022-04-09T12:17:59Z</time>
      </trkpt>
      <trkpt lat="47.1667" lon="-1.62356">
        <ele>73</ele>
        <time>2022-04-09T12:18:01Z</time>
      </trkpt>
      <trkpt lat="47.16684" lon="-1.62358">
        <ele>73</ele>
        <time>2022-04-09T12:18:03Z</time>
      </trkpt>
      <trkpt lat="47.16696" lon="-1.62365">
        <ele>73</ele>
        <time>2022-04-09T12:18:05Z</time>
      </trkpt>
      <trkpt lat="47.16707" lon="-1.62376">
        <ele>73</ele>
        <time>2022-04-09T12:18:07Z</time>
      </trkpt>
      <trkpt lat="47.16715" lon="-1.6239">
        <ele>74</ele>
        <time>2022-04-09T12:18:09Z</time>
      </trkpt>
      <trkpt lat="47.16722" lon="-1.62402">
        <ele>74</ele>
        <time>2022-04-09T12:18:11Z</time>
      </trkpt>
      <trkpt lat="47.16729" lon="-1.62412">
        <ele>73</ele>
        <time>2022-04-09T12:18:13Z</time>
      </trkpt>
      <trkpt lat="47.1673" lon="-1.62427">
        <ele>73</ele>
        <time>2022-04-09T12:18:15Z</time>
      </trkpt>
      <trkpt lat="47.16726" lon="-1.62443">
        <ele>73</ele>
        <time>2022-04-09T12:18:17Z</time>
      </trkpt>
      <trkpt lat="47.16722" lon="-1.62458">
        <ele>72</ele>
        <time>2022-04-09T12:18:19Z</time>
      </trkpt>
      <trkpt lat="47.16718" lon="-1.62475">
        <ele>72</ele>
        <time>2022-04-09T12:18:21Z</time>
      </trkpt>
      <trkpt lat="47.16717" lon="-1.62491">
        <ele>71</ele>
        <time>2022-04-09T12:18:23Z</time>
      </trkpt>
      <trkpt lat="47.16727" lon="-1.62496">
        <ele>71</ele>
        <time>2022-04-09T12:18:25Z</time>
      </trkpt>
      <trkpt lat="47.16738" lon="-1.62501">
        <ele>72</ele>
        <time>2022-04-09T12:18:27Z</time>
      </trkpt>
      <trkpt lat="47.16748" lon="-1.62506">
        <ele>72</ele>
        <time>2022-04-09T12:18:29Z</time>
      </trkpt>
      <trkpt lat="47.16758" lon="-1.6251">
        <ele>72</ele>
        <time>2022-04-09T12:18:31Z</time>
      </trkpt>
      <trkpt lat="47.16768" lon="-1.62516">
        <ele>73</ele>
        <time>2022-04-09T12:18:33Z</time>
      </trkpt>
      <trkpt lat="47.16777" lon="-1.62523">
        <ele>73</ele>
        <time>2022-04-09T12:18:35Z</time>
      </trkpt>
      <trkpt lat="47.16786" lon="-1.62529">
        <ele>73</ele>
        <time>2022-04-09T12:18:37Z</time>
      </trkpt>
      <trkpt lat="47.16797" lon="-1.62535">
        <ele>74</ele>
        <time>2022-04-09T12:18:40Z</time>
      </trkpt>
      <trkpt lat="47.16806" lon="-1.62541">
        <ele>74</ele>
        <time>2022-04-09T12:18:43Z</time>
      </trkpt>
      <trkpt lat="47.16795" lon="-1.62545">
        <ele>74</ele>
        <time>2022-04-09T12:18:49Z</time>
      </trkpt>
      <trkpt lat="47.16791" lon="-1.62559">
        <ele>74</ele>
        <time>2022-04-09T12:18:52Z</time>
      </trkpt>
      <trkpt lat="47.16788" lon="-1.62573">
        <ele>75</ele>
        <time>2022-04-09T12:18:55Z</time>
      </trkpt>
      <trkpt lat="47.16784" lon="-1.62586">
        <ele>75</ele>
        <time>2022-04-09T12:18:58Z</time>
      </trkpt>
      <trkpt lat="47.16784" lon="-1.62593">
        <ele>76</ele>
        <time>2022-04-09T12:20:59Z</time>
      </trkpt>
      <trkpt lat="47.16784" lon="-1.62593">
        <ele>76</ele>
        <time>2022-04-09T12:23:00Z</time>
      </trkpt>
      <trkpt lat="47.16784" lon="-1.62593">
        <ele>76</ele>
        <time>2022-04-09T12:25:01Z</time>
      </trkpt>
      <trkpt lat="47.16784" lon="-1.62593">
        <ele>76</ele>
        <time>2022-04-09T12:27:02Z</time>
      </trkpt>
      <trkpt lat="47.16786" lon="-1.62589">
        <ele>76</ele>
        <time>2022-04-09T12:29:03Z</time>
      </trkpt>
    </trkseg>
  </trk>
</gpx>